# Wetter Temperatur Luftdruck Luftfeuchtigkeit Sichtweite Windgeschwindigkeit Windrichtung Zeit
1 Clear 13 1025 41 10000 2.57 100 16:36 01.02.2023
2 Clear 11 1026 48 10000 2.57 70 14:21 01.02.2023
3 Clear 11 1026 48 10000 2.57 70 14:21 01.02.2023
4 Clear 9 1028 55 10000 2.57 60 13:19 01.02.2023
5 Clear 8 1028 59 10000 3.09 60 12:26 01.02.2023
6 Clear 5 1028 64 10000 4.12 40 10:46 01.02.2023
7 Clear 1 1011 75 10000 2.24 19 08:26 01.02.2023
8 Clear 4 1007 67 10000 1.54 340 22:59 31.01.2023
9 Clear 5 1026 59 10000 1.54 270 21:20 31.01.2023
10 Clear 7 1027 54 10000 2.06 220 19:24 31.01.2023
11 Clear 11 1027 37 10000 1.54 250 17:41 31.01.2023
12 Clear 10 1026 41 10000 1.03 0 15:36 31.01.2023
13 Clear 10 1027 42 10000 1.03 0 15:18 31.01.2023
14 Clear 7 1028 52 10000 1.03 0 13:34 31.01.2023
15 Clear 2 1029 66 10000 1.34 59 11:28 31.01.2023
16 Clear 2 1029 67 10000 1.03 0 10:25 31.01.2023
17 Clear 0 1014 78 10000 1.03 350 09:44 31.01.2023
18 Clear -2 1014 81 10000 1.34 51 08:36 31.01.2023
19 Clear -2 1014 80 10000 1.03 360 07:36 31.01.2023
20 Clear 0 1009 78 10000 1.03 360 03:34 31.01.2023
21 Clear 3 1013 68 10000 2.06 230 23:27 30.01.2023
22 Clear 3 1012 65 10000 1.54 230 22:50 30.01.2023
23 Clear 3 1028 62 10000 1.54 250 21:43 30.01.2023
24 Clear 3 1027 62 10000 1.03 250 20:44 30.01.2023
25 Clear 8 1027 45 10000 1.03 250 18:26 30.01.2023
26 Clear 9 1027 44 10000 1.54 240 17:25 30.01.2023
27 Clear 7 1027 52 10000 1.54 150 14:47 30.01.2023
28 Clear 6 1028 58 10000 1.34 198 13:55 30.01.2023
29 Clear 4 1029 61 10000 1.54 40 12:18 30.01.2023
30 Clear 0 1029 70 10000 2.57 50 10:21 30.01.2023
31 Clouds 0 1029 75 10000 2.24 82 09:53 30.01.2023
32 Clear -1 1013 79 10000 2.06 360 08:23 30.01.2023
33 Clear -1 1010 77 10000 1.54 10 04:32 30.01.2023
34 Clear 1 1009 66 10000 3.09 320 23:35 29.01.2023
35 Clear 2 1006 66 10000 1.34 90 22:59 29.01.2023
36 Clear 2 1009 64 10000 2.06 40 22:31 29.01.2023
37 Clear 4 1008 58 10000 2.06 50 20:52 29.01.2023
38 Clear 4 1008 56 10000 2.06 50 20:19 29.01.2023
39 Clear 5 1009 54 10000 2.06 70 19:32 29.01.2023
40 Clear 7 1023 47 10000 3.6 80 17:55 29.01.2023
41 Clear 7 1022 47 10000 4.63 50 16:43 29.01.2023
42 Clear 7 1022 49 10000 4.63 40 16:19 29.01.2023
43 Clear 5 1023 51 10000 7.2 40 14:20 29.01.2023
44 Clear 4 1024 56 10000 8.75 40 12:59 29.01.2023
45 Clear 4 1024 57 10000 6.69 50 12:36 29.01.2023
46 Clear 3 1025 60 10000 5.14 40 12:18 29.01.2023
47 Clear 2 1025 62 10000 4.12 50 11:36 29.01.2023
48 Clear 1 1024 65 10000 2.57 50 10:45 29.01.2023
49 Clear -2 1008 76 10000 2.06 350 08:30 29.01.2023
50 Clear -1 1005 73 10000 1.54 50 04:44 29.01.2023
51 Clear 2 1005 63 10000 1.54 350 23:51 28.01.2023
52 Clear 5 1020 54 10000 5.14 360 20:53 28.01.2023
53 Clear 6 1019 50 10000 5.14 30 19:56 28.01.2023
54 Clouds 7 1019 45 10000 6.69 360 18:53 28.01.2023
55 Clouds 9 1018 39 10000 5.14 360 17:42 28.01.2023
56 Clouds 9 1018 39 10000 5.66 360 16:41 28.01.2023
57 Clouds 9 1018 39 10000 5.66 360 16:41 28.01.2023
58 Clouds 10 1018 39 10000 4.63 360 16:19 28.01.2023
59 Clouds 9 1018 41 10000 4.12 360 15:36 28.01.2023
60 Clouds 8 1018 44 10000 5.14 360 13:50 28.01.2023
61 Clear 6 1019 51 10000 7.72 360 12:28 28.01.2023
62 Clear 2 1019 66 10000 2.57 140 10:35 28.01.2023
63 Clear 0 1019 75 10000 1.54 150 09:49 28.01.2023
64 Clear 1 1017 71 10000 1.79 51 04:38 28.01.2023
65 Clear 2 1018 64 10000 3.6 360 00:30 28.01.2023
66 Clouds 3 1018 59 10000 3.6 10 23:35 27.01.2023
67 Clouds 5 1017 47 10000 9.26 10 19:48 27.01.2023
68 Clouds 6 1016 45 10000 9.26 350 17:58 27.01.2023
69 Clouds 7 1016 46 10000 9.77 350 17:21 27.01.2023
70 Clouds 7 1015 43 10000 9.77 360 16:58 27.01.2023
71 Clouds 7 1015 42 10000 10.8 20 15:49 27.01.2023
72 Clouds 8 1015 45 10000 10.8 20 14:28 27.01.2023
73 Clouds 8 1016 44 10000 10.8 10 13:39 27.01.2023
74 Clear 7 1017 53 10000 6.17 360 11:51 27.01.2023
75 Clear 1 1016 76 10000 2.06 220 08:35 27.01.2023
76 Clear 3 1017 67 10000 3.09 360 00:45 27.01.2023
77 Clear 5 1017 60 10000 4.63 340 22:45 26.01.2023
78 Clear 5 1017 58 10000 5.14 340 21:21 26.01.2023
79 Clear 6 1017 56 10000 5.66 350 20:34 26.01.2023
80 Clouds 8 1016 46 10000 5.14 30 18:20 26.01.2023
81 Clouds 9 1015 42 10000 5.14 360 16:59 26.01.2023
82 Clouds 9 1015 43 10000 5.14 10 16:26 26.01.2023
83 Clouds 9 1015 43 10000 5.66 10 15:46 26.01.2023
84 Clouds 9 1016 43 10000 4.63 10 15:26 26.01.2023
85 Clouds 8 1017 45 10000 6.17 10 13:58 26.01.2023
86 Clouds 8 1018 49 10000 6.69 360 12:43 26.01.2023
87 Clouds 6 1019 61 10000 5.14 350 11:25 26.01.2023
88 Clouds 4 1019 66 10000 2.57 290 10:27 26.01.2023
89 Clouds 3 1019 72 10000 2.06 360 09:44 26.01.2023
90 Clear 2 1019 74 10000 3.09 300 08:25 26.01.2023
91 Clear 3 1008 65 10000 3.09 20 23:58 25.01.2023
92 Clear 3 1008 66 10000 4.12 340 23:37 25.01.2023
93 Clear 4 1008 62 10000 3.6 360 21:56 25.01.2023
94 Clear 5 1004 60 10000 2.57 340 21:20 25.01.2023
95 Clear 7 1024 49 10000 2.57 260 18:57 25.01.2023
96 Clear 10 1024 39 10000 2.06 250 18:21 25.01.2023
97 Clear 9 1024 43 10000 3.09 320 15:44 25.01.2023
98 Clear 6 1026 56 10000 4.12 50 12:58 25.01.2023
99 Clear 3 1027 64 10000 4.63 40 11:20 25.01.2023
100 Clear 0 1026 72 10000 4.12 40 09:45 25.01.2023
101 Clouds 0 1011 75 10000 2.57 300 07:43 25.01.2023
102 Clear 1 1008 72 10000 3.13 30 01:36 25.01.2023
103 Clear 1 1009 70 10000 2.57 50 00:23 25.01.2023
104 Clear 3 1008 63 10000 2.57 60 21:34 24.01.2023
105 Clouds 3 1007 61 10000 2.06 60 20:19 24.01.2023
106 Clouds 3 1007 61 10000 2.06 60 20:19 24.01.2023
107 Clouds 5 1009 58 10000 4.12 50 18:46 24.01.2023
108 Clouds 5 1023 55 10000 5.14 40 17:31 24.01.2023
109 Clouds 5 1023 55 10000 4.12 60 16:53 24.01.2023
110 Clouds 5 1023 55 10000 5.66 60 16:26 24.01.2023
111 Clouds 5 1023 59 10000 3.6 50 13:46 24.01.2023
112 Clouds 3 1024 65 10000 3.6 70 11:43 24.01.2023
113 Clouds 1 1006 71 10000 2.06 360 08:43 24.01.2023
114 Clouds 0 1006 71 10000 2.06 360 08:18 24.01.2023
115 Clouds 1 1008 72 10000 3.09 360 07:48 24.01.2023
116 Clear 1 1005 70 10000 1.03 0 02:43 24.01.2023
117 Clear 2 1005 65 10000 2.57 60 00:38 24.01.2023
118 Clear 3 1021 64 10000 3.6 360 22:28 23.01.2023
119 Clouds 5 1020 60 10000 5.14 350 20:43 23.01.2023
120 Clouds 5 1020 57 10000 9.26 10 19:21 23.01.2023
121 Clouds 7 1019 46 10000 8.23 360 17:19 23.01.2023
122 Clouds 8 1019 42 10000 4.63 10 15:32 23.01.2023
123 Clear 8 1020 46 10000 1.79 179 13:56 23.01.2023
124 Clear 6 1022 50 10000 3.09 10 12:55 23.01.2023
125 Clear 5 1022 55 10000 2.06 80 11:57 23.01.2023
126 Clear 4 1023 57 10000 2.06 180 11:28 23.01.2023
127 Clear 0 1008 69 10000 4.12 350 08:25 23.01.2023
128 Clear 2 1008 60 10000 4.63 360 00:22 23.01.2023
129 Clear 3 1008 58 10000 5.14 360 22:19 22.01.2023
130 Clear 4 1008 55 10000 4.63 360 21:19 22.01.2023
131 Clear 5 1010 43 10000 4.12 350 19:58 22.01.2023
132 Clear 5 1010 43 10000 4.12 360 19:40 22.01.2023
133 Clear 6 1010 40 10000 6.17 360 18:43 22.01.2023
134 Clear 7 1024 36 10000 6.69 10 17:55 22.01.2023
135 Clear 7 1024 35 10000 7.2 10 17:24 22.01.2023
136 Clear 8 1024 30 10000 6.17 360 15:30 22.01.2023
137 Clear 8 1024 31 10000 6.17 30 14:43 22.01.2023
138 Clear 7 1024 32 10000 7.2 40 13:28 22.01.2023
139 Clear 6 1025 34 10000 3.6 30 12:32 22.01.2023
140 Clear 5 1025 39 10000 5.66 350 11:34 22.01.2023
141 Clear 1 1024 54 10000 2.06 150 09:35 22.01.2023
142 Clear 2 1007 50 10000 3.6 360 05:51 22.01.2023
143 Clear 3 1007 54 10000 3.6 360 00:40 22.01.2023
144 Clear 4 1007 52 10000 5.14 10 23:30 21.01.2023
145 Clear 5 1005 52 10000 6.69 360 21:40 21.01.2023
146 Clouds 6 1007 50 10000 5.66 10 19:46 21.01.2023
147 Clouds 10 1020 40 10000 4.12 60 16:55 21.01.2023
148 Clouds 9 1020 50 10000 4.63 50 14:24 21.01.2023
149 Clouds 9 1004 63 10000 4.63 50 12:57 21.01.2023
150 Clouds 8 1021 72 10000 2.57 100 11:42 21.01.2023
151 Clear 7 1021 73 10000 2.06 120 10:56 21.01.2023
152 Clear 4 1005 89 10000 1.54 50 08:57 21.01.2023
153 Clouds 6 1019 81 10000 1.34 58 04:32 21.01.2023
154 Clear 9 1020 64 10000 1.03 0 22:29 20.01.2023
155 Clear 9 1020 64 10000 4.12 290 21:38 20.01.2023
156 Clear 9 1019 62 10000 2.57 300 20:57 20.01.2023
157 Clear 10 1019 59 10000 4.63 310 19:45 20.01.2023
158 Clear 13 1018 51 10000 1.34 315 16:44 20.01.2023
159 Clouds 13 1018 52 10000 7.72 280 14:46 20.01.2023
160 Clouds 13 1018 54 10000 7.72 300 13:51 20.01.2023
161 Clear 10 1018 73 10000 6.69 300 10:24 20.01.2023
162 Clouds 8 1017 79 10000 5.66 280 08:55 20.01.2023
163 Clouds 9 1015 83 10000 5.14 170 05:56 20.01.2023
164 Clouds 8 1014 90 10000 8.23 240 02:31 20.01.2023
165 Clouds 7 1014 85 10000 10.8 240 22:36 19.01.2023
166 Clouds 7 1014 86 10000 10.8 240 22:36 19.01.2023
167 Clouds 7 1014 84 10000 10.29 240 21:20 19.01.2023
168 Clouds 6 1015 79 10000 9.77 240 19:29 19.01.2023
169 Clouds 8 1016 64 10000 8.75 240 17:20 19.01.2023
170 Clouds 7 1019 57 10000 8.23 240 13:47 19.01.2023
171 Clear 3 1020 68 10000 6.69 250 10:18 19.01.2023
172 Clear 2 999 69 10000 5.66 240 05:57 19.01.2023
173 Clear 4 1017 63 10000 4.63 310 22:30 18.01.2023
174 Clouds 4 1015 69 10000 3.6 300 20:20 18.01.2023
175 Clouds 3 1014 76 10000 4.63 270 19:38 18.01.2023
176 Clouds 3 1014 76 10000 4.63 270 19:20 18.01.2023
177 Clouds 7 1011 51 10000 8.75 270 15:57 18.01.2023
178 Clouds 7 1010 52 10000 8.23 310 13:59 18.01.2023
179 Clouds 5 1010 60 10000 8.23 310 11:46 18.01.2023
180 Clouds 3 1006 68 10000 10.29 280 09:28 18.01.2023
181 Clear 3 1003 63 10000 9.77 280 05:35 18.01.2023
182 Rain 4 1003 69 10000 8.75 270 00:37 18.01.2023
183 Clouds 5 1002 80 10000 9.77 260 21:27 17.01.2023
184 Clouds 7 1002 65 10000 10.8 270 19:37 17.01.2023
185 Clouds 7 1001 65 10000 12.35 280 18:48 17.01.2023
186 Clouds 8 1001 71 10000 9.77 310 17:38 17.01.2023
187 Clouds 10 1001 59 10000 10.29 260 15:26 17.01.2023
188 Clouds 10 1002 56 10000 11.83 280 14:34 17.01.2023
189 Clouds 10 1002 63 10000 5.81 261 13:31 17.01.2023
190 Clouds 10 1003 60 10000 14.4 270 11:45 17.01.2023
191 Clouds 10 1003 60 10000 14.4 270 11:45 17.01.2023
192 Clouds 9 1001 71 10000 11.32 270 09:36 17.01.2023
193 Clouds 9 1000 92 7000 10.8 240 08:20 17.01.2023
194 Clouds 9 1001 92 10000 9.77 240 05:53 17.01.2023
195 Clouds 9 1005 89 9000 11.83 230 00:58 17.01.2023
196 Clouds 9 1005 87 10000 13.38 230 23:57 16.01.2023
197 Clouds 10 1006 89 10000 11.32 230 22:26 16.01.2023
198 Clouds 9 1007 91 8000 11.32 230 20:50 16.01.2023
199 Drizzle 10 1009 83 10000 11.32 230 19:45 16.01.2023
200 Drizzle 10 1009 82 10000 12.86 230 18:56 16.01.2023
201 Clouds 10 1009 80 10000 13.89 230 18:28 16.01.2023
202 Clouds 10 1009 81 10000 14.4 240 17:57 16.01.2023
203 Clouds 10 1010 80 10000 12.86 250 17:19 16.01.2023
204 Clouds 8 1013 84 10000 11.83 240 13:40 16.01.2023
205 Clouds 6 1015 91 10000 11.32 250 11:58 16.01.2023
206 Clouds 5 1015 89 10000 9.77 220 10:21 16.01.2023
207 Clouds 4 1016 80 10000 5.66 200 07:36 16.01.2023
208 Clear 6 1006 66 10000 7.2 290 22:42 15.01.2023
209 Clear 7 1006 62 10000 6.69 280 20:50 15.01.2023
210 Clear 6 1007 62 10000 6.69 280 20:25 15.01.2023
211 Clouds 8 1007 58 10000 4.12 260 18:56 15.01.2023
212 Clouds 10 1022 53 10000 7.2 300 16:48 15.01.2023
213 Clouds 8 1022 91 10000 5.66 250 13:30 15.01.2023
214 Clouds 7 1008 96 6000 6.17 230 12:19 15.01.2023
215 Mist 6 1008 98 4000 6.69 240 11:28 15.01.2023
216 Fog 5 1008 97 200 4.12 230 10:21 15.01.2023
217 Fog 5 1008 97 200 2.06 250 07:38 15.01.2023
218 Fog 5 1024 92 400 2.06 290 23:30 14.01.2023
219 Mist 6 1024 89 4900 1.54 200 22:43 14.01.2023
220 Mist 6 1024 90 7000 1.79 163 21:36 14.01.2023
221 Mist 6 1024 88 7000 1.03 0 21:36 14.01.2023
222 Mist 6 1025 89 7000 1.34 163 21:18 14.01.2023
223 Mist 6 1024 89 7000 1.34 163 21:18 14.01.2023
224 Clear 7 1025 88 10000 2.24 187 20:40 14.01.2023
225 Clear 7 1025 88 10000 1.54 200 20:21 14.01.2023
226 Clear 11 1010 75 10000 2.57 180 17:49 14.01.2023
227 Clear 11 1025 70 10000 2.06 160 15:31 14.01.2023
228 Clear 11 1025 73 10000 1.54 150 14:56 14.01.2023
229 Clear 9 1026 75 8000 1.34 171 13:59 14.01.2023
230 Clear 8 1028 79 6000 1.03 0 12:49 14.01.2023
231 Fog 4 1028 90 5000 0.51 0 10:48 14.01.2023
232 Fog 2 1013 95 650 1.03 150 08:20 14.01.2023
233 Clouds 5 1012 91 7000 0.51 90 00:56 14.01.2023
234 Clouds 6 1013 88 8000 1.54 270 22:59 13.01.2023
235 Clouds 6 1013 87 9000 1.54 270 22:41 13.01.2023
236 Clear 7 1012 86 10000 1.79 315 21:57 13.01.2023
237 Clear 8 1012 81 10000 2.06 270 20:33 13.01.2023
238 Clear 9 1014 78 10000 2.06 210 19:27 13.01.2023
239 Clear 11 1028 64 10000 2.57 230 16:58 13.01.2023
240 Clear 10 1028 65 10000 1.03 0 14:53 13.01.2023
241 Clear 7 1030 80 10000 1.03 0 12:24 13.01.2023
242 Clouds 5 1028 92 7000 2.06 90 10:41 13.01.2023
243 Clouds 5 1029 92 7000 2.06 90 10:22 13.01.2023
244 Mist 4 1028 94 4000 2.06 360 09:41 13.01.2023
245 Mist 4 1027 96 5000 2.06 50 08:51 13.01.2023
246 Mist 4 1027 95 3400 1.54 70 06:56 13.01.2023
247 Fog 4 1027 96 350 1.03 10 05:47 13.01.2023
248 Fog 4 1027 94 200 1.54 360 01:42 13.01.2023
249 Clouds 6 1028 87 9000 1.54 150 22:48 12.01.2023
250 Clear 7 1028 86 10000 2.06 140 21:49 12.01.2023
251 Clear 7 1027 81 10000 2.06 190 20:48 12.01.2023
252 Clear 10 1028 73 10000 3.09 180 18:26 12.01.2023
253 Clear 11 1028 66 10000 3.09 220 16:59 12.01.2023
254 Clear 10 1028 65 10000 2.06 200 14:55 12.01.2023
255 Clear 10 1029 66 10000 1.54 170 14:26 12.01.2023
256 Clear 9 1029 69 10000 1.03 0 13:49 12.01.2023
257 Clear 7 1031 79 10000 1.03 0 11:57 12.01.2023
258 Fog 4 1031 85 10000 1.03 130 10:24 12.01.2023
259 Fog 2 1030 95 10000 4.12 340 07:26 12.01.2023
260 Mist 5 1031 93 4700 2.06 10 00:31 12.01.2023
261 Mist 6 1031 93 6000 2.06 320 23:55 11.01.2023
262 Mist 6 1031 93 6000 1.54 10 23:36 11.01.2023
263 Mist 6 1031 93 6000 1.54 10 23:18 11.01.2023
264 Clouds 7 1014 92 10000 0.51 0 21:22 11.01.2023
265 Clear 8 1014 90 10000 2.06 80 18:51 11.01.2023
266 Clouds 9 1014 88 10000 3.09 80 17:31 11.01.2023
267 Clouds 9 1013 89 10000 1.03 0 15:38 11.01.2023
268 Clouds 8 1028 92 6000 2.57 300 13:57 11.01.2023
269 Clouds 8 1014 94 10000 1.54 230 12:33 11.01.2023
270 Mist 8 1014 95 3500 1.54 250 11:24 11.01.2023
271 Fog 7 1028 96 900 1.54 230 09:29 11.01.2023
272 Drizzle 7 1013 95 3000 2.06 290 07:30 11.01.2023
273 Mist 7 1010 96 2300 3.09 270 06:24 11.01.2023
274 Clouds 7 1012 94 10000 2.57 240 23:45 10.01.2023
275 Clouds 7 1012 94 10000 4.12 250 22:19 10.01.2023
276 Clouds 8 1012 94 10000 4.12 240 21:20 10.01.2023
277 Clear 8 1029 86 10000 4.12 220 19:54 10.01.2023
278 Clear 9 1014 85 10000 4.12 220 19:21 10.01.2023
279 Clear 10 1014 81 10000 3.6 240 18:31 10.01.2023
280 Clear 11 1028 75 10000 3.09 170 17:20 10.01.2023
281 Clear 11 1028 72 10000 2.06 170 15:33 10.01.2023
282 Clear 10 1029 70 10000 2.06 150 14:47 10.01.2023
283 Clouds 9 1030 74 10000 1.03 0 13:25 10.01.2023
284 Clouds 5 1030 78 10000 1.54 60 10:36 10.01.2023
285 Clear 3 1015 86 10000 1.54 10 08:37 10.01.2023
286 Clear 3 1015 86 10000 1.03 360 07:56 10.01.2023
287 Clear 3 1015 87 10000 1.03 0 07:24 10.01.2023
288 Clear 6 1011 76 10000 1.03 10 00:29 10.01.2023
289 Clear 8 1011 70 10000 1.34 313 21:58 09.01.2023
290 Clear 8 1027 66 10000 3.09 290 20:55 09.01.2023
291 Clear 9 1027 64 10000 2.57 310 20:18 09.01.2023
292 Clouds 11 1011 57 10000 4.12 290 18:30 09.01.2023
293 Clouds 12 1025 52 10000 4.12 290 17:49 09.01.2023
294 Clouds 13 1025 49 10000 6.69 300 16:34 09.01.2023
295 Clouds 13 1024 49 10000 6.69 280 15:36 09.01.2023
296 Clouds 13 1024 50 10000 4.63 310 14:59 09.01.2023
297 Clouds 13 1024 50 10000 4.63 310 14:59 09.01.2023
298 Clouds 12 1024 50 10000 5.66 280 14:41 09.01.2023
299 Clouds 12 1024 54 10000 8.23 280 12:54 09.01.2023
300 Clouds 11 1024 59 10000 8.75 290 11:52 09.01.2023
301 Clouds 11 1023 62 10000 9.26 270 11:19 09.01.2023
302 Clear 11 1003 82 10000 6.69 270 06:58 09.01.2023
303 Clouds 12 1018 95 10000 4.63 250 02:55 09.01.2023
304 Clouds 12 1018 95 10000 6.17 250 01:48 09.01.2023
305 Clouds 12 1017 94 10000 6.69 240 22:29 08.01.2023
306 Rain 12 1016 93 8000 8.23 250 21:22 08.01.2023
307 Clouds 12 1016 94 2700 10.8 250 20:37 08.01.2023
308 Drizzle 13 1014 93 10000 11.32 230 18:51 08.01.2023
309 Drizzle 13 1014 92 10000 9.77 230 17:23 08.01.2023
310 Drizzle 13 1014 93 10000 9.26 230 16:46 08.01.2023
311 Drizzle 13 1014 92 10000 10.8 240 15:36 08.01.2023
312 Drizzle 13 1015 92 10000 10.8 230 13:58 08.01.2023
313 Drizzle 12 1015 92 10000 9.77 230 13:31 08.01.2023
314 Drizzle 12 1015 93 10000 10.29 230 12:54 08.01.2023
315 Drizzle 10 1016 95 9000 9.26 230 10:52 08.01.2023
316 Drizzle 10 1016 95 3900 4.63 200 09:36 08.01.2023
317 Rain 10 1016 94 10000 6.17 230 07:49 08.01.2023
318 Mist 8 1020 96 1100 1.79 215 00:30 08.01.2023
319 Mist 7 1020 96 1300 0.51 0 22:48 07.01.2023
320 Mist 7 1020 96 1300 0.51 0 22:48 07.01.2023
321 Mist 7 1004 95 1400 0.89 178 22:24 07.01.2023
322 Mist 7 1004 95 1800 1.54 340 21:49 07.01.2023
323 Mist 7 1005 94 2500 2.06 340 20:48 07.01.2023
324 Mist 7 1005 93 2500 2.06 340 20:24 07.01.2023
325 Mist 7 1005 91 4800 1.54 340 18:52 07.01.2023
326 Drizzle 7 1005 90 6000 1.54 180 17:53 07.01.2023
327 Drizzle 7 1005 91 6000 2.06 190 17:33 07.01.2023
328 Mist 6 1022 89 3000 2.06 340 16:37 07.01.2023
329 Mist 6 1006 89 8000 2.06 10 15:50 07.01.2023
330 Mist 6 1006 89 8000 2.06 10 15:29 07.01.2023
331 Mist 6 1023 88 6000 1.54 110 14:30 07.01.2023
332 Mist 5 1024 90 5000 1.54 100 13:54 07.01.2023
333 Mist 5 1008 92 5000 1.03 0 13:26 07.01.2023
334 Mist 4 1009 95 4000 2.06 330 12:23 07.01.2023
335 Mist 4 1025 94 4000 2.06 350 11:50 07.01.2023
336 Mist 3 1025 95 3300 2.24 31 10:25 07.01.2023
337 Fog 3 1025 96 900 1.54 360 08:38 07.01.2023
338 Mist 3 1025 96 4800 2.06 360 07:45 07.01.2023
339 Fog 3 1024 96 900 0.89 163 07:19 07.01.2023
340 Fog 3 1001 94 150 1.79 205 02:49 07.01.2023
341 Clear 5 1008 85 10000 1.54 200 22:24 06.01.2023
342 Clear 6 1009 83 10000 2.06 170 22:00 06.01.2023
343 Clear 6 1009 80 10000 2.57 180 21:26 06.01.2023
344 Clear 7 1025 75 10000 2.06 180 19:58 06.01.2023
345 Clear 8 1008 73 10000 2.57 160 19:40 06.01.2023
346 Clear 8 1008 71 10000 2.57 170 19:22 06.01.2023
347 Clear 9 1024 67 10000 2.57 170 18:42 06.01.2023
348 Clear 11 1024 59 10000 2.57 200 17:21 06.01.2023
349 Clear 11 1024 57 10000 2.57 160 16:32 06.01.2023
350 Clear 11 1024 59 10000 2.57 160 15:56 06.01.2023
351 Clear 11 1024 61 10000 2.06 190 15:38 06.01.2023
352 Clear 10 1025 63 10000 2.06 180 14:52 06.01.2023
353 Clear 8 1026 68 10000 0.51 210 12:42 06.01.2023
354 Clear 5 1026 77 10000 0 0 10:58 06.01.2023
355 Clear 2 1007 86 10000 0 0 08:56 06.01.2023
356 Clear 2 1009 88 10000 1.03 0 07:44 06.01.2023
357 Clear 4 1006 83 10000 1.03 10 01:45 06.01.2023
358 Clear 6 1006 77 10000 1.54 350 22:55 05.01.2023
359 Clear 6 1006 75 10000 1.03 260 21:54 05.01.2023
360 Clear 9 1005 66 10000 1.54 230 19:32 05.01.2023
361 Clear 13 1027 49 10000 1.54 180 17:28 05.01.2023
362 Clear 13 1027 49 10000 1.54 190 16:21 05.01.2023
363 Clear 13 1027 52 10000 1.79 194 15:46 05.01.2023
364 Clear 12 1028 51 10000 1.54 120 14:47 05.01.2023
365 Clear 9 1030 60 10000 2.06 100 12:43 05.01.2023
366 Clear 8 1030 67 10000 1.54 70 11:53 05.01.2023
367 Clear 4 1016 79 10000 1.54 50 09:55 05.01.2023
368 Clear 3 1016 82 10000 1.03 20 08:31 05.01.2023
369 Clear 4 1011 77 10000 1.03 0 07:20 05.01.2023
370 Clear 5 1011 78 10000 1.54 10 05:20 05.01.2023
371 Clear 7 1016 78 10000 1.03 0 23:19 04.01.2023
372 Clear 6 1007 83 10000 2.06 280 21:33 04.01.2023
373 Clear 6 1007 83 10000 2.06 280 21:33 04.01.2023
374 Clear 7 1012 77 10000 2.06 280 20:47 04.01.2023
375 Clear 8 1015 73 10000 2.06 190 19:57 04.01.2023
376 Clear 9 1032 69 10000 2.06 190 19:33 04.01.2023
377 Clear 10 1032 62 10000 2.06 220 18:37 04.01.2023
378 Clear 13 1032 52 10000 0.51 0 16:32 04.01.2023
379 Clear 13 1033 52 10000 0.51 0 16:32 04.01.2023
380 Clear 13 1033 53 10000 0.51 0 15:48 04.01.2023
381 Clear 12 1033 56 10000 1.03 220 14:39 04.01.2023
382 Clear 7 1034 70 10000 2.06 340 11:41 04.01.2023
383 Clear 6 1034 71 10000 1.03 0 11:20 04.01.2023
384 Clear 5 1034 76 10000 1.54 90 10:43 04.01.2023
385 Clear 4 1034 78 10000 1.54 90 10:22 04.01.2023
386 Clear 3 1017 85 10000 1.34 21 08:49 04.01.2023
387 Clear 5 1016 86 10000 1.03 0 02:53 04.01.2023
388 Clear 6 1016 84 10000 1.54 360 00:32 04.01.2023
389 Clear 6 1016 85 10000 1.54 330 23:35 03.01.2023
390 Clear 7 1012 86 10000 1.54 330 22:44 03.01.2023
391 Clear 8 1015 78 10000 1.54 270 20:53 03.01.2023
392 Clear 9 1017 76 10000 2.06 270 19:23 03.01.2023
393 Clouds 12 1030 61 10000 1.54 150 17:37 03.01.2023
394 Clouds 12 1030 64 10000 1.54 250 16:36 03.01.2023
395 Clouds 11 1030 69 10000 1.54 110 13:55 03.01.2023
396 Clouds 11 1031 72 10000 2.06 120 13:30 03.01.2023
397 Clouds 11 1031 72 10000 2.06 120 13:30 03.01.2023
398 Clouds 10 1031 72 10000 2.57 100 12:57 03.01.2023
399 Clouds 9 1031 73 10000 3.09 110 12:30 03.01.2023
400 Clouds 9 1031 73 10000 3.09 110 12:30 03.01.2023
401 Clear 8 1031 77 10000 3.6 60 11:21 03.01.2023
402 Clouds 6 1014 86 10000 2.06 330 07:29 03.01.2023
403 Clouds 7 1011 86 10000 1.54 320 04:22 03.01.2023
404 Clear 8 1011 84 10000 1.54 360 03:43 03.01.2023
405 Clouds 8 1010 84 10000 1.79 30 01:39 03.01.2023
406 Clouds 10 1010 85 10000 1.03 250 22:42 02.01.2023
407 Clouds 9 1026 84 10000 1.03 250 22:19 02.01.2023
408 Clouds 10 1026 83 10000 1.03 0 20:40 02.01.2023
409 Clouds 11 1026 81 10000 1.03 150 19:52 02.01.2023
410 Clouds 12 1010 79 10000 2.06 130 17:29 02.01.2023
411 Clouds 12 1024 76 10000 2.57 140 15:19 02.01.2023
412 Clouds 11 1025 81 10000 3.6 140 13:23 02.01.2023
413 Clouds 10 1025 84 10000 2.57 160 11:41 02.01.2023
414 Clouds 10 1025 86 10000 2.06 160 10:43 02.01.2023
415 Clouds 10 1023 84 10000 2.57 270 07:33 02.01.2023
416 Clouds 11 1023 56 10000 6.17 250 00:58 02.01.2023
417 Clear 11 1005 56 10000 1.54 330 22:20 01.01.2023
418 Clear 11 1004 55 10000 1.79 187 21:28 01.01.2023
419 Clear 11 1004 57 10000 1.54 130 20:47 01.01.2023
420 Clear 11 1004 57 10000 2.06 320 19:42 01.01.2023
421 Clear 14 1021 46 10000 0.51 0 17:56 01.01.2023
422 Clear 14 1021 43 10000 2.57 150 17:21 01.01.2023
423 Clear 15 1021 40 10000 2.57 120 16:32 01.01.2023
424 Clear 15 1022 41 10000 3.09 100 14:53 01.01.2023
425 Clear 13 1023 48 10000 2.06 70 13:38 01.01.2023
426 Clouds 12 1024 56 10000 1.54 10 12:40 01.01.2023
427 Clouds 10 1009 67 10000 2.57 320 11:36 01.01.2023
428 Clear 9 1009 70 10000 2.57 360 10:35 01.01.2023
429 Clouds 8 1008 73 10000 2.06 330 08:49 01.01.2023
430 Clouds 8 1008 73 10000 2.06 330 08:20 01.01.2023
431 Clouds 8 1006 69 10000 0.89 46 07:18 01.01.2023
432 Clouds 8 1007 73 10000 1.54 20 01:42 01.01.2023
433 Clear 8 1010 72 10000 2.57 320 23:42 31.12.2022
434 Clear 9 1010 71 10000 3.6 320 22:33 31.12.2022
435 Clear 9 1010 67 10000 1.54 0 21:35 31.12.2022
436 Clear 10 1009 63 10000 2.06 340 20:52 31.12.2022
437 Clear 9 1000 68 10000 1.54 10 19:33 31.12.2022
438 Clear 12 1009 55 10000 0.51 0 18:42 31.12.2022
439 Clear 12 1025 52 10000 1.54 140 18:18 31.12.2022
440 Clear 13 1025 51 10000 1.54 140 17:46 31.12.2022
441 Clear 14 1025 45 10000 1.03 0 16:42 31.12.2022
442 Clear 14 1025 48 10000 1.03 0 16:20 31.12.2022
443 Clear 13 1026 59 10000 1.03 0 14:39 31.12.2022
444 Clear 12 1026 65 10000 2.06 110 13:33 31.12.2022
445 Clear 10 1027 71 10000 2.06 100 12:39 31.12.2022
446 Clear 10 1027 73 10000 2.06 100 12:19 31.12.2022
447 Clear 9 1027 73 10000 2.06 100 12:19 31.12.2022
448 Clear 9 1028 75 10000 2.06 90 11:50 31.12.2022
449 Clear 7 1027 80 10000 1.79 95 10:34 31.12.2022
450 Clear 6 1027 85 10000 1.54 10 09:53 31.12.2022
451 Clear 5 1010 88 10000 2.06 340 09:18 31.12.2022
452 Clear 6 1009 86 10000 1.54 350 07:25 31.12.2022
453 Clear 9 1011 74 10000 2.06 150 00:35 31.12.2022
454 Clear 9 1010 72 10000 3.09 150 23:45 30.12.2022
455 Clear 10 1026 70 10000 3.09 190 22:45 30.12.2022
456 Clear 10 1026 72 10000 3.09 160 21:42 30.12.2022
457 Clear 10 1026 72 10000 3.09 160 21:22 30.12.2022
458 Clouds 12 1025 66 10000 2.57 210 18:58 30.12.2022
459 Clear 13 1025 69 10000 5.66 250 17:42 30.12.2022
460 Clear 13 1025 67 10000 6.17 240 17:23 30.12.2022
461 Clear 13 1010 68 10000 8.23 240 15:50 30.12.2022
462 Clouds 13 1010 69 10000 6.69 220 14:35 30.12.2022
463 Clouds 11 1024 76 10000 6.17 230 10:24 30.12.2022
464 Drizzle 11 1008 78 10000 7.72 230 07:59 30.12.2022
465 Clouds 11 991 82 10000 8.75 210 02:41 30.12.2022
466 Clouds 11 1003 79 10000 6.69 220 01:53 30.12.2022
467 Clouds 11 1004 89 10000 6.17 220 22:50 29.12.2022
468 Drizzle 11 991 89 4000 4.12 200 21:31 29.12.2022
469 Clouds 11 1022 87 10000 4.12 200 20:54 29.12.2022
470 Clouds 11 1006 90 10000 5.14 190 20:21 29.12.2022
471 Drizzle 11 1006 89 10000 6.69 220 18:26 29.12.2022
472 Clouds 12 995 88 10000 6.69 220 17:29 29.12.2022
473 Clouds 11 1022 87 10000 7.72 230 16:55 29.12.2022
474 Clouds 11 1007 88 10000 7.72 230 15:59 29.12.2022
475 Clouds 11 1008 86 10000 8.23 230 15:18 29.12.2022
476 Clouds 11 996 87 10000 7.72 240 13:33 29.12.2022
477 Clouds 10 1008 88 10000 7.2 240 11:28 29.12.2022
478 Clouds 8 1022 85 10000 4.12 220 07:43 29.12.2022
479 Clear 9 1024 81 10000 3.09 240 23:45 28.12.2022
480 Rain 9 1024 82 10000 3.09 240 23:26 28.12.2022
481 Clear 9 1006 76 10000 3.6 230 21:21 28.12.2022
482 Clear 10 1024 76 10000 4.12 230 20:24 28.12.2022
483 Clear 11 1024 72 10000 3.6 220 19:23 28.12.2022
484 Clear 13 1024 65 10000 4.63 220 16:43 28.12.2022
485 Clear 12 1025 71 10000 3.09 160 14:38 28.12.2022
486 Clear 10 1026 76 10000 1.34 203 12:54 28.12.2022
487 Clear 8 1027 83 10000 0.51 0 11:52 28.12.2022
488 Clouds 6 1027 88 9000 1.54 110 10:37 28.12.2022
489 Fog 4 1013 93 7000 1.03 350 07:51 28.12.2022
490 Clear 5 1011 93 10000 1.54 350 06:49 28.12.2022
491 Clear 6 1011 91 10000 1.54 360 03:45 28.12.2022
492 Clear 8 1009 90 10000 1.03 360 23:23 27.12.2022
493 Clear 10 1012 77 10000 1.03 0 19:58 27.12.2022
494 Clear 11 1015 75 10000 1.54 180 19:24 27.12.2022
495 Clear 15 1029 62 10000 3.09 190 17:20 27.12.2022
496 Clear 15 1029 61 10000 2.57 160 16:39 27.12.2022
497 Clear 14 1030 62 10000 1.03 0 15:22 27.12.2022
498 Clear 11 1032 74 10000 1.54 90 12:28 27.12.2022
499 Clear 9 1032 84 10000 0.89 22 11:24 27.12.2022
500 Fog 7 1017 89 10000 1.03 40 09:45 27.12.2022
501 Fog 5 1017 92 10000 1.34 23 09:22 27.12.2022
502 Clear 6 1014 90 10000 0.51 0 06:48 27.12.2022
503 Clear 7 1014 89 10000 1.03 0 04:29 27.12.2022
504 Clear 10 1009 82 10000 1.03 320 22:20 26.12.2022
505 Clear 10 1029 76 10000 0 0 20:46 26.12.2022
506 Clear 10 1029 76 10000 0 0 20:24 26.12.2022
507 Clear 12 1028 68 10000 2.06 160 18:43 26.12.2022
508 Clear 15 1028 56 10000 2.06 200 17:26 26.12.2022
509 Clear 16 1028 57 10000 1.54 130 15:44 26.12.2022
510 Clear 13 1028 71 10000 1.54 0 12:59 26.12.2022
511 Clear 10 1028 79 10000 1.54 50 11:45 26.12.2022
512 Clear 7 1008 91 10000 1.54 330 06:42 26.12.2022
513 Clouds 9 1006 87 9000 1.03 330 23:46 25.12.2022
514 Clear 10 1005 88 10000 1.54 340 22:57 25.12.2022
515 Clear 10 1005 88 10000 1.54 340 22:26 25.12.2022
516 Clear 11 1004 84 10000 1.54 10 20:40 25.12.2022
517 Clear 13 1020 71 10000 1.54 90 18:27 25.12.2022
518 Clouds 13 1020 70 10000 2.68 32 17:51 25.12.2022
519 Clouds 15 1020 65 10000 2.06 120 17:33 25.12.2022
520 Clouds 14 1021 65 10000 3.09 170 14:38 25.12.2022
521 Clouds 10 1022 88 10000 3.6 110 11:49 25.12.2022
522 Fog 7 1004 97 100 2.06 140 06:20 25.12.2022
523 Mist 8 1005 93 5000 0.51 0 23:22 24.12.2022
524 Clear 9 1005 91 10000 0.51 280 19:58 24.12.2022
525 Clouds 10 1005 87 10000 1.54 170 17:55 24.12.2022
526 Clouds 11 1022 85 10000 3.09 160 16:21 24.12.2022
527 Clouds 10 1022 85 10000 2.57 170 14:37 24.12.2022
528 Clouds 10 1023 89 9000 1.54 180 12:41 24.12.2022
529 Clouds 9 1024 95 7000 2.06 140 10:31 24.12.2022
530 Fog 9 1023 96 400 1.03 0 09:55 24.12.2022
531 Fog 9 1023 96 400 2.06 180 09:36 24.12.2022
532 Clouds 10 1023 92 10000 1.03 170 03:52 24.12.2022
533 Clouds 10 1024 91 8000 1.54 180 00:52 24.12.2022
534 Clouds 11 1025 89 10000 1.54 180 23:31 23.12.2022
535 Clouds 11 1009 88 10000 1.03 0 21:53 23.12.2022
536 Clouds 11 1009 89 10000 2.57 160 20:20 23.12.2022
537 Clouds 11 1011 88 10000 2.57 160 19:39 23.12.2022
538 Clouds 11 1011 88 10000 2.57 160 19:21 23.12.2022
539 Clouds 12 1011 89 10000 2.57 180 18:38 23.12.2022
540 Clouds 12 1011 88 10000 2.57 180 18:18 23.12.2022
541 Clouds 12 1011 88 10000 4.12 220 16:25 23.12.2022
542 Clouds 11 1025 89 10000 4.12 230 14:42 23.12.2022
543 Drizzle 11 1013 95 4500 4.12 210 10:56 23.12.2022
544 Mist 11 1026 92 3500 3.6 220 09:36 23.12.2022
545 Drizzle 11 1026 94 8000 3.6 230 07:45 23.12.2022
546 Mist 10 1025 96 9000 2.57 230 06:50 23.12.2022
547 Mist 11 1026 96 2200 2.06 180 05:20 23.12.2022
548 Mist 11 1027 96 3900 2.57 220 23:21 22.12.2022
549 Clouds 12 1027 94 8000 3.09 240 21:57 22.12.2022
550 Clouds 12 1027 92 10000 4.63 240 20:25 22.12.2022
551 Clouds 12 1027 88 10000 4.63 250 19:22 22.12.2022
552 Clouds 13 1027 86 10000 6.17 240 18:37 22.12.2022
553 Clouds 14 1027 80 10000 6.69 240 16:58 22.12.2022
554 Clouds 14 1027 80 10000 6.69 240 16:37 22.12.2022
555 Clouds 14 1026 78 10000 7.2 230 15:30 22.12.2022
556 Clouds 14 1027 78 10000 5.66 220 14:45 22.12.2022
557 Clouds 13 1013 85 10000 6.69 240 13:31 22.12.2022
558 Clouds 12 1014 92 10000 5.14 260 12:32 22.12.2022
559 Mist 10 1013 96 1000 4.63 230 10:32 22.12.2022
560 Fog 10 1013 97 700 4.12 250 09:59 22.12.2022
561 Fog 10 1013 96 500 4.63 250 09:19 22.12.2022
562 Fog 10 1013 96 500 4.63 250 09:19 22.12.2022
563 Fog 10 1027 95 500 5.66 250 07:54 22.12.2022
564 Clouds 11 1026 94 8000 5.14 240 04:19 22.12.2022
565 Clouds 11 1026 94 10000 6.69 250 00:51 22.12.2022
566 Clouds 11 1026 92 10000 7.2 240 22:42 21.12.2022
567 Clouds 11 1026 92 10000 7.72 240 21:51 21.12.2022
568 Clouds 11 1025 92 10000 6.17 230 21:21 21.12.2022
569 Clouds 11 1025 93 10000 5.14 240 20:45 21.12.2022
570 Clouds 12 1025 89 10000 6.17 250 19:58 21.12.2022
571 Clouds 12 1025 88 10000 6.17 230 19:39 21.12.2022
572 Clouds 12 1011 88 10000 6.69 250 19:20 21.12.2022
573 Clouds 12 1025 86 10000 6.69 250 18:43 21.12.2022
574 Clouds 12 1025 85 10000 7.2 240 17:34 21.12.2022
575 Clouds 13 1024 82 10000 6.69 260 14:24 21.12.2022
576 Clouds 11 1025 90 10000 6.69 240 12:33 21.12.2022
577 Clouds 11 1025 93 10000 7.2 250 11:41 21.12.2022
578 Clouds 10 1011 96 10000 7.2 250 11:19 21.12.2022
579 Fog 9 1010 96 400 6.17 250 08:51 21.12.2022
580 Mist 9 1007 97 1700 2.57 240 06:59 21.12.2022
581 Mist 9 1006 96 3900 2.57 210 00:32 21.12.2022
582 Mist 9 1022 97 1000 2.57 330 22:38 20.12.2022
583 Mist 9 1021 97 3700 1.03 270 21:18 20.12.2022
584 Mist 9 1005 97 3500 2.57 330 20:18 20.12.2022
585 Rain 9 1006 96 2500 2.06 340 18:49 20.12.2022
586 Mist 9 1005 96 2500 2.06 10 18:26 20.12.2022
587 Mist 9 1005 96 2500 2.06 10 18:26 20.12.2022
588 Mist 9 1004 96 1800 1.03 20 17:51 20.12.2022
589 Drizzle 9 1004 96 2000 1.54 20 17:26 20.12.2022
590 Mist 9 1004 93 2800 3.09 360 16:20 20.12.2022
591 Clouds 9 1004 92 8000 1.54 350 14:57 20.12.2022
592 Clouds 9 1004 91 9000 1.54 40 14:36 20.12.2022
593 Clouds 9 1005 92 9000 3.6 310 13:52 20.12.2022
594 Drizzle 8 1006 92 5000 2.57 110 12:40 20.12.2022
595 Rain 8 1024 88 5000 2.57 190 11:55 20.12.2022
596 Clouds 8 1023 88 10000 1.03 0 10:42 20.12.2022
597 Mist 7 1009 93 10000 1.03 0 07:41 20.12.2022
598 Clear 8 1009 90 10000 1.03 340 00:23 20.12.2022
599 Clear 8 1010 91 10000 2.06 340 22:36 19.12.2022
600 Mist 8 1010 90 10000 2.06 10 21:33 19.12.2022
601 Clear 8 1011 88 10000 3.09 30 19:50 19.12.2022
602 Clear 8 1012 88 10000 3.09 30 19:31 19.12.2022
603 Clear 9 1009 86 10000 2.57 340 18:23 19.12.2022
604 Clouds 11 1025 78 10000 1.54 30 16:29 19.12.2022
605 Clouds 8 1027 87 10000 1.54 110 13:22 19.12.2022
606 Mist 7 1027 93 9000 1.03 0 11:46 19.12.2022
607 Fog 6 1013 96 900 2.06 40 08:27 19.12.2022
608 Mist 6 1011 94 3300 2.57 90 07:22 19.12.2022
609 Clear 6 1011 90 10000 1.79 96 00:54 19.12.2022
610 Clouds 8 1011 88 10000 2.06 360 21:50 18.12.2022
611 Clear 8 1007 89 10000 2.57 330 21:31 18.12.2022
612 Clear 8 1011 86 10000 2.06 10 20:57 18.12.2022
613 Clouds 8 1010 85 10000 0.51 30 19:45 18.12.2022
614 Clouds 9 1007 84 10000 1.54 360 19:23 18.12.2022
615 Clouds 10 1026 78 10000 1.54 10 17:52 18.12.2022
616 Clouds 11 1026 77 10000 1.54 320 16:18 18.12.2022
617 Clouds 10 1026 78 10000 1.54 310 15:37 18.12.2022
618 Clouds 10 1025 80 10000 2.06 320 15:18 18.12.2022
619 Clouds 9 1027 91 10000 1.54 110 13:29 18.12.2022
620 Clouds 9 1008 95 10000 0.51 330 12:51 18.12.2022
621 Clouds 8 1008 97 8000 0.51 200 11:53 18.12.2022
622 Mist 7 1010 96 3000 1.03 0 10:18 18.12.2022
623 Fog 7 1025 97 500 1.54 220 08:46 18.12.2022
624 Fog 7 1025 97 200 1.03 0 07:20 18.12.2022
625 Fog 7 1008 97 200 1.03 0 06:19 18.12.2022
626 Fog 8 1007 96 200 1.54 170 01:58 18.12.2022
627 Clouds 9 1022 92 8000 2.06 240 23:39 17.12.2022
628 Clouds 10 1021 87 10000 2.57 240 21:33 17.12.2022
629 Clouds 11 1018 77 10000 1.54 190 18:50 17.12.2022
630 Clouds 12 1017 74 10000 1.54 150 15:51 17.12.2022
631 Clouds 11 1017 83 10000 2.06 150 13:57 17.12.2022
632 Clouds 9 1017 92 10000 1.54 330 11:24 17.12.2022
633 Clouds 9 1017 89 10000 2.06 360 10:44 17.12.2022
634 Clouds 9 1015 92 10000 1.03 0 09:40 17.12.2022
635 Clouds 8 1014 94 10000 1.03 0 07:24 17.12.2022
636 Clouds 8 1014 94 10000 1.03 360 06:45 17.12.2022
637 Clouds 8 1014 94 10000 1.03 360 06:45 17.12.2022
638 Clouds 9 1012 89 10000 0.51 0 23:32 16.12.2022
639 Clouds 9 1010 88 10000 1.03 140 20:34 16.12.2022
640 Clouds 9 1009 85 10000 2.57 120 18:46 16.12.2022
641 Drizzle 10 1008 81 10000 2.06 110 15:37 16.12.2022
642 Drizzle 10 1008 81 10000 2.06 130 14:47 16.12.2022
643 Clouds 10 1008 78 10000 1.54 0 13:40 16.12.2022
644 Clouds 9 1008 87 10000 1.03 0 11:57 16.12.2022
645 Clouds 7 1007 95 7000 1.03 120 09:53 16.12.2022
646 Mist 6 1006 95 3500 1.03 0 08:54 16.12.2022
647 Fog 6 1006 96 400 1.54 140 07:55 16.12.2022
648 Fog 6 1005 96 200 2.06 180 07:25 16.12.2022
649 Clear 8 1004 90 10000 6.17 230 23:24 15.12.2022
650 Clouds 8 1003 87 10000 4.63 240 22:20 15.12.2022
651 Clouds 9 1002 87 10000 5.66 240 20:30 15.12.2022
652 Clouds 10 1001 87 10000 5.66 240 19:35 15.12.2022
653 Clouds 10 1000 84 10000 5.66 240 17:59 15.12.2022
654 Clouds 10 1000 83 10000 7.2 240 17:20 15.12.2022
655 Clouds 11 999 81 10000 8.23 250 14:58 15.12.2022
656 Clouds 10 999 87 10000 8.75 250 13:18 15.12.2022
657 Clouds 10 1000 87 10000 7.2 250 12:25 15.12.2022
658 Drizzle 8 998 95 4000 2.06 200 09:32 15.12.2022
659 Drizzle 8 998 95 3000 2.57 160 08:49 15.12.2022
660 Clouds 9 997 95 10000 4.12 220 05:48 15.12.2022
661 Clouds 10 998 94 10000 3.09 210 02:38 15.12.2022
662 Clear 10 998 95 10000 1.54 120 21:25 14.12.2022
663 Clear 11 998 94 10000 1.54 120 20:57 14.12.2022
664 Clouds 11 998 95 10000 2.06 220 20:23 14.12.2022
665 Clouds 12 1000 95 7000 1.54 70 17:56 14.12.2022
666 Drizzle 12 1001 95 10000 2.06 10 16:57 14.12.2022
667 Clouds 13 1002 92 8000 4.12 90 15:39 14.12.2022
668 Clouds 13 1004 90 10000 4.63 170 13:40 14.12.2022
669 Clouds 12 1006 90 10000 3.6 190 11:20 14.12.2022
670 Clouds 11 1005 91 10000 3.09 210 10:31 14.12.2022
671 Clouds 11 1005 92 10000 4.63 230 08:48 14.12.2022
672 Rain 14 1001 94 4800 8.75 240 22:47 13.12.2022
673 Clouds 14 1000 94 10000 9.77 230 21:48 13.12.2022
674 Clouds 14 999 92 10000 7.72 230 20:48 13.12.2022
675 Rain 15 1000 93 10000 8.75 230 19:59 13.12.2022
676 Rain 15 1000 95 5000 5.66 220 17:21 13.12.2022
677 Clouds 14 1001 96 5000 5.14 200 15:35 13.12.2022
678 Rain 14 1002 96 10000 3.6 180 14:36 13.12.2022
679 Rain 13 1005 97 6000 3.09 200 10:55 13.12.2022
680 Rain 13 1005 97 6000 3.09 180 10:36 13.12.2022
681 Rain 13 1005 96 5000 3.6 230 09:23 13.12.2022
682 Clouds 14 1006 94 10000 8.23 230 23:23 12.12.2022
683 Clouds 14 1006 95 10000 6.69 230 22:22 12.12.2022
684 Clouds 14 1004 96 10000 5.14 250 20:53 12.12.2022
685 Rain 13 1003 94 9000 6.69 230 18:32 12.12.2022
686 Clouds 13 1004 96 7000 5.66 230 17:19 12.12.2022
687 Rain 13 1004 95 3500 8.75 200 15:22 12.12.2022
688 Clouds 11 1007 96 8000 5.66 210 11:50 12.12.2022
689 Fog 10 1008 97 800 2.06 190 09:19 12.12.2022
690 Clouds 9 1009 96 8000 4.12 220 04:54 12.12.2022
691 Clouds 9 1009 94 10000 3.6 220 01:53 12.12.2022
692 Clouds 9 1008 95 10000 3.6 250 22:53 11.12.2022
693 Clouds 8 1006 94 10000 5.66 250 20:42 11.12.2022
694 Clouds 8 1006 94 10000 4.12 240 19:42 11.12.2022
695 Clouds 8 1005 93 10000 3.09 220 18:56 11.12.2022
696 Clouds 8 1004 93 10000 2.06 220 17:58 11.12.2022
697 Clouds 8 1004 93 10000 2.57 240 17:29 11.12.2022
698 Clouds 8 1004 92 10000 2.57 240 16:52 11.12.2022
699 Clouds 8 1003 91 10000 1.03 0 15:46 11.12.2022
700 Clouds 7 1003 92 10000 1.54 330 14:26 11.12.2022
701 Clouds 6 1004 96 10000 3.09 340 12:44 11.12.2022
702 Drizzle 6 1004 95 8000 3.09 10 11:41 11.12.2022
703 Clouds 6 1004 95 3100 2.06 100 08:25 11.12.2022
704 Clear 8 1009 83 10000 5.66 240 00:34 11.12.2022
705 Clouds 9 1010 89 10000 6.17 230 22:54 10.12.2022
706 Clouds 9 1010 90 10000 5.66 230 22:33 10.12.2022
707 Clouds 9 1010 89 10000 5.14 230 21:19 10.12.2022
708 Clouds 9 1010 87 10000 4.12 230 20:26 10.12.2022
709 Clouds 10 1010 81 10000 4.63 240 18:49 10.12.2022
710 Clouds 11 1009 74 10000 4.12 250 16:51 10.12.2022
711 Clouds 12 1009 73 10000 5.14 230 16:32 10.12.2022
712 Clouds 12 1009 66 10000 6.17 240 15:38 10.12.2022
713 Clouds 12 1009 71 10000 5.66 250 14:22 10.12.2022
714 Clouds 11 1009 79 10000 4.63 240 12:53 10.12.2022
715 Clouds 9 1009 91 10000 2.24 237 11:35 10.12.2022
716 Clouds 8 1008 95 10000 1.54 270 10:34 10.12.2022
717 Fog 7 1006 96 600 3.09 260 08:55 10.12.2022
718 Fog 8 1005 97 600 3.09 290 07:19 10.12.2022
719 Clouds 8 1002 96 10000 4.63 240 00:40 10.12.2022
720 Clouds 9 1001 95 10000 4.12 240 23:18 09.12.2022
721 Clouds 9 1001 95 10000 5.14 250 22:37 09.12.2022
722 Clouds 9 1000 95 10000 4.63 250 21:24 09.12.2022
723 Clouds 9 999 95 10000 4.12 240 20:42 09.12.2022
724 Drizzle 10 998 96 9000 2.57 260 18:52 09.12.2022
725 Clouds 10 998 95 9000 2.06 250 17:53 09.12.2022
726 Clouds 11 997 91 6000 2.06 200 16:32 09.12.2022
727 Drizzle 10 997 91 10000 1.79 202 15:42 09.12.2022
728 Drizzle 11 998 90 10000 1.03 0 15:18 09.12.2022
729 Clouds 9 1000 95 4000 1.54 310 11:32 09.12.2022
730 Rain 9 1000 94 4800 1.03 0 10:35 09.12.2022
731 Clouds 8 1000 95 10000 2.24 207 08:42 09.12.2022
732 Clouds 9 1001 95 10000 3.13 205 03:19 09.12.2022
733 Clouds 9 1003 95 6000 4.47 225 00:25 09.12.2022
734 Clouds 10 1002 96 10000 2.57 200 21:54 08.12.2022
735 Clouds 10 1001 93 10000 3.09 160 20:30 08.12.2022
736 Rain 12 1001 93 9000 4.92 201 17:37 08.12.2022
737 Clouds 12 1001 92 10000 4.63 180 15:36 08.12.2022
738 Drizzle 11 1002 94 10000 5.66 180 14:25 08.12.2022
739 Clouds 9 1004 96 6000 4.12 130 11:19 08.12.2022
740 Rain 8 1005 96 5000 2.57 120 09:51 08.12.2022
741 Rain 8 1005 95 5000 2.57 130 09:21 08.12.2022
742 Fog 9 1011 94 6000 1.54 340 23:56 07.12.2022
743 Clouds 9 1011 93 8000 1.03 0 22:19 07.12.2022
744 Clouds 9 1011 93 8000 1.03 0 21:48 07.12.2022
745 Clouds 9 1011 93 10000 0.51 100 21:29 07.12.2022
746 Clouds 10 1012 89 10000 1.03 100 19:35 07.12.2022
747 Clouds 12 1012 78 10000 2.06 130 17:22 07.12.2022
748 Clouds 12 1013 81 8000 1.54 110 14:41 07.12.2022
749 Mist 10 1015 93 4000 3.09 80 11:41 07.12.2022
750 Mist 9 1015 95 2500 1.54 60 10:40 07.12.2022
751 Mist 9 1015 96 1500 1.03 0 09:48 07.12.2022
752 Fog 9 1015 97 200 1.54 80 08:46 07.12.2022
753 Mist 9 1015 97 1700 1.34 37 06:48 07.12.2022
754 Mist 9 1015 95 1600 0.45 39 05:23 07.12.2022
755 Clouds 10 1017 93 6000 0.45 251 22:40 06.12.2022
756 Clouds 10 1016 93 6000 0.51 350 20:35 06.12.2022
757 Clouds 11 1016 89 10000 1.54 40 18:21 06.12.2022
758 Clouds 11 1016 88 10000 1.03 280 16:42 06.12.2022
759 Clouds 11 1016 88 10000 1.54 290 15:52 06.12.2022
760 Clouds 11 1016 88 10000 2.57 270 15:33 06.12.2022
761 Clouds 11 1016 88 9000 0.51 0 14:28 06.12.2022
762 Clouds 11 1016 91 9000 1.03 0 12:59 06.12.2022
763 Clouds 11 1017 92 9000 1.03 0 12:40 06.12.2022
764 Mist 9 1015 95 6000 1.54 20 09:41 06.12.2022
765 Mist 9 1014 95 10000 1.54 320 06:32 06.12.2022
766 Mist 9 1014 96 10000 1.54 70 01:26 06.12.2022
767 Mist 10 1014 97 6000 2.57 90 22:36 05.12.2022
768 Mist 10 1014 96 5000 2.06 340 20:56 05.12.2022
769 Mist 9 1014 96 4000 2.06 60 20:36 05.12.2022
770 Drizzle 9 1014 97 4000 1.54 90 19:45 05.12.2022
771 Drizzle 9 1013 96 4800 2.06 90 17:56 05.12.2022
772 Clouds 9 1013 96 4500 2.57 40 16:48 05.12.2022
773 Clouds 9 1013 95 4000 3.09 20 15:22 05.12.2022
774 Clouds 8 1014 94 4200 2.57 10 13:22 05.12.2022
775 Clouds 8 1014 96 6000 3.6 50 12:51 05.12.2022
776 Clouds 7 1014 96 7000 3.09 50 12:33 05.12.2022
777 Drizzle 7 1015 94 4700 4.12 30 10:58 05.12.2022
778 Mist 6 1014 94 6000 1.54 100 00:44 05.12.2022
779 Mist 6 1014 93 6000 1.03 0 23:25 04.12.2022
780 Mist 6 1014 95 3200 1.03 140 22:37 04.12.2022
781 Mist 6 1013 93 4000 1.03 130 22:18 04.12.2022
782 Mist 7 1013 94 4600 1.03 0 21:27 04.12.2022
783 Clouds 7 1012 92 10000 1.54 130 19:47 04.12.2022
784 Clouds 7 1012 92 10000 1.54 130 19:22 04.12.2022
785 Clouds 8 1011 88 10000 1.54 130 17:24 04.12.2022
786 Drizzle 8 1010 90 10000 1.03 0 16:59 04.12.2022
787 Clouds 8 1010 89 10000 1.54 80 16:36 04.12.2022
788 Clouds 7 1010 87 10000 0.89 68 16:18 04.12.2022
789 Clouds 7 1010 90 10000 2.57 40 14:49 04.12.2022
790 Clouds 6 1010 91 10000 2.06 10 13:38 04.12.2022
791 Clouds 5 1010 89 10000 2.57 10 12:44 04.12.2022
792 Clouds 4 1010 88 10000 3.58 32 11:59 04.12.2022
793 Clouds 4 1009 86 10000 2.06 20 10:48 04.12.2022
794 Clouds 3 1007 87 10000 3.09 40 07:34 04.12.2022
795 Mist 5 1007 90 1400 1.54 310 02:22 04.12.2022
796 Clouds 6 1007 89 9000 0.51 0 23:43 03.12.2022
797 Clouds 6 1007 88 9000 1.54 350 22:24 03.12.2022
798 Clouds 7 1006 87 10000 2.06 350 21:41 03.12.2022
799 Drizzle 7 1006 85 10000 1.03 0 20:35 03.12.2022
800 Clouds 8 1006 75 10000 1.54 220 18:40 03.12.2022
801 Clouds 9 1006 71 10000 2.57 240 17:27 03.12.2022
802 Clouds 9 1006 66 10000 4.12 210 15:49 03.12.2022
803 Clear 7 1007 75 10000 2.68 199 12:56 03.12.2022
804 Clear 6 1008 76 10000 2.68 210 12:28 03.12.2022
805 Clouds 4 1008 86 9000 0.89 196 10:30 03.12.2022
806 Clear 2 1008 89 10000 0.89 53 07:58 03.12.2022
807 Clear 4 1010 84 10000 1.54 360 01:31 03.12.2022
808 Clear 4 1010 84 10000 1.54 360 01:31 03.12.2022
809 Clear 4 1010 84 10000 1.54 360 01:31 03.12.2022
810 Clear 4 1011 83 10000 1.54 340 23:26 02.12.2022
811 Clouds 6 1011 77 10000 1.54 10 21:34 02.12.2022
812 Clouds 7 1011 74 10000 1.54 350 19:37 02.12.2022
813 Clouds 10 1012 61 10000 1.34 181 16:23 02.12.2022
814 Clouds 9 1012 65 10000 1.54 110 14:48 02.12.2022
815 Clouds 9 1013 65 10000 1.54 320 14:28 02.12.2022
816 Clouds 8 1013 67 10000 2.06 30 13:42 02.12.2022
817 Clouds 6 1015 73 10000 2.57 50 11:48 02.12.2022
818 Clouds 4 1015 76 10000 3.09 30 10:26 02.12.2022
819 Clouds 3 1014 76 10000 3.6 360 07:25 02.12.2022
820 Clouds 3 1014 75 10000 2.57 360 06:23 02.12.2022
821 Clear 7 1015 62 10000 3.58 72 22:49 01.12.2022
822 Clear 7 1015 60 10000 3.13 91 21:41 01.12.2022
823 Clear 8 1014 54 10000 2.68 65 20:36 01.12.2022
824 Clear 10 1014 52 10000 4.63 30 18:58 01.12.2022
825 Clear 12 1014 41 10000 4.12 40 16:31 01.12.2022
826 Clear 11 1015 51 10000 5.14 50 13:50 01.12.2022
827 Clear 8 1016 73 10000 3.6 50 10:56 01.12.2022
828 Clear 6 1016 79 10000 3.13 44 09:54 01.12.2022
829 Clear 6 1015 82 10000 3.09 30 09:36 01.12.2022
830 Clear 6 1014 85 10000 2.06 10 05:49 01.12.2022
831 Clear 9 1015 70 10000 1.54 360 22:41 30.11.2022
832 Clear 9 1015 71 10000 1.54 10 21:40 30.11.2022
833 Clear 9 1015 70 10000 1.54 350 21:18 30.11.2022
834 Clear 9 1015 69 10000 0.51 20 20:23 30.11.2022
835 Clear 9 1015 69 10000 0.51 20 20:23 30.11.2022
836 Clear 10 1015 61 10000 1.54 160 18:36 30.11.2022
837 Clear 10 1014 60 10000 3.09 170 17:40 30.11.2022
838 Clear 11 1014 57 10000 2.57 170 16:26 30.11.2022
839 Clear 11 1015 57 10000 1.54 220 14:45 30.11.2022
840 Clear 11 1016 59 10000 1.34 198 14:25 30.11.2022
841 Clear 8 1018 73 10000 1.54 120 11:58 30.11.2022
842 Clouds 4 1017 87 10000 1.54 10 09:21 30.11.2022
843 Clouds 4 1017 87 10000 1.54 10 09:21 30.11.2022
844 Clouds 5 1017 84 10000 0.51 0 07:59 30.11.2022
845 Clouds 5 1018 86 10000 1.54 330 05:22 30.11.2022
846 Clear 7 1000 76 10000 1.54 20 23:26 29.11.2022
847 Clear 7 1004 72 10000 1.54 40 22:19 29.11.2022
848 Clear 8 1004 69 10000 1.54 250 20:52 29.11.2022
849 Clear 8 1003 67 10000 1.03 0 19:49 29.11.2022
850 Clear 11 1006 56 10000 1.03 240 17:55 29.11.2022
851 Clear 12 1020 49 10000 1.03 0 16:31 29.11.2022
852 Clear 12 1021 49 10000 1.03 0 15:28 29.11.2022
853 Clear 11 1022 54 10000 1.54 90 14:25 29.11.2022
854 Clear 9 1023 64 10000 1.54 100 12:37 29.11.2022
855 Clear 8 1023 73 10000 1.03 0 11:31 29.11.2022
856 Clear 6 1023 80 10000 1.03 0 10:26 29.11.2022
857 Clear 4 1009 88 10000 1.79 74 09:26 29.11.2022
858 Clear 4 1003 86 10000 1.03 160 06:47 29.11.2022
859 Clear 7 1008 78 10000 3.6 270 00:27 29.11.2022
860 Clear 7 1008 76 10000 3.09 270 23:23 28.11.2022
861 Clear 8 1008 73 10000 3.09 270 21:57 28.11.2022
862 Clear 8 1008 72 10000 3.6 280 21:38 28.11.2022
863 Clear 9 1007 68 10000 4.63 280 20:24 28.11.2022
864 Clouds 9 1023 63 10000 4.63 300 19:25 28.11.2022
865 Clouds 10 1009 59 10000 6.69 310 18:28 28.11.2022
866 Clouds 11 1023 52 10000 7.72 300 17:23 28.11.2022
867 Clouds 12 1023 51 10000 8.75 290 14:57 28.11.2022
868 Clouds 11 1023 52 10000 9.26 280 13:55 28.11.2022
869 Clear 11 1023 54 10000 6.17 260 13:18 28.11.2022
870 Clear 9 1024 62 10000 6.69 310 11:32 28.11.2022
871 Clear 7 1008 78 10000 5.66 300 08:20 28.11.2022
872 Clear 8 1004 79 10000 4.12 310 04:56 28.11.2022
873 Clear 8 1005 84 10000 8.23 280 04:37 28.11.2022
874 Clear 8 1004 85 10000 4.63 290 03:21 28.11.2022
875 Rain 9 1020 86 8000 6.17 250 00:29 28.11.2022
876 Clouds 10 1004 75 10000 3.09 230 21:55 27.11.2022
877 Clear 10 1004 72 10000 1.54 180 20:43 27.11.2022
878 Clear 11 1007 67 10000 1.54 250 18:37 27.11.2022
879 Clear 13 1022 54 10000 2.06 220 16:22 27.11.2022
880 Clear 12 1024 60 10000 1.03 0 13:47 27.11.2022
881 Clear 10 1025 68 10000 2.06 30 12:20 27.11.2022
882 Clear 5 1012 87 10000 1.54 80 09:31 27.11.2022
883 Clear 4 1006 90 10000 1.54 10 06:30 27.11.2022
884 Clear 7 1009 81 10000 1.34 39 23:23 26.11.2022
885 Clear 8 1012 76 10000 1.54 350 21:27 26.11.2022
886 Clear 9 1015 69 10000 1.03 120 19:50 26.11.2022
887 Clear 11 1014 64 10000 1.03 110 18:38 26.11.2022
888 Clear 13 1029 53 10000 1.79 202 16:38 26.11.2022
889 Clear 12 1030 54 10000 1.79 190 14:48 26.11.2022
890 Clear 10 1031 65 10000 0.89 353 12:50 26.11.2022
891 Clear 7 1017 75 10000 2.06 40 10:53 26.11.2022
892 Clear 4 1014 86 10000 1.54 350 09:40 26.11.2022
893 Clear 4 1016 86 10000 2.06 340 07:48 26.11.2022
894 Clear 8 1014 70 10000 1.54 10 22:43 25.11.2022
895 Clear 8 1014 69 10000 1.34 39 21:34 25.11.2022
896 Clear 9 1013 65 10000 2.57 330 20:20 25.11.2022
897 Clouds 13 1027 48 10000 4.12 10 16:51 25.11.2022
898 Clouds 13 1027 46 10000 3.6 310 15:31 25.11.2022
899 Clouds 10 1024 72 10000 6.69 270 09:51 25.11.2022
900 Clouds 10 1008 80 10000 8.23 280 08:43 25.11.2022
901 Clouds 11 1008 86 10000 5.14 280 07:27 25.11.2022
902 Mist 11 1006 96 3100 4.47 315 06:41 25.11.2022
903 Clouds 12 1003 96 10000 2.68 229 01:25 25.11.2022
904 Mist 13 1003 95 2700 4.12 230 22:59 24.11.2022
905 Clouds 13 1002 95 10000 5.66 230 22:19 24.11.2022
906 Mist 13 1002 94 2900 5.14 230 21:26 24.11.2022
907 Drizzle 13 1018 92 8000 5.14 220 19:34 24.11.2022
908 Clouds 13 1017 93 10000 4.63 230 17:45 24.11.2022
909 Drizzle 13 1017 93 10000 5.14 220 17:21 24.11.2022
910 Drizzle 14 1017 88 3000 5.66 230 16:19 24.11.2022
911 Drizzle 13 1018 83 5000 2.68 210 14:23 24.11.2022
912 Drizzle 13 1018 83 5000 2.68 210 14:23 24.11.2022
913 Clouds 12 1005 90 9000 3.13 183 12:20 24.11.2022
914 Clouds 10 1005 93 7000 3.09 200 10:38 24.11.2022
915 Clouds 10 1005 94 9000 3.6 240 08:19 24.11.2022
916 Clouds 11 1019 93 10000 5.14 240 03:38 24.11.2022
917 Clouds 12 1003 96 10000 3.6 240 23:47 23.11.2022
918 Clear 12 1019 93 10000 3.6 240 22:41 23.11.2022
919 Clouds 12 1018 93 10000 4.63 240 21:40 23.11.2022
920 Clouds 13 1018 93 10000 4.63 230 20:48 23.11.2022
921 Clouds 14 1018 90 10000 5.14 230 19:31 23.11.2022
922 Clouds 15 1017 90 10000 5.66 230 18:41 23.11.2022
923 Clouds 17 1016 75 10000 5.66 240 16:56 23.11.2022
924 Clouds 15 1015 86 10000 9.77 240 13:41 23.11.2022
925 Drizzle 15 1015 89 9000 9.77 240 13:21 23.11.2022
926 Drizzle 14 1015 90 10000 11.32 250 12:21 23.11.2022
927 Drizzle 14 1015 90 10000 11.32 250 12:21 23.11.2022
928 Drizzle 14 1015 92 6000 11.32 250 11:42 23.11.2022
929 Drizzle 14 1014 90 7000 10.29 250 10:44 23.11.2022
930 Clouds 13 1013 92 10000 10.8 230 09:44 23.11.2022
931 Drizzle 13 1013 92 8000 12.35 250 09:25 23.11.2022
932 Clouds 14 1013 91 10000 12.35 250 08:37 23.11.2022
933 Mist 13 1012 94 5000 10.29 230 06:23 23.11.2022
934 Clouds 13 1012 95 10000 9.77 230 05:18 23.11.2022
935 Clouds 12 1014 94 10000 8.23 230 23:24 22.11.2022
936 Clouds 11 1013 95 10000 8.23 210 22:34 22.11.2022
937 Clouds 10 1013 95 10000 8.75 230 21:34 22.11.2022
938 Clouds 10 1014 93 10000 8.23 230 20:50 22.11.2022
939 Drizzle 10 1014 95 10000 7.72 230 20:18 22.11.2022
940 Rain 9 1014 92 10000 10.29 230 17:56 22.11.2022
941 Rain 9 1014 92 10000 9.77 230 17:28 22.11.2022
942 Rain 9 1014 92 8000 8.23 230 16:23 22.11.2022
943 Clouds 9 1016 78 10000 8.23 250 13:48 22.11.2022
944 Clouds 8 1018 74 10000 7.72 240 11:57 22.11.2022
945 Clouds 7 1017 72 10000 5.66 240 09:26 22.11.2022
946 Clouds 7 1016 69 10000 7.2 240 07:55 22.11.2022
947 Clouds 7 1017 67 10000 8.75 240 06:36 22.11.2022
948 Clear 7 1016 69 10000 8.75 280 23:41 21.11.2022
949 Clear 8 1010 60 10000 26.82 88 22:49 21.11.2022
950 Clouds 8 1015 69 10000 7.2 290 21:59 21.11.2022
951 Clouds 9 1014 71 7000 10.29 280 20:56 21.11.2022
952 Clouds 8 1014 71 7000 10.29 280 20:56 21.11.2022
953 Clouds 11 1004 55 10000 9.77 280 19:44 21.11.2022
954 Clouds 11 1014 59 10000 34.87 89 19:26 21.11.2022
955 Clouds 12 1012 62 10000 9.26 270 18:44 21.11.2022
956 Clouds 13 1011 76 10000 11.32 260 16:58 21.11.2022
957 Clouds 14 1011 81 10000 9.26 250 16:40 21.11.2022
958 Clouds 13 1008 87 10000 14.31 91 15:53 21.11.2022
959 Clouds 12 1012 94 8000 5.66 250 14:58 21.11.2022
960 Rain 12 1013 95 3000 8.75 240 13:52 21.11.2022
961 Clouds 13 1016 93 7000 9.77 230 11:39 21.11.2022
962 Clouds 12 1016 92 10000 9.26 230 09:29 21.11.2022
963 Clouds 12 1017 93 10000 8.75 230 07:43 21.11.2022
964 Clouds 11 1007 92 10000 5.14 230 22:48 20.11.2022
965 Clouds 11 1007 90 10000 4.63 220 21:36 20.11.2022
966 Clouds 11 1007 87 10000 4.12 230 20:34 20.11.2022
967 Clear 13 1024 77 10000 5.14 240 18:57 20.11.2022
968 Clouds 16 1024 55 10000 6.17 250 16:50 20.11.2022
969 Clouds 16 1023 61 10000 6.17 260 15:35 20.11.2022
970 Clouds 16 1023 61 10000 6.17 250 14:55 20.11.2022
971 Clouds 14 1024 67 10000 5.14 250 13:51 20.11.2022
972 Clouds 14 1024 67 10000 5.14 250 13:23 20.11.2022
973 Clouds 10 1024 78 10000 4.63 220 11:38 20.11.2022
974 Clouds 9 1024 80 10000 4.12 220 10:57 20.11.2022
975 Clouds 8 1007 83 10000 2.57 220 09:42 20.11.2022
976 Clouds 7 1007 87 10000 4.12 240 08:49 20.11.2022
977 Clouds 6 1008 84 10000 3.09 180 07:30 20.11.2022
978 Clear 6 1008 82 10000 1.79 196 06:43 20.11.2022
979 Clear 7 1006 73 10000 5.14 260 01:26 20.11.2022
980 Clear 8 1006 69 10000 5.66 260 00:45 20.11.2022
981 Clear 8 1005 68 10000 5.66 260 00:26 20.11.2022
982 Clear 8 1005 67 10000 5.66 280 23:56 19.11.2022
983 Clear 8 1006 68 10000 5.14 290 23:26 19.11.2022
984 Clear 8 1022 65 10000 6.69 290 22:42 19.11.2022
985 Clear 8 1022 64 10000 7.2 290 21:39 19.11.2022
986 Clear 9 1005 55 10000 6.69 280 21:20 19.11.2022
987 Clouds 9 1017 56 10000 7.2 290 20:40 19.11.2022
988 Clouds 9 1006 58 10000 6.17 290 19:35 19.11.2022
989 Clouds 10 1006 56 10000 5.14 300 17:47 19.11.2022
990 Clouds 10 1005 55 10000 5.14 310 17:26 19.11.2022
991 Clouds 10 1006 53 10000 6.69 310 16:51 19.11.2022
992 Clouds 11 1019 46 10000 8.75 310 14:43 19.11.2022
993 Clouds 10 1020 47 10000 7.72 310 12:54 19.11.2022
994 Clouds 9 1020 56 10000 8.23 290 11:20 19.11.2022
995 Clouds 7 1005 65 10000 4.12 290 09:44 19.11.2022
996 Clouds 6 1018 73 10000 5.66 260 07:52 19.11.2022
997 Clouds 7 1018 70 10000 7.2 280 04:44 19.11.2022
998 Clouds 8 1017 71 10000 8.05 293 00:43 19.11.2022
999 Clear 8 1016 67 10000 6.17 260 23:26 18.11.2022
1000 Clear 9 1016 63 10000 9.26 280 22:22 18.11.2022
1001 Clear 10 1016 63 10000 8.75 290 21:35 18.11.2022
1002 Clear 10 1016 60 10000 8.75 280 20:56 18.11.2022
1003 Clear 10 1015 60 10000 4.63 270 20:20 18.11.2022
1004 Clear 10 1015 60 10000 6.17 300 19:35 18.11.2022
1005 Clouds 11 1014 51 10000 6.69 310 17:45 18.11.2022
1006 Clouds 12 1012 55 10000 8.75 300 14:47 18.11.2022
1007 Clouds 11 1013 77 10000 8.23 260 11:49 18.11.2022
1008 Clouds 10 1013 88 10000 4.63 240 10:22 18.11.2022
1009 Drizzle 10 1012 92 10000 5.14 250 07:52 18.11.2022
1010 Clouds 10 1012 93 10000 4.12 240 05:27 18.11.2022
1011 Clouds 11 1012 91 10000 3.6 230 02:25 18.11.2022
1012 Clear 13 1012 84 10000 2.57 250 22:56 17.11.2022
1013 Clear 14 1011 79 10000 4.12 250 20:48 17.11.2022
1014 Clouds 14 1011 85 10000 7.72 250 19:51 17.11.2022
1015 Clouds 15 1011 82 10000 7.2 250 19:20 17.11.2022
1016 Clouds 15 1011 71 10000 9.26 250 18:27 17.11.2022
1017 Clouds 16 1009 76 10000 8.75 230 17:30 17.11.2022
1018 Clouds 16 1009 76 10000 8.75 230 17:30 17.11.2022
1019 Clouds 17 1009 79 10000 9.77 230 15:42 17.11.2022
1020 Drizzle 15 1010 93 10000 8.23 220 12:19 17.11.2022
1021 Clouds 14 1010 93 10000 9.26 230 10:29 17.11.2022
1022 Clouds 14 1010 93 8000 10.8 230 07:20 17.11.2022
1023 Mist 13 1012 96 4000 6.69 230 00:52 17.11.2022
1024 Clouds 13 1013 94 7000 7.72 230 22:44 16.11.2022
1025 Clouds 13 1012 85 10000 34.87 91 21:49 16.11.2022
1026 Clouds 12 1012 95 10000 6.71 303 20:31 16.11.2022
1027 Mist 12 1012 95 2000 7.2 220 18:48 16.11.2022
1028 Mist 12 1012 95 2500 8.23 230 17:58 16.11.2022
1029 Clouds 12 1012 93 10000 7.2 230 15:35 16.11.2022
1030 Clouds 12 1013 88 10000 7.2 240 10:56 16.11.2022
1031 Clear 11 1012 93 10000 5.14 250 06:49 16.11.2022
1032 Clouds 13 1012 95 10000 6.17 230 01:35 16.11.2022
1033 Mist 13 1012 95 3200 2.68 225 23:18 15.11.2022
1034 Mist 13 1012 95 2000 3.6 200 21:23 15.11.2022
1035 Drizzle 13 1013 95 10000 4.12 200 19:42 15.11.2022
1036 Drizzle 13 1012 95 10000 3.58 203 18:51 15.11.2022
1037 Rain 14 1012 88 2500 7.2 220 17:35 15.11.2022
1038 Clouds 15 1013 74 10000 10.29 230 16:20 15.11.2022
1039 Clouds 15 1013 72 10000 8.23 230 15:22 15.11.2022
1040 Clouds 15 1014 79 10000 10.29 240 13:39 15.11.2022
1041 Clouds 15 1015 83 10000 10.29 230 12:26 15.11.2022
1042 Drizzle 14 1016 87 10000 9.26 220 11:21 15.11.2022
1043 Clouds 13 1016 91 10000 7.72 210 09:28 15.11.2022
1044 Clouds 13 1012 89 10000 5.36 245 00:42 15.11.2022
1045 Clouds 13 1018 94 10000 5.81 234 00:22 15.11.2022
1046 Clouds 13 1019 93 10000 4.63 200 21:51 14.11.2022
1047 Clouds 14 1019 93 10000 4.02 220 20:43 14.11.2022
1048 Clouds 14 1019 87 10000 7.2 220 18:58 14.11.2022
1049 Clouds 15 1018 83 10000 5.66 210 18:21 14.11.2022
1050 Clouds 14 1006 85 10000 3.13 230 12:55 14.11.2022
1051 Clouds 12 1007 89 10000 2.57 220 11:45 14.11.2022
1052 Clouds 11 1021 90 10000 3.58 203 10:49 14.11.2022
1053 Clouds 9 1020 94 10000 1.79 232 08:30 14.11.2022
1054 Clear 10 1005 94 10000 2.24 204 07:51 14.11.2022
1055 Fog 11 1004 89 10000 1.03 350 00:19 14.11.2022
1056 Clear 12 1004 86 10000 1.34 243 00:19 14.11.2022
1057 Fog 11 1004 89 10000 1.03 350 00:19 14.11.2022
1058 Clear 13 1004 84 10000 0.45 270 22:43 13.11.2022
1059 Clear 13 1004 83 10000 1.03 0 21:40 13.11.2022
1060 Clear 14 1004 80 10000 1.03 210 20:45 13.11.2022
1061 Clear 16 1005 70 10000 1.54 200 18:36 13.11.2022
1062 Clear 17 1020 64 10000 2.06 190 17:49 13.11.2022
1063 Clear 17 1020 64 10000 2.06 60 15:40 13.11.2022
1064 Clear 16 1021 68 10000 1.03 100 14:30 13.11.2022
1065 Clouds 15 1022 73 10000 2.06 40 12:55 13.11.2022
1066 Clouds 13 1022 80 10000 3.09 60 11:34 13.11.2022
1067 Clouds 13 1008 85 10000 3.09 40 10:28 13.11.2022
1068 Clouds 11 1006 87 10000 1.54 10 05:52 13.11.2022
1069 Clouds 13 1007 82 10000 1.54 40 23:44 12.11.2022
1070 Clouds 14 1007 75 10000 4.12 120 21:32 12.11.2022
1071 Clouds 14 1007 73 10000 5.14 110 20:41 12.11.2022
1072 Clouds 14 1008 65 10000 10.73 92 18:57 12.11.2022
1073 Clouds 19 1022 60 10000 7.2 140 16:52 12.11.2022
1074 Clouds 19 1022 59 10000 8.23 130 15:37 12.11.2022
1075 Clouds 17 1023 72 10000 4.12 100 13:39 12.11.2022
1076 Clouds 12 1010 88 10000 3.09 20 09:39 12.11.2022
1077 Clouds 12 1009 87 8000 4.12 50 07:47 12.11.2022
1078 Clouds 14 1009 77 10000 3.09 70 23:45 11.11.2022
1079 Clouds 14 1008 79 10000 2.68 81 20:56 11.11.2022
1080 Clouds 14 1008 78 10000 1.54 70 20:30 11.11.2022
1081 Clouds 14 1010 77 10000 3.09 60 19:27 11.11.2022
1082 Clouds 14 1009 78 10000 3.09 40 18:32 11.11.2022
1083 Clouds 14 1009 71 10000 3.6 70 17:40 11.11.2022
1084 Clouds 14 1009 71 10000 3.6 70 17:40 11.11.2022
1085 Clouds 16 1024 62 10000 3.6 90 14:31 11.11.2022
1086 Clouds 16 1025 62 10000 3.6 80 13:55 11.11.2022
1087 Clouds 14 1026 65 10000 3.09 20 12:26 11.11.2022
1088 Clouds 8 1026 83 10000 3.13 33 08:59 11.11.2022
1089 Clear 8 1010 86 10000 1.79 41 08:26 11.11.2022
1090 Clear 10 1010 80 10000 3.6 310 00:39 11.11.2022
1091 Clear 11 1010 79 10000 1.79 44 22:53 10.11.2022
1092 Clear 12 1006 77 10000 2.06 360 21:44 10.11.2022
1093 Clear 12 1005 76 10000 1.54 10 21:26 10.11.2022
1094 Clear 12 1005 73 10000 1.54 360 20:25 10.11.2022
1095 Clear 13 1008 70 10000 1.54 320 19:56 10.11.2022
1096 Clear 15 1010 60 10000 2.06 90 18:45 10.11.2022
1097 Clear 17 1024 49 10000 0.89 133 17:30 10.11.2022
1098 Clouds 17 1025 50 10000 1.03 80 16:25 10.11.2022
1099 Clear 15 1026 62 10000 1.54 270 13:34 10.11.2022
1100 Clear 9 1026 89 10000 1.34 45 09:38 10.11.2022
1101 Fog 7 1008 94 10000 2.06 80 08:20 10.11.2022
1102 Clear 10 1008 93 10000 1.54 10 01:21 10.11.2022
1103 Clear 11 1007 90 10000 1.54 350 23:20 09.11.2022
1104 Clear 11 1007 87 10000 2.06 330 21:57 09.11.2022
1105 Clear 11 1006 86 10000 1.03 0 20:46 09.11.2022
1106 Clear 12 1006 84 10000 0.51 0 20:28 09.11.2022
1107 Clouds 13 1008 84 10000 2.57 260 19:26 09.11.2022
1108 Clouds 14 1007 80 10000 3.09 260 17:49 09.11.2022
1109 Clouds 15 1021 76 10000 3.09 220 14:59 09.11.2022
1110 Clouds 15 1021 77 10000 3.09 250 14:41 09.11.2022
1111 Clouds 14 1021 84 10000 3.13 225 14:22 09.11.2022
1112 Clouds 13 994 95 10000 2.57 230 12:57 09.11.2022
1113 Clouds 12 1006 94 10000 2.06 230 09:45 09.11.2022
1114 Rain 12 1019 94 7000 5.14 240 07:47 09.11.2022
1115 Clouds 13 1018 94 10000 3.09 210 06:55 09.11.2022
1116 Clouds 14 1018 80 8000 3.6 200 22:50 08.11.2022
1117 Clouds 14 1017 80 10000 3.13 197 21:43 08.11.2022
1118 Clear 14 1017 80 10000 2.24 211 21:21 08.11.2022
1119 Clouds 14 1017 79 10000 1.34 193 20:36 08.11.2022
1120 Clouds 15 1017 71 10000 2.57 200 19:35 08.11.2022
1121 Clouds 16 1011 69 10000 4.63 210 17:38 08.11.2022
1122 Clouds 15 1017 75 10000 7.2 240 15:50 08.11.2022
1123 Clouds 15 1017 80 10000 5.66 230 14:52 08.11.2022
1124 Clouds 15 1018 67 10000 6.69 210 13:35 08.11.2022
1125 Clouds 13 1018 67 10000 2.68 193 11:55 08.11.2022
1126 Clouds 11 1018 76 10000 1.03 0 08:25 08.11.2022
1127 Clear 11 1018 79 10000 0.89 206 06:53 08.11.2022
1128 Clear 13 1019 70 10000 1.03 190 23:52 07.11.2022
1129 Clouds 13 1019 68 10000 2.57 280 22:23 07.11.2022
1130 Clear 14 1018 65 10000 1.03 270 21:20 07.11.2022
1131 Clear 15 1018 60 10000 2.06 260 20:18 07.11.2022
1132 Clear 18 1018 48 10000 2.57 280 17:51 07.11.2022
1133 Clear 18 1018 48 10000 2.57 190 16:27 07.11.2022
1134 Clear 18 1019 54 10000 3.09 150 15:34 07.11.2022
1135 Clear 17 1020 59 10000 2.06 140 14:31 07.11.2022
1136 Clear 14 1022 65 10000 1.03 110 12:34 07.11.2022
1137 Clear 11 1022 68 10000 2.06 330 10:48 07.11.2022
1138 Clear 9 1007 100 10000 1.79 72 09:25 07.11.2022
1139 Clear 8 1007 84 10000 1.03 100 07:29 07.11.2022
1140 Clear 9 1006 79 10000 1.54 350 03:39 07.11.2022
1141 Clear 11 1006 75 10000 1.54 340 01:19 07.11.2022
1142 Clear 12 1005 65 10000 1.54 230 22:18 06.11.2022
1143 Clear 14 1007 59 10000 1.79 330 21:19 06.11.2022
1144 Clear 14 1007 54 10000 1.79 272 20:20 06.11.2022
1145 Clear 15 1008 48 10000 3.09 250 19:33 06.11.2022
1146 Clear 17 1008 43 10000 4.12 240 18:39 06.11.2022
1147 Clear 17 1020 40 10000 4.12 230 18:19 06.11.2022
1148 Clear 19 1020 37 10000 3.09 220 17:20 06.11.2022
1149 Clear 19 1020 38 10000 3.6 230 16:37 06.11.2022
1150 Clear 18 1019 38 10000 2.57 210 15:43 06.11.2022
1151 Clear 13 1022 52 10000 1.79 246 12:48 06.11.2022
1152 Clear 12 1021 55 10000 1.54 120 11:58 06.11.2022
1153 Clear 10 1021 65 10000 1.03 0 10:40 06.11.2022
1154 Clear 5 1003 85 10000 1.54 10 07:45 06.11.2022
1155 Clear 9 1005 71 10000 1.54 350 00:50 06.11.2022
1156 Clear 10 1002 65 10000 2.06 350 22:52 05.11.2022
1157 Clear 14 1008 50 10000 1.54 230 19:21 05.11.2022
1158 Clear 17 1021 36 10000 1.54 150 17:23 05.11.2022
1159 Clear 16 1022 40 10000 2.06 180 15:45 05.11.2022
1160 Clear 15 1023 43 10000 1.54 260 14:33 05.11.2022
1161 Clear 13 1024 54 10000 1.03 0 12:38 05.11.2022
1162 Clear 9 1024 69 10000 1.03 0 10:23 05.11.2022
1163 Clear 6 1009 80 10000 1.79 31 07:58 05.11.2022
1164 Clear 5 1007 82 10000 1.54 50 06:57 05.11.2022
1165 Clear 8 1005 76 10000 1.54 330 02:35 05.11.2022
1166 Clear 10 1008 66 10000 1.79 58 23:34 04.11.2022
1167 Clear 10 1005 62 10000 1.54 110 22:20 04.11.2022
1168 Clear 12 1009 51 10000 4.12 40 19:54 04.11.2022
1169 Clear 12 1009 51 10000 4.12 40 19:53 04.11.2022
1170 Clear 15 1022 37 10000 2.06 350 17:45 04.11.2022
1171 Clear 16 1022 37 10000 2.06 280 16:33 04.11.2022
1172 Clear 15 1022 49 10000 2.57 290 13:24 04.11.2022
1173 Clear 14 1023 55 10000 2.57 340 12:21 04.11.2022
1174 Fog 9 1021 75 10000 2.06 310 09:31 04.11.2022
1175 Clear 9 1004 74 10000 3.09 290 08:21 04.11.2022
1176 Fog 9 1006 76 10000 4.63 290 07:26 04.11.2022
1177 Clouds 12 1004 82 10000 4.12 240 00:58 04.11.2022
1178 Clouds 13 1008 90 10000 5.14 240 22:25 03.11.2022
1179 Clouds 12 1009 92 10000 5.66 230 20:48 03.11.2022
1180 Drizzle 13 1003 90 7000 7.2 230 19:43 03.11.2022
1181 Clouds 13 1019 80 5000 7.72 250 18:46 03.11.2022
1182 Clouds 15 1006 69 10000 9.26 240 17:38 03.11.2022
1183 Clouds 16 1005 56 10000 9.77 230 15:41 03.11.2022
1184 Clouds 16 1020 48 10000 10.29 240 13:51 03.11.2022
1185 Clouds 15 1021 68 10000 6.69 230 12:35 03.11.2022
1186 Clouds 14 1007 85 10000 6.17 250 11:43 03.11.2022
1187 Clear 13 1005 79 10000 4.12 220 07:51 03.11.2022
1188 Clear 13 1019 78 10000 2.57 200 06:47 03.11.2022
1189 Clouds 17 1006 63 10000 2.06 280 20:57 02.11.2022
1190 Clear 17 1006 62 10000 1.03 250 20:33 02.11.2022
1191 Clouds 18 1010 55 10000 2.06 320 18:58 02.11.2022
1192 Clouds 21 1022 48 10000 3.09 230 16:34 02.11.2022
1193 Clouds 21 1023 48 10000 2.06 210 15:35 02.11.2022
1194 Clouds 20 1024 55 10000 1.54 110 13:42 02.11.2022
1195 Clouds 18 1025 60 10000 1.54 90 12:35 02.11.2022
1196 Clouds 15 1026 72 10000 2.57 40 10:45 02.11.2022
1197 Clouds 11 1011 85 10000 1.79 42 08:43 02.11.2022
1198 Clouds 12 1009 82 10000 1.54 360 03:32 02.11.2022
1199 Clouds 15 1009 76 10000 1.54 350 22:53 01.11.2022
1200 Clouds 15 1009 74 10000 1.03 220 22:18 01.11.2022
1201 Clouds 16 1009 69 10000 1.03 250 21:20 01.11.2022
1202 Clouds 16 1008 69 10000 0.51 280 20:23 01.11.2022
1203 Clear 17 1010 63 10000 2.06 190 19:41 01.11.2022
1204 Clear 19 1009 56 10000 2.06 200 18:30 01.11.2022
1205 Clouds 20 1024 55 10000 3.6 260 16:53 01.11.2022
1206 Clouds 19 1024 58 10000 3.09 220 15:19 01.11.2022
1207 Clouds 18 1025 68 10000 2.57 260 13:24 01.11.2022
1208 Clouds 17 1026 73 10000 1.54 220 12:26 01.11.2022
1209 Clouds 16 1026 77 10000 1.03 0 11:21 01.11.2022
1210 Clouds 14 1025 89 10000 1.54 170 09:25 01.11.2022
1211 Clouds 13 1008 92 10000 2.24 199 07:54 01.11.2022
1212 Clouds 13 1024 91 10000 0.51 0 07:28 01.11.2022
1213 Clouds 14 1007 90 10000 0.51 0 06:46 01.11.2022
1214 Clouds 14 1023 90 10000 0.45 162 05:52 01.11.2022
1215 Clouds 14 1022 85 10000 2.06 160 22:52 31.10.2022
1216 Clouds 14 1022 84 10000 2.06 220 21:34 31.10.2022
1217 Clouds 15 1007 81 10000 7.2 210 19:58 31.10.2022
1218 Clouds 15 1006 83 10000 4.92 206 18:45 31.10.2022
1219 Rain 16 1006 79 10000 3.09 160 16:45 31.10.2022
1220 Clouds 16 1020 75 10000 5.14 220 15:45 31.10.2022
1221 Clear 15 1020 76 10000 2.06 50 12:49 31.10.2022
1222 Clear 13 1019 85 10000 1.03 0 09:46 31.10.2022
1223 Clear 12 1018 84 10000 2.06 40 07:41 31.10.2022
1224 Clouds 13 1003 85 10000 2.06 340 02:50 31.10.2022
1225 Clouds 13 1004 84 10000 1.34 53 01:49 31.10.2022
1226 Clear 13 1001 81 10000 1.03 350 22:25 30.10.2022
1227 Clear 15 1004 74 10000 1.54 300 20:44 30.10.2022
1228 Clear 16 1020 68 10000 2.06 190 19:53 30.10.2022
1229 Clouds 19 1020 57 10000 1.34 210 16:48 30.10.2022
1230 Clouds 18 1020 65 10000 1.34 218 14:57 30.10.2022
1231 Clear 18 1006 67 10000 2.06 220 13:51 30.10.2022
1232 Clear 17 1022 66 10000 1.34 208 12:30 30.10.2022
1233 Clear 16 1007 68 10000 1.54 70 10:49 30.10.2022
1234 Clear 16 1005 68 10000 1.54 70 10:49 30.10.2022
1235 Clear 14 1006 74 10000 2.24 29 09:36 30.10.2022
1236 Clear 13 1006 74 10000 1.34 67 08:20 30.10.2022
1237 Clear 18 1004 54 10000 2.06 330 00:30 30.10.2022
1238 Clear 18 1004 53 9000 2.06 70 23:48 29.10.2022
1239 Clear 18 1004 51 10000 1.03 0 22:52 29.10.2022
1240 Clear 19 1006 47 10000 3.09 10 20:52 29.10.2022
1241 Clear 23 1020 38 10000 3.6 360 17:34 29.10.2022
1242 Clear 23 1021 38 10000 2.57 160 15:51 29.10.2022
1243 Clear 22 1021 39 10000 3.6 120 15:24 29.10.2022
1244 Clear 21 1022 41 10000 4.12 110 14:43 29.10.2022
1245 Clear 19 1023 49 10000 3.09 110 12:34 29.10.2022
1246 Clear 16 1008 64 10000 2.24 99 10:36 29.10.2022
1247 Clear 15 1006 65 10000 2.06 330 07:33 29.10.2022
1248 Clear 16 1003 63 10000 1.54 10 05:55 29.10.2022
1249 Clear 18 1023 56 10000 2.06 330 03:54 29.10.2022
1250 Clear 20 1007 50 10000 2.57 330 22:33 28.10.2022
1251 Clear 20 1009 49 10000 3.09 330 20:46 28.10.2022
1252 Clear 22 1009 44 10000 3.6 20 18:58 28.10.2022
1253 Clear 23 1009 43 10000 3.09 20 18:31 28.10.2022
1254 Clear 23 1025 43 10000 4.12 330 15:30 28.10.2022
1255 Clear 23 1025 43 10000 4.12 330 15:30 28.10.2022
1256 Clear 22 1026 43 10000 3.09 340 14:43 28.10.2022
1257 Clear 19 1027 54 10000 3.09 40 12:31 28.10.2022
1258 Clear 18 1013 60 10000 3.09 20 11:34 28.10.2022
1259 Clear 17 1011 61 10000 2.24 45 10:47 28.10.2022
1260 Clear 15 1012 65 10000 2.06 20 09:47 28.10.2022
1261 Clear 15 1009 64 10000 2.06 30 08:21 28.10.2022
1262 Clear 18 1009 55 10000 3.09 130 03:43 28.10.2022
1263 Clear 19 1008 55 10000 2.06 330 23:49 27.10.2022
1264 Clear 20 1007 50 10000 2.24 58 22:40 27.10.2022
1265 Clear 20 1007 48 10000 1.79 0 21:35 27.10.2022
1266 Clear 21 1009 45 10000 1.54 10 20:27 27.10.2022
1267 Clear 23 1009 40 10000 4.12 10 18:22 27.10.2022
1268 Clear 23 1024 41 10000 3.6 340 14:23 27.10.2022
1269 Clear 17 1009 63 10000 3.09 330 09:24 27.10.2022
1270 Clear 17 1005 65 10000 3.09 320 06:24 27.10.2022
1271 Clear 19 1006 62 10000 3.09 310 23:56 26.10.2022
1272 Drizzle 19 1006 59 10000 4.63 340 22:51 26.10.2022
1273 Clear 19 1007 59 10000 3.09 330 22:22 26.10.2022
1274 Clear 20 1008 50 10000 2.57 40 19:53 26.10.2022
1275 Clear 22 1022 46 10000 2.57 190 16:35 26.10.2022
1276 Clear 21 1023 49 10000 3.09 240 14:52 26.10.2022
1277 Clear 19 1022 58 10000 0.89 162 12:39 26.10.2022
1278 Clear 17 1022 69 10000 1.54 350 11:26 26.10.2022
1279 Clear 14 1004 82 10000 1.03 0 08:54 26.10.2022
1280 Clear 14 1006 79 10000 0.89 78 08:36 26.10.2022
1281 Clear 16 1020 71 10000 1.54 10 00:48 26.10.2022
1282 Clear 17 1004 60 10000 0.89 220 00:29 26.10.2022
1283 Clear 18 1003 55 10000 1.34 284 21:56 25.10.2022
1284 Clear 18 1005 52 10000 1.79 270 21:24 25.10.2022
1285 Clear 20 1014 44 10000 3.09 250 19:57 25.10.2022
1286 Clear 22 1018 40 10000 5.66 240 18:38 25.10.2022
1287 Clear 22 1018 47 10000 4.12 240 14:58 25.10.2022
1288 Clear 16 1019 77 10000 2.06 40 11:40 25.10.2022
1289 Clear 14 1018 83 10000 2.68 86 10:46 25.10.2022
1290 Clear 14 1018 83 10000 2.68 86 10:28 25.10.2022
1291 Clear 13 1018 87 10000 2.68 45 08:19 25.10.2022
1292 Clear 13 1018 87 10000 1.54 10 07:59 25.10.2022
1293 Clear 13 1018 88 10000 1.34 45 07:41 25.10.2022
1294 Clear 14 1003 85 10000 2.57 330 04:27 25.10.2022
1295 Clear 14 1004 85 10000 2.06 330 03:21 25.10.2022
1296 Clear 15 1004 82 10000 1.79 79 00:31 25.10.2022
1297 Clear 15 1004 79 10000 1.54 360 22:25 24.10.2022
1298 Clear 16 1004 76 10000 1.54 350 21:34 24.10.2022
1299 Clear 16 1006 78 10000 1.03 0 20:44 24.10.2022
1300 Clear 16 1006 77 10000 1.03 0 20:19 24.10.2022
1301 Clear 17 1020 69 10000 1.54 200 17:53 24.10.2022
1302 Clouds 17 1020 69 10000 2.24 270 16:54 24.10.2022
1303 Clouds 17 1021 70 10000 1.54 140 14:50 24.10.2022
1304 Clouds 16 1021 71 10000 1.34 208 14:18 24.10.2022
1305 Clouds 15 1021 79 10000 1.34 292 12:26 24.10.2022
1306 Fog 12 1005 95 9000 1.03 180 08:51 24.10.2022
1307 Clouds 14 1019 92 10000 2.06 210 00:58 24.10.2022
1308 Clear 15 1018 88 10000 1.54 190 21:44 23.10.2022
1309 Clouds 15 1018 88 10000 3.6 230 20:25 23.10.2022
1310 Clouds 16 1018 83 10000 5.14 240 18:26 23.10.2022
1311 Clouds 16 1017 84 10000 5.66 0 17:27 23.10.2022
1312 Drizzle 14 1018 87 4500 5.14 240 15:24 23.10.2022
1313 Clouds 15 1018 87 3500 6.17 240 14:46 23.10.2022
1314 Clouds 17 1017 76 10000 7.2 220 11:25 23.10.2022
1315 Clouds 16 1015 81 10000 3.58 229 09:18 23.10.2022
1316 Clear 16 1014 86 10000 3.13 209 03:52 23.10.2022
1317 Clouds 15 1016 91 10000 4.12 230 22:48 22.10.2022
1318 Rain 15 1015 91 10000 9.26 240 21:43 22.10.2022
1319 Rain 16 1016 78 10000 10.29 260 20:56 22.10.2022
1320 Clouds 20 1014 58 10000 16.46 250 19:52 22.10.2022
1321 Clouds 22 1013 52 10000 6.71 203 19:29 22.10.2022
1322 Clouds 22 1013 61 10000 5.81 202 17:39 22.10.2022
1323 Clouds 21 1015 61 10000 5.14 140 15:58 22.10.2022
1324 Clouds 19 1017 67 10000 4.63 150 14:46 22.10.2022
1325 Clouds 18 1018 72 10000 5.14 150 13:54 22.10.2022
1326 Fog 14 1019 95 6000 2.57 110 10:30 22.10.2022
1327 Mist 13 1018 96 5000 1.54 120 09:39 22.10.2022
1328 Clouds 13 1018 94 10000 1.54 140 08:30 22.10.2022
1329 Clouds 14 1018 95 9000 2.57 170 03:42 22.10.2022
1330 Rain 15 1018 87 10000 1.79 196 23:53 21.10.2022
1331 Rain 15 1018 84 10000 4.63 230 21:41 21.10.2022
1332 Rain 15 1018 83 10000 4.63 230 21:23 21.10.2022
1333 Clouds 16 1017 77 10000 7.72 220 19:56 21.10.2022
1334 Clouds 18 1016 71 10000 6.69 190 17:20 21.10.2022
1335 Clouds 17 1017 76 10000 6.17 220 14:23 21.10.2022
1336 Clouds 17 1017 76 10000 8.23 220 13:22 21.10.2022
1337 Clouds 16 1017 87 10000 4.12 170 11:33 21.10.2022
1338 Clouds 15 1017 93 10000 3.6 160 10:21 21.10.2022
1339 Drizzle 14 1016 92 10000 2.57 200 08:39 21.10.2022
1340 Clouds 14 1016 94 10000 4.63 210 07:47 21.10.2022
1341 Clouds 14 1016 95 10000 3.09 210 02:30 21.10.2022
1342 Clouds 15 1016 89 10000 4.63 180 22:32 20.10.2022
1343 Clouds 15 1016 88 10000 5.66 210 20:48 20.10.2022
1344 Clouds 14 1015 88 10000 3.58 227 19:40 20.10.2022
1345 Rain 14 1016 80 10000 4.12 160 17:54 20.10.2022
1346 Clouds 15 1016 77 10000 6.69 200 17:33 20.10.2022
1347 Clouds 20 1016 54 10000 8.75 190 13:32 20.10.2022
1348 Clouds 19 1016 55 10000 9.77 190 12:30 20.10.2022
1349 Clouds 19 1016 54 10000 8.94 203 11:25 20.10.2022
1350 Clouds 18 1016 54 10000 7.2 180 10:51 20.10.2022
1351 Clouds 17 1015 60 10000 6.17 190 08:27 20.10.2022
1352 Clear 17 1015 63 10000 1.54 130 05:45 20.10.2022
1353 Clear 19 1017 47 10000 4.12 190 01:54 20.10.2022
1354 Clouds 21 1018 37 10000 10.73 203 22:47 19.10.2022
1355 Clouds 21 1018 40 10000 10.8 210 21:59 19.10.2022
1356 Clouds 21 1018 43 10000 9.77 200 21:18 19.10.2022
1357 Drizzle 23 1018 38 10000 10.8 210 18:54 19.10.2022
1358 Clouds 25 1017 35 10000 12.35 210 17:39 19.10.2022
1359 Clouds 24 1018 45 10000 6.69 240 16:22 19.10.2022
1360 Clear 24 1019 42 10000 6.69 220 13:53 19.10.2022
1361 Clear 19 1006 53 10000 1.34 166 10:23 19.10.2022
1362 Clear 18 1006 57 10000 2.68 135 08:35 19.10.2022
1363 Clear 17 1006 62 10000 0.89 66 06:50 19.10.2022
1364 Clear 20 1009 54 10000 1.54 360 01:29 19.10.2022
1365 Clear 21 1009 53 10000 1.54 350 23:22 18.10.2022
1366 Clear 23 1009 48 10000 2.06 130 21:48 18.10.2022
1367 Clear 23 1011 45 10000 0.89 196 20:59 18.10.2022
1368 Clear 24 1011 42 10000 2.06 300 20:24 18.10.2022
1369 Clear 28 1022 32 10000 3.6 230 18:29 18.10.2022
1370 Clear 28 1023 33 10000 3.13 208 16:55 18.10.2022
1371 Clear 26 1024 43 10000 2.57 0 14:58 18.10.2022
1372 Clear 23 1025 53 10000 2.57 110 13:22 18.10.2022
1373 Clear 18 1025 70 10000 2.57 80 11:27 18.10.2022
1374 Clear 17 1025 76 10000 2.06 40 10:23 18.10.2022
1375 Clear 15 1010 83 10000 2.06 60 08:40 18.10.2022
1376 Clear 16 1010 78 10000 2.24 17 05:45 18.10.2022
1377 Clear 20 1010 62 10000 2.24 52 22:56 17.10.2022
1378 Clear 21 1009 57 10000 1.34 45 21:21 17.10.2022
1379 Clear 22 1011 54 10000 2.06 110 20:43 17.10.2022
1380 Clear 22 1011 52 10000 2.06 110 20:20 17.10.2022
1381 Clear 25 1010 42 10000 2.06 360 19:37 17.10.2022
1382 Clear 25 1022 41 10000 3.09 200 17:38 17.10.2022
1383 Clouds 25 1023 46 10000 5.14 180 15:54 17.10.2022
1384 Clear 23 1024 51 10000 1.54 140 14:35 17.10.2022
1385 Clear 19 1010 73 10000 2.57 100 12:29 17.10.2022
1386 Clear 16 1002 88 10000 3.58 45 07:25 17.10.2022
1387 Clouds 20 1006 52 10000 3.09 340 00:27 17.10.2022
1388 Clear 21 1019 47 10000 3.09 330 22:26 16.10.2022
1389 Clear 21 1018 42 10000 0.51 360 21:20 16.10.2022
1390 Clear 24 1018 35 10000 2.57 220 19:50 16.10.2022
1391 Clear 25 1017 37 10000 3.09 170 18:37 16.10.2022
1392 Clear 25 1018 36 10000 3.6 180 17:43 16.10.2022
1393 Clear 24 1018 39 10000 3.6 170 16:24 16.10.2022
1394 Clear 24 1018 38 10000 3.6 190 15:50 16.10.2022
1395 Clear 20 1020 48 10000 2.06 100 12:25 16.10.2022
1396 Clear 16 1020 61 10000 1.54 80 10:46 16.10.2022
1397 Clear 16 1019 60 10000 1.54 80 10:25 16.10.2022
1398 Clear 17 1018 60 10000 1.54 360 03:57 16.10.2022
1399 Clear 20 1017 49 10000 1.54 140 23:42 15.10.2022
1400 Clear 22 1016 40 10000 2.57 250 21:29 15.10.2022
1401 Clear 22 1016 40 10000 2.57 250 21:29 15.10.2022
1402 Clear 23 1015 35 10000 3.09 240 20:57 15.10.2022
1403 Clear 25 1015 31 10000 4.12 230 19:30 15.10.2022
1404 Clear 26 1015 32 10000 5.14 240 16:18 15.10.2022
1405 Clear 26 1016 34 10000 4.12 210 15:43 15.10.2022
1406 Clear 22 1018 45 10000 1.03 110 13:18 15.10.2022
1407 Clear 19 1019 54 10000 1.54 90 11:40 15.10.2022
1408 Clear 14 1018 73 10000 1.34 27 09:26 15.10.2022
1409 Clear 14 1018 72 10000 1.79 46 06:35 15.10.2022
1410 Clear 19 1001 53 10000 1.03 350 00:40 15.10.2022
1411 Clear 20 1000 49 10000 1.03 0 22:36 14.10.2022
1412 Clear 20 1000 48 10000 1.03 0 22:18 14.10.2022
1413 Clear 23 1006 39 10000 1.54 190 20:33 14.10.2022
1414 Clear 26 1021 32 10000 3.09 190 18:39 14.10.2022
1415 Clear 25 1023 38 10000 3.6 250 15:32 14.10.2022
1416 Clear 20 1025 52 10000 1.54 190 12:47 14.10.2022
1417 Clear 18 1009 64 10000 1.54 80 10:54 14.10.2022
1418 Clear 13 1007 82 10000 1.54 110 08:25 14.10.2022
1419 Clear 14 1005 78 10000 1.54 360 06:45 14.10.2022
1420 Clear 15 1005 76 10000 1.03 0 06:18 14.10.2022
1421 Clear 15 1005 75 10000 1.79 69 05:41 14.10.2022
1422 Clear 17 1009 68 10000 1.03 350 02:18 14.10.2022
1423 Clear 19 1009 58 10000 3.09 260 23:22 13.10.2022
1424 Clear 21 1009 52 10000 3.09 240 21:39 13.10.2022
1425 Clear 22 1011 48 10000 2.57 240 20:42 13.10.2022
1426 Clear 23 1010 45 10000 2.57 240 19:42 13.10.2022
1427 Clear 24 1024 41 10000 2.57 230 18:51 13.10.2022
1428 Clear 24 1024 41 10000 3.09 240 18:20 13.10.2022
1429 Clouds 23 1024 42 10000 1.54 170 15:49 13.10.2022
1430 Clear 22 1025 48 10000 1.54 0 14:59 13.10.2022
1431 Clear 21 1026 54 10000 1.03 0 13:53 13.10.2022
1432 Clear 19 1027 61 10000 1.54 110 12:38 13.10.2022
1433 Clear 15 1026 74 10000 1.34 86 10:31 13.10.2022
1434 Clear 13 1011 81 10000 1.34 50 08:34 13.10.2022
1435 Clear 13 1011 82 10000 1.79 40 08:34 13.10.2022
1436 Clouds 14 1009 79 10000 1.34 46 07:37 13.10.2022
1437 Clear 15 1024 74 10000 1.34 94 03:46 13.10.2022
1438 Clear 17 1024 71 10000 2.06 330 01:40 13.10.2022
1439 Clouds 18 1008 67 10000 1.54 320 00:24 13.10.2022
1440 Clouds 19 1007 64 10000 3.09 250 22:44 12.10.2022
1441 Clouds 20 1006 61 10000 1.03 240 21:40 12.10.2022
1442 Clouds 20 1006 59 10000 1.54 220 21:18 12.10.2022
1443 Clouds 21 1007 55 10000 2.57 240 20:28 12.10.2022
1444 Clouds 23 1007 47 10000 2.06 320 19:22 12.10.2022
1445 Clouds 23 1021 44 10000 2.06 230 17:55 12.10.2022
1446 Clouds 23 1021 46 10000 1.54 200 16:54 12.10.2022
1447 Clouds 21 1023 58 10000 1.03 0 14:26 12.10.2022
1448 Clouds 20 1023 60 10000 1.54 60 13:53 12.10.2022
1449 Clear 17 1023 73 10000 2.57 30 11:47 12.10.2022
1450 Clear 13 1022 89 10000 2.57 40 09:27 12.10.2022
1451 Clouds 13 1006 92 10000 2.06 360 07:42 12.10.2022
1452 Clear 13 1002 93 10000 0.51 0 06:44 12.10.2022
1453 Clear 14 1005 89 10000 1.34 90 05:18 12.10.2022
1454 Clear 17 1005 78 10000 2.06 100 23:40 11.10.2022
1455 Clouds 18 1001 75 10000 1.03 0 21:25 11.10.2022
1456 Clouds 19 1003 75 10000 1.54 230 20:26 11.10.2022
1457 Clouds 20 993 73 10000 3.09 330 18:25 11.10.2022
1458 Clouds 21 1019 57 10000 2.57 40 15:55 11.10.2022
1459 Clouds 19 1021 71 10000 1.54 320 13:37 11.10.2022
1460 Clouds 16 1021 85 10000 2.06 70 10:47 11.10.2022
1461 Clouds 16 1004 89 9000 2.57 50 10:26 11.10.2022
1462 Clouds 15 1003 91 10000 2.57 30 08:32 11.10.2022
1463 Clouds 16 1000 91 10000 2.06 360 04:23 11.10.2022
1464 Clear 17 996 87 10000 1.03 0 00:47 11.10.2022
1465 Clouds 17 996 87 10000 1.54 60 23:52 10.10.2022
1466 Clouds 17 1002 80 10000 2.57 350 20:58 10.10.2022
1467 Clouds 17 1018 75 10000 3.6 340 19:43 10.10.2022
1468 Clouds 19 1018 75 10000 5.66 270 17:52 10.10.2022
1469 Clouds 21 1018 63 10000 3.09 170 16:37 10.10.2022
1470 Clouds 19 1019 72 10000 2.06 130 14:31 10.10.2022
1471 Clouds 17 999 85 10000 2.57 80 12:24 10.10.2022
1472 Clouds 15 1018 92 10000 2.57 40 10:20 10.10.2022
1473 Clear 16 1017 74 10000 1.03 0 07:41 10.10.2022
1474 Clouds 16 1016 73 10000 2.06 110 05:38 10.10.2022
1475 Clear 17 1017 65 10000 1.03 0 02:42 10.10.2022
1476 Clear 19 1017 58 10000 2.24 77 00:24 10.10.2022
1477 Clear 20 1017 56 10000 0.51 0 22:27 09.10.2022
1478 Clear 20 1017 54 10000 1.54 40 21:50 09.10.2022
1479 Clear 21 1016 49 10000 1.03 290 20:54 09.10.2022
1480 Clear 23 1016 45 10000 1.03 0 19:53 09.10.2022
1481 Clear 24 1016 44 10000 1.54 180 19:23 09.10.2022
1482 Clouds 25 1016 41 10000 1.79 210 18:28 09.10.2022
1483 Clouds 24 1016 47 10000 2.57 190 16:56 09.10.2022
1484 Clouds 24 1017 49 10000 2.57 170 16:25 09.10.2022
1485 Clouds 23 1018 51 10000 3.09 190 15:36 09.10.2022
1486 Clouds 22 1018 56 10000 2.57 120 14:28 09.10.2022
1487 Clouds 20 1019 63 10000 2.06 0 12:57 09.10.2022
1488 Clouds 18 1020 68 10000 3.6 70 11:44 09.10.2022
1489 Clouds 17 1020 69 10000 2.57 60 10:25 09.10.2022
1490 Clouds 16 1005 75 10000 4.12 40 08:24 09.10.2022
1491 Clear 16 1006 68 10000 0.89 127 03:36 09.10.2022
1492 Clear 17 1006 67 10000 1.54 40 02:23 09.10.2022
1493 Clear 19 1006 59 10000 4.12 100 23:57 08.10.2022
1494 Clear 20 1018 46 10000 3.13 92 22:53 08.10.2022
1495 Clear 21 1018 44 10000 3.09 330 21:44 08.10.2022
1496 Clear 22 1018 40 10000 2.57 340 20:25 08.10.2022
1497 Clear 24 1017 33 10000 2.06 20 18:32 08.10.2022
1498 Clear 25 1018 39 10000 3.09 50 15:59 08.10.2022
1499 Clear 24 1020 44 10000 2.68 107 14:52 08.10.2022
1500 Clear 21 1021 56 10000 1.79 83 13:20 08.10.2022
1501 Clear 16 1021 69 10000 2.57 20 10:37 08.10.2022
1502 Clear 15 1020 73 10000 1.79 28 09:55 08.10.2022
1503 Clear 14 1006 76 10000 2.06 10 08:47 08.10.2022
1504 Clear 17 1006 68 10000 1.79 19 03:53 08.10.2022
1505 Clear 18 1007 59 10000 1.34 79 00:37 08.10.2022
1506 Clear 19 1004 56 10000 1.54 90 23:21 07.10.2022
1507 Clear 20 1006 54 10000 1.54 360 22:49 07.10.2022
1508 Clear 21 1006 51 10000 1.03 330 21:29 07.10.2022
1509 Clear 23 1007 43 10000 1.03 0 19:34 07.10.2022
1510 Clear 23 1020 44 10000 2.06 0 17:47 07.10.2022
1511 Clear 23 1021 47 10000 2.06 110 16:41 07.10.2022
1512 Clouds 22 1022 52 10000 1.79 162 14:59 07.10.2022
1513 Clear 20 1024 59 10000 1.54 0 13:23 07.10.2022
1514 Clear 16 1024 70 10000 2.06 20 10:29 07.10.2022
1515 Clear 14 1007 82 10000 2.57 90 09:24 07.10.2022
1516 Clear 14 1010 81 10000 1.54 10 08:19 07.10.2022
1517 Clear 17 1012 70 10000 2.06 120 02:26 07.10.2022
1518 Clear 21 1011 47 10000 3.6 150 22:52 06.10.2022
1519 Clear 21 1008 45 10000 1.54 170 21:50 06.10.2022
1520 Clear 22 1011 44 10000 1.79 208 21:29 06.10.2022
1521 Clear 23 1012 39 10000 1.54 110 20:36 06.10.2022
1522 Clouds 26 1024 32 10000 2.57 160 18:46 06.10.2022
1523 Clouds 26 1024 32 10000 2.06 40 18:19 06.10.2022
1524 Clouds 24 1026 45 10000 2.57 90 15:33 06.10.2022
1525 Clear 21 1028 58 10000 1.79 85 12:49 06.10.2022
1526 Clear 16 1013 66 10000 2.57 40 08:22 06.10.2022
1527 Clear 18 1012 72 10000 2.24 102 04:32 06.10.2022
1528 Clear 21 1012 50 10000 3.09 110 00:44 06.10.2022
1529 Clear 23 1010 42 10000 1.03 0 21:52 05.10.2022
1530 Clear 27 1022 32 10000 2.06 150 19:31 05.10.2022
1531 Clear 27 1022 33 10000 2.57 120 17:37 05.10.2022
1532 Clear 26 1023 37 10000 2.06 0 16:22 05.10.2022
1533 Clear 25 1024 41 10000 2.24 150 14:52 05.10.2022
1534 Clear 24 1024 44 10000 1.54 0 14:20 05.10.2022
1535 Clear 21 1025 51 10000 2.06 80 12:28 05.10.2022
1536 Clear 19 1025 48 10000 1.54 50 10:36 05.10.2022
1537 Clear 16 1011 50 10000 2.06 20 07:57 05.10.2022
1538 Clear 17 1009 48 10000 1.79 49 06:24 05.10.2022
1539 Clear 18 1007 45 10000 1.54 60 05:27 05.10.2022
1540 Clear 21 1009 38 7000 2.57 310 02:20 05.10.2022
1541 Clear 22 1007 34 8000 2.24 48 00:28 05.10.2022
1542 Clear 23 1009 33 10000 2.57 320 22:51 04.10.2022
1543 Clear 26 1009 26 10000 2.06 220 20:40 04.10.2022
1544 Clear 28 1021 22 10000 2.06 220 19:47 04.10.2022
1545 Clear 29 1021 21 10000 2.57 190 18:40 04.10.2022
1546 Clear 30 1021 21 10000 1.54 210 17:51 04.10.2022
1547 Clear 29 1021 22 10000 1.54 0 16:50 04.10.2022
1548 Clear 26 1023 29 10000 1.54 20 13:52 04.10.2022
1549 Clear 18 1007 48 10000 2.06 30 09:52 04.10.2022
1550 Clear 17 1003 46 10000 0.89 37 07:34 04.10.2022
1551 Clear 19 1006 42 9000 0.89 86 02:41 04.10.2022
1552 Clear 22 1008 35 10000 1.54 280 23:42 03.10.2022
1553 Clear 23 1008 31 10000 2.06 10 22:19 03.10.2022
1554 Clear 24 1007 29 10000 3.09 250 21:23 03.10.2022
1555 Clear 25 1009 25 10000 2.57 260 20:32 03.10.2022
1556 Clear 28 1021 20 10000 3.09 250 18:46 03.10.2022
1557 Clear 28 1021 19 10000 2.06 310 17:30 03.10.2022
1558 Clear 27 1022 21 10000 1.34 259 15:51 03.10.2022
1559 Clear 25 1023 24 10000 1.54 100 14:22 03.10.2022
1560 Clear 23 1024 26 10000 1.34 79 12:34 03.10.2022
1561 Clear 18 1008 32 10000 1.03 0 10:40 03.10.2022
1562 Clear 16 1010 36 10000 1.54 360 09:46 03.10.2022
1563 Clear 15 1009 39 10000 1.54 90 08:43 03.10.2022
1564 Clear 17 1008 32 10000 1.34 85 03:52 03.10.2022
1565 Clear 22 1010 23 10000 2.24 42 22:55 02.10.2022
1566 Clear 23 1010 22 10000 2.57 330 21:33 02.10.2022
1567 Clear 26 1023 18 10000 2.06 340 19:47 02.10.2022
1568 Clear 27 1024 17 10000 2.06 50 17:55 02.10.2022
1569 Clear 27 1025 18 10000 2.06 0 16:51 02.10.2022
1570 Clear 26 1025 18 10000 2.57 0 16:30 02.10.2022
1571 Clear 25 1026 21 10000 3.09 80 14:57 02.10.2022
1572 Clear 23 1028 28 10000 2.57 50 13:46 02.10.2022
1573 Clear 21 1028 35 10000 3.09 40 12:39 02.10.2022
1574 Clear 19 1028 42 10000 3.09 40 11:43 02.10.2022
1575 Clear 18 1028 44 10000 3.13 53 11:23 02.10.2022
1576 Clear 15 1029 53 10000 1.79 19 09:49 02.10.2022
1577 Clear 12 1014 60 10000 2.24 38 08:27 02.10.2022
1578 Clear 12 1014 60 10000 2.24 38 08:27 02.10.2022
1579 Clear 14 1009 54 10000 1.79 59 05:19 02.10.2022
1580 Clear 17 1011 44 10000 2.57 350 00:57 02.10.2022
1581 Clear 17 1011 44 10000 2.57 340 00:37 02.10.2022
1582 Clear 18 1011 40 10000 1.54 350 23:24 01.10.2022
1583 Clear 19 1010 36 10000 1.03 80 21:38 01.10.2022
1584 Clear 24 1026 26 10000 1.54 0 18:54 01.10.2022
1585 Clear 23 1026 25 10000 2.06 320 17:28 01.10.2022
1586 Clear 21 1028 34 10000 3.09 180 14:50 01.10.2022
1587 Clear 20 1028 39 10000 2.06 170 13:44 01.10.2022
1588 Clear 18 1030 45 10000 1.54 50 12:34 01.10.2022
1589 Clear 15 1027 53 10000 1.54 340 11:22 01.10.2022
1590 Clear 14 1027 57 10000 1.03 0 10:47 01.10.2022
1591 Clear 13 1027 61 10000 1.54 20 10:26 01.10.2022
1592 Clear 10 1026 67 10000 2.06 50 09:21 01.10.2022
1593 Clear 10 1011 71 10000 1.03 10 08:26 01.10.2022
1594 Clear 12 1009 64 10000 0.51 0 03:39 01.10.2022
1595 Clear 13 1006 57 10000 1.54 340 01:31 01.10.2022
1596 Clear 15 1007 49 10000 1.34 81 23:21 30.09.2022
1597 Clear 16 1006 46 10000 2.24 51 21:57 30.09.2022
1598 Clear 17 1007 43 10000 3.6 50 20:45 30.09.2022
1599 Clear 18 1006 41 10000 3.09 40 20:20 30.09.2022
1600 Clouds 19 1017 35 10000 4.47 45 17:59 30.09.2022
1601 Clouds 19 1017 39 10000 3.6 20 16:31 30.09.2022
1602 Clouds 18 1017 39 10000 5.14 30 14:23 30.09.2022
1603 Clear 16 1017 48 10000 4.12 40 12:29 30.09.2022
1604 Clear 15 1017 50 10000 2.06 360 11:55 30.09.2022
1605 Clear 10 1015 69 10000 1.03 0 08:57 30.09.2022
1606 Clear 11 1013 64 10000 3.13 55 06:38 30.09.2022
1607 Clouds 12 1012 60 10000 6.26 23 02:51 30.09.2022
1608 Clouds 13 1011 71 10000 3.58 23 00:53 30.09.2022
1609 Clouds 14 1008 74 10000 2.57 310 21:39 29.09.2022
1610 Clouds 13 1008 74 10000 4.63 280 21:19 29.09.2022
1611 Clouds 13 1008 74 10000 4.63 280 21:19 29.09.2022
1612 Clouds 15 1007 74 10000 6.17 240 18:56 29.09.2022
1613 Clouds 15 1007 74 10000 5.14 230 17:49 29.09.2022
1614 Clouds 14 1007 84 10000 5.66 230 16:29 29.09.2022
1615 Rain 16 1009 62 10000 7.72 240 15:37 29.09.2022
1616 Rain 16 1009 58 10000 7.2 250 14:59 29.09.2022
1617 Clear 15 1010 58 10000 6.17 250 12:22 29.09.2022
1618 Clear 13 1009 61 10000 6.69 300 08:44 29.09.2022
1619 Clear 15 1011 59 10000 9.26 280 04:22 29.09.2022
1620 Clear 18 1012 54 10000 7.2 290 01:47 29.09.2022
1621 Clear 19 1013 45 10000 8.23 280 23:20 28.09.2022
1622 Clear 20 1013 40 10000 7.2 300 21:31 28.09.2022
1623 Clear 20 1013 39 10000 6.69 280 20:51 28.09.2022
1624 Clear 22 1012 38 10000 6.17 270 19:56 28.09.2022
1625 Clear 22 1013 42 10000 6.69 270 16:35 28.09.2022
1626 Clear 20 1016 47 10000 6.17 280 13:28 28.09.2022
1627 Clear 20 1016 46 10000 6.17 280 13:28 28.09.2022
1628 Clear 18 1017 51 10000 5.66 300 11:45 28.09.2022
1629 Clear 15 1017 58 10000 2.57 290 09:36 28.09.2022
1630 Clear 13 1016 64 10000 1.54 350 07:43 28.09.2022
1631 Clear 14 1017 57 10000 0.89 236 05:37 28.09.2022
1632 Clear 16 1018 50 10000 1.54 160 01:44 28.09.2022
1633 Clear 17 1018 48 10000 2.57 270 00:28 28.09.2022
1634 Clear 19 1018 42 10000 1.54 340 22:40 27.09.2022
1635 Clear 20 1017 38 10000 3.6 350 21:20 27.09.2022
1636 Clear 21 1017 35 10000 5.14 310 20:31 27.09.2022
1637 Clear 22 1016 30 10000 5.66 290 19:40 27.09.2022
1638 Clear 23 1016 29 10000 4.63 290 17:47 27.09.2022
1639 Clear 23 1017 30 10000 4.12 320 16:50 27.09.2022
1640 Clear 22 1017 32 10000 4.63 280 15:18 27.09.2022
1641 Clear 20 1017 38 10000 4.12 300 13:52 27.09.2022
1642 Clear 18 1018 43 10000 3.6 280 12:37 27.09.2022
1643 Clear 15 1018 56 10000 1.34 189 10:33 27.09.2022
1644 Clear 11 1017 70 10000 3.09 30 07:51 27.09.2022
1645 Clear 14 1017 60 10000 1.03 0 04:28 27.09.2022
1646 Clear 15 1018 53 10000 2.06 170 01:37 27.09.2022
1647 Clear 16 1017 49 10000 2.24 57 23:52 26.09.2022
1648 Clear 17 1017 48 10000 2.68 18 23:24 26.09.2022
1649 Clear 19 1016 30 10000 3.09 290 21:20 26.09.2022
1650 Clear 22 1015 29 10000 2.06 260 19:44 26.09.2022
1651 Clear 22 1015 32 10000 2.06 290 18:39 26.09.2022
1652 Clouds 22 1015 29 10000 2.06 0 17:24 26.09.2022
1653 Clouds 20 1015 36 10000 2.06 300 15:23 26.09.2022
1654 Clouds 16 1017 48 10000 4.12 20 12:31 26.09.2022
1655 Clouds 13 1016 57 10000 6.69 30 10:42 26.09.2022
1656 Clouds 13 1016 58 10000 6.69 30 10:23 26.09.2022
1657 Clouds 12 1016 60 10000 5.66 30 09:57 26.09.2022
1658 Clouds 12 1015 60 10000 5.66 30 09:27 26.09.2022
1659 Clouds 12 1015 63 10000 6.17 30 08:59 26.09.2022
1660 Clear 13 1014 58 10000 4.47 61 05:30 26.09.2022
1661 Clear 15 1015 52 10000 4.47 36 01:57 26.09.2022
1662 Clear 16 1014 44 10000 7.15 68 23:24 25.09.2022
1663 Clouds 18 1013 37 10000 4.47 85 21:44 25.09.2022
1664 Clear 19 1012 34 10000 6.69 20 20:59 25.09.2022
1665 Clear 19 1011 33 10000 6.69 20 20:34 25.09.2022
1666 Clear 20 1011 30 10000 4.63 20 18:49 25.09.2022
1667 Clear 20 1011 30 10000 4.63 20 18:24 25.09.2022
1668 Clear 21 1012 31 10000 4.12 10 17:23 25.09.2022
1669 Clear 20 1012 34 10000 5.66 30 15:59 25.09.2022
1670 Clear 18 1013 39 10000 5.66 20 14:37 25.09.2022
1671 Clear 18 1014 41 10000 7.2 30 13:58 25.09.2022
1672 Clear 13 1015 57 10000 7.2 30 10:38 25.09.2022
1673 Clear 12 1014 62 10000 6.69 30 09:37 25.09.2022
1674 Clouds 12 1014 67 10000 3.13 72 07:41 25.09.2022
1675 Clouds 13 1014 65 10000 4.02 77 05:19 25.09.2022
1676 Clear 17 1014 56 10000 5.36 68 23:36 24.09.2022
1677 Clear 20 1013 41 10000 2.57 360 21:19 24.09.2022
1678 Clear 23 1012 31 10000 5.66 350 19:34 24.09.2022
1679 Clear 24 1012 29 10000 5.66 290 18:57 24.09.2022
1680 Clouds 25 1012 32 10000 5.66 260 16:50 24.09.2022
1681 Clouds 24 1013 35 10000 2.68 270 15:23 24.09.2022
1682 Clouds 24 1013 35 10000 2.68 270 15:23 24.09.2022
1683 Clouds 23 1014 39 10000 2.06 0 14:36 24.09.2022
1684 Clear 22 1014 44 10000 2.06 0 13:18 24.09.2022
1685 Clear 21 1015 46 10000 1.79 76 12:23 24.09.2022
1686 Clear 18 1014 57 10000 2.57 320 09:59 24.09.2022
1687 Clear 17 1013 58 10000 1.54 280 08:58 24.09.2022
1688 Clear 17 1012 54 10000 1.54 240 07:41 24.09.2022
1689 Clear 19 1013 46 10000 2.06 270 04:53 24.09.2022
1690 Clear 20 1014 43 10000 1.03 0 04:19 24.09.2022
1691 Clear 23 1015 35 10000 4.63 240 22:54 23.09.2022
1692 Clear 24 1015 31 10000 5.14 230 21:37 23.09.2022
1693 Clear 24 1015 30 10000 5.14 230 21:19 23.09.2022
1694 Clear 25 1015 28 10000 5.66 250 20:43 23.09.2022
1695 Clear 26 1015 28 10000 5.66 230 19:19 23.09.2022
1696 Clear 26 1017 26 10000 5.66 240 16:23 23.09.2022
1697 Clear 23 1019 50 10000 2.06 220 12:52 23.09.2022
1698 Clear 18 1017 77 10000 1.03 0 09:36 23.09.2022
1699 Clear 18 1018 80 10000 1.54 140 06:51 23.09.2022
1700 Clear 23 1018 50 10000 3.6 220 00:44 23.09.2022
1701 Clear 24 1018 46 10000 4.12 230 23:28 22.09.2022
1702 Clear 25 1018 44 10000 4.12 240 22:27 22.09.2022
1703 Clear 25 1018 43 10000 3.09 250 21:24 22.09.2022
1704 Clear 27 1017 38 10000 4.12 250 20:18 22.09.2022
1705 Clouds 27 1017 35 10000 3.6 220 18:30 22.09.2022
1706 Clear 26 1019 43 10000 2.06 0 14:48 22.09.2022
1707 Clear 19 1019 62 10000 2.06 50 10:38 22.09.2022
1708 Clear 19 1019 64 10000 2.06 50 10:18 22.09.2022
1709 Clear 17 1018 77 10000 1.54 10 07:48 22.09.2022
1710 Clear 18 1017 77 10000 1.03 330 04:37 22.09.2022
1711 Clear 22 1018 57 10000 4.12 250 23:46 21.09.2022
1712 Clear 23 1017 55 10000 4.12 260 22:28 21.09.2022
1713 Clouds 24 1016 51 10000 3.09 220 20:55 21.09.2022
1714 Clouds 26 1016 51 10000 8.75 170 18:30 21.09.2022
1715 Clouds 28 1016 37 10000 4.92 182 17:39 21.09.2022
1716 Clouds 28 1018 36 10000 2.06 0 15:29 21.09.2022
1717 Clear 25 1019 50 10000 1.54 0 13:39 21.09.2022
1718 Clear 22 1019 57 10000 2.06 0 11:34 21.09.2022
1719 Clear 21 1019 58 10000 2.06 90 10:52 21.09.2022
1720 Clear 18 1019 61 10000 1.54 90 09:38 21.09.2022
1721 Clear 17 1005 65 10000 1.54 100 08:24 21.09.2022
1722 Clear 20 1003 70 10000 1.54 70 02:54 21.09.2022
1723 Clear 20 1003 68 10000 1.79 0 02:34 21.09.2022
1724 Clear 21 1003 66 9000 1.79 30 01:50 21.09.2022
1725 Clear 22 999 62 10000 1.54 360 23:58 20.09.2022
1726 Clear 24 1018 51 10000 1.54 200 21:40 20.09.2022
1727 Clear 26 1018 47 10000 1.54 150 20:26 20.09.2022
1728 Clear 28 1018 41 10000 2.06 210 17:54 20.09.2022
1729 Clear 26 1019 48 10000 3.09 40 15:33 20.09.2022
1730 Clear 24 1020 59 10000 2.57 0 13:59 20.09.2022
1731 Clear 21 1020 69 10000 3.09 70 11:28 20.09.2022
1732 Clear 16 1019 94 10000 2.06 20 08:36 20.09.2022
1733 Clouds 17 1019 94 10000 2.57 340 07:37 20.09.2022
1734 Rain 18 1019 88 8000 4.12 320 04:35 20.09.2022
1735 Rain 21 999 69 10000 4.63 310 01:32 20.09.2022
1736 Clouds 24 1018 53 10000 2.24 94 22:41 19.09.2022
1737 Clear 25 1017 51 10000 2.06 350 21:28 19.09.2022
1738 Clear 26 1017 45 10000 3.6 30 20:40 19.09.2022
1739 Clear 27 1016 44 10000 3.09 340 18:45 19.09.2022
1740 Clear 27 1017 46 10000 2.06 310 16:48 19.09.2022
1741 Clear 24 1018 63 10000 4.12 70 13:47 19.09.2022
1742 Clear 22 1019 67 10000 3.09 90 11:57 19.09.2022
1743 Clouds 19 1005 77 10000 2.68 202 09:44 19.09.2022
1744 Clouds 18 1018 80 10000 3.6 230 08:32 19.09.2022
1745 Clear 20 1017 75 10000 1.54 0 03:37 19.09.2022
1746 Clear 23 1017 62 10000 4.63 130 00:44 19.09.2022
1747 Clouds 25 1016 50 10000 2.68 175 22:33 18.09.2022
1748 Clouds 27 1015 44 10000 1.54 100 21:19 18.09.2022
1749 Clouds 28 1015 38 10000 3.6 70 19:33 18.09.2022
1750 Clouds 29 1015 38 10000 2.57 120 17:52 18.09.2022
1751 Clouds 28 1016 40 10000 3.6 120 16:49 18.09.2022
1752 Clouds 27 1017 48 10000 3.09 0 14:51 18.09.2022
1753 Clouds 25 1017 54 10000 3.6 120 13:35 18.09.2022
1754 Clouds 23 1018 60 10000 3.6 50 12:20 18.09.2022
1755 Clouds 19 1017 65 10000 3.6 40 09:44 18.09.2022
1756 Clear 21 1015 44 10000 2.24 50 01:44 18.09.2022
1757 Clear 21 1015 43 10000 3.09 340 01:20 18.09.2022
1758 Clear 23 1014 38 10000 2.06 350 22:57 17.09.2022
1759 Clear 25 1013 35 10000 2.06 10 20:56 17.09.2022
1760 Clear 28 1013 29 10000 2.06 350 19:39 17.09.2022
1761 Clouds 28 1013 31 10000 1.54 230 18:30 17.09.2022
1762 Clear 25 1015 30 10000 3.09 50 14:27 17.09.2022
1763 Clear 24 1016 35 10000 3.09 0 13:32 17.09.2022
1764 Clear 19 1016 55 10000 4.12 30 10:50 17.09.2022
1765 Clear 15 1015 71 10000 4.63 20 08:30 17.09.2022
1766 Clear 17 1015 70 10000 3.58 52 06:21 17.09.2022
1767 Clear 23 1015 55 10000 3.13 39 23:42 16.09.2022
1768 Clear 23 1015 56 10000 0.89 22 22:27 16.09.2022
1769 Clouds 25 1014 48 10000 2.06 280 20:54 16.09.2022
1770 Clouds 25 1014 49 10000 2.06 280 20:54 16.09.2022
1771 Clouds 25 1014 49 10000 2.06 280 20:54 16.09.2022
1772 Clouds 26 1014 40 10000 2.06 270 19:41 16.09.2022
1773 Clouds 26 1015 42 10000 2.06 0 16:26 16.09.2022
1774 Clouds 25 1016 49 10000 2.57 140 14:52 16.09.2022
1775 Clouds 24 1017 55 10000 1.54 120 13:26 16.09.2022
1776 Clear 19 1017 74 10000 2.06 40 10:27 16.09.2022
1777 Clear 16 1016 92 10000 1.54 360 07:52 16.09.2022
1778 Clear 17 1016 90 10000 1.03 0 06:48 16.09.2022
1779 Clear 17 1016 89 10000 1.03 360 05:58 16.09.2022
1780 Clear 19 1016 83 10000 1.54 350 02:35 16.09.2022
1781 Clear 20 1016 70 10000 1.54 350 22:20 15.09.2022
1782 Clouds 21 1015 66 10000 3.6 300 20:39 15.09.2022
1783 Clouds 23 1015 60 10000 4.12 360 19:42 15.09.2022
1784 Clouds 24 1015 49 10000 3.6 250 18:26 15.09.2022
1785 Clouds 24 1015 49 10000 3.6 210 17:29 15.09.2022
1786 Clouds 23 1016 60 10000 1.54 170 15:49 15.09.2022
1787 Clouds 20 1017 82 10000 2.57 260 12:51 15.09.2022
1788 Drizzle 18 1017 92 10000 1.54 0 11:48 15.09.2022
1789 Drizzle 17 1016 91 9000 2.57 230 09:46 15.09.2022
1790 Clouds 18 1015 82 10000 2.06 180 07:45 15.09.2022
1791 Clouds 19 1015 76 10000 2.57 190 03:48 15.09.2022
1792 Clouds 20 1015 64 10000 2.68 248 23:32 14.09.2022
1793 Clouds 22 1014 57 10000 4.12 250 20:48 14.09.2022
1794 Clouds 23 1013 52 10000 5.14 240 19:33 14.09.2022
1795 Clouds 23 1013 51 10000 5.66 230 18:26 14.09.2022
1796 Clouds 23 1013 50 10000 5.66 220 16:37 14.09.2022
1797 Clouds 23 1013 49 10000 7.2 260 15:29 14.09.2022
1798 Clouds 21 1014 58 10000 5.14 200 12:57 14.09.2022
1799 Clouds 18 1013 77 10000 2.68 211 10:40 14.09.2022
1800 Clouds 16 1012 87 10000 1.54 120 08:41 14.09.2022
1801 Clear 16 1012 87 10000 1.54 140 06:50 14.09.2022
1802 Clouds 16 1012 88 8000 2.06 160 06:31 14.09.2022
1803 Clouds 17 1011 84 9000 1.03 220 03:21 14.09.2022
1804 Clear 18 1012 83 10000 4.12 260 01:39 14.09.2022
1805 Clear 18 1012 82 10000 4.12 260 01:19 14.09.2022
1806 Clouds 19 1012 69 10000 4.92 0 23:55 13.09.2022
1807 Clouds 19 1011 68 10000 2.57 260 23:37 13.09.2022
1808 Clouds 19 1011 68 10000 3.09 250 23:19 13.09.2022
1809 Clouds 20 1011 67 10000 6.17 250 22:32 13.09.2022
1810 Clouds 22 1010 64 10000 7.72 250 21:40 13.09.2022
1811 Clouds 24 1009 52 10000 8.75 190 19:26 13.09.2022
1812 Clouds 24 1010 59 10000 9.26 200 16:45 13.09.2022
1813 Clouds 25 1010 62 10000 9.26 190 15:38 13.09.2022
1814 Clouds 21 1011 77 10000 7.72 180 13:41 13.09.2022
1815 Clouds 19 1012 88 10000 4.63 180 11:34 13.09.2022
1816 Rain 17 1010 90 9000 4.02 135 08:20 13.09.2022
1817 Clear 25 1011 41 10000 11.18 205 02:58 13.09.2022
1818 Rain 26 1012 38 10000 10.29 210 23:23 12.09.2022
1819 Rain 26 1012 38 10000 10.29 210 23:23 12.09.2022
1820 Clear 26 1012 43 10000 6.71 180 22:45 12.09.2022
1821 Clear 26 1012 41 10000 9.77 150 21:35 12.09.2022
1822 Rain 27 1012 34 10000 9.26 200 20:24 12.09.2022
1823 Drizzle 26 1012 43 10000 4.63 120 18:41 12.09.2022
1824 Clouds 28 1014 42 10000 7.2 230 15:53 12.09.2022
1825 Clouds 29 1014 35 10000 4.12 220 13:24 12.09.2022
1826 Clear 26 1014 45 10000 3.6 100 10:56 12.09.2022
1827 Clear 23 1014 56 10000 1.79 39 09:33 12.09.2022
1828 Rain 25 1014 40 10000 2.06 340 04:42 12.09.2022
1829 Clouds 27 1014 36 9000 7.2 150 02:57 12.09.2022
1830 Clear 26 1014 35 10000 0.51 0 23:18 11.09.2022
1831 Clouds 30 1013 29 10000 1.54 90 21:41 11.09.2022
1832 Clear 32 1013 22 10000 1.54 240 20:45 11.09.2022
1833 Clear 34 1014 20 10000 3.09 250 19:46 11.09.2022
1834 Clear 34 1014 20 10000 3.09 250 19:22 11.09.2022
1835 Clear 34 1015 20 10000 4.63 220 17:57 11.09.2022
1836 Clear 33 1016 21 10000 4.63 200 16:28 11.09.2022
1837 Clear 30 1018 34 10000 2.24 182 14:18 11.09.2022
1838 Clear 27 1018 41 10000 2.68 137 12:32 11.09.2022
1839 Clear 21 1018 50 10000 3.09 30 08:27 11.09.2022
1840 Clear 22 1018 49 9000 1.54 340 06:33 11.09.2022
1841 Clear 26 1018 38 10000 1.34 293 00:49 11.09.2022
1842 Clear 28 1018 35 10000 2.06 260 22:54 10.09.2022
1843 Clear 31 1017 28 10000 3.6 230 20:55 10.09.2022
1844 Clear 32 1017 25 10000 4.12 240 19:46 10.09.2022
1845 Clear 33 1017 23 10000 4.63 240 19:27 10.09.2022
1846 Clear 33 1018 24 10000 4.63 230 17:59 10.09.2022
1847 Clear 31 1019 28 10000 4.12 220 15:45 10.09.2022
1848 Clear 30 1020 31 10000 3.6 200 14:37 10.09.2022
1849 Clear 27 1021 39 10000 2.06 140 12:52 10.09.2022
1850 Clear 23 1021 44 10000 2.06 90 10:35 10.09.2022
1851 Clear 21 1020 48 10000 2.68 67 09:24 10.09.2022
1852 Clear 20 1008 52 10000 2.57 50 08:27 10.09.2022
1853 Clear 21 1006 48 10000 2.24 39 05:50 10.09.2022
1854 Clear 25 1006 38 10000 2.24 12 23:56 09.09.2022
1855 Clear 26 1006 38 10000 2.06 330 23:29 09.09.2022
1856 Clear 28 1018 36 10000 2.57 200 21:24 09.09.2022
1857 Clear 29 1018 32 10000 3.09 220 20:28 09.09.2022
1858 Clouds 30 1018 31 10000 3.09 270 19:23 09.09.2022
1859 Clouds 30 1018 31 10000 3.09 210 18:33 09.09.2022
1860 Clouds 29 1019 32 10000 4.12 210 16:18 09.09.2022
1861 Clouds 27 1021 37 10000 2.68 296 13:48 09.09.2022
1862 Clouds 24 1021 48 10000 3.6 270 11:52 09.09.2022
1863 Clear 21 1020 61 10000 3.09 280 09:21 09.09.2022
1864 Clear 21 1005 66 10000 4.12 250 03:48 09.09.2022
1865 Clouds 23 1005 59 10000 3.6 260 00:40 09.09.2022
1866 Clouds 25 1018 54 10000 4.63 290 21:52 08.09.2022
1867 Clouds 26 1017 46 10000 6.69 240 20:51 08.09.2022
1868 Clouds 27 1017 46 10000 6.69 240 20:29 08.09.2022
1869 Clouds 27 1017 42 10000 6.17 260 19:39 08.09.2022
1870 Clouds 28 1017 38 10000 5.14 230 17:40 08.09.2022
1871 Clouds 27 1017 40 10000 5.14 220 16:19 08.09.2022
1872 Clouds 26 1018 41 10000 6.69 240 14:37 08.09.2022
1873 Clear 23 1019 45 10000 3.6 240 12:51 08.09.2022
1874 Clear 22 1019 49 10000 2.57 240 11:36 08.09.2022
1875 Clear 20 1018 53 10000 3.09 230 10:23 08.09.2022
1876 Clouds 19 1018 55 10000 1.79 201 07:49 08.09.2022
1877 Clear 19 1018 51 10000 2.57 250 05:51 08.09.2022
1878 Clear 20 1018 47 10000 2.06 250 02:36 08.09.2022
1879 Clear 20 1018 48 10000 2.06 250 02:18 08.09.2022
1880 Clear 22 1018 43 10000 3.6 260 00:22 08.09.2022
1881 Clear 24 1017 37 10000 4.12 240 22:36 07.09.2022
1882 Clear 24 1017 35 10000 5.66 230 21:41 07.09.2022
1883 Clear 25 1017 31 10000 5.66 240 20:38 07.09.2022
1884 Clear 26 1017 26 10000 5.66 220 19:30 07.09.2022
1885 Clear 26 1017 26 10000 7.72 240 17:22 07.09.2022
1886 Clear 22 1007 37 10000 5.66 230 12:41 07.09.2022
1887 Clear 19 1019 46 10000 3.09 250 10:46 07.09.2022
1888 Clear 15 1018 53 10000 2.06 200 08:36 07.09.2022
1889 Clear 16 1018 54 10000 2.06 270 06:51 07.09.2022
1890 Clear 20 1003 44 10000 3.09 260 01:50 07.09.2022
1891 Clear 23 1005 39 10000 5.14 230 22:35 06.09.2022
1892 Clear 24 1005 35 10000 6.17 240 21:38 06.09.2022
1893 Clear 26 1018 37 10000 8.23 230 20:21 06.09.2022
1894 Clouds 28 1018 31 10000 8.75 230 18:45 06.09.2022
1895 Clouds 28 1006 32 10000 8.75 240 17:56 06.09.2022
1896 Clouds 28 1007 33 10000 8.23 220 17:20 06.09.2022
1897 Clouds 28 1007 35 10000 7.72 220 16:37 06.09.2022
1898 Clouds 26 1008 40 10000 6.17 230 14:55 06.09.2022
1899 Clouds 25 1009 42 10000 6.17 220 13:45 06.09.2022
1900 Clear 24 1021 44 10000 6.69 220 13:21 06.09.2022
1901 Clear 21 1022 53 10000 4.47 203 11:29 06.09.2022
1902 Clear 19 1022 58 10000 4.12 220 10:33 06.09.2022
1903 Clear 17 1009 65 10000 2.24 239 08:29 06.09.2022
1904 Clear 17 1007 64 10000 2.24 210 07:37 06.09.2022
1905 Clear 20 1007 54 10000 3.6 250 02:34 06.09.2022
1906 Clear 23 1007 44 10000 4.12 240 23:21 05.09.2022
1907 Clear 25 1006 34 10000 5.14 230 21:50 05.09.2022
1908 Clear 27 1007 27 10000 6.17 240 20:32 05.09.2022
1909 Clear 27 1020 24 10000 6.69 210 19:18 05.09.2022
1910 Clear 28 1020 21 10000 6.69 230 18:44 05.09.2022
1911 Clear 28 1020 20 10000 6.69 220 18:21 05.09.2022
1912 Clear 27 1021 24 10000 6.26 248 16:27 05.09.2022
1913 Clear 26 1021 28 10000 5.66 220 15:29 05.09.2022
1914 Clear 25 1022 35 10000 4.47 222 13:21 05.09.2022
1915 Clear 23 1022 36 10000 3.13 198 12:26 05.09.2022
1916 Clear 18 1021 38 10000 1.54 350 09:19 05.09.2022
1917 Clear 17 1020 40 10000 2.06 10 06:40 05.09.2022
1918 Clear 20 1006 36 10000 2.57 150 01:56 05.09.2022
1919 Clear 23 1006 32 10000 2.68 284 22:44 04.09.2022
1920 Clear 23 1005 32 10000 3.6 240 22:26 04.09.2022
1921 Clear 26 1018 24 10000 4.63 250 20:43 04.09.2022
1922 Clear 28 1018 21 10000 5.14 230 19:20 04.09.2022
1923 Clear 28 1018 21 10000 6.17 210 17:50 04.09.2022
1924 Clear 28 1018 21 10000 5.66 200 16:28 04.09.2022
1925 Clear 26 1019 25 10000 5.14 210 14:27 04.09.2022
1926 Clear 25 1019 28 10000 4.63 200 13:28 04.09.2022
1927 Clear 22 1019 36 10000 2.06 200 11:52 04.09.2022
1928 Clear 19 1019 46 10000 1.03 0 09:56 04.09.2022
1929 Clear 16 1017 52 10000 1.03 0 07:27 04.09.2022
1930 Clear 19 1017 41 10000 2.57 230 04:44 04.09.2022
1931 Clear 22 1016 38 10000 4.63 240 00:42 04.09.2022
1932 Clear 24 1015 35 10000 5.14 230 22:21 03.09.2022
1933 Clear 25 1014 34 10000 4.63 220 21:23 03.09.2022
1934 Clear 27 1013 23 10000 6.17 240 18:59 03.09.2022
1935 Clear 27 1014 29 10000 5.66 220 17:26 03.09.2022
1936 Clear 27 1014 32 10000 5.14 240 16:27 03.09.2022
1937 Clear 25 1015 37 10000 4.63 230 14:44 03.09.2022
1938 Clear 24 1015 41 10000 3.13 193 13:55 03.09.2022
1939 Clear 23 1015 46 10000 2.57 200 12:19 03.09.2022
1940 Clear 20 1015 54 10000 3.09 230 10:27 03.09.2022
1941 Clear 18 1014 59 10000 4.12 220 08:27 03.09.2022
1942 Clear 17 1014 58 10000 2.24 219 06:58 03.09.2022
1943 Clear 19 1014 52 10000 2.24 270 04:33 03.09.2022
1944 Clear 23 1014 42 10000 5.66 220 23:55 02.09.2022
1945 Clear 24 1014 37 10000 6.17 240 22:45 02.09.2022
1946 Clear 26 1013 26 10000 7.72 240 20:59 02.09.2022
1947 Clear 26 1013 24 10000 7.72 240 20:28 02.09.2022
1948 Clear 28 1013 22 10000 7.72 240 19:22 02.09.2022
1949 Clear 28 1013 20 10000 7.72 230 18:28 02.09.2022
1950 Clear 28 1014 17 10000 7.2 240 17:43 02.09.2022
1951 Clear 29 1014 17 10000 7.72 240 16:47 02.09.2022
1952 Clear 27 1014 27 10000 5.14 220 14:33 02.09.2022
1953 Clear 24 1016 39 10000 5.14 230 12:36 02.09.2022
1954 Clear 21 1016 50 10000 3.09 240 10:19 02.09.2022
1955 Clear 20 1016 52 10000 3.09 240 09:39 02.09.2022
1956 Clear 19 1015 52 10000 2.57 230 07:30 02.09.2022
1957 Clear 19 1015 45 10000 3.6 250 06:38 02.09.2022
1958 Clear 23 1015 37 10000 4.12 230 02:52 02.09.2022
1959 Clear 27 1015 23 10000 5.14 240 22:30 01.09.2022
1960 Clear 28 1015 21 10000 5.14 240 21:43 01.09.2022
1961 Clear 29 1014 22 10000 6.69 230 21:25 01.09.2022
1962 Clear 29 1014 20 10000 6.69 240 20:44 01.09.2022
1963 Clear 31 1014 18 10000 5.66 240 18:54 01.09.2022
1964 Clear 31 1015 19 10000 5.66 250 17:22 01.09.2022
1965 Clear 30 1016 21 10000 6.17 210 15:56 01.09.2022
1966 Clear 29 1016 23 10000 3.6 220 14:33 01.09.2022
1967 Clear 26 1017 30 10000 3.09 200 12:58 01.09.2022
1968 Clear 25 1018 34 10000 1.03 0 11:53 01.09.2022
1969 Clear 24 1017 36 10000 1.03 0 11:31 01.09.2022
1970 Clear 23 1017 39 10000 1.54 90 10:23 01.09.2022
1971 Clear 18 1016 37 10000 1.54 360 07:51 01.09.2022
1972 Clear 20 1017 33 10000 3.09 340 06:22 01.09.2022
1973 Clear 23 1018 32 10000 3.6 260 01:32 01.09.2022
1974 Clear 23 1018 32 10000 3.6 260 01:32 01.09.2022
1975 Clear 24 1018 31 10000 3.6 260 01:32 01.09.2022
1976 Clear 24 1018 31 10000 3.6 260 01:32 01.09.2022
1977 Clear 26 1017 28 10000 3.09 250 23:29 31.08.2022
1978 Clear 28 1017 24 10000 4.63 210 21:32 31.08.2022
1979 Clear 30 1017 21 10000 5.66 230 19:50 31.08.2022
1980 Clear 31 1017 19 10000 5.14 220 18:18 31.08.2022
1981 Clear 30 1018 20 10000 6.17 230 15:45 31.08.2022
1982 Clear 29 1007 24 10000 6.17 230 14:27 31.08.2022
1983 Clear 26 1020 32 10000 5.36 203 12:21 31.08.2022
1984 Clear 24 1020 42 10000 3.6 210 10:52 31.08.2022
1985 Clear 20 1020 46 10000 3.6 230 08:35 31.08.2022
1986 Clear 25 1005 29 10000 3.6 230 04:26 31.08.2022
1987 Clear 29 1019 25 10000 5.66 240 23:20 30.08.2022
1988 Clear 31 1018 21 10000 6.69 210 21:38 30.08.2022
1989 Clear 31 1017 19 10000 7.2 240 20:56 30.08.2022
1990 Clear 34 1018 18 10000 7.2 230 17:30 30.08.2022
1991 Clear 31 1019 27 10000 7.2 230 14:44 30.08.2022
1992 Clear 29 1008 39 10000 4.63 250 13:24 30.08.2022
1993 Clouds 27 1021 38 10000 2.57 230 11:21 30.08.2022
1994 Clouds 25 1021 43 10000 1.54 190 10:40 30.08.2022
1995 Clear 22 1019 50 10000 2.57 320 06:51 30.08.2022
1996 Clear 25 1018 44 10000 1.34 131 01:53 30.08.2022
1997 Clear 28 1017 41 10000 3.09 260 22:58 29.08.2022
1998 Clear 28 1017 40 10000 3.6 0 22:24 29.08.2022
1999 Clear 29 1016 38 10000 5.14 240 21:25 29.08.2022
2000 Clouds 31 1016 34 10000 8.23 250 19:51 29.08.2022
2001 Clouds 32 1015 32 10000 7.72 230 17:52 29.08.2022
2002 Clouds 33 1015 33 10000 7.72 230 17:24 29.08.2022
2003 Clouds 32 1016 35 10000 7.2 200 16:37 29.08.2022
2004 Clouds 31 1017 37 10000 7.2 200 14:45 29.08.2022
2005 Clear 29 1017 46 10000 1.79 166 12:53 29.08.2022
2006 Clear 26 1017 57 10000 3.6 30 11:19 29.08.2022
2007 Clouds 24 1017 66 10000 1.79 59 09:45 29.08.2022
2008 Thunderstorm 23 1017 61 10000 2.57 80 08:28 29.08.2022
2009 Clear 25 1016 56 10000 4.63 120 02:49 29.08.2022
2010 Clear 28 1015 43 10000 6.17 130 00:20 29.08.2022
2011 Clear 30 1014 35 10000 5.14 120 22:37 28.08.2022
2012 Clear 31 1013 34 10000 3.6 140 21:43 28.08.2022
2013 Clear 32 1012 29 10000 4.63 140 20:54 28.08.2022
2014 Clear 33 1013 27 10000 6.17 160 19:23 28.08.2022
2015 Clear 33 1013 25 10000 6.17 150 18:20 28.08.2022
2016 Clear 33 1013 28 10000 5.14 160 16:58 28.08.2022
2017 Clear 32 1013 29 10000 5.66 140 16:22 28.08.2022
2018 Clear 30 1015 37 10000 4.12 150 14:36 28.08.2022
2019 Clear 27 1015 46 10000 4.12 80 12:32 28.08.2022
2020 Clear 24 1015 58 10000 4.63 80 10:43 28.08.2022
2021 Clear 23 1015 60 10000 3.09 50 09:42 28.08.2022
2022 Clear 21 1015 62 10000 3.09 60 08:37 28.08.2022
2023 Clear 21 1014 60 10000 2.57 60 07:43 28.08.2022
2024 Clear 25 1014 60 10000 3.09 90 02:39 28.08.2022
2025 Clear 27 1013 37 10000 1.79 19 00:27 28.08.2022
2026 Clear 28 1013 34 10000 1.54 90 22:36 27.08.2022
2027 Clear 29 1012 34 10000 1.03 0 21:31 27.08.2022
2028 Clouds 31 1012 28 10000 2.06 170 19:44 27.08.2022
2029 Clouds 32 1012 28 10000 2.68 194 17:29 27.08.2022
2030 Clear 31 1013 31 10000 2.57 130 15:53 27.08.2022
2031 Clear 30 1013 33 10000 3.09 0 15:24 27.08.2022
2032 Clear 26 1015 43 10000 2.06 0 12:28 27.08.2022
2033 Clear 24 1015 53 10000 2.06 60 11:31 27.08.2022
2034 Clear 21 1015 62 10000 2.57 90 09:48 27.08.2022
2035 Clear 20 1013 70 10000 2.68 45 07:54 27.08.2022
2036 Clear 22 1016 63 10000 3.09 170 02:52 27.08.2022
2037 Clear 24 1015 56 10000 3.09 150 23:57 26.08.2022
2038 Clear 26 1014 42 10000 4.12 100 22:40 26.08.2022
2039 Clear 28 1013 39 10000 2.57 70 21:19 26.08.2022
2040 Clouds 30 1012 32 10000 3.09 330 19:23 26.08.2022
2041 Clouds 31 1014 32 10000 2.57 340 16:50 26.08.2022
2042 Clouds 31 1015 33 10000 2.57 90 15:31 26.08.2022
2043 Clouds 29 1016 39 10000 3.13 101 14:30 26.08.2022
2044 Clear 26 1017 48 10000 3.09 50 12:49 26.08.2022
2045 Clear 24 1018 56 10000 4.12 20 11:27 26.08.2022
2046 Clear 23 1018 64 10000 4.63 30 10:29 26.08.2022
2047 Clear 21 1018 71 10000 3.13 50 07:28 26.08.2022
2048 Clear 21 1018 71 10000 3.13 50 07:28 26.08.2022
2049 Clear 24 1018 49 10000 3.58 73 01:41 26.08.2022
2050 Clear 25 1018 42 10000 2.68 45 23:41 25.08.2022
2051 Clouds 28 1016 37 10000 5.14 30 21:36 25.08.2022
2052 Clouds 32 1015 26 10000 7.15 23 20:29 25.08.2022
2053 Clouds 33 1015 25 10000 4.12 330 18:55 25.08.2022
2054 Clouds 33 1015 27 10000 5.14 350 17:50 25.08.2022
2055 Clouds 32 1015 28 10000 5.14 350 17:31 25.08.2022
2056 Clouds 32 1016 27 10000 1.79 78 15:40 25.08.2022
2057 Clouds 31 1017 31 10000 2.24 190 14:34 25.08.2022
2058 Clear 27 1017 43 10000 2.57 110 11:55 25.08.2022
2059 Clear 26 1017 51 10000 2.57 80 10:48 25.08.2022
2060 Clouds 23 1016 52 10000 1.54 70 08:54 25.08.2022
2061 Clear 24 1015 45 10000 1.79 38 05:24 25.08.2022
2062 Clear 28 1015 34 10000 2.57 290 01:42 25.08.2022
2063 Clear 30 1015 30 10000 3.09 250 23:26 24.08.2022
2064 Clear 31 1014 29 10000 3.6 270 22:22 24.08.2022
2065 Clear 32 1014 27 10000 3.09 270 21:36 24.08.2022
2066 Clear 33 1014 22 10000 4.12 250 20:52 24.08.2022
2067 Clear 35 1013 21 10000 4.63 160 18:58 24.08.2022
2068 Clear 34 1015 23 10000 4.12 170 16:37 24.08.2022
2069 Clear 34 1015 25 10000 3.6 210 15:52 24.08.2022
2070 Clear 31 1016 37 10000 3.6 130 13:40 24.08.2022
2071 Clear 27 1017 48 10000 2.68 143 11:38 24.08.2022
2072 Clear 25 1016 58 10000 2.57 60 09:39 24.08.2022
2073 Clear 23 1016 56 10000 1.54 60 07:59 24.08.2022
2074 Clear 27 1015 37 10000 2.24 54 02:36 24.08.2022
2075 Clear 30 1014 31 10000 1.54 220 23:34 23.08.2022
2076 Clear 31 1014 31 10000 1.03 270 22:32 23.08.2022
2077 Clear 33 1014 29 10000 2.06 190 21:34 23.08.2022
2078 Clear 35 1013 19 10000 3.09 220 20:21 23.08.2022
2079 Clear 36 1013 20 10000 3.09 220 18:46 23.08.2022
2080 Clear 36 1014 21 10000 3.09 240 17:50 23.08.2022
2081 Clear 35 1014 24 10000 3.6 170 16:54 23.08.2022
2082 Clear 34 1015 29 10000 3.6 0 15:39 23.08.2022
2083 Clear 30 1016 39 10000 2.06 0 13:36 23.08.2022
2084 Clear 27 1017 45 10000 3.6 70 11:33 23.08.2022
2085 Clear 25 1017 48 10000 3.6 50 10:48 23.08.2022
2086 Clear 25 1017 47 10000 3.6 40 10:24 23.08.2022
2087 Clear 22 1017 50 10000 4.12 50 08:52 23.08.2022
2088 Clear 22 1017 51 10000 3.6 40 08:21 23.08.2022
2089 Clear 22 1017 51 10000 3.13 16 07:38 23.08.2022
2090 Clear 22 1016 51 10000 3.13 42 06:29 23.08.2022
2091 Clear 22 1016 51 10000 3.58 30 06:29 23.08.2022
2092 Clear 23 1016 50 10000 4.02 44 04:45 23.08.2022
2093 Clear 27 1015 44 10000 4.12 20 00:28 23.08.2022
2094 Clear 28 1015 41 10000 4.47 45 23:54 22.08.2022
2095 Clear 30 1014 32 10000 2.68 38 22:45 22.08.2022
2096 Clear 31 1014 33 10000 2.06 120 21:51 22.08.2022
2097 Clear 34 1014 25 10000 1.79 111 19:49 22.08.2022
2098 Clear 34 1014 24 10000 3.09 40 19:21 22.08.2022
2099 Clouds 34 1015 25 10000 1.34 59 17:55 22.08.2022
2100 Clear 33 1016 26 10000 3.09 60 15:40 22.08.2022
2101 Clear 31 1017 29 10000 3.09 70 14:32 22.08.2022
2102 Clear 26 1018 41 10000 3.6 40 10:49 22.08.2022
2103 Clear 22 1018 50 10000 4.63 50 08:21 22.08.2022
2104 Clear 24 1017 42 10000 2.68 22 04:34 22.08.2022
2105 Clear 28 1017 31 10000 2.24 26 00:49 22.08.2022
2106 Clear 28 1017 30 10000 2.24 44 00:29 22.08.2022
2107 Clear 30 1017 24 10000 2.57 350 22:54 21.08.2022
2108 Clear 32 1016 21 10000 4.12 310 21:36 21.08.2022
2109 Clear 33 1015 18 10000 6.69 330 20:57 21.08.2022
2110 Clear 35 1015 15 10000 5.14 330 19:28 21.08.2022
2111 Clear 36 1016 15 10000 5.14 300 18:21 21.08.2022
2112 Clear 35 1017 16 10000 4.63 220 16:21 21.08.2022
2113 Clear 35 1017 15 10000 5.14 250 15:43 21.08.2022
2114 Clear 33 1018 19 10000 3.6 0 13:58 21.08.2022
2115 Clear 32 1019 20 10000 3.09 190 13:40 21.08.2022
2116 Clear 30 1019 24 10000 2.06 0 12:37 21.08.2022
2117 Clear 24 1019 38 10000 0.89 221 09:32 21.08.2022
2118 Clear 23 1005 36 9000 1.54 10 08:56 21.08.2022
2119 Clear 21 1007 38 10000 1.54 360 08:38 21.08.2022
2120 Clear 22 1005 36 10000 2.06 20 07:28 21.08.2022
2121 Clear 23 1003 31 10000 1.54 360 04:26 21.08.2022
2122 Clear 27 1003 26 10000 2.06 310 00:53 21.08.2022
2123 Clear 29 1005 23 9000 2.06 200 22:59 20.08.2022
2124 Clear 31 1005 22 10000 2.06 200 21:45 20.08.2022
2125 Clear 33 1018 16 10000 4.12 200 20:48 20.08.2022
2126 Clear 34 1018 16 10000 4.12 210 19:42 20.08.2022
2127 Clear 34 1018 16 10000 4.12 240 18:43 20.08.2022
2128 Clear 34 1018 16 10000 3.6 200 18:25 20.08.2022
2129 Clear 33 1019 16 10000 4.12 240 17:19 20.08.2022
2130 Clear 32 1020 19 10000 3.09 220 15:51 20.08.2022
2131 Clear 29 1022 35 10000 1.54 0 13:39 20.08.2022
2132 Clear 26 1022 45 10000 2.06 0 11:53 20.08.2022
2133 Clear 24 1022 43 10000 3.09 40 10:39 20.08.2022
2134 Clear 21 1022 48 10000 2.24 32 09:18 20.08.2022
2135 Clear 20 1007 46 10000 1.54 30 06:40 20.08.2022
2136 Clear 22 1007 40 10000 3.13 32 03:57 20.08.2022
2137 Clear 25 1007 30 10000 3.09 340 00:53 20.08.2022
2138 Clear 26 1006 29 10000 1.03 230 23:21 19.08.2022
2139 Clear 26 1004 29 10000 1.03 0 22:35 19.08.2022
2140 Clear 27 1006 28 10000 1.03 0 22:35 19.08.2022
2141 Clear 30 1019 21 10000 1.54 150 20:30 19.08.2022
2142 Clear 31 1019 20 10000 3.09 130 18:51 19.08.2022
2143 Clear 29 1021 24 10000 2.24 272 15:54 19.08.2022
2144 Clear 26 1022 31 10000 2.57 40 13:40 19.08.2022
2145 Clear 22 1023 43 10000 4.63 30 11:39 19.08.2022
2146 Clear 19 1023 51 10000 3.09 40 10:29 19.08.2022
2147 Clear 16 1008 64 10000 2.68 74 07:25 19.08.2022
2148 Clear 20 1008 50 10000 4.02 107 02:23 19.08.2022
2149 Clear 22 1007 43 10000 4.47 59 00:32 19.08.2022
2150 Clear 23 1006 36 10000 4.92 45 23:48 18.08.2022
2151 Clear 24 1006 33 10000 4.63 360 22:52 18.08.2022
2152 Clear 24 1006 31 10000 4.12 360 22:18 18.08.2022
2153 Clear 25 1005 29 10000 4.12 360 21:40 18.08.2022
2154 Clear 27 1018 26 10000 4.63 360 20:27 18.08.2022
2155 Clouds 28 1018 27 10000 2.68 23 19:30 18.08.2022
2156 Clouds 28 1018 27 10000 3.09 0 17:55 18.08.2022
2157 Clouds 27 1018 28 10000 4.47 270 17:19 18.08.2022
2158 Clouds 25 1019 32 10000 2.57 110 15:20 18.08.2022
2159 Clouds 24 1019 35 10000 2.24 47 14:20 18.08.2022
2160 Clouds 23 1019 38 10000 1.79 4 13:36 18.08.2022
2161 Clear 22 1019 44 10000 1.79 2 12:26 18.08.2022
2162 Clear 18 1019 52 10000 4.12 50 10:22 18.08.2022
2163 Clouds 17 1019 58 10000 3.09 50 09:42 18.08.2022
2164 Clouds 15 1004 66 10000 2.24 77 07:24 18.08.2022
2165 Clear 16 1017 63 10000 3.13 64 04:47 18.08.2022
2166 Clear 21 1016 51 10000 4.92 0 23:49 17.08.2022
2167 Thunderstorm 23 1014 41 10000 3.13 338 21:54 17.08.2022
2168 Clouds 25 1013 31 10000 3.6 80 20:20 17.08.2022
2169 Thunderstorm 26 1013 32 10000 3.09 80 19:32 17.08.2022
2170 Clouds 25 1012 36 10000 6.69 350 18:21 17.08.2022
2171 Clouds 26 1013 31 10000 3.6 240 16:50 17.08.2022
2172 Clouds 26 1013 31 10000 3.09 0 15:30 17.08.2022
2173 Clouds 25 1013 34 10000 2.57 0 14:18 17.08.2022
2174 Clear 22 1014 44 10000 2.06 10 11:45 17.08.2022
2175 Clear 20 1014 49 10000 2.24 150 10:25 17.08.2022
2176 Clear 17 1013 61 10000 1.79 63 08:25 17.08.2022
2177 Clear 18 1012 50 10000 4.12 290 04:20 17.08.2022
2178 Clear 22 1012 38 10000 4.63 290 00:46 17.08.2022
2179 Clear 24 1012 33 10000 4.63 280 22:53 16.08.2022
2180 Clear 26 1010 28 10000 7.2 240 20:59 16.08.2022
2181 Clear 28 1010 23 10000 7.2 230 19:55 16.08.2022
2182 Clear 28 1010 21 10000 8.75 250 19:22 16.08.2022
2183 Clear 28 1010 27 10000 9.77 230 17:54 16.08.2022
2184 Clear 28 1011 29 10000 8.23 230 16:35 16.08.2022
2185 Smoke 28 1011 31 9000 9.26 240 15:44 16.08.2022
2186 Smoke 27 1011 30 7000 8.75 230 14:54 16.08.2022
2187 Smoke 27 1011 28 7000 8.23 220 14:36 16.08.2022
2188 Clear 24 1011 29 10000 6.17 240 11:40 16.08.2022
2189 Clear 21 1011 39 10000 4.63 260 09:58 16.08.2022
2190 Clear 20 1011 42 10000 5.14 250 08:49 16.08.2022
2191 Clear 20 1010 41 10000 5.14 240 08:20 16.08.2022
2192 Clear 21 1010 37 10000 1.54 230 05:52 16.08.2022
2193 Clear 27 1011 29 10000 5.66 230 23:27 15.08.2022
2194 Clouds 28 1010 29 10000 4.12 220 22:20 15.08.2022
2195 Clouds 28 1010 27 10000 5.14 220 21:43 15.08.2022
2196 Clouds 30 1009 23 10000 5.14 220 20:31 15.08.2022
2197 Clouds 31 1010 21 10000 5.66 200 19:18 15.08.2022
2198 Clouds 31 1010 19 10000 5.14 220 17:59 15.08.2022
2199 Clouds 30 1011 21 10000 5.14 260 16:24 15.08.2022
2200 Clouds 29 1011 21 10000 4.92 213 15:26 15.08.2022
2201 Clear 28 1012 25 10000 4.63 220 13:27 15.08.2022
2202 Clear 23 1012 39 10000 2.06 100 10:37 15.08.2022
2203 Clear 21 1012 40 9000 2.57 310 08:55 15.08.2022
2204 Clear 20 1012 38 10000 2.57 320 06:51 15.08.2022
2205 Clear 22 1012 32 10000 3.6 300 03:56 15.08.2022
2206 Clear 25 1012 22 10000 2.57 290 23:49 14.08.2022
2207 Clear 27 1012 20 10000 4.63 290 22:28 14.08.2022
2208 Clear 29 1011 18 10000 5.14 300 21:25 14.08.2022
2209 Clear 31 1011 16 10000 7.2 210 19:46 14.08.2022
2210 Clear 31 1010 15 10000 6.69 240 18:41 14.08.2022
2211 Clear 31 1011 15 10000 8.75 240 17:44 14.08.2022
2212 Clear 31 1012 16 10000 10.29 230 16:31 14.08.2022
2213 Clear 30 1012 16 10000 8.75 220 15:45 14.08.2022
2214 Clear 28 1013 24 10000 6.71 225 13:52 14.08.2022
2215 Clear 28 1013 25 10000 5.81 203 13:34 14.08.2022
2216 Clear 27 1014 28 10000 5.14 190 12:55 14.08.2022
2217 Clear 24 1014 43 10000 3.13 228 11:31 14.08.2022
2218 Clear 22 1014 52 10000 2.57 210 10:26 14.08.2022
2219 Clear 18 1014 68 10000 1.03 0 08:20 14.08.2022
2220 Clear 20 1014 66 10000 2.06 350 06:20 14.08.2022
2221 Clear 21 1015 64 9000 1.34 180 02:35 14.08.2022
2222 Clear 23 1015 54 10000 3.09 140 23:23 13.08.2022
2223 Clear 24 1015 51 10000 3.6 120 22:28 13.08.2022
2224 Clear 26 1015 44 10000 7.72 170 20:58 13.08.2022
2225 Clear 27 1015 43 10000 7.72 170 20:19 13.08.2022
2226 Clouds 26 1017 43 10000 5.66 180 19:20 13.08.2022
2227 Clouds 27 1005 43 10000 8.75 180 17:35 13.08.2022
2228 Clouds 27 1019 43 10000 10.29 190 15:18 13.08.2022
2229 Clouds 27 1018 44 10000 8.23 190 14:24 13.08.2022
2230 Clouds 27 1018 43 10000 11.83 170 13:37 13.08.2022
2231 Clouds 28 1018 38 10000 10.29 180 11:51 13.08.2022
2232 Clouds 27 1016 41 9000 2.24 179 09:50 13.08.2022
2233 Clouds 26 1016 39 10000 3.09 110 07:50 13.08.2022
2234 Clear 28 1015 36 10000 2.06 10 02:56 13.08.2022
2235 Clear 31 1016 31 10000 0.51 260 23:46 12.08.2022
2236 Haze 33 1015 28 5000 3.6 260 21:40 12.08.2022
2237 Haze 35 1015 23 5000 5.66 250 19:51 12.08.2022
2238 Haze 36 1015 23 5000 5.66 260 19:26 12.08.2022
2239 Clouds 36 1015 22 6000 5.66 220 18:34 12.08.2022
2240 Clear 35 1017 23 9000 4.63 210 16:28 12.08.2022
2241 Clear 34 1017 25 10000 4.12 240 15:31 12.08.2022
2242 Clear 33 1017 26 10000 3.6 180 14:27 12.08.2022
2243 Clear 32 1018 28 10000 2.24 215 12:51 12.08.2022
2244 Clear 26 1018 41 10000 2.06 60 09:50 12.08.2022
2245 Clear 24 1004 44 10000 1.54 120 07:47 12.08.2022
2246 Clear 25 1004 42 10000 1.54 90 06:28 12.08.2022
2247 Clear 29 1004 36 10000 4.12 100 02:22 12.08.2022
2248 Clear 30 1003 34 10000 2.06 360 00:23 12.08.2022
2249 Clear 31 1003 34 10000 2.06 270 23:34 11.08.2022
2250 Clear 33 1015 32 10000 2.06 240 21:58 11.08.2022
2251 Clear 33 1015 31 10000 3.09 240 21:35 11.08.2022
2252 Clear 34 1015 27 10000 3.6 180 20:32 11.08.2022
2253 Clear 35 1015 26 10000 3.09 200 19:57 11.08.2022
2254 Clouds 35 1015 26 10000 3.6 240 19:32 11.08.2022
2255 Clouds 35 1015 27 10000 5.14 210 17:47 11.08.2022
2256 Clear 34 1016 30 10000 3.13 214 16:32 11.08.2022
2257 Clear 33 1017 32 10000 4.63 170 15:20 11.08.2022
2258 Clear 31 1018 38 10000 2.57 170 12:41 11.08.2022
2259 Clear 27 1018 40 10000 1.54 80 09:54 11.08.2022
2260 Clear 25 1003 40 10000 2.06 90 06:59 11.08.2022
2261 Clear 27 1016 38 10000 3.09 100 03:45 11.08.2022
2262 Clear 30 1016 29 10000 5.81 177 00:35 11.08.2022
2263 Clear 33 1004 26 10000 4.02 135 22:22 10.08.2022
2264 Clear 34 1014 27 10000 2.06 130 21:24 10.08.2022
2265 Clear 35 1014 22 10000 3.6 180 20:47 10.08.2022
2266 Clouds 36 1014 20 10000 4.12 150 18:55 10.08.2022
2267 Clouds 36 1015 21 10000 3.09 180 17:37 10.08.2022
2268 Clouds 35 1016 21 10000 3.09 130 16:33 10.08.2022
2269 Clear 32 1018 27 10000 3.6 90 13:35 10.08.2022
2270 Clear 30 1018 31 10000 4.12 0 12:35 10.08.2022
2271 Clear 26 1020 45 10000 3.6 70 09:24 10.08.2022
2272 Clouds 25 1007 49 10000 2.68 80 08:32 10.08.2022
2273 Clear 26 1005 49 10000 3.6 90 06:23 10.08.2022
2274 Rain 29 1004 26 10000 4.92 173 03:24 10.08.2022
2275 Clear 32 1004 23 10000 3.6 290 23:34 09.08.2022
2276 Clear 32 1004 23 10000 4.63 280 22:56 09.08.2022
2277 Clouds 35 1003 21 10000 2.68 199 21:35 09.08.2022
2278 Clouds 36 1016 17 10000 3.58 216 20:26 09.08.2022
2279 Clouds 37 1016 17 10000 3.6 0 18:42 09.08.2022
2280 Clouds 36 1017 19 10000 3.09 180 17:28 09.08.2022
2281 Clouds 36 1017 20 10000 3.6 130 16:40 09.08.2022
2282 Clear 35 1018 21 10000 2.57 150 15:58 09.08.2022
2283 Clear 31 1020 33 10000 3.6 90 12:52 09.08.2022
2284 Clear 25 1020 44 10000 3.09 90 09:39 09.08.2022
2285 Clear 25 1007 45 9000 3.09 90 08:50 09.08.2022
2286 Clear 24 1007 46 10000 2.68 143 07:52 09.08.2022
2287 Clear 26 1004 38 10000 2.24 114 04:25 09.08.2022
2288 Clear 30 1004 23 10000 1.03 0 23:27 08.08.2022
2289 Clear 31 1003 22 10000 0.89 141 22:55 08.08.2022
2290 Clear 32 1003 22 10000 1.03 0 22:22 08.08.2022
2291 Clear 34 1016 19 10000 3.6 200 21:22 08.08.2022
2292 Clear 35 1015 16 10000 4.47 198 19:51 08.08.2022
2293 Clear 36 1015 16 10000 3.09 210 18:50 08.08.2022
2294 Clear 35 1016 16 10000 5.14 150 16:47 08.08.2022
2295 Clear 35 1017 19 10000 2.57 210 15:40 08.08.2022
2296 Clear 33 1017 22 10000 2.57 140 14:29 08.08.2022
2297 Clear 30 1018 32 10000 2.57 170 12:27 08.08.2022
2298 Clear 26 1018 44 10000 3.09 100 10:19 08.08.2022
2299 Clear 23 1017 44 10000 1.54 350 06:54 08.08.2022
2300 Clear 26 1016 29 10000 2.57 330 03:31 08.08.2022
2301 Clear 30 1016 20 10000 2.57 140 22:42 07.08.2022
2302 Clear 33 1015 18 10000 2.06 260 21:40 07.08.2022
2303 Clear 34 1014 16 10000 2.68 218 20:42 07.08.2022
2304 Clear 35 1014 17 10000 2.57 190 20:18 07.08.2022
2305 Clear 35 1014 17 10000 3.58 223 19:41 07.08.2022
2306 Clear 35 1015 18 10000 4.12 220 18:36 07.08.2022
2307 Clear 34 1016 20 10000 4.12 170 16:55 07.08.2022
2308 Clear 34 1016 20 10000 5.81 203 16:35 07.08.2022
2309 Clear 34 1017 21 10000 5.14 190 15:24 07.08.2022
2310 Clear 31 1018 27 10000 3.58 205 13:37 07.08.2022
2311 Clear 29 1018 32 10000 1.79 113 11:58 07.08.2022
2312 Clear 26 1018 41 10000 2.57 60 10:35 07.08.2022
2313 Clear 24 1017 52 10000 3.09 70 07:59 07.08.2022
2314 Clear 27 1017 39 9000 3.6 100 03:32 07.08.2022
2315 Clear 28 1017 32 10000 2.06 60 01:45 07.08.2022
2316 Clear 32 1016 23 10000 2.57 300 22:25 06.08.2022
2317 Clear 34 1016 20 10000 2.24 270 21:18 06.08.2022
2318 Clear 35 1016 19 10000 4.12 220 19:41 06.08.2022
2319 Clear 36 1016 19 10000 4.63 210 18:33 06.08.2022
2320 Clear 35 1017 19 10000 4.12 190 17:37 06.08.2022
2321 Clear 33 1018 23 10000 3.6 230 14:52 06.08.2022
2322 Clear 31 1019 30 10000 2.06 0 13:49 06.08.2022
2323 Clear 29 1020 35 10000 2.57 180 12:19 06.08.2022
2324 Clear 26 1019 41 10000 3.09 90 10:33 06.08.2022
2325 Clear 25 1019 43 10000 3.09 100 09:21 06.08.2022
2326 Clear 27 1017 39 10000 6.17 120 03:55 06.08.2022
2327 Clear 30 1016 25 10000 1.54 340 23:56 05.08.2022
2328 Clouds 32 1016 23 10000 2.57 330 22:33 05.08.2022
2329 Clouds 35 1015 18 10000 3.6 240 20:30 05.08.2022
2330 Clouds 36 1015 18 10000 4.02 210 18:53 05.08.2022
2331 Clouds 36 1015 18 10000 3.58 225 18:35 05.08.2022
2332 Clouds 35 1016 18 10000 4.63 200 16:51 05.08.2022
2333 Clear 34 1017 21 10000 4.12 250 15:23 05.08.2022
2334 Clear 33 1017 22 10000 3.58 205 14:34 05.08.2022
2335 Clear 32 1018 29 10000 2.57 180 13:26 05.08.2022
2336 Clear 30 1018 32 10000 2.06 110 12:45 05.08.2022
2337 Clear 28 1018 37 10000 2.06 50 10:59 05.08.2022
2338 Clear 24 1018 43 10000 1.79 101 08:46 05.08.2022
2339 Clouds 24 1017 45 10000 2.57 100 07:33 05.08.2022
2340 Clear 29 1016 29 10000 5.14 110 01:52 05.08.2022
2341 Clear 31 1014 28 10000 2.06 260 22:43 04.08.2022
2342 Clouds 33 1013 23 10000 7.6 355 21:28 04.08.2022
2343 Clouds 35 1013 18 10000 3.09 190 20:53 04.08.2022
2344 Clouds 36 1013 17 10000 4.12 240 20:33 04.08.2022
2345 Clear 36 1013 17 10000 4.63 190 18:57 04.08.2022
2346 Clear 36 1014 17 10000 4.63 210 18:33 04.08.2022
2347 Clear 35 1015 18 10000 6.69 210 15:51 04.08.2022
2348 Clear 32 1016 25 10000 2.24 135 13:26 04.08.2022
2349 Clear 29 1017 32 10000 2.57 0 11:39 04.08.2022
2350 Clear 27 1017 38 10000 2.68 145 10:20 04.08.2022
2351 Clear 24 1016 47 10000 1.79 148 07:45 04.08.2022
2352 Clear 28 1015 41 10000 4.63 120 02:48 04.08.2022
2353 Clear 30 1014 20 10000 1.34 197 00:33 04.08.2022
2354 Clear 30 1014 22 10000 1.03 0 23:39 03.08.2022
2355 Clear 35 1013 15 10000 4.63 210 21:31 03.08.2022
2356 Clear 36 1013 14 10000 4.63 220 20:21 03.08.2022
2357 Clear 37 1013 14 10000 5.14 210 19:24 03.08.2022
2358 Clouds 36 1014 18 10000 5.66 220 16:50 03.08.2022
2359 Clear 36 1014 20 10000 4.12 0 16:22 03.08.2022
2360 Clear 33 1016 31 10000 3.6 140 13:52 03.08.2022
2361 Clear 28 1017 43 10000 3.6 100 10:56 03.08.2022
2362 Clear 24 1016 54 10000 3.09 330 07:32 03.08.2022
2363 Clear 27 1016 46 10000 2.24 78 04:22 03.08.2022
2364 Clouds 28 1015 44 10000 2.57 350 03:23 03.08.2022
2365 Clear 29 1016 38 10000 3.58 73 00:49 03.08.2022
2366 Clouds 32 1016 32 10000 5.36 33 22:43 02.08.2022
2367 Thunderstorm 33 1015 27 10000 5.66 360 21:52 02.08.2022
2368 Rain 35 1014 26 10000 5.66 190 20:32 02.08.2022
2369 Clouds 38 1014 20 10000 3.13 201 18:34 02.08.2022
2370 Clear 36 1017 29 10000 3.13 205 15:20 02.08.2022
2371 Clear 29 1019 44 10000 2.57 100 10:51 02.08.2022
2372 Clear 26 1018 43 10000 2.57 50 08:54 02.08.2022
2373 Clear 25 1006 45 10000 2.24 57 07:52 02.08.2022
2374 Clear 26 1005 45 10000 2.24 59 06:41 02.08.2022
2375 Clear 27 1002 47 10000 2.06 60 04:31 02.08.2022
2376 Clear 33 1004 21 10000 2.57 340 23:35 01.08.2022
2377 Clouds 34 1003 21 10000 1.54 190 22:22 01.08.2022
2378 Clouds 37 1016 18 10000 1.79 156 20:47 01.08.2022
2379 Clouds 37 1016 18 10000 3.09 310 19:22 01.08.2022
2380 Clouds 38 1016 17 10000 2.57 170 17:57 01.08.2022
2381 Clouds 37 1017 18 10000 2.57 0 16:52 01.08.2022
2382 Clouds 37 1017 19 10000 2.68 64 15:52 01.08.2022
2383 Clouds 36 1018 19 10000 2.57 90 15:30 01.08.2022
2384 Clouds 34 1019 31 10000 2.68 20 13:48 01.08.2022
2385 Clouds 30 1019 48 9000 3.09 80 11:50 01.08.2022
2386 Clouds 30 1019 48 9000 3.09 80 11:50 01.08.2022
2387 Clouds 26 1020 52 10000 3.09 60 09:39 01.08.2022
2388 Clouds 24 1007 52 10000 2.57 70 08:22 01.08.2022
2389 Clear 26 1005 45 10000 2.24 31 04:47 01.08.2022
2390 Clear 29 1005 32 10000 3.13 82 02:32 01.08.2022
2391 Clear 31 1005 27 10000 3.6 350 23:54 31.07.2022
2392 Clear 33 1004 27 10000 2.57 300 22:36 31.07.2022
2393 Clear 33 1004 27 10000 2.57 300 22:36 31.07.2022
2394 Clear 35 1017 25 10000 2.06 220 20:50 31.07.2022
2395 Clear 36 1017 24 10000 2.57 280 19:41 31.07.2022
2396 Clouds 36 1017 26 10000 2.57 210 17:47 31.07.2022
2397 Clear 34 1019 33 10000 3.09 180 15:35 31.07.2022
2398 Clear 31 1020 44 10000 2.57 130 13:41 31.07.2022
2399 Clear 28 1020 52 10000 3.09 90 11:55 31.07.2022
2400 Clear 24 1020 56 10000 3.6 70 09:36 31.07.2022
2401 Clear 23 1006 63 10000 1.54 10 06:48 31.07.2022
2402 Clear 25 1007 52 10000 2.06 340 02:57 31.07.2022
2403 Clear 28 1006 45 10000 2.06 80 23:35 30.07.2022
2404 Clouds 28 998 45 10000 2.68 98 22:19 30.07.2022
2405 Clouds 29 1001 38 10000 3.09 360 21:48 30.07.2022
2406 Clouds 28 991 49 10000 8.23 290 20:56 30.07.2022
2407 Clouds 28 1003 46 10000 8.75 290 19:58 30.07.2022
2408 Thunderstorm 28 995 54 1500 11.83 180 18:53 30.07.2022
2409 Clouds 37 1016 21 10000 3.6 170 17:42 30.07.2022
2410 Clear 35 1018 29 10000 4.12 90 15:49 30.07.2022
2411 Clear 34 1019 32 10000 4.63 110 15:21 30.07.2022
2412 Clear 30 1020 45 10000 3.6 40 12:55 30.07.2022
2413 Clear 28 1020 51 10000 4.63 40 11:55 30.07.2022
2414 Clear 25 1021 50 10000 3.6 40 10:28 30.07.2022
2415 Clear 24 1020 51 10000 5.14 30 09:47 30.07.2022
2416 Clear 22 1020 53 10000 4.63 40 07:54 30.07.2022
2417 Clear 25 1005 45 10000 4.92 43 02:37 30.07.2022
2418 Clear 26 1019 42 10000 5.36 59 01:49 30.07.2022
2419 Clear 32 1003 19 10000 2.57 220 22:25 29.07.2022
2420 Clear 34 1016 19 10000 3.6 220 21:23 29.07.2022
2421 Clear 35 1015 14 10000 4.63 220 19:57 29.07.2022
2422 Clear 35 1015 15 10000 6.17 220 17:53 29.07.2022
2423 Clear 34 1016 20 10000 6.17 230 15:26 29.07.2022
2424 Clear 31 1017 28 10000 4.47 222 13:18 29.07.2022
2425 Clear 27 1017 41 10000 1.03 0 10:42 29.07.2022
2426 Clear 24 1016 45 10000 2.24 75 08:50 29.07.2022
2427 Clear 23 1003 49 10000 1.79 48 07:54 29.07.2022
2428 Clear 27 1002 32 10000 2.57 290 01:52 29.07.2022
2429 Clear 31 1001 25 10000 5.14 250 22:49 28.07.2022
2430 Clouds 33 1013 21 10000 6.69 230 21:20 28.07.2022
2431 Clouds 34 1012 19 10000 6.69 230 20:31 28.07.2022
2432 Clear 34 1012 18 10000 4.92 231 19:43 28.07.2022
2433 Clouds 35 1012 17 10000 6.69 240 18:50 28.07.2022
2434 Clouds 34 1013 16 10000 5.14 240 17:43 28.07.2022
2435 Clouds 35 1001 16 10000 5.66 220 16:55 28.07.2022
2436 Clouds 33 1014 18 10000 4.63 250 15:32 28.07.2022
2437 Clear 31 1015 24 10000 3.6 260 13:29 28.07.2022
2438 Clear 29 1015 31 10000 2.06 180 11:27 28.07.2022
2439 Clear 24 1001 42 10000 2.57 310 06:45 28.07.2022
2440 Clear 24 1001 39 10000 2.57 300 05:31 28.07.2022
2441 Clear 28 1014 28 10000 1.54 10 01:23 28.07.2022
2442 Clear 31 998 29 10000 4.63 220 22:41 27.07.2022
2443 Clear 33 1012 27 10000 4.63 230 21:29 27.07.2022
2444 Clear 34 1012 19 10000 4.12 220 19:43 27.07.2022
2445 Clear 35 1013 20 10000 4.12 240 17:50 27.07.2022
2446 Clouds 33 1014 25 10000 4.12 240 15:52 27.07.2022
2447 Clouds 33 1015 28 10000 3.09 0 14:58 27.07.2022
2448 Clouds 32 1015 30 10000 4.63 180 14:35 27.07.2022
2449 Clear 29 1016 46 10000 2.68 173 12:50 27.07.2022
2450 Clear 22 1004 52 10000 4.63 40 08:44 27.07.2022
2451 Clear 21 1003 54 10000 3.13 34 07:24 27.07.2022
2452 Clear 26 1003 42 10000 4.02 59 02:42 27.07.2022
2453 Clear 31 1002 27 10000 3.6 350 22:29 26.07.2022
2454 Clear 33 1001 25 10000 5.66 330 21:21 26.07.2022
2455 Clear 34 1014 23 10000 4.12 320 20:43 26.07.2022
2456 Clear 35 1015 20 10000 4.63 200 18:44 26.07.2022
2457 Clear 35 1015 20 10000 4.63 200 18:19 26.07.2022
2458 Clear 34 1016 20 10000 6.17 300 16:32 26.07.2022
2459 Clear 34 1017 21 10000 4.63 170 15:36 26.07.2022
2460 Clear 32 1018 26 10000 2.57 150 13:47 26.07.2022
2461 Clear 28 1019 37 10000 3.09 50 11:39 26.07.2022
2462 Clear 24 1019 49 10000 4.63 50 09:32 26.07.2022
2463 Clear 22 1005 53 10000 2.57 360 07:31 26.07.2022
2464 Clear 28 1006 19 10000 2.06 80 00:57 26.07.2022
2465 Clear 30 1006 16 10000 2.57 330 23:33 25.07.2022
2466 Clear 32 1005 15 10000 4.12 310 22:27 25.07.2022
2467 Clouds 33 1018 15 10000 5.14 310 21:43 25.07.2022
2468 Clouds 35 1005 14 10000 5.66 310 20:42 25.07.2022
2469 Clouds 35 1005 14 10000 6.17 300 19:51 25.07.2022
2470 Clouds 37 1005 14 10000 5.14 220 18:23 25.07.2022
2471 Clear 37 1017 12 10000 5.66 220 17:31 25.07.2022
2472 Clear 36 1006 11 10000 8.23 240 15:30 25.07.2022
2473 Clear 33 1008 17 10000 5.66 230 12:29 25.07.2022
2474 Clear 28 1020 31 10000 1.54 250 10:32 25.07.2022
2475 Clear 25 1020 28 9000 2.57 230 06:51 25.07.2022
2476 Clear 32 1006 19 10000 4.47 269 23:56 24.07.2022
2477 Clear 32 1005 19 10000 5.14 240 23:19 24.07.2022
2478 Clear 33 1005 17 10000 4.63 230 22:35 24.07.2022
2479 Clear 34 1019 16 10000 6.17 240 21:28 24.07.2022
2480 Clear 35 1018 14 10000 8.23 250 20:53 24.07.2022
2481 Clear 36 1006 14 10000 8.75 230 20:29 24.07.2022
2482 Clear 38 1006 12 10000 10.8 250 18:57 24.07.2022
2483 Clear 38 1018 11 10000 7.2 220 16:51 24.07.2022
2484 Clear 37 1019 13 10000 6.69 220 15:53 24.07.2022
2485 Clear 36 1020 17 10000 5.66 230 14:40 24.07.2022
2486 Clear 34 1021 18 10000 5.14 220 13:25 24.07.2022
2487 Clear 32 1021 19 10000 5.66 230 12:19 24.07.2022
2488 Clear 30 1021 21 10000 2.57 220 11:26 24.07.2022
2489 Clear 26 1021 23 10000 1.79 192 09:23 24.07.2022
2490 Clear 22 1008 26 10000 1.54 110 07:53 24.07.2022
2491 Clear 24 1004 23 10000 1.54 350 06:34 24.07.2022
2492 Clear 27 1004 18 10000 4.12 260 02:33 24.07.2022
2493 Clear 33 1005 15 10000 3.09 240 22:31 23.07.2022
2494 Clear 36 1018 10 10000 5.66 240 20:41 23.07.2022
2495 Clear 38 1018 8 10000 6.17 250 18:52 23.07.2022
2496 Clear 38 1018 9 10000 6.69 250 17:48 23.07.2022
2497 Clear 38 1006 10 10000 6.17 210 17:24 23.07.2022
2498 Clear 37 1019 11 10000 6.69 220 15:55 23.07.2022
2499 Clear 36 1019 12 10000 6.69 230 15:21 23.07.2022
2500 Clear 36 1007 12 10000 6.69 230 14:47 23.07.2022
2501 Clear 35 1008 13 10000 4.63 210 13:54 23.07.2022
2502 Clear 30 1020 24 10000 1.79 190 11:47 23.07.2022
2503 Clear 27 1020 33 10000 1.03 0 10:28 23.07.2022
2504 Clear 25 1020 42 10000 1.79 70 09:28 23.07.2022
2505 Clear 23 1006 34 10000 2.06 10 06:40 23.07.2022
2506 Clear 26 1005 21 10000 2.57 340 03:37 23.07.2022
2507 Clear 31 1004 18 10000 3.6 250 23:59 22.07.2022
2508 Clear 34 1018 17 10000 5.66 250 21:28 22.07.2022
2509 Clear 36 1005 17 10000 6.69 260 20:29 22.07.2022
2510 Clouds 36 1018 15 10000 3.58 270 18:41 22.07.2022
2511 Clear 37 1006 16 10000 7.15 248 17:38 22.07.2022
2512 Clear 35 1019 19 10000 6.69 240 15:35 22.07.2022
2513 Clear 32 1020 31 10000 2.06 0 12:41 22.07.2022
2514 Clear 27 1020 43 10000 2.06 90 09:56 22.07.2022
2515 Clear 26 1020 43 10000 2.57 80 09:21 22.07.2022
2516 Clear 25 1006 47 10000 2.06 100 07:51 22.07.2022
2517 Clear 27 1005 37 10000 2.57 130 04:22 22.07.2022
2518 Clear 32 1005 22 10000 2.06 250 23:29 21.07.2022
2519 Clear 35 1018 19 10000 2.57 240 21:41 21.07.2022
2520 Clear 37 1017 14 10000 3.09 240 19:42 21.07.2022
2521 Clear 37 1018 16 10000 4.63 220 18:30 21.07.2022
2522 Clear 37 1018 17 10000 3.09 170 17:21 21.07.2022
2523 Clear 36 1019 22 10000 3.13 182 15:58 21.07.2022
2524 Clear 34 1020 24 10000 3.09 0 14:46 21.07.2022
2525 Clear 33 1021 25 10000 3.6 100 13:53 21.07.2022
2526 Clear 30 1022 30 10000 3.09 70 11:54 21.07.2022
2527 Clear 27 1022 38 10000 3.09 70 09:54 21.07.2022
2528 Clear 25 1022 41 10000 3.09 70 08:53 21.07.2022
2529 Clear 25 1022 42 10000 2.57 50 08:53 21.07.2022
2530 Clear 24 1009 44 10000 2.57 60 07:50 21.07.2022
2531 Clear 24 1008 43 10000 2.06 70 06:27 21.07.2022
2532 Clear 27 1007 40 10000 2.57 90 02:49 21.07.2022
2533 Clear 31 1006 19 10000 2.06 210 22:47 20.07.2022
2534 Clear 33 1006 19 10000 2.57 200 22:19 20.07.2022
2535 Clouds 36 1018 12 10000 2.06 0 20:46 20.07.2022
2536 Clouds 36 1018 12 10000 2.06 330 19:47 20.07.2022
2537 Clouds 36 1019 12 10000 2.57 160 18:54 20.07.2022
2538 Clear 36 1019 13 10000 2.06 270 18:31 20.07.2022
2539 Clear 36 1019 13 10000 2.57 10 17:28 20.07.2022
2540 Clear 34 1020 15 10000 2.68 153 15:38 20.07.2022
2541 Clear 34 1020 17 9000 3.6 120 14:49 20.07.2022
2542 Clear 31 1021 22 10000 2.68 78 13:21 20.07.2022
2543 Clear 29 1021 26 10000 3.09 40 11:29 20.07.2022
2544 Clear 22 1007 34 10000 2.06 360 06:49 20.07.2022
2545 Clear 25 1006 27 10000 3.09 270 01:56 20.07.2022
2546 Clear 27 1006 25 10000 3.09 320 00:42 20.07.2022
2547 Clear 29 1005 18 10000 4.12 250 22:38 19.07.2022
2548 Clear 30 1005 17 10000 4.12 250 22:20 19.07.2022
2549 Clear 32 1018 14 10000 6.69 250 20:50 19.07.2022
2550 Clear 33 1017 14 10000 7.2 210 19:37 19.07.2022
2551 Clear 33 1018 14 10000 7.72 230 18:42 19.07.2022
2552 Clear 34 1006 14 10000 7.72 230 17:55 19.07.2022
2553 Clear 32 1007 17 10000 7.72 240 15:50 19.07.2022
2554 Clear 31 1008 22 10000 5.66 220 13:51 19.07.2022
2555 Clear 28 1020 31 10000 4.63 220 11:34 19.07.2022
2556 Clear 26 1020 34 10000 5.14 240 09:58 19.07.2022
2557 Clear 24 1020 35 10000 3.6 190 08:48 19.07.2022
2558 Clear 23 1020 35 10000 4.02 231 08:21 19.07.2022
2559 Clear 25 1006 34 10000 3.09 210 07:18 19.07.2022
2560 Clear 26 1005 32 10000 2.68 225 05:26 19.07.2022
2561 Clear 27 1005 32 10000 2.57 180 04:41 19.07.2022
2562 Clear 32 1004 26 10000 3.09 200 00:31 19.07.2022
2563 Clouds 34 1004 24 10000 4.12 240 23:21 18.07.2022
2564 Clouds 34 1017 21 10000 5.14 240 22:55 18.07.2022
2565 Clear 36 1016 17 10000 4.63 230 21:53 18.07.2022
2566 Clouds 37 1004 15 10000 6.69 170 20:50 18.07.2022
2567 Clouds 38 1016 14 10000 5.66 210 19:24 18.07.2022
2568 Clear 38 1006 15 10000 4.63 180 16:52 18.07.2022
2569 Clear 36 1019 18 10000 4.12 180 15:42 18.07.2022
2570 Clear 35 1020 20 10000 4.12 220 14:24 18.07.2022
2571 Clear 32 1020 23 10000 3.09 140 12:38 18.07.2022
2572 Clear 29 1021 29 10000 3.09 120 10:37 18.07.2022
2573 Clear 27 1021 32 10000 2.06 70 08:51 18.07.2022
2574 Clear 26 1007 34 10000 1.79 76 06:58 18.07.2022
2575 Clear 32 1006 20 10000 2.57 150 00:36 18.07.2022
2576 Clear 35 1006 20 10000 3.09 160 22:34 17.07.2022
2577 Clear 36 1001 19 10000 3.6 160 21:49 17.07.2022
2578 Clear 37 1018 16 10000 4.63 140 21:18 17.07.2022
2579 Clear 38 1018 14 10000 4.63 150 20:37 17.07.2022
2580 Clear 38 1018 14 10000 5.14 140 19:29 17.07.2022
2581 Clear 39 1019 14 10000 4.63 140 18:27 17.07.2022
2582 Clear 39 1019 14 10000 4.63 150 17:38 17.07.2022
2583 Clear 38 1019 14 10000 5.14 160 16:50 17.07.2022
2584 Clear 38 1020 14 10000 5.14 150 16:26 17.07.2022
2585 Clear 38 1020 14 10000 5.14 150 16:26 17.07.2022
2586 Clear 36 1021 17 10000 3.09 160 14:44 17.07.2022
2587 Clear 35 1021 20 10000 3.6 130 13:31 17.07.2022
2588 Clear 32 1022 26 10000 4.12 130 11:35 17.07.2022
2589 Clear 27 1021 34 10000 2.57 60 08:57 17.07.2022
2590 Clear 29 1004 26 10000 3.09 90 03:44 17.07.2022
2591 Clear 30 1005 25 10000 1.54 330 02:32 17.07.2022
2592 Clear 33 1003 19 10000 2.57 200 23:20 16.07.2022
2593 Clouds 36 1017 15 10000 4.12 170 21:30 16.07.2022
2594 Clouds 39 1017 14 10000 4.63 150 19:30 16.07.2022
2595 Clouds 39 1017 13 10000 3.09 160 18:32 16.07.2022
2596 Clouds 39 1017 13 10000 3.09 160 18:32 16.07.2022
2597 Clear 38 1018 15 10000 3.09 150 16:34 16.07.2022
2598 Clear 36 1020 18 10000 3.09 0 13:56 16.07.2022
2599 Clear 30 1020 27 10000 3.6 70 10:55 16.07.2022
2600 Clear 28 1020 30 10000 3.6 50 09:33 16.07.2022
2601 Clear 26 1020 31 10000 3.6 50 08:44 16.07.2022
2602 Clear 26 1006 32 10000 3.6 50 08:23 16.07.2022
2603 Clear 28 1004 30 10000 2.24 83 04:21 16.07.2022
2604 Clear 29 1003 28 10000 2.24 135 02:49 16.07.2022
2605 Clear 33 1002 19 10000 2.06 120 23:34 15.07.2022
2606 Clear 35 1001 16 10000 2.57 120 22:41 15.07.2022
2607 Clear 37 1016 12 10000 3.6 120 21:29 15.07.2022
2608 Clear 38 1016 11 10000 4.12 160 20:30 15.07.2022
2609 Clear 39 1016 12 10000 4.63 180 18:42 15.07.2022
2610 Clear 39 1017 13 10000 4.12 150 17:38 15.07.2022
2611 Clear 37 1018 15 10000 4.12 130 14:54 15.07.2022
2612 Clear 35 1019 18 10000 4.63 130 13:18 15.07.2022
2613 Clear 32 1019 22 10000 3.09 60 11:44 15.07.2022
2614 Clear 30 1019 24 10000 5.14 50 10:23 15.07.2022
2615 Clear 26 1006 23 10000 2.68 45 06:30 15.07.2022
2616 Clear 31 1007 15 10000 2.06 80 01:32 15.07.2022
2617 Clear 33 1006 14 10000 2.57 50 00:22 15.07.2022
2618 Clear 35 1019 13 10000 3.13 67 22:52 14.07.2022
2619 Clear 37 1005 13 10000 3.6 70 21:54 14.07.2022
2620 Clear 38 1002 12 10000 4.02 105 21:30 14.07.2022
2621 Clear 39 1018 11 10000 4.12 70 20:45 14.07.2022
2622 Clear 40 1017 10 10000 4.12 70 20:24 14.07.2022
2623 Clear 40 1017 11 10000 3.6 50 19:45 14.07.2022
2624 Clear 40 1020 12 10000 3.6 110 16:23 14.07.2022
2625 Clear 40 1020 12 10000 2.06 0 15:50 14.07.2022
2626 Clear 38 1021 13 10000 3.09 170 14:43 14.07.2022
2627 Clear 36 1022 15 10000 2.57 0 13:32 14.07.2022
2628 Clear 33 1022 21 10000 1.79 97 12:18 14.07.2022
2629 Clear 32 1022 22 10000 1.54 70 11:25 14.07.2022
2630 Clear 30 1023 26 10000 2.57 70 10:39 14.07.2022
2631 Clear 27 1011 30 10000 2.24 31 08:21 14.07.2022
2632 Clear 30 1009 25 10000 3.6 340 03:29 14.07.2022
2633 Clear 32 1009 21 10000 2.68 30 00:54 14.07.2022
2634 Clear 34 1008 21 10000 2.57 240 23:35 13.07.2022
2635 Clear 35 1006 18 10000 1.54 190 22:23 13.07.2022
2636 Clear 37 1021 16 10000 2.06 160 21:30 13.07.2022
2637 Clear 38 1020 15 10000 1.54 0 20:26 13.07.2022
2638 Clear 39 1021 15 10000 3.6 160 17:56 13.07.2022
2639 Clear 39 1021 15 10000 3.6 210 16:59 13.07.2022
2640 Clear 38 1022 17 10000 2.68 232 15:51 13.07.2022
2641 Clear 35 1023 21 10000 2.24 195 13:45 13.07.2022
2642 Clear 30 1024 28 10000 2.06 80 11:24 13.07.2022
2643 Clear 29 1024 31 10000 2.57 70 10:40 13.07.2022
2644 Clear 27 1024 34 10000 2.06 60 09:28 13.07.2022
2645 Clear 25 1011 36 10000 2.57 40 08:21 13.07.2022
2646 Clear 28 1009 30 10000 1.79 105 04:36 13.07.2022
2647 Clear 31 1008 24 10000 2.06 260 00:25 13.07.2022
2648 Clear 33 1007 21 10000 2.57 240 22:46 12.07.2022
2649 Clear 35 1007 18 10000 2.06 200 21:46 12.07.2022
2650 Clouds 37 1020 16 10000 3.09 180 20:53 12.07.2022
2651 Clouds 38 1020 14 10000 2.06 180 19:48 12.07.2022
2652 Clouds 38 1020 14 10000 3.09 180 18:43 12.07.2022
2653 Clouds 37 1021 15 10000 2.06 0 16:36 12.07.2022
2654 Clear 35 1022 19 10000 2.57 0 14:32 12.07.2022
2655 Clear 35 1022 19 10000 2.57 0 14:32 12.07.2022
2656 Clear 33 1023 20 10000 2.57 0 13:35 12.07.2022
2657 Clear 30 1022 24 10000 3.09 130 11:54 12.07.2022
2658 Clear 28 1022 29 10000 3.09 80 10:27 12.07.2022
2659 Clear 26 1022 36 10000 3.09 80 08:57 12.07.2022
2660 Clear 25 1008 36 10000 3.09 320 07:48 12.07.2022
2661 Clear 26 1007 32 10000 2.57 50 05:47 12.07.2022
2662 Clear 26 1007 32 10000 2.57 50 05:29 12.07.2022
2663 Clear 31 1006 24 10000 3.6 120 01:31 12.07.2022
2664 Clouds 32 1003 22 10000 2.06 320 22:48 11.07.2022
2665 Clouds 35 1002 18 10000 1.54 220 21:34 11.07.2022
2666 Clouds 36 1003 16 10000 3.6 150 20:33 11.07.2022
2667 Clouds 37 1015 14 10000 3.09 140 19:27 11.07.2022
2668 Clouds 38 1015 14 10000 4.12 190 18:30 11.07.2022
2669 Clouds 37 1016 18 10000 3.13 148 16:31 11.07.2022
2670 Clouds 36 1016 21 10000 2.68 195 15:33 11.07.2022
2671 Clear 32 1005 27 10000 2.57 40 13:26 11.07.2022
2672 Clear 29 1018 33 10000 3.09 70 11:24 11.07.2022
2673 Clear 29 1018 33 10000 3.09 70 11:24 11.07.2022
2674 Clouds 27 1017 38 10000 3.6 80 10:18 11.07.2022
2675 Clouds 26 1017 40 10000 3.6 60 09:40 11.07.2022
2676 Clouds 24 1017 43 10000 3.6 50 08:32 11.07.2022
2677 Clear 28 1003 25 10000 2.57 60 02:59 11.07.2022
2678 Clear 32 1003 16 10000 1.79 28 00:18 11.07.2022
2679 Clear 33 1002 17 10000 2.24 21 22:52 10.07.2022
2680 Clear 35 1016 15 10000 4.12 150 21:39 10.07.2022
2681 Clear 36 1015 15 10000 3.09 170 20:41 10.07.2022
2682 Clear 37 1015 14 10000 4.12 220 19:48 10.07.2022
2683 Clear 37 1016 14 10000 4.63 210 18:43 10.07.2022
2684 Clear 37 1017 15 10000 2.68 248 17:36 10.07.2022
2685 Clear 37 1017 15 10000 3.09 0 16:41 10.07.2022
2686 Clear 36 1018 16 10000 3.13 280 15:24 10.07.2022
2687 Clear 35 1018 20 10000 1.79 189 14:21 10.07.2022
2688 Clear 31 1020 32 10000 2.24 60 12:27 10.07.2022
2689 Clear 26 1021 40 10000 2.57 80 09:58 10.07.2022
2690 Clear 24 1020 39 10000 2.24 57 08:44 10.07.2022
2691 Clear 23 1007 41 10000 2.68 69 07:30 10.07.2022
2692 Clear 29 1008 22 10000 2.68 70 01:31 10.07.2022
2693 Clear 32 1007 21 10000 3.09 200 22:43 09.07.2022
2694 Clear 33 1007 21 10000 3.09 200 22:24 09.07.2022
2695 Clear 36 1020 17 10000 2.06 180 20:46 09.07.2022
2696 Clear 36 1020 17 10000 3.13 281 18:37 09.07.2022
2697 Clear 36 1021 17 10000 3.09 0 17:45 09.07.2022
2698 Clear 35 1022 18 10000 2.57 0 16:44 09.07.2022
2699 Clear 35 1023 19 10000 3.09 0 15:41 09.07.2022
2700 Clear 33 1023 24 10000 2.06 130 14:36 09.07.2022
2701 Clear 32 1024 27 10000 2.68 230 13:50 09.07.2022
2702 Clear 30 1025 33 10000 2.57 70 12:47 09.07.2022
2703 Clear 28 1025 36 10000 3.09 70 11:31 09.07.2022
2704 Clear 26 1025 40 10000 3.6 70 10:22 09.07.2022
2705 Clear 22 1013 47 10000 3.6 40 07:53 09.07.2022
2706 Clear 23 1011 40 9000 1.79 43 05:24 09.07.2022
2707 Clear 26 1010 29 10000 3.6 340 02:34 09.07.2022
2708 Clear 30 1009 25 10000 1.03 0 22:59 08.07.2022
2709 Clear 32 1007 24 10000 0.45 113 21:59 08.07.2022
2710 Clear 34 1022 17 10000 2.06 130 20:42 08.07.2022
2711 Clear 34 1022 17 10000 2.06 130 20:23 08.07.2022
2712 Clear 34 1022 18 10000 2.57 0 18:29 08.07.2022
2713 Clear 34 1023 19 10000 2.06 0 17:21 08.07.2022
2714 Clear 33 1023 19 10000 2.57 0 17:21 08.07.2022
2715 Clear 31 1024 26 10000 2.57 20 14:54 08.07.2022
2716 Clear 29 1025 30 10000 2.06 120 13:45 08.07.2022
2717 Clear 26 1026 37 10000 2.57 40 11:59 08.07.2022
2718 Clear 23 1026 44 9000 4.12 30 10:37 08.07.2022
2719 Clear 20 1027 50 10000 5.66 40 08:44 08.07.2022
2720 Clear 19 1013 53 10000 3.13 73 06:50 08.07.2022
2721 Clear 22 1012 38 10000 4.02 72 01:49 08.07.2022
2722 Clear 26 1012 33 10000 4.47 76 23:30 07.07.2022
2723 Clear 28 1011 26 10000 3.58 61 22:38 07.07.2022
2724 Clear 31 1023 18 10000 3.6 360 20:40 07.07.2022
2725 Clear 32 1024 18 10000 3.09 80 18:23 07.07.2022
2726 Clear 31 1024 20 10000 3.6 0 16:57 07.07.2022
2727 Clear 29 1025 21 10000 4.12 0 15:18 07.07.2022
2728 Clear 27 1026 27 10000 6.17 50 13:25 07.07.2022
2729 Clear 25 1026 34 10000 6.17 50 12:37 07.07.2022
2730 Clear 25 1026 37 10000 6.17 40 12:18 07.07.2022
2731 Clear 24 1026 40 10000 7.72 50 11:29 07.07.2022
2732 Clear 22 1026 46 10000 7.2 50 10:42 07.07.2022
2733 Clear 22 1026 48 10000 7.2 50 10:24 07.07.2022
2734 Clear 17 1013 63 10000 4.12 40 07:22 07.07.2022
2735 Clear 18 1012 63 10000 5.36 68 04:18 07.07.2022
2736 Clear 22 1007 56 10000 4.47 83 23:37 06.07.2022
2737 Clear 23 1011 54 10000 4.63 60 23:18 06.07.2022
2738 Clear 23 1010 52 10000 4.63 60 22:56 06.07.2022
2739 Clear 23 1010 50 10000 4.47 87 22:38 06.07.2022
2740 Clear 26 989 41 10000 4.63 60 21:27 06.07.2022
2741 Clear 29 1004 30 10000 6.17 50 19:38 06.07.2022
2742 Clouds 28 996 36 10000 8.23 30 18:21 06.07.2022
2743 Clouds 26 1021 41 10000 10.29 360 16:19 06.07.2022
2744 Clouds 31 1020 32 10000 5.66 240 14:46 06.07.2022
2745 Clear 28 1020 37 10000 2.68 221 12:40 06.07.2022
2746 Clear 27 1020 40 10000 2.06 0 11:49 06.07.2022
2747 Clear 25 1020 53 10000 3.09 160 10:18 06.07.2022
2748 Clear 23 1004 67 10000 1.54 60 07:46 06.07.2022
2749 Clear 22 1020 65 10000 1.79 99 07:23 06.07.2022
2750 Clear 25 1018 48 10000 4.63 150 02:55 06.07.2022
2751 Clear 30 1016 20 10000 3.6 250 22:45 05.07.2022
2752 Clear 30 1016 20 10000 3.6 250 22:45 05.07.2022
2753 -273 0 0 0 0 0 21:37 05.07.2022
2754 Clouds 35 1016 13 10000 5.14 230 20:38 05.07.2022
2755 Clouds 35 1016 13 10000 6.69 220 19:41 05.07.2022
2756 Clouds 35 1016 13 10000 6.69 220 19:22 05.07.2022
2757 Clouds 36 1003 13 10000 7.2 0 17:47 05.07.2022
2758 Clouds 35 1018 14 10000 5.14 0 16:44 05.07.2022
2759 Clouds 34 1005 19 10000 5.66 150 15:25 05.07.2022
2760 Clear 32 1019 22 10000 5.66 190 13:59 05.07.2022
2761 Clear 30 1020 25 10000 4.02 228 12:42 05.07.2022
2762 Clear 28 1020 30 10000 2.06 0 11:32 05.07.2022
2763 Clear 26 1020 36 10000 2.06 30 10:34 05.07.2022
2764 Clear 22 1019 44 10000 2.24 96 08:26 05.07.2022
2765 Clear 21 1004 44 10000 1.79 62 07:45 05.07.2022
2766 Clear 22 1002 33 9000 2.24 41 04:49 05.07.2022
2767 Clear 23 1003 32 10000 2.24 72 04:21 05.07.2022
2768 Clear 28 1002 27 10000 2.06 270 23:45 04.07.2022
2769 Clear 28 1002 27 10000 3.09 270 23:25 04.07.2022
2770 Clear 30 1001 27 10000 3.09 270 22:25 04.07.2022
2771 Clear 32 1017 23 10000 4.12 230 21:30 04.07.2022
2772 Clear 32 1017 21 10000 4.12 260 20:52 04.07.2022
2773 Clear 33 1017 20 10000 4.12 220 20:33 04.07.2022
2774 Clear 33 1017 19 10000 5.14 220 19:52 04.07.2022
2775 Clear 33 1017 19 10000 3.6 250 19:34 04.07.2022
2776 Clear 33 1018 19 10000 4.12 230 17:57 04.07.2022
2777 Clear 32 1019 22 10000 4.63 210 15:50 04.07.2022
2778 Clear 32 1019 22 10000 4.63 210 15:31 04.07.2022
2779 Clear 30 1020 30 10000 3.6 160 13:29 04.07.2022
2780 Clear 29 1020 34 10000 3.6 190 12:20 04.07.2022
2781 Clear 26 1020 40 10000 3.6 220 10:34 04.07.2022
2782 Clear 24 1020 44 10000 1.79 193 09:41 04.07.2022
2783 Clear 22 1004 47 10000 1.79 261 07:33 04.07.2022
2784 Clear 25 1003 41 10000 2.06 140 03:36 04.07.2022
2785 Clear 27 1018 36 10000 3.09 270 00:36 04.07.2022
2786 Clear 29 1002 34 10000 3.6 270 22:58 03.07.2022
2787 Clear 32 1003 30 10000 6.69 250 20:58 03.07.2022
2788 Clear 32 1003 29 10000 5.66 260 20:26 03.07.2022
2789 Clear 33 1003 27 10000 6.69 240 19:27 03.07.2022
2790 Clear 34 1003 27 10000 7.72 250 18:35 03.07.2022
2791 Clear 34 1003 28 10000 7.2 240 17:43 03.07.2022
2792 Clear 33 1018 31 10000 4.63 200 15:51 03.07.2022
2793 Clouds 32 1019 32 10000 5.66 210 14:59 03.07.2022
2794 Clouds 31 1019 37 10000 3.6 210 14:18 03.07.2022
2795 Clouds 30 1019 39 10000 3.13 199 13:48 03.07.2022
2796 Clear 29 1019 41 10000 2.68 198 12:33 03.07.2022
2797 Clouds 27 1019 46 10000 2.06 0 11:28 03.07.2022
2798 Clear 26 1020 53 10000 2.06 0 10:38 03.07.2022
2799 Clear 24 1020 55 10000 3.09 160 09:31 03.07.2022
2800 Clear 23 1004 61 10000 2.57 90 07:35 03.07.2022
2801 Clear 26 1019 51 10000 5.66 140 02:49 03.07.2022
2802 Clear 29 1003 35 10000 2.68 111 00:20 03.07.2022
2803 Clear 31 1002 30 10000 3.6 180 22:33 02.07.2022
2804 Clear 34 1017 23 10000 2.68 202 20:58 02.07.2022
2805 Clear 34 1017 21 10000 2.57 190 19:52 02.07.2022
2806 Clear 35 1017 20 10000 3.09 160 19:20 02.07.2022
2807 Clear 34 1018 23 10000 2.57 0 17:41 02.07.2022
2808 Clear 34 1018 24 10000 2.57 140 16:53 02.07.2022
2809 Clear 31 1019 36 10000 3.6 130 14:31 02.07.2022
2810 Clear 27 1020 50 10000 2.57 60 12:21 02.07.2022
2811 Clear 25 1020 54 10000 3.6 110 11:26 02.07.2022
2812 Clear 24 1020 59 10000 3.6 90 10:37 02.07.2022
2813 Clear 22 1020 66 10000 3.09 70 09:18 02.07.2022
2814 Clear 21 1019 71 10000 3.13 86 08:20 02.07.2022
2815 Clear 20 1019 73 10000 2.24 76 07:27 02.07.2022
2816 Clear 25 1018 58 10000 7.2 130 01:53 02.07.2022
2817 Clear 28 1017 39 10000 4.12 110 23:56 01.07.2022
2818 Clear 29 1000 26 10000 2.06 350 22:41 01.07.2022
2819 Clear 31 1016 23 10000 1.54 340 21:48 01.07.2022
2820 Clear 31 1016 22 10000 1.54 340 21:28 01.07.2022
2821 Clear 32 1016 21 10000 2.57 250 20:40 01.07.2022
2822 Clear 32 1016 22 10000 2.68 222 19:46 01.07.2022
2823 Clear 32 1016 22 10000 3.09 190 17:53 01.07.2022
2824 Clear 30 1017 25 10000 3.6 0 15:54 01.07.2022
2825 Clear 27 1019 35 10000 2.06 0 13:55 01.07.2022
2826 Clear 25 1019 42 10000 2.06 90 12:41 01.07.2022
2827 Clear 20 1019 48 10000 3.09 30 10:20 01.07.2022
2828 Clear 19 1005 51 10000 4.12 20 09:43 01.07.2022
2829 Clear 16 1002 55 10000 3.58 66 05:25 01.07.2022
2830 Clear 22 1017 36 10000 3.13 72 00:42 01.07.2022
2831 Clear 24 1000 29 10000 3.6 320 23:22 30.06.2022
2832 Clear 25 1000 29 10000 5.14 320 22:44 30.06.2022
2833 Clear 25 999 29 10000 5.14 320 22:25 30.06.2022
2834 Clear 26 999 27 10000 5.14 300 21:45 30.06.2022
2835 Clear 28 1000 24 10000 6.69 260 20:30 30.06.2022
2836 Clear 28 1000 23 10000 7.2 280 19:54 30.06.2022
2837 Clear 28 1000 23 10000 7.2 260 19:25 30.06.2022
2838 Clear 29 999 24 10000 6.17 280 18:42 30.06.2022
2839 Clear 29 999 23 10000 5.66 270 17:44 30.06.2022
2840 Clear 29 999 21 10000 5.66 240 16:55 30.06.2022
2841 Clear 28 1013 23 10000 4.63 220 15:42 30.06.2022
2842 Clear 26 1014 29 10000 5.14 190 13:49 30.06.2022
2843 Clear 25 1014 32 10000 3.6 200 12:36 30.06.2022
2844 Clear 24 1014 34 10000 3.09 250 11:56 30.06.2022
2845 Clear 21 1014 42 10000 2.57 270 09:55 30.06.2022
2846 Clear 21 1014 44 10000 2.06 280 09:37 30.06.2022
2847 Clear 18 1013 47 10000 2.24 257 08:19 30.06.2022
2848 Clear 18 1014 46 10000 2.57 250 08:19 30.06.2022
2849 Clear 18 998 49 10000 1.54 270 07:40 30.06.2022
2850 Clear 22 1000 39 10000 2.68 312 02:49 30.06.2022
2851 Clear 26 1000 28 10000 5.66 250 23:38 29.06.2022
2852 Clear 27 999 24 10000 5.66 240 22:41 29.06.2022
2853 Clear 28 1012 21 10000 6.17 240 21:58 29.06.2022
2854 Clear 30 1012 18 10000 7.2 230 20:35 29.06.2022
2855 Clear 30 1012 18 10000 7.2 230 20:35 29.06.2022
2856 Clear 30 1012 17 10000 7.2 260 19:56 29.06.2022
2857 Clear 31 1001 18 10000 7.72 230 17:55 29.06.2022
2858 Clouds 31 1001 18 10000 7.2 240 16:55 29.06.2022
2859 Clear 31 1002 18 10000 6.17 230 15:44 29.06.2022
2860 Clear 29 1015 21 10000 6.71 239 13:43 29.06.2022
2861 Clear 28 1016 22 10000 2.57 230 12:36 29.06.2022
2862 Clear 23 1016 32 10000 1.03 0 09:46 29.06.2022
2863 Clear 22 1017 33 10000 2.06 90 09:22 29.06.2022
2864 Clear 19 1003 35 10000 1.34 40 06:29 29.06.2022
2865 Clear 21 1003 34 10000 3.09 300 04:42 29.06.2022
2866 Clear 24 1004 28 10000 2.57 240 00:53 29.06.2022
2867 Clear 24 1004 28 10000 2.06 230 00:33 29.06.2022
2868 Clear 27 1003 24 8000 3.09 260 22:50 28.06.2022
2869 Clear 28 1017 22 10000 3.09 240 21:59 28.06.2022
2870 Clear 29 1017 19 10000 4.63 220 21:40 28.06.2022
2871 Clear 30 1017 17 10000 3.6 210 21:22 28.06.2022
2872 Clear 30 1017 17 10000 5.14 230 19:54 28.06.2022
2873 Clear 30 1017 17 10000 4.12 240 19:30 28.06.2022
2874 Clear 31 1017 19 10000 3.6 220 18:40 28.06.2022
2875 Clear 30 1018 21 10000 2.68 255 17:25 28.06.2022
2876 Clear 29 1019 23 10000 2.57 200 15:55 28.06.2022
2877 Clear 28 1019 25 10000 3.6 210 14:52 28.06.2022
2878 Clear 27 1020 27 10000 3.09 0 14:19 28.06.2022
2879 Clouds 26 1020 31 10000 2.06 0 13:45 28.06.2022
2880 Clear 25 1021 42 10000 2.57 90 12:30 28.06.2022
2881 Clear 20 1021 50 10000 2.57 50 10:23 28.06.2022
2882 Clear 17 1021 54 10000 3.58 38 08:56 28.06.2022
2883 Clear 17 1021 56 10000 2.57 40 08:37 28.06.2022
2884 Clear 16 1008 59 10000 2.24 26 07:20 28.06.2022
2885 Clear 17 1008 53 10000 2.68 83 03:55 28.06.2022
2886 Clear 22 1020 36 10000 5.14 350 23:51 27.06.2022
2887 Clear 22 1020 35 10000 5.66 360 23:27 27.06.2022
2888 Clear 25 1018 31 10000 3.09 320 22:25 27.06.2022
2889 Clear 26 1018 30 10000 3.09 20 21:29 27.06.2022
2890 Clear 27 1016 23 10000 4.12 10 20:33 27.06.2022
2891 Clouds 27 1017 22 10000 4.12 300 18:51 27.06.2022
2892 Clouds 27 1005 26 10000 5.66 300 17:44 27.06.2022
2893 Clouds 26 1017 25 10000 2.57 310 15:50 27.06.2022
2894 Clouds 25 1017 31 10000 3.09 360 14:25 27.06.2022
2895 Clear 23 1017 36 10000 2.06 0 12:58 27.06.2022
2896 Clear 21 1017 42 10000 2.57 60 11:40 27.06.2022
2897 Clear 18 1016 55 10000 4.47 19 09:49 27.06.2022
2898 Clear 17 1015 57 10000 5.66 30 08:43 27.06.2022
2899 Clear 17 1003 61 10000 4.47 70 07:52 27.06.2022
2900 Clear 17 1014 50 10000 2.24 83 06:28 27.06.2022
2901 Clear 21 1000 28 10000 2.57 250 01:25 27.06.2022
2902 Clear 23 999 25 10000 4.63 260 23:22 26.06.2022
2903 Clear 24 998 24 10000 6.17 230 21:39 26.06.2022
2904 Clear 26 1011 20 10000 5.66 220 20:33 26.06.2022
2905 Clear 26 1000 16 10000 6.69 220 18:38 26.06.2022
2906 Clear 26 1000 15 10000 6.17 210 18:20 26.06.2022
2907 Clear 26 1000 16 10000 7.2 230 15:37 26.06.2022
2908 Clear 25 1000 22 10000 5.14 240 14:23 26.06.2022
2909 Clear 24 1001 29 10000 8.23 190 13:26 26.06.2022
2910 Clear 22 1013 35 10000 4.12 220 11:49 26.06.2022
2911 Clouds 21 1013 37 10000 4.12 240 10:53 26.06.2022
2912 Clouds 20 1013 39 10000 3.09 240 10:22 26.06.2022
2913 Clouds 18 1012 43 10000 1.54 260 08:36 26.06.2022
2914 Clouds 17 999 44 10000 3.09 260 06:50 26.06.2022
2915 Clear 21 999 40 10000 4.63 240 00:38 26.06.2022
2916 Clear 21 999 41 10000 4.63 240 00:19 26.06.2022
2917 Clear 22 1013 37 10000 4.63 260 23:31 25.06.2022
2918 Clear 23 999 37 10000 5.66 250 22:48 25.06.2022
2919 Clear 23 999 37 10000 4.63 240 22:25 25.06.2022
2920 Clouds 25 1012 33 10000 6.69 220 21:21 25.06.2022
2921 Clouds 25 1012 32 10000 7.2 250 20:48 25.06.2022
2922 Clouds 26 1000 33 10000 7.2 250 20:25 25.06.2022
2923 Clouds 26 998 33 10000 7.72 250 18:24 25.06.2022
2924 Clouds 26 1000 33 10000 7.72 230 17:27 25.06.2022
2925 Clouds 26 1001 35 10000 6.17 220 16:28 25.06.2022
2926 Clouds 24 1002 38 10000 5.14 220 14:41 25.06.2022
2927 Clear 22 1015 45 10000 5.81 213 12:51 25.06.2022
2928 Clear 21 1015 46 10000 5.66 200 12:31 25.06.2022
2929 Clear 17 1015 59 10000 2.57 120 09:35 25.06.2022
2930 Clear 17 1015 61 10000 3.09 240 08:54 25.06.2022
2931 Clear 15 1015 63 10000 3.6 240 08:20 25.06.2022
2932 Clear 16 1001 58 10000 2.57 220 06:36 25.06.2022
2933 Clear 21 1002 41 10000 4.12 240 00:50 25.06.2022
2934 Clear 22 1002 36 10000 5.66 250 23:57 24.06.2022
2935 Clear 24 1002 33 10000 5.66 230 22:28 24.06.2022
2936 Clear 25 1015 30 10000 6.17 230 21:28 24.06.2022
2937 Clear 26 1015 28 10000 5.66 230 20:24 24.06.2022
2938 Clouds 26 1015 29 10000 5.66 220 19:37 24.06.2022
2939 Clouds 26 1015 29 10000 5.14 260 19:18 24.06.2022
2940 Clouds 26 1003 31 10000 6.69 220 18:31 24.06.2022
2941 Clouds 26 1015 30 10000 7.2 220 17:57 24.06.2022
2942 Clouds 25 1004 33 10000 7.2 230 16:47 24.06.2022
2943 Clouds 24 1005 39 10000 6.69 210 14:50 24.06.2022
2944 Clouds 23 1018 40 10000 5.66 240 14:23 24.06.2022
2945 Clouds 22 1018 41 10000 6.17 250 13:41 24.06.2022
2946 Clouds 20 1018 51 10000 3.6 240 11:41 24.06.2022
2947 Clouds 18 1018 60 10000 2.68 220 10:36 24.06.2022
2948 Clouds 17 1018 66 10000 3.13 270 09:42 24.06.2022
2949 Clear 17 1018 68 10000 2.06 220 09:42 24.06.2022
2950 Clear 15 1018 74 10000 2.06 110 08:54 24.06.2022
2951 Clear 14 1018 78 10000 2.06 280 08:19 24.06.2022
2952 Clear 14 1002 75 10000 2.24 270 06:44 24.06.2022
2953 Clear 14 999 75 10000 2.06 170 06:22 24.06.2022
2954 Clear 15 999 71 10000 3.09 250 04:46 24.06.2022
2955 Clear 19 1005 54 10000 6.17 300 23:32 23.06.2022
2956 Clear 20 1004 50 10000 6.17 250 22:43 23.06.2022
2957 Clouds 22 1004 41 10000 6.69 240 20:59 23.06.2022
2958 Clouds 22 1016 38 10000 6.69 240 20:36 23.06.2022
2959 Clouds 23 1015 39 10000 7.72 240 19:53 23.06.2022
2960 Clouds 23 1002 39 10000 8.75 250 18:27 23.06.2022
2961 Clouds 23 1002 41 10000 7.72 230 17:34 23.06.2022
2962 Clouds 23 1000 44 10000 6.69 220 16:29 23.06.2022
2963 Clouds 22 1000 47 10000 6.69 230 15:26 23.06.2022
2964 Clouds 21 1003 49 10000 6.69 240 14:34 23.06.2022
2965 Clouds 19 1016 64 10000 5.14 200 11:41 23.06.2022
2966 Clouds 17 1016 76 10000 4.63 220 10:41 23.06.2022
2967 Clouds 16 1016 84 10000 3.6 230 09:19 23.06.2022
2968 Clear 17 1015 61 10000 3.09 230 04:48 23.06.2022
2969 Clear 19 1002 51 10000 3.6 260 00:27 23.06.2022
2970 Clear 19 1002 49 10000 4.12 230 23:52 22.06.2022
2971 Clear 19 1002 48 10000 5.14 220 23:18 22.06.2022
2972 Clouds 21 1001 43 10000 5.66 230 21:36 22.06.2022
2973 Clouds 22 1013 39 10000 5.66 230 20:51 22.06.2022
2974 Clouds 23 1002 38 10000 6.69 240 20:18 22.06.2022
2975 Clouds 23 1001 38 10000 6.17 230 19:27 22.06.2022
2976 Clouds 23 1002 36 10000 6.17 220 17:33 22.06.2022
2977 Clouds 23 1002 38 10000 6.17 200 16:41 22.06.2022
2978 Clouds 23 1002 38 10000 6.17 200 16:41 22.06.2022
2979 Clouds 22 1014 38 10000 6.17 220 15:28 22.06.2022
2980 Clouds 22 1003 40 10000 6.17 230 14:41 22.06.2022
2981 Clouds 21 1003 44 10000 6.69 220 13:46 22.06.2022
2982 Clouds 20 1003 45 10000 6.69 230 13:24 22.06.2022
2983 Clouds 19 1014 48 10000 5.66 230 11:54 22.06.2022
2984 Clouds 18 1002 54 10000 5.66 250 10:58 22.06.2022
2985 Clouds 18 1014 56 10000 5.66 230 10:36 22.06.2022
2986 Clouds 15 1014 64 10000 5.14 230 08:57 22.06.2022
2987 Clear 15 999 61 10000 4.12 220 06:39 22.06.2022
2988 Clear 19 997 37 10000 6.17 230 01:59 22.06.2022
2989 Clear 20 1012 33 10000 5.14 240 00:56 22.06.2022
2990 Clouds 23 997 31 10000 5.14 260 22:40 21.06.2022
2991 Clouds 26 1009 21 10000 6.69 240 20:47 21.06.2022
2992 Clouds 28 998 19 10000 5.66 170 19:20 21.06.2022
2993 Clouds 27 999 23 10000 3.6 150 17:47 21.06.2022
2994 Clouds 25 1012 28 10000 4.12 160 16:36 21.06.2022
2995 Clouds 22 1015 36 10000 3.09 210 11:57 21.06.2022
2996 Clouds 20 1015 45 10000 3.09 260 10:38 21.06.2022
2997 Clouds 17 1015 52 10000 3.58 248 09:20 21.06.2022
2998 Clear 15 1002 57 10000 2.57 250 07:44 21.06.2022
2999 Clear 17 1000 47 10000 3.09 260 04:43 21.06.2022
3000 Clear 21 1001 36 9000 3.6 250 00:21 21.06.2022
3001 Clear 23 1000 32 10000 4.63 250 22:21 20.06.2022
3002 Clear 23 1013 31 10000 5.14 230 21:36 20.06.2022
3003 Clear 24 1001 36 10000 5.66 270 20:28 20.06.2022
3004 Clouds 24 1001 38 10000 6.17 260 19:35 20.06.2022
3005 Clouds 25 1001 37 10000 7.72 250 18:25 20.06.2022
3006 Clouds 25 1001 38 10000 7.2 230 17:45 20.06.2022
3007 Clouds 26 1001 36 10000 7.72 240 16:26 20.06.2022
3008 Clouds 26 1001 36 10000 8.23 230 15:20 20.06.2022
3009 Clouds 24 1002 43 10000 6.17 180 12:18 20.06.2022
3010 Clouds 22 1013 52 10000 3.13 222 09:57 20.06.2022
3011 Clouds 20 1012 54 10000 2.06 190 08:54 20.06.2022
3012 Clouds 18 1012 57 10000 1.54 170 07:51 20.06.2022
3013 Clouds 20 999 54 10000 3.09 190 05:18 20.06.2022
3014 Clear 21 999 47 10000 1.54 240 01:32 20.06.2022
3015 Clear 22 999 44 10000 3.6 280 23:57 19.06.2022
3016 Clear 23 999 42 10000 5.66 290 22:40 19.06.2022
3017 Clear 24 999 40 10000 5.66 280 21:45 19.06.2022
3018 Clear 25 998 40 10000 5.66 280 21:26 19.06.2022
3019 Clear 26 1000 35 10000 6.69 260 20:25 19.06.2022
3020 Clouds 26 1011 33 10000 6.69 250 19:46 19.06.2022
3021 Clouds 27 1000 31 10000 7.72 220 18:41 19.06.2022
3022 Clouds 27 1000 30 10000 6.69 240 17:48 19.06.2022
3023 Clouds 27 1000 31 10000 7.2 220 17:21 19.06.2022
3024 Clouds 27 1000 32 10000 6.69 240 16:34 19.06.2022
3025 Clouds 26 1001 33 10000 7.2 230 15:37 19.06.2022
3026 Clouds 25 1001 37 10000 6.17 220 14:51 19.06.2022
3027 Clouds 24 1000 40 10000 7.2 230 13:54 19.06.2022
3028 Clouds 23 1002 44 10000 7.72 230 12:39 19.06.2022
3029 Clear 21 1002 51 10000 5.66 210 10:54 19.06.2022
3030 Clear 20 1014 53 10000 4.92 245 09:34 19.06.2022
3031 Clear 19 1014 56 10000 4.12 220 08:43 19.06.2022
3032 Clear 18 1013 58 10000 3.6 210 07:48 19.06.2022
3033 Clear 21 1013 41 10000 5.14 230 04:41 19.06.2022
3034 Clear 27 999 31 10000 6.17 220 01:28 19.06.2022
3035 Clear 30 998 29 10000 4.63 210 00:24 19.06.2022
3036 Clear 31 1012 27 10000 4.63 190 23:35 18.06.2022
3037 Clear 32 997 29 10000 3.6 210 22:36 18.06.2022
3038 Clear 34 998 24 10000 7.2 210 20:56 18.06.2022
3039 Clear 35 1011 22 10000 6.69 160 20:28 18.06.2022
3040 Clear 36 999 17 10000 7.2 250 19:37 18.06.2022
3041 Clear 37 1011 13 10000 8.75 150 18:45 18.06.2022
3042 Clouds 37 1000 14 10000 5.66 170 17:31 18.06.2022
3043 Rain 37 1001 14 10000 5.66 140 16:47 18.06.2022
3044 Clear 37 1003 14 10000 5.14 190 15:30 18.06.2022
3045 Clear 37 1016 15 10000 5.66 150 14:42 18.06.2022
3046 Clear 35 1017 17 10000 4.12 160 13:22 18.06.2022
3047 Clear 31 1018 23 10000 2.57 70 11:38 18.06.2022
3048 Clear 30 1019 25 10000 2.57 100 10:46 18.06.2022
3049 Clear 28 1007 30 10000 3.09 50 09:22 18.06.2022
3050 Clear 26 1007 32 10000 2.68 68 08:24 18.06.2022
3051 Clear 25 1006 30 10000 3.09 340 06:44 18.06.2022
3052 Clear 28 1006 24 10000 2.68 90 03:30 18.06.2022
3053 Clear 31 1006 23 10000 1.54 70 01:25 18.06.2022
3054 Clear 31 1020 23 10000 1.34 97 00:46 18.06.2022
3055 Clear 31 1020 25 10000 2.57 110 23:52 17.06.2022
3056 Clear 31 1020 24 10000 1.54 60 23:20 17.06.2022
3057 Rain 35 1007 17 10000 7.2 250 20:55 17.06.2022
3058 Clear 38 1018 13 10000 5.14 120 19:31 17.06.2022
3059 Clear 39 1018 11 10000 5.66 140 18:44 17.06.2022
3060 Clear 39 1019 13 10000 4.63 150 17:43 17.06.2022
3061 Clear 38 1020 14 10000 3.6 100 16:43 17.06.2022
3062 Clear 37 1021 16 10000 3.6 110 15:43 17.06.2022
3063 Clear 37 1021 18 10000 3.13 153 15:20 17.06.2022
3064 Clear 35 1022 20 10000 2.57 0 14:20 17.06.2022
3065 Clear 35 1022 20 10000 2.68 174 13:46 17.06.2022
3066 Clear 34 1022 25 10000 3.09 120 12:57 17.06.2022
3067 Clear 31 1023 30 10000 3.09 90 11:57 17.06.2022
3068 Clear 30 1023 33 10000 4.12 70 11:36 17.06.2022
3069 Clear 29 1023 39 10000 3.09 30 10:51 17.06.2022
3070 Clear 24 1011 55 10000 4.92 68 08:30 17.06.2022
3071 Clear 23 1011 55 10000 4.63 350 07:47 17.06.2022
3072 Clear 23 1010 53 10000 2.68 83 05:57 17.06.2022
3073 Clear 25 1008 48 10000 3.58 81 02:52 17.06.2022
3074 Clear 28 1023 38 10000 6.26 45 00:42 17.06.2022
3075 Clouds 29 1022 34 10000 4.12 280 22:45 16.06.2022
3076 Rain 30 1022 34 10000 5.66 170 22:20 16.06.2022
3077 Rain 30 1021 30 10000 7.2 210 21:19 16.06.2022
3078 Rain 30 1021 31 10000 11.83 200 20:50 16.06.2022
3079 Rain 35 1017 16 10000 2.06 120 19:58 16.06.2022
3080 Clear 39 1017 13 10000 1.54 160 18:44 16.06.2022
3081 Clear 38 1019 15 10000 4.12 110 17:44 16.06.2022
3082 Clear 38 1019 16 10000 4.12 110 17:20 16.06.2022
3083 Clear 36 1020 18 10000 2.06 0 15:44 16.06.2022
3084 Clear 36 1020 19 10000 3.09 60 15:20 16.06.2022
3085 Clear 34 1021 23 10000 3.09 40 13:49 16.06.2022
3086 Clear 32 1021 27 10000 1.79 40 12:38 16.06.2022
3087 Clear 32 1021 28 10000 1.54 0 11:55 16.06.2022
3088 Clear 30 1021 32 10000 1.54 0 11:21 16.06.2022
3089 Clear 29 1021 34 10000 1.54 330 10:35 16.06.2022
3090 Clear 27 1021 41 10000 1.34 31 09:37 16.06.2022
3091 Clear 26 1021 39 10000 1.54 180 08:50 16.06.2022
3092 Clear 27 1007 36 10000 2.06 60 07:38 16.06.2022
3093 Clear 28 1021 35 10000 3.09 50 05:43 16.06.2022
3094 Rain 29 1008 32 10000 6.71 227 03:23 16.06.2022
3095 Clear 30 1007 27 10000 2.24 113 01:51 16.06.2022
3096 Clear 30 1007 26 10000 1.54 170 01:22 16.06.2022
3097 Clear 30 1007 26 10000 1.54 170 01:22 16.06.2022
3098 Clear 31 1006 26 10000 5.66 220 23:58 15.06.2022
3099 Clear 32 1004 23 10000 5.14 90 22:47 15.06.2022
3100 Clear 34 1001 19 10000 6.17 110 21:29 15.06.2022
3101 Clear 36 1003 17 10000 4.63 120 20:58 15.06.2022
3102 Clear 36 1005 16 10000 5.14 110 20:36 15.06.2022
3103 Clear 37 1016 15 10000 4.63 150 19:52 15.06.2022
3104 Clear 39 1016 14 10000 3.6 150 18:30 15.06.2022
3105 Clear 38 1017 15 10000 2.57 0 17:43 15.06.2022
3106 Clear 37 1018 17 10000 2.57 360 16:21 15.06.2022
3107 Clear 37 1019 17 10000 2.68 188 14:57 15.06.2022
3108 Clear 35 1019 20 10000 2.57 50 13:22 15.06.2022
3109 Clear 33 1020 22 10000 2.06 30 12:40 15.06.2022
3110 Clear 30 1020 27 10000 2.57 30 11:24 15.06.2022
3111 Clear 28 1020 30 10000 3.09 60 10:22 15.06.2022
3112 Clear 26 1008 33 10000 2.68 35 08:59 15.06.2022
3113 Clear 25 1006 34 10000 3.09 350 07:36 15.06.2022
3114 Clear 26 1005 32 10000 1.79 65 05:36 15.06.2022
3115 Clear 28 1018 29 10000 1.34 44 02:47 15.06.2022
3116 Clear 28 1018 32 10000 2.06 250 01:36 15.06.2022
3117 Clear 30 1018 27 10000 2.57 250 00:36 15.06.2022
3118 Clear 32 1004 22 10000 3.09 230 23:38 14.06.2022
3119 Clear 33 1004 20 10000 3.09 260 22:47 14.06.2022
3120 Clear 35 1001 17 10000 3.6 270 21:43 14.06.2022
3121 Clear 35 1003 16 10000 5.14 260 21:20 14.06.2022
3122 Clear 36 1004 16 10000 5.66 280 20:40 14.06.2022
3123 Clear 37 1004 15 10000 6.17 250 19:47 14.06.2022
3124 Clear 38 1004 13 10000 4.63 230 18:39 14.06.2022
3125 Clear 38 1004 14 10000 5.66 220 17:19 14.06.2022
3126 Clear 38 1016 14 10000 6.17 230 16:42 14.06.2022
3127 Clear 37 1017 15 10000 5.66 240 15:43 14.06.2022
3128 Clear 37 1017 16 10000 4.12 230 14:56 14.06.2022
3129 Clear 35 1018 18 10000 2.57 230 14:18 14.06.2022
3130 Clear 35 1018 20 10000 2.68 212 13:24 14.06.2022
3131 Clear 33 1018 22 10000 2.06 140 12:19 14.06.2022
3132 Clear 29 1018 26 10000 2.06 70 10:55 14.06.2022
3133 Clear 29 1018 28 10000 2.06 60 10:29 14.06.2022
3134 Clear 27 1018 32 10000 2.06 80 09:26 14.06.2022
3135 Clear 25 1006 35 10000 2.06 70 08:40 14.06.2022
3136 Clear 25 1004 34 10000 2.06 350 06:53 14.06.2022
3137 Clear 26 992 36 10000 2.06 360 04:23 14.06.2022
3138 Clear 28 1017 31 10000 2.06 140 01:38 14.06.2022
3139 Clear 30 1017 29 10000 3.6 270 00:24 14.06.2022
3140 Clear 30 1017 30 10000 2.57 270 22:58 13.06.2022
3141 Clouds 33 1017 23 10000 2.57 250 22:23 13.06.2022
3142 Clouds 34 1016 23 10000 4.63 230 21:41 13.06.2022
3143 Rain 36 1003 15 10000 3.09 250 19:59 13.06.2022
3144 Rain 37 1005 15 10000 3.6 180 19:18 13.06.2022
3145 Clouds 37 1017 14 10000 3.6 220 17:56 13.06.2022
3146 Clear 37 1017 14 10000 5.66 190 17:25 13.06.2022
3147 Clear 36 1018 15 10000 3.6 190 16:31 13.06.2022
3148 Clear 35 1019 16 10000 3.13 234 14:52 13.06.2022
3149 Clear 34 1019 16 10000 3.09 260 14:32 13.06.2022
3150 Clear 34 1020 16 10000 3.09 160 13:36 13.06.2022
3151 Clear 31 1020 20 10000 2.06 140 12:23 13.06.2022
3152 Clear 28 1021 24 10000 2.57 90 10:58 13.06.2022
3153 Clear 27 1021 28 10000 2.57 70 10:26 13.06.2022
3154 Clear 24 1021 33 10000 1.54 50 08:59 13.06.2022
3155 Clear 23 1007 35 10000 2.06 340 06:53 13.06.2022
3156 Clear 24 1006 29 10000 2.06 330 05:36 13.06.2022
3157 Clear 27 1007 25 10000 3.6 140 02:47 13.06.2022
3158 Clear 28 1006 28 10000 5.66 150 01:36 13.06.2022
3159 Clear 31 1020 20 10000 3.6 150 23:50 12.06.2022
3160 Clear 32 1003 26 10000 2.24 150 22:44 12.06.2022
3161 Clear 32 1005 23 10000 2.06 340 22:22 12.06.2022
3162 Clear 35 1018 18 10000 2.06 10 20:58 12.06.2022
3163 Clouds 36 1018 17 10000 2.06 290 20:19 12.06.2022
3164 Clouds 36 1019 16 10000 2.06 320 19:30 12.06.2022
3165 Clouds 35 1019 17 10000 2.68 315 17:47 12.06.2022
3166 Clouds 33 1021 19 10000 2.57 100 15:58 12.06.2022
3167 Clouds 32 1021 21 10000 2.57 0 14:56 12.06.2022
3168 Clouds 31 1022 22 10000 2.06 0 14:20 12.06.2022
3169 Clouds 31 1022 23 10000 2.06 0 13:49 12.06.2022
3170 Clouds 29 1022 27 10000 2.57 70 12:35 12.06.2022
3171 Clouds 28 1023 28 10000 3.09 80 11:37 12.06.2022
3172 Clear 25 1023 35 10000 3.6 70 10:22 12.06.2022
3173 Clouds 23 1011 45 10000 3.6 50 08:54 12.06.2022
3174 Clouds 23 1011 46 10000 4.63 50 08:35 12.06.2022
3175 Clear 22 1010 46 10000 2.24 80 07:32 12.06.2022
3176 Clear 24 1022 32 10000 3.09 70 04:35 12.06.2022
3177 Clear 26 1022 27 10000 3.6 70 02:53 12.06.2022
3178 Clear 27 1022 25 10000 3.58 118 01:39 12.06.2022
3179 Clear 28 1022 25 10000 5.66 120 00:58 12.06.2022
3180 Clear 29 1022 27 10000 3.6 90 00:20 12.06.2022
3181 Clear 30 1021 25 10000 3.09 130 23:40 11.06.2022
3182 Clear 32 1004 23 10000 3.6 120 22:38 11.06.2022
3183 Clear 33 1019 21 10000 3.6 140 21:42 11.06.2022
3184 Clouds 35 1018 20 10000 4.12 130 20:36 11.06.2022
3185 Clouds 35 1018 20 10000 3.6 120 19:46 11.06.2022
3186 Clouds 36 1019 20 10000 3.6 120 19:25 11.06.2022
3187 Clouds 36 1019 21 10000 4.12 190 18:33 11.06.2022
3188 Clouds 36 1019 22 10000 2.57 140 17:51 11.06.2022
3189 Clouds 36 1019 22 10000 2.24 135 17:26 11.06.2022
3190 Clouds 36 1019 22 10000 2.57 110 16:55 11.06.2022
3191 Clouds 36 1019 22 10000 4.12 200 16:27 11.06.2022
3192 Clear 35 1020 25 10000 4.12 140 15:31 11.06.2022
3193 Clear 32 1021 28 10000 3.09 0 13:53 11.06.2022
3194 Clear 32 1021 28 10000 3.09 0 13:53 11.06.2022
3195 Clear 30 1022 31 10000 2.57 0 12:51 11.06.2022
3196 Clear 27 1022 40 10000 2.57 60 10:48 11.06.2022
3197 Clear 25 1022 43 10000 3.09 60 09:51 11.06.2022
3198 Clear 24 1022 45 10000 3.6 70 09:18 11.06.2022
3199 Clear 22 1008 45 10000 2.06 60 07:40 11.06.2022
3200 Clear 23 1007 41 10000 2.06 70 06:30 11.06.2022
3201 Clear 24 1007 51 10000 2.24 93 04:30 11.06.2022
3202 Clear 27 1020 30 10000 2.24 96 01:53 11.06.2022
3203 Clear 27 1003 30 10000 2.68 26 01:32 11.06.2022
3204 Clear 28 1000 30 10000 0.51 0 23:49 10.06.2022
3205 Clear 31 1005 24 10000 1.03 340 22:31 10.06.2022
3206 Clear 32 1019 25 10000 1.03 0 21:50 10.06.2022
3207 Clear 34 1019 17 10000 2.57 220 20:41 10.06.2022
3208 Clear 35 1019 16 10000 2.06 220 20:21 10.06.2022
3209 Clear 35 1019 16 10000 2.06 0 19:20 10.06.2022
3210 Clear 35 1019 16 10000 2.06 0 18:55 10.06.2022
3211 Clear 35 1019 16 10000 2.68 307 17:58 10.06.2022
3212 Clear 34 1019 17 10000 2.57 260 17:35 10.06.2022
3213 Clear 34 1020 16 10000 2.06 0 16:50 10.06.2022
3214 Clear 33 1020 15 10000 2.06 0 15:44 10.06.2022
3215 Clear 33 1021 15 10000 2.57 170 14:51 10.06.2022
3216 Clear 30 1022 20 10000 2.57 20 13:26 10.06.2022
3217 Clear 27 1023 27 10000 2.24 23 11:59 10.06.2022
3218 Clear 26 1023 29 10000 2.68 339 11:30 10.06.2022
3219 Clear 24 1023 33 10000 3.6 40 10:36 10.06.2022
3220 Clear 22 1023 38 10000 3.6 40 09:26 10.06.2022
3221 Clear 20 1011 46 10000 2.68 29 07:57 10.06.2022
3222 Clear 20 1009 51 10000 3.13 49 06:49 10.06.2022
3223 Clear 19 1009 51 10000 4.02 45 06:30 10.06.2022
3224 Clear 20 1009 53 10000 3.09 60 05:34 10.06.2022
3225 Clear 23 1008 44 10000 4.02 68 02:50 10.06.2022
3226 Clear 24 1022 38 10000 4.92 70 01:37 10.06.2022
3227 Clear 27 1021 33 10000 3.6 60 23:58 09.06.2022
3228 Clear 29 1001 29 10000 2.57 0 22:43 09.06.2022
3229 Clear 30 1020 25 10000 3.09 60 21:44 09.06.2022
3230 Clear 31 1020 24 10000 3.09 60 21:25 09.06.2022
3231 Clouds 32 1019 24 10000 4.63 60 20:40 09.06.2022
3232 Clouds 33 1019 24 10000 3.6 70 19:51 09.06.2022
3233 Clouds 33 1019 24 10000 4.12 0 18:41 09.06.2022
3234 Clouds 32 1019 24 10000 4.12 40 17:55 09.06.2022
3235 Clouds 31 1020 27 10000 3.09 30 16:28 09.06.2022
3236 Clear 30 1021 31 10000 2.68 90 15:22 09.06.2022
3237 Clear 29 1021 34 10000 3.13 5 14:30 09.06.2022
3238 Clear 28 1021 37 10000 3.6 320 13:44 09.06.2022
3239 Clear 27 1021 39 10000 2.06 50 13:19 09.06.2022
3240 Clear 24 1022 50 10000 2.57 40 11:43 09.06.2022
3241 Clear 22 1022 57 10000 3.6 60 10:34 09.06.2022
3242 Clear 21 1022 61 10000 3.6 30 09:38 09.06.2022
3243 Clear 20 1021 63 10000 3.09 30 09:20 09.06.2022
3244 Clear 18 1021 66 10000 1.79 77 07:29 09.06.2022
3245 Clear 21 1007 60 10000 2.06 350 04:47 09.06.2022
3246 Clear 23 1007 51 10000 4.63 290 00:36 09.06.2022
3247 Clouds 24 1007 46 10000 4.12 290 23:23 08.06.2022
3248 Clear 25 1006 45 10000 4.12 290 22:44 08.06.2022
3249 Clear 25 1006 44 10000 4.12 290 22:24 08.06.2022
3250 Clouds 26 1006 40 10000 4.63 290 21:45 08.06.2022
3251 Clouds 27 1019 37 10000 5.14 310 20:33 08.06.2022
3252 Clouds 27 1018 38 10000 5.66 290 19:46 08.06.2022
3253 Clouds 27 1007 40 10000 6.69 300 18:49 08.06.2022
3254 Clouds 27 1007 39 10000 6.69 290 17:48 08.06.2022
3255 Clouds 27 1006 39 10000 8.23 300 16:18 08.06.2022
3256 Clouds 26 1007 43 10000 7.72 290 14:46 08.06.2022
3257 Clouds 25 1007 45 10000 6.69 290 12:55 08.06.2022
3258 Clear 24 1018 45 10000 5.36 286 11:44 08.06.2022
3259 Clear 24 1018 46 10000 3.6 290 11:19 08.06.2022
3260 Clear 22 1018 52 10000 4.12 310 09:45 08.06.2022
3261 Clear 22 1018 55 10000 4.12 310 09:18 08.06.2022
3262 Clear 20 1004 55 10000 2.06 250 07:22 08.06.2022
3263 Clear 22 1003 47 10000 3.6 310 04:51 08.06.2022
3264 Clear 24 1003 31 10000 3.6 260 02:19 08.06.2022
3265 Clear 27 1004 35 10000 4.12 260 23:41 07.06.2022
3266 Clear 27 1004 36 10000 5.14 250 23:22 07.06.2022
3267 Clear 28 1004 34 10000 5.66 250 22:38 07.06.2022
3268 Clear 29 1017 30 10000 5.14 250 21:45 07.06.2022
3269 Clear 29 1016 29 10000 5.14 240 21:24 07.06.2022
3270 Clear 30 1016 27 10000 5.66 240 20:43 07.06.2022
3271 Clear 31 1005 26 10000 6.69 250 19:59 07.06.2022
3272 Clear 32 1006 26 10000 5.66 240 18:42 07.06.2022
3273 Clear 32 1005 26 10000 6.17 230 17:54 07.06.2022
3274 Clear 32 1006 25 10000 5.14 230 16:54 07.06.2022
3275 Clear 31 1007 25 10000 4.12 0 16:32 07.06.2022
3276 Clear 30 1019 26 10000 4.12 210 15:40 07.06.2022
3277 Clear 30 1007 27 10000 4.63 0 15:21 07.06.2022
3278 Clear 29 1020 29 10000 4.12 220 14:45 07.06.2022
3279 Clear 28 1020 30 10000 3.09 300 13:46 07.06.2022
3280 Clear 28 1020 30 10000 3.6 0 13:26 07.06.2022
3281 Clear 26 1021 36 10000 2.57 200 12:22 07.06.2022
3282 Clear 25 1021 39 10000 1.54 110 10:57 07.06.2022
3283 Clear 22 1021 50 10000 1.54 60 09:46 07.06.2022
3284 Clear 20 1021 50 10000 0.89 56 08:31 07.06.2022
3285 Clear 19 1005 51 10000 2.06 120 07:19 07.06.2022
3286 Clear 20 1006 48 10000 2.06 320 05:19 07.06.2022
3287 Clear 23 1006 39 10000 1.54 320 01:44 07.06.2022
3288 Clear 24 1005 34 10000 3.09 290 00:20 07.06.2022
3289 Clear 25 1005 33 10000 4.12 260 23:25 06.06.2022
3290 Clear 26 1020 33 10000 3.09 280 22:37 06.06.2022
3291 Clear 28 1019 28 10000 4.12 250 21:33 06.06.2022
3292 Clear 29 1019 24 10000 5.14 250 19:53 06.06.2022
3293 Clear 30 1006 22 10000 5.66 230 19:19 06.06.2022
3294 Clear 29 1019 21 10000 5.66 240 18:34 06.06.2022
3295 Clear 29 1020 19 10000 5.81 248 17:36 06.06.2022
3296 Clear 29 1020 20 10000 6.17 250 16:33 06.06.2022
3297 Clear 28 1020 23 10000 6.17 250 15:39 06.06.2022
3298 Clear 28 1021 25 10000 5.14 240 14:39 06.06.2022
3299 Clear 27 1008 30 10000 6.17 230 13:27 06.06.2022
3300 Clear 26 1022 32 10000 5.14 250 12:37 06.06.2022
3301 Clear 25 1021 35 10000 3.58 216 11:58 06.06.2022
3302 Clear 24 1022 38 10000 3.09 210 11:28 06.06.2022
3303 Clear 21 1021 50 10000 0.89 120 09:40 06.06.2022
3304 Clear 18 1021 54 10000 1.03 270 08:35 06.06.2022
3305 Clear 17 1006 56 10000 1.03 0 07:28 06.06.2022
3306 Clear 18 1004 51 10000 0.89 190 05:29 06.06.2022
3307 Clear 18 1004 51 10000 0.89 190 05:29 06.06.2022
3308 Clear 20 1004 45 9000 2.68 315 03:46 06.06.2022
3309 Clear 22 1005 44 10000 1.79 248 01:29 06.06.2022
3310 Clear 22 1005 43 10000 2.06 160 00:42 06.06.2022
3311 Clear 23 1005 41 10000 3.09 250 23:49 05.06.2022
3312 Clear 25 1002 37 10000 2.57 250 22:52 05.06.2022
3313 Clear 26 1020 28 10000 4.12 210 21:26 05.06.2022
3314 Clear 28 1007 23 10000 5.14 210 19:52 05.06.2022
3315 Clear 28 1020 25 10000 4.12 0 18:31 05.06.2022
3316 Clear 28 1020 25 10000 4.12 240 17:56 05.06.2022
3317 Clear 28 1021 24 10000 4.12 210 17:27 05.06.2022
3318 Clear 28 1021 25 10000 3.09 0 16:58 05.06.2022
3319 Clear 27 1021 26 10000 4.02 248 16:37 05.06.2022
3320 Clear 26 1022 30 10000 4.12 250 14:46 05.06.2022
3321 Clear 24 1022 36 10000 3.09 270 13:21 05.06.2022
3322 Clear 22 1022 44 10000 2.57 170 11:51 05.06.2022
3323 Clear 20 1022 54 10000 1.54 0 10:44 05.06.2022
3324 Clear 19 1022 53 10000 1.54 300 10:23 05.06.2022
3325 Clear 17 1022 59 10000 3.6 250 08:45 05.06.2022
3326 Clear 16 1021 61 10000 2.57 250 08:20 05.06.2022
3327 Clear 16 1005 58 8000 3.09 260 05:23 05.06.2022
3328 Clear 17 1005 57 9000 3.6 250 04:33 05.06.2022
3329 Clear 19 1004 48 10000 4.12 250 01:45 05.06.2022
3330 Clear 19 1004 48 10000 4.12 250 01:45 05.06.2022
3331 Clear 19 1004 48 10000 4.12 250 01:45 05.06.2022
3332 Clear 19 1004 48 10000 4.12 250 01:45 05.06.2022
3333 Clear 19 1004 48 10000 4.12 250 01:45 05.06.2022
3334 Clear 19 1004 48 10000 4.12 250 01:45 05.06.2022
3335 Clear 19 1005 46 10000 4.12 250 01:23 05.06.2022
3336 Clear 19 1005 46 10000 4.12 250 01:23 05.06.2022
3337 Clear 21 1003 40 10000 6.17 250 22:45 04.06.2022
3338 Clouds 24 1002 37 10000 6.26 270 21:21 04.06.2022
3339 Clouds 26 1003 31 10000 6.17 240 18:54 04.06.2022
3340 Clouds 26 1003 33 10000 6.69 240 16:48 04.06.2022
3341 Clouds 25 1016 33 10000 6.69 200 16:19 04.06.2022
3342 Clouds 25 1017 34 10000 5.66 190 15:27 04.06.2022
3343 Clouds 24 1003 39 10000 5.66 190 13:54 04.06.2022
3344 Clouds 21 1017 49 10000 4.12 240 11:28 04.06.2022
3345 Clouds 20 1017 52 10000 4.63 230 10:52 04.06.2022
3346 Clouds 19 1017 56 10000 3.09 230 09:46 04.06.2022
3347 Clouds 18 1016 53 10000 1.03 0 08:50 04.06.2022
3348 Clouds 17 1016 56 9000 1.03 0 08:31 04.06.2022
3349 Clear 16 1000 57 10000 1.54 340 06:20 04.06.2022
3350 Clear 19 1000 49 10000 1.03 290 02:57 04.06.2022
3351 Clear 21 1000 43 10000 3.6 270 00:21 04.06.2022
3352 Clear 22 1000 40 10000 3.6 260 22:54 03.06.2022
3353 Clear 24 999 36 10000 4.63 260 21:46 03.06.2022
3354 Clear 26 1014 30 10000 4.63 230 20:40 03.06.2022
3355 Clear 27 1001 29 10000 6.17 230 19:19 03.06.2022
3356 Clouds 26 1001 32 10000 6.17 220 16:54 03.06.2022
3357 Clouds 25 1001 34 10000 6.17 210 15:52 03.06.2022
3358 Clouds 24 1002 38 10000 7.2 220 13:58 03.06.2022
3359 Clouds 22 1016 48 10000 4.63 240 11:54 03.06.2022
3360 Clouds 19 1015 56 10000 2.57 230 09:56 03.06.2022
3361 Clouds 18 1015 58 10000 2.57 250 09:29 03.06.2022
3362 Clouds 17 1014 57 10000 2.24 200 07:43 03.06.2022
3363 Clouds 17 1014 56 10000 1.54 250 06:46 03.06.2022
3364 Clouds 17 1014 57 10000 1.79 198 06:27 03.06.2022
3365 Clouds 20 1014 46 10000 1.54 120 02:58 03.06.2022
3366 Clear 22 999 43 10000 3.6 250 23:39 02.06.2022
3367 Clear 24 999 40 10000 4.12 250 21:58 02.06.2022
3368 Clear 25 1000 36 10000 5.14 240 20:38 02.06.2022
3369 Clear 26 1000 34 10000 5.14 230 19:55 02.06.2022
3370 Clear 26 1000 34 10000 5.14 250 19:37 02.06.2022
3371 Clear 27 1000 31 10000 4.63 200 18:39 02.06.2022
3372 Clouds 27 1001 32 10000 4.63 240 16:28 02.06.2022
3373 Clouds 26 1015 35 10000 5.14 220 15:46 02.06.2022
3374 Clouds 25 1003 44 10000 5.14 230 13:30 02.06.2022
3375 Clouds 24 1016 48 10000 6.17 230 12:46 02.06.2022
3376 Clouds 21 1016 56 10000 2.57 240 10:36 02.06.2022
3377 Clouds 20 1016 62 10000 3.09 260 09:29 02.06.2022
3378 Clouds 18 1016 65 10000 2.57 230 08:39 02.06.2022
3379 Clouds 18 1016 66 10000 2.57 230 08:19 02.06.2022
3380 Clear 17 999 65 10000 3.09 250 06:21 02.06.2022
3381 Clear 18 1015 60 10000 2.06 40 03:50 02.06.2022
3382 Clear 21 1016 50 10000 3.6 250 00:47 02.06.2022
3383 Clear 23 1015 44 10000 3.6 270 22:57 01.06.2022
3384 Clear 23 1015 44 10000 3.6 270 22:57 01.06.2022
3385 Clouds 25 1015 39 10000 4.63 250 21:59 01.06.2022
3386 Clouds 26 1015 36 10000 4.63 250 21:24 01.06.2022
3387 Clouds 27 1001 34 10000 5.14 240 20:38 01.06.2022
3388 Clouds 27 1014 32 10000 5.66 250 19:51 01.06.2022
3389 Clouds 28 1001 30 10000 6.17 240 18:28 01.06.2022
3390 Clouds 28 1002 30 10000 6.17 230 16:56 01.06.2022
3391 Clouds 27 1003 30 10000 6.17 220 15:43 01.06.2022
3392 Clouds 26 1003 33 10000 5.66 220 14:46 01.06.2022
3393 Clouds 25 1017 33 10000 5.14 230 13:23 01.06.2022
3394 Clear 22 1017 37 10000 3.6 220 10:44 01.06.2022
3395 Clear 20 1017 41 10000 3.09 200 09:29 01.06.2022
3396 Clear 18 1016 44 10000 2.57 160 08:18 01.06.2022
3397 Clear 17 1015 47 10000 3.09 240 07:20 01.06.2022
3398 Clear 20 1015 38 10000 3.09 250 03:55 01.06.2022
3399 Clear 24 1015 30 10000 3.09 230 23:47 31.05.2022
3400 Clear 25 1014 30 10000 2.68 270 22:41 31.05.2022
3401 Clear 26 1014 28 10000 3.6 210 22:22 31.05.2022
3402 Clear 27 1013 24 10000 4.63 200 21:39 31.05.2022
3403 Clear 28 1013 20 10000 4.63 210 20:44 31.05.2022
3404 Clear 30 999 19 10000 5.66 220 19:31 31.05.2022
3405 Clear 29 1013 22 10000 4.63 220 18:26 31.05.2022
3406 Clouds 29 1014 25 10000 3.6 0 17:37 31.05.2022
3407 Clouds 27 1015 28 10000 3.6 180 15:55 31.05.2022
3408 Clouds 27 1015 30 10000 4.02 191 15:34 31.05.2022
3409 Clear 23 1016 42 10000 2.06 0 12:56 31.05.2022
3410 Clear 22 1016 45 10000 2.06 0 12:18 31.05.2022
3411 Clear 19 1016 55 10000 1.54 90 10:25 31.05.2022
3412 Clear 15 1000 68 10000 1.54 360 07:46 31.05.2022
3413 Clear 15 999 68 9000 2.06 250 06:21 31.05.2022
3414 Clear 16 999 64 8000 1.03 0 04:31 31.05.2022
3415 Clear 19 999 52 9000 4.63 240 23:45 30.05.2022
3416 Clear 20 999 51 9000 4.63 240 23:24 30.05.2022
3417 Clear 20 996 50 10000 4.63 240 22:42 30.05.2022
3418 Clear 21 997 47 10000 4.63 220 21:40 30.05.2022
3419 Clear 22 998 42 10000 6.69 230 20:52 30.05.2022
3420 Clear 23 996 39 10000 6.69 230 19:44 30.05.2022
3421 Clear 23 998 41 10000 7.72 250 18:18 30.05.2022
3422 Clear 22 992 45 10000 7.2 230 17:23 30.05.2022
3423 Clear 22 998 43 10000 6.69 230 16:22 30.05.2022
3424 Clear 21 996 46 10000 7.72 210 13:38 30.05.2022
3425 Clouds 19 998 56 10000 9.77 230 11:40 30.05.2022
3426 Clear 17 997 65 10000 8.75 240 09:58 30.05.2022
3427 Clear 16 997 70 10000 8.23 240 08:52 30.05.2022
3428 Clear 17 993 64 10000 6.69 240 06:26 30.05.2022
3429 Clear 18 1008 52 10000 5.14 230 04:52 30.05.2022
3430 Clear 21 1008 38 10000 6.17 240 01:23 30.05.2022
3431 Clear 25 1007 32 10000 5.14 240 22:46 29.05.2022
3432 Clear 25 1007 32 10000 5.14 240 22:28 29.05.2022
3433 Clouds 28 1006 27 10000 6.69 250 20:29 29.05.2022
3434 Clouds 28 1006 25 10000 6.69 270 19:29 29.05.2022
3435 Clouds 29 1007 24 10000 6.17 200 18:34 29.05.2022
3436 Clouds 30 994 25 10000 6.17 220 16:25 29.05.2022
3437 Clouds 29 1008 25 10000 6.17 220 15:46 29.05.2022
3438 Clouds 29 1009 29 10000 6.17 270 14:55 29.05.2022
3439 Clear 27 1009 34 10000 4.12 220 13:18 29.05.2022
3440 Clear 24 1010 37 10000 5.66 230 11:20 29.05.2022
3441 Clear 22 1011 41 10000 3.6 250 10:34 29.05.2022
3442 Clear 19 1010 48 10000 1.54 260 08:31 29.05.2022
3443 Clear 20 996 43 10000 1.54 250 04:58 29.05.2022
3444 Clear 20 996 42 10000 2.57 190 04:36 29.05.2022
3445 Clear 21 1011 39 10000 2.57 10 01:52 29.05.2022
3446 Clear 25 1012 31 10000 2.06 250 23:48 28.05.2022
3447 Clear 26 1012 30 10000 2.57 260 23:20 28.05.2022
3448 Clouds 27 1012 26 10000 3.6 260 22:19 28.05.2022
3449 Clouds 30 1012 19 10000 3.6 250 20:58 28.05.2022
3450 Clouds 31 1012 18 10000 2.57 190 19:21 28.05.2022
3451 Clouds 31 1013 17 10000 4.12 250 18:40 28.05.2022
3452 Clouds 32 1013 18 10000 3.13 270 17:33 28.05.2022
3453 Clouds 31 1014 19 10000 3.09 280 15:56 28.05.2022
3454 Clouds 30 1015 20 10000 2.24 215 15:38 28.05.2022
3455 Clear 28 1016 27 10000 2.06 0 13:38 28.05.2022
3456 Clear 27 1017 31 10000 2.57 180 12:43 28.05.2022
3457 Clear 25 1017 36 10000 2.06 0 11:50 28.05.2022
3458 Clear 22 1018 41 10000 3.09 70 10:41 28.05.2022
3459 Clear 21 1018 45 10000 3.09 60 09:55 28.05.2022
3460 Clear 18 1018 50 10000 2.24 44 08:33 28.05.2022
3461 Clear 17 1018 49 10000 2.24 18 06:50 28.05.2022
3462 Clear 19 1018 46 10000 2.06 50 05:18 28.05.2022
3463 Clear 21 1020 35 10000 2.06 320 02:27 28.05.2022
3464 Clear 24 1019 27 9000 1.54 60 23:59 27.05.2022
3465 Clear 25 1018 26 10000 2.06 70 22:48 27.05.2022
3466 Clear 29 1018 20 10000 1.54 90 21:29 27.05.2022
3467 Clear 30 1018 19 10000 4.12 50 20:45 27.05.2022
3468 Clear 30 1018 17 10000 3.09 20 20:19 27.05.2022
3469 Clear 31 1018 17 10000 4.63 70 19:38 27.05.2022
3470 Clear 31 1018 17 10000 3.6 50 19:20 27.05.2022
3471 Clear 31 1019 16 10000 3.6 40 17:24 27.05.2022
3472 Clear 29 1020 19 10000 2.57 0 15:57 27.05.2022
3473 Clear 28 1021 21 10000 3.13 0 14:58 27.05.2022
3474 Clear 27 1022 26 10000 2.57 20 13:41 27.05.2022
3475 Clear 24 1022 34 10000 2.06 40 12:20 27.05.2022
3476 Clear 22 1022 36 10000 2.57 30 11:31 27.05.2022
3477 Clear 20 1023 42 10000 3.6 40 10:47 27.05.2022
3478 Clear 19 1023 45 10000 3.6 30 09:59 27.05.2022
3479 Clear 18 1008 50 10000 4.47 78 09:31 27.05.2022
3480 Clear 15 1007 56 10000 3.6 330 07:40 27.05.2022
3481 Clear 16 1007 50 10000 3.13 70 05:25 27.05.2022
3482 Clear 20 1023 40 10000 2.68 54 01:44 27.05.2022
3483 Clear 22 1024 33 10000 3.6 40 23:31 26.05.2022
3484 Clear 24 1023 31 10000 2.57 50 22:28 26.05.2022
3485 Clear 25 1022 29 10000 3.58 78 21:32 26.05.2022
3486 Clear 27 1021 28 10000 4.12 50 19:49 26.05.2022
3487 Clear 27 1022 28 10000 5.14 30 18:52 26.05.2022
3488 Clear 26 1022 27 10000 3.6 60 17:36 26.05.2022
3489 Clear 25 1023 26 10000 2.68 109 16:31 26.05.2022
3490 Clear 24 1024 28 10000 3.09 40 15:33 26.05.2022
3491 Clear 22 1025 31 10000 2.57 0 14:20 26.05.2022
3492 Clear 19 1026 38 10000 4.12 70 12:20 26.05.2022
3493 Clear 17 1026 41 10000 6.69 60 11:21 26.05.2022
3494 Clear 14 1026 52 10000 6.69 40 09:39 26.05.2022
3495 Clear 12 1025 56 10000 4.63 50 08:51 26.05.2022
3496 Clear 11 1010 60 10000 2.68 70 06:51 26.05.2022
3497 Clear 13 1010 56 9000 4.47 75 02:54 26.05.2022
3498 Clear 15 1025 48 10000 4.47 91 00:19 26.05.2022
3499 Clear 17 1024 43 10000 5.14 10 23:19 25.05.2022
3500 Clear 19 1023 37 10000 4.12 350 21:46 25.05.2022
3501 Clear 21 1022 31 10000 5.66 350 20:53 25.05.2022
3502 Clear 21 1021 29 10000 5.66 360 19:59 25.05.2022
3503 Clear 22 1021 28 10000 5.14 360 18:48 25.05.2022
3504 Clouds 21 1021 30 10000 5.66 330 17:30 25.05.2022
3505 Clouds 21 1021 31 10000 5.66 360 16:36 25.05.2022
3506 Clouds 20 1021 32 10000 5.66 360 15:53 25.05.2022
3507 Clouds 19 1021 34 10000 4.63 0 14:51 25.05.2022
3508 Clouds 19 1021 35 10000 5.14 20 14:32 25.05.2022
3509 Clouds 18 1008 39 10000 5.14 20 13:28 25.05.2022
3510 Clear 16 1021 44 10000 4.02 11 12:24 25.05.2022
3511 Clear 14 1021 47 10000 7.72 360 10:42 25.05.2022
3512 Clear 13 1021 48 10000 6.17 360 09:53 25.05.2022
3513 Clear 11 1020 59 10000 2.68 1 08:22 25.05.2022
3514 Clear 10 1019 64 10000 0.89 29 06:45 25.05.2022
3515 Clear 11 1002 66 10000 2.24 55 03:19 25.05.2022
3516 Clear 13 1016 49 10000 6.69 20 23:53 24.05.2022
3517 Clouds 15 1016 41 10000 4.12 10 23:23 24.05.2022
3518 Clouds 16 1015 33 10000 5.66 350 22:19 24.05.2022
3519 Clouds 16 1014 30 10000 6.17 310 21:38 24.05.2022
3520 Clouds 16 1014 29 10000 6.17 310 21:19 24.05.2022
3521 Clouds 18 1013 33 10000 7.2 330 19:45 24.05.2022
3522 Clouds 17 999 39 10000 7.2 310 18:50 24.05.2022
3523 Clouds 20 1011 38 10000 6.69 300 16:41 24.05.2022
3524 Clouds 20 998 39 10000 6.69 300 16:19 24.05.2022
3525 Clouds 21 1011 40 10000 5.14 270 14:50 24.05.2022
3526 Clouds 21 997 44 10000 3.09 290 13:52 24.05.2022
3527 Clouds 21 998 46 10000 2.57 350 12:49 24.05.2022
3528 Clouds 18 1012 54 10000 3.6 40 10:46 24.05.2022
3529 Clear 17 1012 59 10000 2.57 40 09:43 24.05.2022
3530 Clear 16 1011 61 10000 3.58 85 08:49 24.05.2022
3531 Clouds 15 996 62 9000 2.24 84 06:56 24.05.2022
3532 Clear 17 996 55 10000 2.57 300 03:48 24.05.2022
3533 Clear 19 996 48 10000 2.06 300 01:53 24.05.2022
3534 Clear 19 997 47 10000 3.6 290 01:32 24.05.2022
3535 Clear 22 1012 40 10000 3.6 300 22:55 23.05.2022
3536 Clouds 23 996 44 10000 4.63 240 21:55 23.05.2022
3537 Clouds 24 996 42 10000 5.66 250 21:29 23.05.2022
3538 Clouds 25 997 41 10000 6.17 240 20:29 23.05.2022
3539 Clouds 26 997 42 10000 5.66 230 19:31 23.05.2022
3540 Clouds 26 1011 40 10000 4.63 220 18:58 23.05.2022
3541 Clouds 26 1011 38 10000 5.66 230 18:30 23.05.2022
3542 Clouds 26 1011 37 10000 4.12 260 17:20 23.05.2022
3543 Clouds 26 998 38 10000 5.14 260 15:23 23.05.2022
3544 Clouds 23 1013 44 10000 5.14 260 13:21 23.05.2022
3545 Clouds 21 1013 53 10000 4.12 280 11:31 23.05.2022
3546 Clear 19 1014 61 10000 3.6 300 09:51 23.05.2022
3547 Clear 18 1014 62 10000 4.12 310 09:30 23.05.2022
3548 Clear 16 1014 70 10000 4.63 280 08:31 23.05.2022
3549 Clear 16 998 72 10000 4.12 260 06:46 23.05.2022
3550 Clear 17 998 69 10000 4.63 250 05:31 23.05.2022
3551 Clear 18 996 67 10000 5.14 260 02:32 23.05.2022
3552 Clear 18 996 66 10000 5.14 260 01:39 23.05.2022
3553 Clouds 19 996 64 10000 5.14 240 00:23 23.05.2022
3554 Clear 20 999 57 10000 5.66 250 22:40 22.05.2022
3555 Clear 21 1014 54 10000 7.2 240 21:55 22.05.2022
3556 Clear 21 999 53 10000 7.72 250 21:32 22.05.2022
3557 Clear 23 1000 47 10000 8.23 260 20:32 22.05.2022
3558 Clear 24 1000 46 10000 7.2 240 19:56 22.05.2022
3559 Clear 25 1000 44 10000 9.77 270 18:56 22.05.2022
3560 Clear 26 1000 42 10000 8.23 250 18:25 22.05.2022
3561 Clear 27 999 38 10000 8.23 200 17:37 22.05.2022
3562 Clear 27 1014 34 10000 6.26 211 16:39 22.05.2022
3563 Clear 25 1002 41 10000 6.69 250 14:53 22.05.2022
3564 Clear 24 1002 40 10000 6.17 220 13:56 22.05.2022
3565 Clear 24 1016 42 10000 5.66 0 12:52 22.05.2022
3566 Clear 24 1016 46 10000 5.66 200 11:52 22.05.2022
3567 Clear 23 1016 47 10000 5.66 200 10:24 22.05.2022
3568 Clear 21 1016 56 10000 2.24 225 09:18 22.05.2022
3569 Clear 20 1016 55 10000 3.09 270 07:22 22.05.2022
3570 Clear 21 1000 44 10000 2.24 214 06:27 22.05.2022
3571 Clear 25 1016 33 10000 4.12 100 02:50 22.05.2022
3572 Clear 26 1017 35 10000 1.79 93 00:44 22.05.2022
3573 Clear 27 999 34 10000 2.06 90 23:55 21.05.2022
3574 Clear 28 1002 31 10000 2.06 230 23:21 21.05.2022
3575 Rain 28 1003 35 10000 12.35 240 21:47 21.05.2022
3576 Rain 28 1004 35 10000 12.35 240 21:26 21.05.2022
3577 Rain 32 1003 24 10000 4.63 360 20:27 21.05.2022
3578 Clear 33 1017 19 10000 2.57 70 19:43 21.05.2022
3579 Clear 34 1017 18 10000 1.54 20 18:21 21.05.2022
3580 Clear 33 1019 19 10000 2.57 120 16:55 21.05.2022
3581 Clear 31 1021 22 10000 1.54 0 14:38 21.05.2022
3582 Clear 31 1021 22 10000 1.79 143 14:38 21.05.2022
3583 Clear 30 1021 24 10000 2.06 0 13:54 21.05.2022
3584 Clear 29 1022 27 10000 2.57 80 13:18 21.05.2022
3585 Clear 28 1022 30 10000 2.57 100 12:38 21.05.2022
3586 Clear 25 1022 37 10000 3.09 70 10:53 21.05.2022
3587 Clear 23 1022 43 10000 3.6 40 09:53 21.05.2022
3588 Clear 21 1023 49 10000 3.09 40 08:58 21.05.2022
3589 Clear 19 1023 54 10000 3.6 40 08:35 21.05.2022
3590 Clouds 21 1001 51 10000 1.79 76 05:29 21.05.2022
3591 Clear 25 1008 42 10000 2.06 60 01:24 21.05.2022
3592 Clear 27 1007 39 10000 4.63 110 23:30 20.05.2022
3593 Clear 28 1022 36 10000 4.63 100 22:26 20.05.2022
3594 Clear 29 1022 35 10000 5.14 100 21:55 20.05.2022
3595 Clouds 30 1006 33 10000 4.12 110 21:18 20.05.2022
3596 Clouds 31 1021 29 10000 5.14 110 20:44 20.05.2022
3597 Clouds 32 1021 25 10000 3.6 130 19:45 20.05.2022
3598 Clouds 33 1021 23 10000 3.09 140 18:48 20.05.2022
3599 Clouds 33 1021 21 10000 3.09 130 17:48 20.05.2022
3600 Clouds 32 1022 21 10000 4.12 140 16:22 20.05.2022
3601 Clouds 32 1022 22 10000 4.63 130 15:53 20.05.2022
3602 Clear 29 1023 25 10000 3.09 50 14:32 20.05.2022
3603 Clouds 28 1023 27 10000 3.6 60 13:56 20.05.2022
3604 Clear 25 1024 34 10000 3.6 80 11:51 20.05.2022
3605 Clouds 22 1024 42 10000 4.12 70 10:30 20.05.2022
3606 Clear 21 1011 49 10000 3.09 50 08:59 20.05.2022
3607 Clouds 20 1009 47 10000 2.57 80 07:42 20.05.2022
3608 Clear 20 1007 47 10000 2.06 60 06:39 20.05.2022
3609 Clear 20 1008 47 10000 2.06 50 05:39 20.05.2022
3610 Clear 25 1005 39 10000 2.06 90 01:18 20.05.2022
3611 Clear 26 1020 34 10000 5.66 110 23:28 19.05.2022
3612 Clear 28 1019 28 10000 6.69 140 22:34 19.05.2022
3613 Clear 30 1018 23 10000 6.69 150 21:49 19.05.2022
3614 Clear 29 1019 28 10000 5.14 110 21:49 19.05.2022
3615 Clear 30 1018 25 10000 6.69 150 21:23 19.05.2022
3616 Clouds 32 995 23 10000 7.2 150 20:43 19.05.2022
3617 Clouds 33 1018 21 10000 5.14 140 19:54 19.05.2022
3618 Clouds 33 1004 19 10000 4.12 160 18:59 19.05.2022
3619 Clouds 34 1018 20 10000 5.66 170 17:35 19.05.2022
3620 Clear 31 1019 28 10000 4.02 180 15:34 19.05.2022
3621 Clear 30 1020 32 10000 3.6 110 14:35 19.05.2022
3622 Clear 29 1020 35 10000 3.6 160 13:59 19.05.2022
3623 Clear 25 1021 42 10000 2.06 110 11:53 19.05.2022
3624 Clouds 23 1021 47 10000 2.57 90 10:30 19.05.2022
3625 Clear 19 1021 56 10000 2.06 80 08:33 19.05.2022
3626 Clear 19 1004 56 10000 1.79 64 06:57 19.05.2022
3627 Clear 22 1019 43 10000 1.34 158 03:26 19.05.2022
3628 Clear 22 1018 39 10000 1.03 0 00:56 19.05.2022
3629 Clear 26 1002 32 10000 1.54 330 23:21 18.05.2022
3630 Clear 27 999 32 10000 2.57 350 22:41 18.05.2022
3631 Clear 28 1017 27 10000 3.6 310 21:33 18.05.2022
3632 Clear 29 1017 26 10000 3.09 220 20:55 18.05.2022
3633 Clear 30 1003 25 10000 2.57 240 20:19 18.05.2022
3634 Clear 31 1017 23 10000 3.6 280 18:47 18.05.2022
3635 Clear 31 1017 22 10000 3.6 240 17:42 18.05.2022
3636 Clear 31 1017 22 10000 3.6 240 17:23 18.05.2022
3637 Clear 31 1018 22 10000 5.66 200 16:52 18.05.2022
3638 Clear 30 1018 24 10000 4.63 230 15:43 18.05.2022
3639 Clear 30 1019 26 10000 3.6 150 15:19 18.05.2022
3640 Clear 29 1019 32 10000 3.09 190 13:53 18.05.2022
3641 Clear 27 1020 33 10000 2.06 170 12:53 18.05.2022
3642 Clear 25 1020 40 10000 2.06 50 11:47 18.05.2022
3643 Clear 24 1020 43 10000 2.57 30 11:29 18.05.2022
3644 Clear 22 1021 52 10000 3.09 60 10:36 18.05.2022
3645 Clear 17 1007 67 10000 2.24 43 07:56 18.05.2022
3646 Clear 17 1005 65 10000 1.54 10 06:54 18.05.2022
3647 Clear 19 1020 57 10000 1.54 10 03:34 18.05.2022
3648 Clear 22 1005 51 10000 1.03 250 00:42 18.05.2022
3649 Clear 24 1002 46 10000 3.09 260 23:21 17.05.2022
3650 Clear 26 1020 39 10000 3.13 226 21:21 17.05.2022
3651 Clear 26 1020 36 10000 4.63 220 20:38 17.05.2022
3652 Clear 28 1020 33 10000 4.63 260 19:30 17.05.2022
3653 Clear 28 1020 33 10000 3.58 231 18:43 17.05.2022
3654 Clear 28 1021 32 10000 4.47 219 17:34 17.05.2022
3655 Clear 28 1021 31 10000 3.09 210 16:55 17.05.2022
3656 Clear 27 1022 31 10000 3.58 228 15:49 17.05.2022
3657 Clear 26 1022 33 10000 4.63 240 14:52 17.05.2022
3658 Clear 25 1022 35 10000 5.66 230 14:28 17.05.2022
3659 Clear 23 1023 48 10000 4.63 230 12:37 17.05.2022
3660 Clear 19 1023 61 10000 2.06 230 10:23 17.05.2022
3661 Clear 17 1023 67 10000 1.54 220 08:51 17.05.2022
3662 Clear 15 1007 69 10000 1.03 340 07:41 17.05.2022
3663 Clear 15 1006 65 10000 1.34 213 05:58 17.05.2022
3664 Clear 20 1022 48 10000 3.09 250 00:47 17.05.2022
3665 Clear 21 1006 45 10000 3.6 250 23:35 16.05.2022
3666 Clear 22 1006 43 10000 3.6 260 22:33 16.05.2022
3667 Clear 24 1021 34 10000 4.12 250 20:56 16.05.2022
3668 Clear 25 1021 33 10000 4.12 250 20:33 16.05.2022
3669 Clouds 26 1021 34 10000 3.6 250 18:41 16.05.2022
3670 Clouds 25 1021 35 10000 4.12 230 16:42 16.05.2022
3671 Clouds 24 1022 40 10000 4.63 240 14:58 16.05.2022
3672 Clouds 22 1023 45 10000 4.12 180 13:34 16.05.2022
3673 Clear 21 1023 49 10000 3.13 216 12:34 16.05.2022
3674 Clear 18 1022 61 10000 1.54 170 10:34 16.05.2022
3675 Clear 14 1006 73 10000 1.54 260 07:47 16.05.2022
3676 Clear 14 1020 67 10000 2.06 220 05:44 16.05.2022
3677 Clear 18 1020 53 10000 1.54 270 00:44 16.05.2022
3678 Clear 20 1004 53 10000 4.12 270 22:42 15.05.2022
3679 Clear 21 1019 50 10000 5.14 260 21:57 15.05.2022
3680 Clouds 22 1003 50 10000 4.12 260 21:36 15.05.2022
3681 Clouds 22 1004 45 10000 5.14 240 20:38 15.05.2022
3682 Clouds 23 1018 40 10000 7.72 240 18:37 15.05.2022
3683 Clouds 24 1004 42 10000 7.72 230 16:52 15.05.2022
3684 Clouds 22 1018 46 10000 5.14 190 14:26 15.05.2022
3685 Clouds 21 1019 50 10000 6.17 210 13:44 15.05.2022
3686 Clouds 20 1019 57 10000 5.66 220 11:55 15.05.2022
3687 Clear 19 1005 59 10000 4.63 240 10:43 15.05.2022
3688 Clear 18 1018 59 10000 3.6 230 09:46 15.05.2022
3689 Clear 16 1016 65 10000 2.24 188 07:22 15.05.2022
3690 Clear 16 1016 64 10000 2.68 200 06:42 15.05.2022
3691 Clear 19 1001 65 10000 2.57 350 02:43 15.05.2022
3692 Clear 20 998 57 10000 3.58 56 00:22 15.05.2022
3693 Clear 21 1001 55 10000 3.13 54 23:36 14.05.2022
3694 Clear 25 997 40 10000 1.54 260 21:45 14.05.2022
3695 Clear 26 1015 34 10000 2.06 240 21:25 14.05.2022
3696 Clear 27 1015 33 10000 5.14 270 20:26 14.05.2022
3697 Thunderstorm 28 1002 33 10000 3.09 250 19:20 14.05.2022
3698 Thunderstorm 28 1015 32 10000 3.09 250 18:57 14.05.2022
3699 Clear 28 1016 34 10000 3.09 0 17:44 14.05.2022
3700 Clear 28 1016 34 10000 3.09 0 17:44 14.05.2022
3701 Clear 26 1018 40 10000 2.06 150 15:58 14.05.2022
3702 Clear 24 1019 44 10000 4.12 50 14:38 14.05.2022
3703 Clear 24 1019 44 10000 4.12 50 14:38 14.05.2022
3704 Clear 22 1020 50 10000 4.12 360 13:27 14.05.2022
3705 Clear 21 1006 58 10000 2.06 70 11:45 14.05.2022
3706 Clouds 20 1006 59 10000 3.09 70 10:43 14.05.2022
3707 Clouds 20 1006 59 10000 3.09 70 10:18 14.05.2022
3708 Clear 18 1006 62 10000 1.79 54 09:23 14.05.2022
3709 Clear 18 1004 61 10000 1.79 69 07:26 14.05.2022
3710 Clear 18 1004 57 10000 1.34 51 04:35 14.05.2022
3711 Clear 23 1005 40 10000 2.06 350 00:27 14.05.2022
3712 Clear 24 1005 37 10000 3.09 270 23:25 13.05.2022
3713 Clear 23 1021 36 10000 3.09 270 22:55 13.05.2022
3714 Clear 24 1020 35 10000 3.09 250 22:21 13.05.2022
3715 Clear 27 1020 28 10000 3.09 250 20:59 13.05.2022
3716 Clear 27 1020 28 10000 3.6 250 20:37 13.05.2022
3717 Clear 28 1020 26 10000 3.6 200 20:19 13.05.2022
3718 Clear 29 1020 26 10000 4.12 190 18:56 13.05.2022
3719 Clear 29 1020 27 10000 3.09 190 17:42 13.05.2022
3720 Clear 28 1020 27 10000 3.09 240 17:22 13.05.2022
3721 Clouds 28 1021 29 10000 3.09 180 15:46 13.05.2022
3722 Clouds 27 1022 33 10000 1.79 0 14:38 13.05.2022
3723 Clear 24 1023 41 10000 2.06 160 12:51 13.05.2022
3724 Clear 23 1023 44 10000 1.03 0 11:54 13.05.2022
3725 Clear 19 1023 57 10000 2.06 80 09:55 13.05.2022
3726 Clear 18 1023 59 10000 2.06 70 09:29 13.05.2022
3727 Clear 15 1007 65 10000 1.79 62 07:51 13.05.2022
3728 Clear 16 1006 62 10000 1.79 68 06:50 13.05.2022
3729 Clear 17 1006 55 10000 4.12 350 04:54 13.05.2022
3730 Clear 19 1021 47 10000 1.03 0 00:59 13.05.2022
3731 Clear 21 1021 43 10000 1.54 290 22:59 12.05.2022
3732 Clouds 22 1020 40 10000 2.57 290 22:34 12.05.2022
3733 Clouds 25 1019 33 10000 2.57 190 21:24 12.05.2022
3734 Clouds 26 1019 31 10000 4.12 180 19:49 12.05.2022
3735 Clouds 26 1019 31 10000 3.13 177 18:25 12.05.2022
3736 Clouds 26 1019 33 10000 2.68 195 16:44 12.05.2022
3737 Clouds 24 1020 33 10000 3.09 160 14:57 12.05.2022
3738 Clear 23 1021 34 10000 4.12 170 13:48 12.05.2022
3739 Clear 21 1021 38 10000 4.12 120 11:55 12.05.2022
3740 Clear 19 1021 47 10000 4.63 100 10:32 12.05.2022
3741 Clouds 17 1007 56 10000 3.09 70 08:53 12.05.2022
3742 Clouds 17 1020 56 10000 3.6 70 08:35 12.05.2022
3743 Clouds 16 1005 58 10000 2.06 50 07:22 12.05.2022
3744 Clear 18 1005 49 10000 3.09 60 04:32 12.05.2022
3745 Clear 21 1020 40 10000 3.09 140 01:29 12.05.2022
3746 Clear 24 1019 40 10000 2.24 162 23:18 11.05.2022
3747 Clear 25 999 38 10000 1.54 190 22:18 11.05.2022
3748 Clear 26 1002 34 10000 2.06 200 21:25 11.05.2022
3749 Clear 28 1018 31 10000 2.57 200 20:20 11.05.2022
3750 Clouds 29 1018 30 10000 2.57 0 17:37 11.05.2022
3751 Clouds 28 1019 32 10000 2.68 188 16:27 11.05.2022
3752 Clear 27 1020 35 10000 2.24 193 14:48 11.05.2022
3753 Clear 26 1020 38 10000 2.24 195 14:25 11.05.2022
3754 Clear 24 1021 43 10000 3.09 110 12:54 11.05.2022
3755 Clear 22 1021 47 10000 2.57 100 11:48 11.05.2022
3756 Clear 18 1021 56 10000 2.57 70 09:29 11.05.2022
3757 Clear 16 1006 61 10000 1.03 0 06:30 11.05.2022
3758 Clear 20 1006 48 10000 1.79 199 02:18 11.05.2022
3759 Clear 24 1005 39 10000 1.79 270 22:58 10.05.2022
3760 Clear 24 1021 38 10000 2.06 200 22:30 10.05.2022
3761 Clear 25 1020 37 10000 3.09 250 21:40 10.05.2022
3762 Clear 27 1020 30 10000 3.09 210 20:34 10.05.2022
3763 Clouds 28 1020 31 10000 3.09 230 18:57 10.05.2022
3764 Clouds 28 1021 32 10000 3.13 203 17:38 10.05.2022
3765 Clouds 27 1022 33 10000 2.68 224 16:35 10.05.2022
3766 Clear 23 1024 39 10000 2.57 120 13:31 10.05.2022
3767 Clear 21 1024 44 10000 2.06 0 11:54 10.05.2022
3768 Clear 20 1024 47 10000 1.54 80 11:32 10.05.2022
3769 Clear 19 1024 47 10000 2.06 60 10:56 10.05.2022
3770 Clear 17 1024 58 10000 2.57 50 09:47 10.05.2022
3771 Clear 15 1024 63 10000 1.79 27 08:18 10.05.2022
3772 Clear 14 1008 62 10000 1.54 10 06:20 10.05.2022
3773 Clear 18 1007 52 10000 4.02 113 01:54 10.05.2022
3774 Clear 21 1022 37 10000 3.09 330 23:53 09.05.2022
3775 Clear 23 1006 39 10000 2.57 240 22:36 09.05.2022
3776 Clear 25 1021 35 10000 2.06 200 21:39 09.05.2022
3777 Clear 26 1020 33 10000 2.57 140 20:20 09.05.2022
3778 Clouds 27 1020 30 10000 2.06 110 18:26 09.05.2022
3779 Clear 27 1021 31 10000 2.24 194 17:26 09.05.2022
3780 Clear 26 1021 32 10000 2.24 134 16:19 09.05.2022
3781 Clear 25 1021 33 10000 2.57 220 15:47 09.05.2022
3782 Clear 24 1022 35 10000 2.57 180 14:37 09.05.2022
3783 Clear 23 1022 37 10000 2.06 0 13:59 09.05.2022
3784 Clear 23 1022 40 10000 1.54 140 13:23 09.05.2022
3785 Clear 20 1023 45 10000 2.06 100 11:53 09.05.2022
3786 Clear 19 1023 49 10000 2.06 120 10:48 09.05.2022
3787 Clear 18 1023 50 10000 2.06 100 10:26 09.05.2022
3788 Clear 13 1009 63 10000 2.06 60 07:57 09.05.2022
3789 Clear 14 1007 57 10000 1.79 36 05:53 09.05.2022
3790 Clear 19 1021 38 10000 3.09 320 00:59 09.05.2022
3791 Clear 20 1021 35 10000 3.6 330 23:28 08.05.2022
3792 Clear 20 1020 31 10000 2.57 350 22:32 08.05.2022
3793 Clear 24 1019 28 10000 1.54 20 21:24 08.05.2022
3794 Clear 25 1019 24 10000 1.54 210 20:25 08.05.2022
3795 Clear 25 1018 24 10000 2.06 0 19:33 08.05.2022
3796 Clear 26 1019 24 10000 2.24 293 18:38 08.05.2022
3797 Clear 26 1019 25 10000 1.79 188 17:40 08.05.2022
3798 Clear 25 1019 26 10000 4.02 172 16:22 08.05.2022
3799 Clear 24 1020 27 10000 2.57 30 15:22 08.05.2022
3800 Clear 21 1021 36 10000 2.57 80 12:49 08.05.2022
3801 Clear 19 1022 44 10000 3.09 90 11:45 08.05.2022
3802 Clear 16 1022 52 10000 3.6 40 10:25 08.05.2022
3803 Clear 15 1022 54 10000 4.12 50 09:53 08.05.2022
3804 Clear 12 1008 67 10000 2.24 35 07:57 08.05.2022
3805 Clear 13 1006 63 10000 3.6 350 06:18 08.05.2022
3806 Clear 15 1006 52 10000 1.79 37 03:22 08.05.2022
3807 Clear 16 1006 49 10000 2.06 20 03:22 08.05.2022
3808 Clear 17 1021 44 10000 2.68 76 01:19 08.05.2022
3809 Clear 18 1021 47 10000 3.09 330 23:57 07.05.2022
3810 Clear 19 1021 46 10000 2.57 340 23:32 07.05.2022
3811 Clouds 19 996 46 10000 1.54 240 22:42 07.05.2022
3812 Clear 20 1020 41 10000 1.03 220 21:56 07.05.2022
3813 Clear 22 1020 36 10000 1.54 240 21:21 07.05.2022
3814 Clouds 23 1019 31 10000 2.06 230 20:23 07.05.2022
3815 Clouds 24 1020 30 10000 2.57 360 18:49 07.05.2022
3816 Clear 23 1021 30 10000 3.6 40 16:34 07.05.2022
3817 Clear 21 1022 31 10000 3.6 40 14:53 07.05.2022
3818 Clear 17 1023 48 10000 4.63 50 11:23 07.05.2022
3819 Clear 13 1023 58 10000 3.6 40 09:42 07.05.2022
3820 Clear 11 1010 68 10000 3.09 30 08:30 07.05.2022
3821 Clear 10 1008 68 10000 2.06 70 07:20 07.05.2022
3822 Clear 11 1008 66 10000 2.57 50 06:42 07.05.2022
3823 Clear 12 1008 59 10000 3.13 70 03:57 07.05.2022
3824 Clear 17 1023 39 10000 3.6 40 23:44 06.05.2022
3825 Clear 19 1022 37 10000 3.6 360 22:35 06.05.2022
3826 Clear 20 1021 35 10000 4.12 360 21:53 06.05.2022
3827 Clear 21 1021 32 10000 5.36 23 21:24 06.05.2022
3828 Clear 23 1021 26 10000 3.09 350 19:47 06.05.2022
3829 Clear 23 1021 27 10000 2.57 240 19:24 06.05.2022
3830 Clear 23 1021 27 10000 3.6 300 18:30 06.05.2022
3831 Clear 23 1021 26 10000 3.09 10 17:34 06.05.2022
3832 Clear 22 1022 28 10000 2.57 280 15:51 06.05.2022
3833 Clear 21 1023 29 10000 2.57 30 15:18 06.05.2022
3834 Clear 19 1023 36 10000 2.06 0 13:45 06.05.2022
3835 Clear 18 1024 40 10000 2.57 20 12:47 06.05.2022
3836 Clear 17 1024 43 10000 3.09 50 11:58 06.05.2022
3837 Clear 14 1024 55 10000 5.14 50 10:41 06.05.2022
3838 Clear 12 1024 61 10000 4.12 40 09:47 06.05.2022
3839 Clear 12 1024 62 10000 4.63 40 09:18 06.05.2022
3840 Clear 10 1009 69 10000 3.13 59 07:40 06.05.2022
3841 Clear 10 1009 68 10000 2.68 55 06:25 06.05.2022
3842 Clear 12 1009 60 10000 3.58 64 02:58 06.05.2022
3843 Clear 13 1024 56 10000 3.13 47 01:58 06.05.2022
3844 Clear 18 1023 37 10000 5.66 360 22:50 05.05.2022
3845 Clouds 19 1022 34 10000 5.14 290 21:46 05.05.2022
3846 Clouds 22 1021 32 10000 3.13 248 20:36 05.05.2022
3847 Clouds 22 1021 31 10000 2.57 10 18:54 05.05.2022
3848 Clouds 22 1021 35 10000 2.24 135 16:40 05.05.2022
3849 Clouds 20 1022 42 10000 2.24 185 14:59 05.05.2022
3850 Clear 18 1023 48 10000 2.06 180 13:29 05.05.2022
3851 Clear 18 1023 51 10000 1.54 0 12:55 05.05.2022
3852 Clear 15 1023 59 10000 3.6 60 11:22 05.05.2022
3853 Clear 12 1022 67 10000 3.58 62 09:40 05.05.2022
3854 Clear 10 1022 73 10000 2.57 30 08:34 05.05.2022
3855 Clear 10 1006 76 10000 1.79 41 06:23 05.05.2022
3856 Clear 13 1006 70 10000 2.24 55 02:23 05.05.2022
3857 Clear 14 1006 70 10000 3.13 72 01:37 05.05.2022
3858 Clear 15 1020 62 10000 1.54 10 23:57 04.05.2022
3859 Clear 16 1005 60 10000 3.09 40 22:57 04.05.2022
3860 Clear 17 1003 54 10000 2.57 60 21:59 04.05.2022
3861 Clouds 17 1003 53 10000 2.06 60 21:34 04.05.2022
3862 Clouds 18 1018 50 10000 4.12 60 20:42 04.05.2022
3863 Clouds 19 1017 49 10000 5.14 50 20:18 04.05.2022
3864 Clouds 19 1017 42 10000 5.66 70 19:35 04.05.2022
3865 Clouds 20 1017 40 10000 4.12 60 18:42 04.05.2022
3866 Clouds 20 1017 40 10000 4.12 60 18:18 04.05.2022
3867 Clouds 19 1017 43 10000 5.14 80 16:36 04.05.2022
3868 Clouds 19 1017 44 10000 3.6 40 15:32 04.05.2022
3869 Clouds 19 1004 48 10000 5.14 40 14:38 04.05.2022
3870 Clouds 18 1017 47 10000 5.14 40 14:19 04.05.2022
3871 Clouds 17 1018 57 10000 4.63 60 12:36 04.05.2022
3872 Clouds 15 1018 64 10000 5.14 30 11:28 04.05.2022
3873 Clouds 13 1004 72 10000 4.63 30 09:57 04.05.2022
3874 Clouds 12 1004 75 10000 5.66 30 09:20 04.05.2022
3875 Clouds 10 1001 80 10000 5.36 45 07:33 04.05.2022
3876 Clear 11 1000 78 10000 5.36 45 04:34 04.05.2022
3877 Clouds 12 1001 76 10000 4.12 20 02:33 04.05.2022
3878 Clouds 13 1000 72 10000 3.13 60 22:59 03.05.2022
3879 Clouds 14 1000 74 10000 3.13 40 21:50 03.05.2022
3880 Clouds 14 999 77 10000 3.13 44 21:23 03.05.2022
3881 Clouds 14 1001 77 10000 3.6 50 20:39 03.05.2022
3882 Clouds 15 998 77 10000 4.63 40 19:21 03.05.2022
3883 Clouds 15 997 65 10000 4.63 30 18:42 03.05.2022
3884 Clouds 16 999 63 10000 7.72 40 17:20 03.05.2022
3885 Clouds 16 1000 61 10000 7.15 68 15:51 03.05.2022
3886 Clouds 15 1000 64 10000 7.72 30 14:23 03.05.2022
3887 Clouds 14 1000 69 10000 7.2 50 12:35 03.05.2022
3888 Clouds 13 1013 72 10000 5.66 40 11:35 03.05.2022
3889 Clouds 12 1000 79 9000 5.66 40 10:26 03.05.2022
3890 Drizzle 11 999 83 10000 5.14 40 08:19 03.05.2022
3891 Clouds 11 996 85 10000 3.09 40 06:45 03.05.2022
3892 Clear 12 997 83 10000 2.68 26 01:59 03.05.2022
3893 Clear 12 1012 75 10000 2.57 320 22:56 02.05.2022
3894 Clear 13 996 77 10000 3.09 350 22:28 02.05.2022
3895 Clouds 13 996 71 10000 3.09 70 21:27 02.05.2022
3896 Clouds 14 1011 69 10000 2.57 20 19:26 02.05.2022
3897 Clouds 14 997 73 10000 2.68 61 18:26 02.05.2022
3898 Clouds 14 997 75 10000 5.66 350 17:39 02.05.2022
3899 Rain 15 991 72 10000 4.12 10 16:42 02.05.2022
3900 Thunderstorm 17 1011 56 10000 7.72 310 15:41 02.05.2022
3901 Clouds 18 1011 55 10000 5.36 45 14:28 02.05.2022
3902 Clouds 18 996 60 10000 3.09 10 13:42 02.05.2022
3903 Clouds 16 1012 66 10000 1.79 95 11:41 02.05.2022
3904 Clouds 14 1012 71 10000 1.54 210 09:42 02.05.2022
3905 Clouds 12 999 82 10000 2.06 270 08:20 02.05.2022
3906 Clear 13 997 78 10000 1.79 34 06:53 02.05.2022
3907 Clear 18 1002 53 10000 3.09 250 00:46 02.05.2022
3908 Clear 18 1003 53 10000 3.09 250 00:21 02.05.2022
3909 Clear 19 1016 53 10000 2.68 278 22:54 01.05.2022
3910 Clouds 20 1016 52 10000 4.63 250 21:42 01.05.2022
3911 Clouds 21 1016 43 10000 5.14 240 20:30 01.05.2022
3912 Clouds 23 1016 40 10000 6.17 260 19:21 01.05.2022
3913 Clouds 23 1016 39 10000 6.17 260 18:52 01.05.2022
3914 Clouds 24 1016 33 10000 7.2 240 17:49 01.05.2022
3915 Clear 24 1017 34 10000 6.17 230 16:37 01.05.2022
3916 Clear 24 1006 39 10000 6.17 230 15:51 01.05.2022
3917 Clouds 23 1007 48 10000 4.47 236 14:45 01.05.2022
3918 Clear 21 1020 50 10000 3.09 240 12:24 01.05.2022
3919 Clear 17 1021 60 10000 1.34 146 10:22 01.05.2022
3920 Clear 14 1021 70 10000 2.06 340 08:49 01.05.2022
3921 Clear 14 1005 69 10000 1.03 0 06:50 01.05.2022
3922 Clear 17 1007 71 10000 0.89 83 01:56 01.05.2022
3923 Clouds 19 1006 58 10000 2.57 300 22:18 30.04.2022
3924 Clouds 20 1006 55 10000 3.09 300 21:32 30.04.2022
3925 Clouds 21 1021 49 10000 3.6 320 19:54 30.04.2022
3926 Clouds 22 1021 49 10000 4.63 310 19:25 30.04.2022
3927 Thunderstorm 21 1021 49 10000 5.66 240 17:31 30.04.2022
3928 Thunderstorm 23 1006 45 10000 4.47 281 15:52 30.04.2022
3929 Thunderstorm 22 1022 48 10000 3.6 230 15:18 30.04.2022
3930 Clouds 21 1023 53 10000 2.57 200 13:59 30.04.2022
3931 Clear 18 1024 62 10000 1.79 175 11:48 30.04.2022
3932 Clear 17 1024 65 9000 1.03 0 11:26 30.04.2022
3933 Clear 16 1024 70 9000 1.03 0 10:23 30.04.2022
3934 Clear 12 1010 82 10000 2.06 350 07:47 30.04.2022
3935 Clear 14 1009 75 10000 1.79 204 04:25 30.04.2022
3936 Clear 17 1012 56 10000 4.12 250 23:57 29.04.2022
3937 Clear 18 1024 52 10000 3.6 260 22:51 29.04.2022
3938 Clear 19 1024 50 10000 3.6 250 21:56 29.04.2022
3939 Clear 20 1023 43 10000 2.57 240 21:25 29.04.2022
3940 Clouds 22 1023 38 10000 2.06 160 20:18 29.04.2022
3941 Clouds 23 1024 36 10000 2.06 190 19:28 29.04.2022
3942 Clouds 22 1024 37 10000 2.57 140 17:35 29.04.2022
3943 Clouds 21 1025 38 10000 2.06 0 16:38 29.04.2022
3944 Clouds 20 1026 43 10000 2.57 130 14:37 29.04.2022
3945 Clear 19 1026 48 10000 3.09 100 13:42 29.04.2022
3946 Clear 18 1027 56 10000 3.13 90 12:37 29.04.2022
3947 Clear 14 1026 67 10000 4.02 79 10:32 29.04.2022
3948 Clear 10 1012 77 10000 3.6 50 07:55 29.04.2022
3949 Clear 10 1010 77 10000 2.24 48 07:25 29.04.2022
3950 Clear 10 1010 79 10000 3.58 45 06:30 29.04.2022
3951 Clear 12 1010 78 10000 3.58 44 02:23 29.04.2022
3952 Clear 13 1025 78 10000 2.57 350 23:58 28.04.2022
3953 Clear 13 1010 77 10000 3.09 350 23:25 28.04.2022
3954 Clear 13 1009 77 10000 1.54 290 22:24 28.04.2022
3955 Clouds 14 1009 75 10000 1.54 250 21:41 28.04.2022
3956 Clouds 15 1023 71 10000 1.54 130 20:48 28.04.2022
3957 Clouds 15 1022 71 10000 2.57 100 19:52 28.04.2022
3958 Clouds 15 1022 70 10000 3.6 140 19:24 28.04.2022
3959 Clouds 15 1022 72 10000 4.12 120 18:52 28.04.2022
3960 Clouds 15 1021 74 10000 7.72 110 17:54 28.04.2022
3961 Clouds 16 1021 67 10000 4.02 90 16:52 28.04.2022
3962 Clouds 15 1021 71 10000 5.14 80 16:20 28.04.2022
3963 Clouds 15 1021 67 10000 4.12 30 15:49 28.04.2022
3964 Clouds 16 1007 69 10000 4.12 30 14:58 28.04.2022
3965 Clouds 14 1008 85 10000 4.12 30 13:37 28.04.2022
3966 Clouds 12 1008 86 8000 1.79 64 12:30 28.04.2022
3967 Clouds 12 1007 88 8000 1.03 0 11:37 28.04.2022
3968 Clouds 11 1007 90 8000 2.06 100 10:26 28.04.2022
3969 Clouds 11 1007 89 10000 2.57 100 09:50 28.04.2022
3970 Clouds 10 1004 88 10000 2.57 350 07:41 28.04.2022
3971 Clouds 11 1000 90 10000 1.03 0 06:51 28.04.2022
3972 Clear 10 1003 89 10000 1.03 0 05:53 28.04.2022
3973 Clear 10 1003 89 10000 1.03 40 04:43 28.04.2022
3974 Clear 11 1004 87 10000 1.34 229 02:41 28.04.2022
3975 Clear 12 1004 85 10000 2.57 170 23:32 27.04.2022
3976 Clear 12 996 83 10000 3.6 190 22:20 27.04.2022
3977 Clouds 13 999 78 10000 2.68 188 21:43 27.04.2022
3978 Clouds 14 1001 73 10000 2.57 340 20:45 27.04.2022
3979 Thunderstorm 14 992 72 10000 5.66 280 19:57 27.04.2022
3980 Thunderstorm 14 1016 73 10000 8.23 280 19:36 27.04.2022
3981 Thunderstorm 16 1016 54 10000 4.63 320 18:41 27.04.2022
3982 Thunderstorm 17 992 57 10000 4.63 320 18:20 27.04.2022
3983 Clouds 17 992 60 10000 3.09 350 16:18 27.04.2022
3984 Clouds 15 1017 73 10000 4.02 215 13:18 27.04.2022
3985 Clouds 13 1017 79 10000 2.06 230 11:26 27.04.2022
3986 Clouds 13 1017 82 10000 1.03 0 10:50 27.04.2022
3987 Clouds 11 1003 91 10000 1.54 260 08:28 27.04.2022
3988 Rain 11 1001 90 10000 1.03 0 06:42 27.04.2022
3989 Clouds 12 1015 86 10000 2.57 90 02:35 27.04.2022
3990 Clouds 13 1015 83 10000 1.03 0 01:23 27.04.2022
3991 Clouds 13 1015 83 10000 1.03 0 00:34 27.04.2022
3992 Clouds 13 999 84 10000 3.6 260 23:24 26.04.2022
3993 Rain 13 1015 82 10000 5.66 260 22:51 26.04.2022
3994 Rain 14 999 82 10000 3.13 270 22:31 26.04.2022
3995 Clouds 14 999 79 9000 1.54 70 21:24 26.04.2022
3996 Thunderstorm 15 1000 80 3000 5.66 220 20:38 26.04.2022
3997 Thunderstorm 16 998 73 4500 5.14 270 19:45 26.04.2022
3998 Rain 17 979 72 10000 3.09 300 19:26 26.04.2022
3999 Thunderstorm 17 1013 58 10000 8.23 220 18:39 26.04.2022
4000 Clouds 21 997 46 10000 3.6 190 17:41 26.04.2022
4001 Clouds 21 1013 44 10000 3.58 197 15:59 26.04.2022
4002 Clouds 19 1014 47 10000 1.34 135 13:55 26.04.2022
4003 Clouds 19 1014 49 10000 2.06 80 13:28 26.04.2022
4004 Clouds 16 1014 55 10000 3.09 80 11:29 26.04.2022
4005 Clouds 14 1014 61 10000 3.09 50 10:30 26.04.2022
4006 Clouds 12 999 70 10000 2.57 50 08:38 26.04.2022
4007 Clouds 12 998 69 10000 1.79 92 05:29 26.04.2022
4008 Clear 11 997 67 10000 2.24 65 04:23 26.04.2022
4009 Clear 14 994 56 10000 2.06 360 00:52 26.04.2022
4010 Clear 14 990 57 10000 1.54 10 23:51 25.04.2022
4011 Clear 17 1012 45 10000 1.54 170 21:57 25.04.2022
4012 Clear 18 997 42 10000 2.06 180 21:33 25.04.2022
4013 Clear 19 1012 35 10000 3.13 187 19:58 25.04.2022
4014 Clouds 20 1012 36 10000 2.57 200 18:48 25.04.2022
4015 Clouds 20 1012 38 10000 3.09 190 17:40 25.04.2022
4016 Clouds 20 1012 38 10000 3.09 190 17:40 25.04.2022
4017 Clouds 19 1013 40 10000 2.57 190 16:44 25.04.2022
4018 Clouds 18 1013 44 10000 3.09 170 15:23 25.04.2022
4019 Clouds 18 1014 44 10000 3.58 184 14:34 25.04.2022
4020 Clear 16 1014 53 10000 2.06 120 12:49 25.04.2022
4021 Clear 12 1014 65 10000 2.57 40 10:44 25.04.2022
4022 Clear 11 1014 70 10000 2.57 60 09:42 25.04.2022
4023 Clear 7 1000 81 10000 3.13 68 07:56 25.04.2022
4024 Clear 8 998 79 10000 1.34 30 05:55 25.04.2022
4025 Clear 11 996 69 10000 1.54 50 01:30 25.04.2022
4026 Clear 12 1014 63 10000 2.68 264 23:56 24.04.2022
4027 Clear 13 1014 58 10000 2.57 250 23:25 24.04.2022
4028 Clouds 13 1014 56 10000 3.09 230 22:39 24.04.2022
4029 Clear 14 1013 53 10000 3.09 220 21:56 24.04.2022
4030 Clouds 15 1013 49 10000 4.12 170 21:22 24.04.2022
4031 Clouds 15 998 52 10000 4.63 230 21:22 24.04.2022
4032 Clouds 15 1013 46 10000 4.63 180 20:46 24.04.2022
4033 Clouds 16 1012 44 10000 4.63 180 20:21 24.04.2022
4034 Clear 17 1012 40 10000 2.68 196 18:44 24.04.2022
4035 Clear 17 1012 43 10000 3.09 200 17:54 24.04.2022
4036 Clear 17 1013 41 10000 3.6 230 17:21 24.04.2022
4037 Clear 16 1013 42 10000 4.63 240 16:55 24.04.2022
4038 Clear 16 1013 44 10000 4.63 250 16:29 24.04.2022
4039 Clear 16 1013 44 10000 4.63 190 15:43 24.04.2022
4040 Clouds 15 1014 50 10000 4.12 220 14:36 24.04.2022
4041 Clouds 13 1013 53 10000 4.12 220 13:27 24.04.2022
4042 Clouds 13 1013 57 10000 4.12 220 12:56 24.04.2022
4043 Clouds 12 1013 60 10000 4.12 240 11:50 24.04.2022
4044 Clear 10 1013 67 10000 3.13 204 10:48 24.04.2022
4045 Clear 8 1012 79 10000 3.09 240 09:47 24.04.2022
4046 Clear 6 999 88 10000 3.09 190 08:18 24.04.2022
4047 Clear 6 1011 80 10000 2.06 230 05:45 24.04.2022
4048 Clear 8 1011 73 10000 3.6 250 02:48 24.04.2022
4049 Clouds 9 996 75 10000 3.6 220 00:45 24.04.2022
4050 Clear 9 1010 75 10000 5.14 250 23:52 23.04.2022
4051 Clouds 10 1009 67 10000 6.17 240 23:25 23.04.2022
4052 Clear 10 994 73 10000 7.72 250 23:25 23.04.2022
4053 Clouds 11 1008 64 10000 4.63 240 21:59 23.04.2022
4054 Clouds 11 993 65 10000 5.14 230 21:41 23.04.2022
4055 Clouds 11 992 65 10000 4.12 260 21:22 23.04.2022
4056 Clouds 11 993 65 10000 8.23 280 19:56 23.04.2022
4057 Clouds 11 991 63 10000 10.29 250 19:20 23.04.2022
4058 Clouds 11 991 64 10000 10.29 250 18:54 23.04.2022
4059 Clouds 12 991 62 10000 10.29 240 18:32 23.04.2022
4060 Clouds 11 991 65 10000 10.29 230 17:46 23.04.2022
4061 Drizzle 10 986 80 10000 10.8 250 16:45 23.04.2022
4062 Clouds 9 991 82 4000 8.23 240 15:43 23.04.2022
4063 Clouds 9 990 78 10000 10.8 230 13:24 23.04.2022
4064 Clouds 7 989 81 10000 9.77 240 11:29 23.04.2022
4065 Drizzle 6 987 90 10000 8.23 240 09:41 23.04.2022
4066 Clouds 5 986 91 10000 7.72 230 07:52 23.04.2022
4067 Clouds 6 997 89 6000 8.23 210 03:57 23.04.2022
4068 Clouds 6 983 92 10000 4.63 180 02:36 23.04.2022
4069 Rain 7 983 94 9000 5.66 180 23:34 22.04.2022
4070 Clouds 7 983 92 10000 4.63 180 22:43 22.04.2022
4071 Rain 7 983 92 10000 4.12 170 21:56 22.04.2022
4072 Clouds 7 983 92 10000 4.12 170 21:56 22.04.2022
4073 Clouds 7 983 92 10000 4.12 170 21:56 22.04.2022
4074 Rain 7 983 92 10000 4.12 170 21:56 22.04.2022
4075 Clouds 7 997 92 9000 4.12 160 21:38 22.04.2022
4076 Rain 7 985 94 8000 4.12 160 20:30 22.04.2022
4077 Rain 8 999 91 6000 4.12 170 19:25 22.04.2022
4078 Rain 7 999 90 6000 4.12 170 18:56 22.04.2022
4079 Clouds 8 986 91 6000 4.12 180 18:24 22.04.2022
4080 Clouds 9 987 89 5000 6.17 220 16:54 22.04.2022
4081 Rain 9 987 90 4000 5.66 170 15:58 22.04.2022
4082 Clouds 10 987 89 9000 6.17 170 15:23 22.04.2022
4083 Clouds 9 1000 90 6000 6.69 170 14:38 22.04.2022
4084 Clouds 10 988 86 10000 7.2 180 13:41 22.04.2022
4085 Clouds 10 1001 77 10000 8.05 201 12:36 22.04.2022
4086 Clouds 11 988 78 10000 6.71 213 11:23 22.04.2022
4087 Clouds 10 989 78 10000 5.81 208 10:56 22.04.2022
4088 Clouds 10 989 81 10000 4.12 160 10:32 22.04.2022
4089 Clouds 9 1002 82 10000 5.66 160 09:54 22.04.2022
4090 Clouds 9 1003 86 9000 3.58 187 08:56 22.04.2022
4091 Clouds 8 1003 86 6000 4.02 194 08:36 22.04.2022
4092 Clouds 9 1004 80 10000 3.6 190 06:21 22.04.2022
4093 Clear 10 1006 59 10000 6.69 220 00:53 22.04.2022
4094 Clear 11 993 45 10000 5.14 240 23:29 21.04.2022
4095 Clear 12 1006 44 10000 5.66 230 22:35 21.04.2022
4096 Clouds 14 1006 44 10000 5.66 220 21:25 21.04.2022
4097 Clouds 15 1006 41 10000 5.66 210 20:29 21.04.2022
4098 Clouds 16 1006 42 10000 5.66 230 18:49 21.04.2022
4099 Clouds 16 1006 41 10000 4.02 239 18:49 21.04.2022
4100 Clouds 16 1006 40 10000 4.63 200 18:19 21.04.2022
4101 Clouds 16 1006 42 10000 3.6 260 17:19 21.04.2022
4102 Clouds 15 1008 43 10000 6.69 220 15:24 21.04.2022
4103 Clouds 14 1008 43 10000 4.47 198 14:52 21.04.2022
4104 Clouds 14 1008 46 10000 3.58 208 13:59 21.04.2022
4105 Clear 13 1008 47 10000 3.13 206 13:21 21.04.2022
4106 Clear 11 1010 56 10000 3.6 180 11:46 21.04.2022
4107 Clear 8 1009 61 10000 1.54 200 09:33 21.04.2022
4108 Clear 6 1010 68 10000 2.57 280 08:38 21.04.2022
4109 Clear 6 994 70 10000 3.09 270 06:36 21.04.2022
4110 Clear 7 1010 62 10000 5.66 340 03:39 21.04.2022
4111 Clear 8 1010 60 10000 5.14 330 03:20 21.04.2022
4112 Clear 8 1010 58 10000 4.63 350 02:44 21.04.2022
4113 Clear 9 1011 55 10000 6.17 350 00:34 21.04.2022
4114 Clear 9 998 56 10000 8.75 350 23:25 20.04.2022
4115 Clear 9 998 55 10000 9.77 360 22:59 20.04.2022
4116 Clear 9 998 55 10000 9.77 360 22:59 20.04.2022
4117 Clear 9 997 54 10000 5.36 35 22:33 20.04.2022
4118 Clouds 10 1009 49 10000 5.36 33 21:36 20.04.2022
4119 Clouds 11 1008 46 10000 8.75 10 20:44 20.04.2022
4120 Clouds 11 997 47 10000 8.75 10 20:21 20.04.2022
4121 Clear 12 1008 44 10000 9.26 360 19:39 20.04.2022
4122 Clouds 12 996 45 10000 10.29 360 18:46 20.04.2022
4123 Clouds 12 1007 49 10000 10.29 350 17:49 20.04.2022
4124 Clouds 11 1007 53 10000 10.29 10 16:39 20.04.2022
4125 Clouds 11 1006 59 10000 9.26 30 14:58 20.04.2022
4126 Clouds 8 1006 74 10000 6.69 20 12:22 20.04.2022
4127 Clouds 8 1006 79 10000 6.69 30 11:42 20.04.2022
4128 Clouds 6 992 88 10000 7.2 20 10:43 20.04.2022
4129 Clouds 5 992 91 8000 8.23 20 09:28 20.04.2022
4130 Clouds 4 992 90 8000 9.26 20 08:29 20.04.2022
4131 Clouds 5 992 90 8000 6.17 10 07:53 20.04.2022
4132 Rain 5 990 91 7000 4.47 29 06:18 20.04.2022
4133 Clouds 7 992 89 8000 5.36 0 01:37 20.04.2022
4134 Clouds 7 993 86 8000 5.14 350 00:21 20.04.2022
4135 Clouds 9 994 73 10000 5.66 350 22:59 19.04.2022
4136 Clouds 9 994 73 10000 5.66 350 22:59 19.04.2022
4137 Clouds 10 994 67 10000 7.15 45 22:23 19.04.2022
4138 Rain 10 993 62 10000 5.66 360 21:53 19.04.2022
4139 Clouds 11 993 63 10000 7.15 45 20:59 19.04.2022
4140 Clouds 11 992 62 10000 7.72 30 20:37 19.04.2022
4141 Clouds 13 1008 57 10000 7.2 10 19:32 19.04.2022
4142 Clouds 14 1008 57 10000 7.2 10 18:30 19.04.2022
4143 Clouds 17 1008 51 10000 7.72 290 16:50 19.04.2022
4144 Clouds 18 997 51 10000 6.69 290 16:25 19.04.2022
4145 Clouds 18 1008 49 10000 7.72 250 15:59 19.04.2022
4146 Clouds 18 998 54 10000 2.68 64 14:46 19.04.2022
4147 Clouds 16 1010 61 10000 2.06 40 12:53 19.04.2022
4148 Clouds 16 1011 62 10000 1.54 0 12:34 19.04.2022
4149 Clouds 14 1011 68 10000 1.54 0 11:34 19.04.2022
4150 Clouds 13 998 73 10000 2.24 56 09:35 19.04.2022
4151 Clouds 12 997 73 10000 1.79 54 07:49 19.04.2022
4152 Clear 14 998 61 10000 1.79 45 04:25 19.04.2022
4153 Clouds 16 999 58 10000 2.06 270 02:39 19.04.2022
4154 Clear 18 1012 51 10000 3.09 250 23:51 18.04.2022
4155 Clear 19 1012 47 10000 3.09 240 22:53 18.04.2022
4156 Clouds 21 1011 39 10000 4.63 240 21:26 18.04.2022
4157 Clouds 23 1011 35 10000 6.17 240 20:39 18.04.2022
4158 Clouds 24 1011 31 10000 4.63 250 20:19 18.04.2022
4159 Clouds 24 1011 28 10000 3.09 250 19:33 18.04.2022
4160 Clouds 25 1012 28 10000 3.6 250 18:49 18.04.2022
4161 Clouds 25 1012 28 10000 4.63 230 17:49 18.04.2022
4162 Clouds 25 1012 29 10000 5.14 220 17:19 18.04.2022
4163 Clouds 24 1013 30 10000 3.6 220 16:39 18.04.2022
4164 Clear 24 1014 31 10000 3.09 170 15:41 18.04.2022
4165 Clouds 23 1015 33 10000 3.13 248 14:27 18.04.2022
4166 Clouds 21 1016 36 10000 1.34 135 13:24 18.04.2022
4167 Clouds 19 1016 40 10000 2.06 80 12:27 18.04.2022
4168 Clear 17 1016 42 10000 3.09 50 10:59 18.04.2022
4169 Clear 15 1016 44 10000 4.63 50 10:18 18.04.2022
4170 Clear 14 1016 45 10000 3.13 55 09:30 18.04.2022
4171 Clear 13 1003 58 10000 3.58 32 07:29 18.04.2022
4172 Clear 16 1004 48 10000 2.24 82 03:51 18.04.2022
4173 Clear 19 1017 41 10000 3.6 360 23:41 17.04.2022
4174 Clear 19 1017 40 10000 3.09 10 22:39 17.04.2022
4175 Clear 21 1016 33 10000 3.09 280 21:39 17.04.2022
4176 Clear 22 1016 32 10000 3.09 290 21:19 17.04.2022
4177 Clear 23 1016 29 10000 3.09 260 20:25 17.04.2022
4178 Clear 25 1016 28 10000 3.09 210 19:21 17.04.2022
4179 Clear 25 1016 26 10000 2.68 202 17:38 17.04.2022
4180 Clear 24 1018 31 10000 2.68 293 15:37 17.04.2022
4181 Clear 23 1018 35 10000 2.57 210 14:53 17.04.2022
4182 Clear 21 1019 36 10000 1.79 220 13:44 17.04.2022
4183 Clear 21 1020 36 10000 1.79 214 12:56 17.04.2022
4184 Clear 18 1020 42 10000 1.34 88 11:24 17.04.2022
4185 Clear 16 1020 45 10000 1.54 70 10:38 17.04.2022
4186 Clear 15 1020 48 10000 1.54 70 10:19 17.04.2022
4187 Clear 13 1020 59 10000 2.24 74 09:23 17.04.2022
4188 Clear 12 1009 63 10000 1.79 64 08:41 17.04.2022
4189 Clear 12 1007 60 10000 1.79 54 06:53 17.04.2022
4190 Clear 15 1005 51 10000 1.54 100 03:20 17.04.2022
4191 Clear 16 1021 49 10000 1.54 120 00:53 17.04.2022
4192 Clear 18 1021 45 10000 4.12 340 23:49 16.04.2022
4193 Clear 20 1021 39 10000 4.63 350 22:27 16.04.2022
4194 Clear 21 1020 36 10000 3.6 360 21:29 16.04.2022
4195 Clouds 24 1019 31 10000 6.17 300 19:54 16.04.2022
4196 Clouds 25 1019 31 10000 5.66 280 18:54 16.04.2022
4197 Clouds 25 1020 30 10000 4.63 240 17:38 16.04.2022
4198 Clouds 25 1021 30 10000 3.09 350 16:32 16.04.2022
4199 Clouds 24 1021 31 10000 2.06 0 15:26 16.04.2022
4200 Clouds 24 1022 32 10000 2.06 330 14:47 16.04.2022
4201 Clouds 23 1022 36 10000 2.06 240 13:56 16.04.2022
4202 Clouds 22 1023 38 10000 2.57 270 13:26 16.04.2022
4203 Clear 20 1023 45 10000 2.24 270 12:18 16.04.2022
4204 Clear 17 1023 54 10000 1.03 0 10:42 16.04.2022
4205 Clear 15 1023 62 10000 1.03 0 09:41 16.04.2022
4206 Clear 13 1010 67 10000 1.79 30 08:56 16.04.2022
4207 Clear 12 1008 67 10000 1.03 320 07:32 16.04.2022
4208 Clear 14 1008 62 10000 2.06 10 06:46 16.04.2022
4209 Clear 16 1008 55 10000 2.24 70 01:59 16.04.2022
4210 Clear 18 1010 55 10000 3.6 280 00:21 16.04.2022
4211 Clear 19 1023 51 10000 3.6 270 22:57 15.04.2022
4212 Clear 19 1022 49 10000 4.12 270 22:31 15.04.2022
4213 Clear 20 1022 48 10000 3.6 260 21:47 15.04.2022
4214 Clouds 21 1022 42 10000 3.09 250 20:56 15.04.2022
4215 Clouds 23 1021 36 10000 3.09 240 19:59 15.04.2022
4216 Clouds 23 1021 35 10000 3.09 260 19:39 15.04.2022
4217 Clouds 24 1021 32 10000 2.57 0 18:46 15.04.2022
4218 Clouds 24 1021 33 10000 2.57 230 18:24 15.04.2022
4219 Clouds 23 1021 33 10000 2.06 230 17:32 15.04.2022
4220 Clouds 23 1022 36 10000 2.24 93 16:26 15.04.2022
4221 Clouds 23 1022 36 10000 2.24 71 15:59 15.04.2022
4222 Clouds 21 1023 42 10000 1.54 200 14:41 15.04.2022
4223 Clear 20 1023 49 10000 1.54 130 13:33 15.04.2022
4224 Clear 18 1024 53 10000 1.34 158 12:40 15.04.2022
4225 Clear 17 1023 58 10000 1.03 0 11:54 15.04.2022
4226 Clear 15 1023 66 10000 1.54 30 10:58 15.04.2022
4227 Clear 15 1023 66 10000 1.03 0 10:40 15.04.2022
4228 Clear 13 1023 78 10000 1.34 27 09:41 15.04.2022
4229 Clear 12 1023 78 10000 1.34 34 09:19 15.04.2022
4230 Clear 11 1009 81 10000 1.54 270 07:24 15.04.2022
4231 Clear 11 1007 77 10000 1.03 0 05:58 15.04.2022
4232 Clear 14 1006 68 10000 2.06 350 02:34 15.04.2022
4233 Clouds 16 1006 61 10000 2.06 350 23:30 14.04.2022
4234 Clouds 17 1020 55 10000 4.92 45 22:48 14.04.2022
4235 Clouds 17 1020 55 10000 4.92 45 22:29 14.04.2022
4236 Clouds 17 1020 53 10000 3.6 350 21:57 14.04.2022
4237 Clouds 19 1007 48 10000 4.63 340 20:37 14.04.2022
4238 Clouds 20 1018 40 10000 2.57 30 19:23 14.04.2022
4239 Clouds 21 1018 39 10000 2.24 103 18:19 14.04.2022
4240 Clouds 21 1018 40 10000 3.09 10 17:38 14.04.2022
4241 Clouds 20 1018 42 10000 3.09 0 16:36 14.04.2022
4242 Clouds 19 1019 49 10000 3.13 63 14:58 14.04.2022
4243 Clouds 18 1019 52 10000 4.63 70 13:45 14.04.2022
4244 Clouds 17 1019 55 10000 5.66 80 12:52 14.04.2022
4245 Clouds 16 1019 55 10000 4.63 50 12:31 14.04.2022
4246 Clouds 15 1019 60 10000 5.14 50 11:29 14.04.2022
4247 Clouds 14 1019 65 10000 4.63 40 10:52 14.04.2022
4248 Clouds 13 1019 67 10000 4.63 30 10:26 14.04.2022
4249 Clouds 11 1018 72 10000 3.6 10 08:54 14.04.2022
4250 Clouds 11 1002 73 10000 3.58 14 06:53 14.04.2022
4251 Clear 12 1002 65 10000 2.24 28 03:28 14.04.2022
4252 Clouds 14 1002 60 10000 3.13 65 23:26 13.04.2022
4253 Clouds 15 1001 55 10000 3.09 40 22:20 13.04.2022
4254 Clouds 16 1000 52 10000 4.92 23 21:36 13.04.2022
4255 Clouds 17 1001 48 10000 4.63 10 20:22 13.04.2022
4256 Clouds 17 1014 44 10000 3.58 5 19:36 13.04.2022
4257 Clouds 18 1013 41 10000 3.09 10 18:27 13.04.2022
4258 Clouds 18 1013 43 10000 3.09 70 17:24 13.04.2022
4259 Clouds 18 1013 41 10000 4.63 10 16:37 13.04.2022
4260 Clouds 18 1014 43 10000 4.12 10 15:41 13.04.2022
4261 Clouds 17 1014 45 10000 3.6 10 14:51 13.04.2022
4262 Clouds 17 1014 45 10000 4.12 30 14:28 13.04.2022
4263 Clouds 16 1014 51 10000 2.57 50 13:29 13.04.2022
4264 Clouds 14 1014 57 10000 2.68 38 12:30 13.04.2022
4265 Clouds 12 1014 70 10000 1.54 310 10:55 13.04.2022
4266 Mist 9 1013 85 10000 2.06 340 09:44 13.04.2022
4267 Fog 7 1000 89 10000 2.57 320 08:43 13.04.2022
4268 Clear 6 994 92 10000 0.89 20 06:52 13.04.2022
4269 Clear 7 997 91 10000 1.34 34 06:26 13.04.2022
4270 Clouds 7 997 90 9000 2.57 320 05:52 13.04.2022
4271 Clouds 9 997 86 10000 1.54 200 00:24 13.04.2022
4272 Clear 10 997 85 10000 1.03 310 23:46 12.04.2022
4273 Clouds 11 996 80 10000 1.03 0 22:19 12.04.2022
4274 Clouds 11 996 79 10000 1.03 0 21:32 12.04.2022
4275 Clouds 12 997 79 10000 4.12 230 20:42 12.04.2022
4276 Clouds 13 997 77 10000 2.06 250 19:53 12.04.2022
4277 Clouds 13 997 78 10000 2.57 330 19:32 12.04.2022
4278 Thunderstorm 12 1010 80 10000 7.2 220 18:42 12.04.2022
4279 Rain 15 996 57 10000 3.09 200 17:34 12.04.2022
4280 Clouds 15 996 57 10000 4.63 170 16:25 12.04.2022
4281 Clouds 14 1010 58 10000 4.12 180 15:33 12.04.2022
4282 Clouds 13 997 63 10000 4.63 160 14:32 12.04.2022
4283 Clouds 12 1011 67 10000 3.58 188 13:38 12.04.2022
4284 Clouds 12 1011 70 10000 3.6 180 12:59 12.04.2022
4285 Clouds 12 1011 73 10000 3.6 160 11:47 12.04.2022
4286 Clouds 11 1011 77 10000 3.6 180 11:24 12.04.2022
4287 Clouds 9 1010 89 10000 2.57 170 09:25 12.04.2022
4288 Clouds 8 1010 91 10000 2.06 170 08:18 12.04.2022
4289 Clouds 8 1009 92 10000 2.24 219 06:33 12.04.2022
4290 Clouds 9 1009 92 10000 3.09 170 05:36 12.04.2022
4291 Clouds 10 990 91 6000 8.75 240 01:47 12.04.2022
4292 Clouds 14 992 75 10000 7.72 240 23:19 11.04.2022
4293 Clouds 17 1005 44 10000 5.66 190 21:49 11.04.2022
4294 Clouds 18 1005 40 10000 8.75 210 21:18 11.04.2022
4295 Clouds 19 1005 42 10000 6.17 220 20:30 11.04.2022
4296 Clouds 20 1005 39 10000 6.17 220 19:57 11.04.2022
4297 Clouds 21 992 40 10000 6.69 170 19:22 11.04.2022
4298 Clouds 21 1005 37 10000 7.2 170 18:49 11.04.2022
4299 Clouds 22 1005 36 10000 6.69 160 17:57 11.04.2022
4300 Clouds 22 1006 36 10000 7.2 180 16:57 11.04.2022
4301 Clouds 21 1007 36 10000 6.71 223 16:20 11.04.2022
4302 Clouds 20 1008 42 10000 4.63 180 14:35 11.04.2022
4303 Clear 18 1010 49 10000 3.09 140 12:54 11.04.2022
4304 Clear 17 1010 50 10000 3.6 160 12:35 11.04.2022
4305 Clear 15 1010 55 10000 3.6 130 11:42 11.04.2022
4306 Clear 13 1010 63 10000 2.57 90 10:34 11.04.2022
4307 Clear 11 1010 73 10000 2.68 0 09:22 11.04.2022
4308 Clear 10 995 77 10000 2.57 100 06:51 11.04.2022
4309 Clear 13 996 73 10000 4.63 120 02:32 11.04.2022
4310 Clear 16 1012 66 10000 6.17 120 22:54 10.04.2022
4311 Clear 17 996 63 10000 7.72 120 22:26 10.04.2022
4312 Clouds 19 1011 53 10000 6.26 167 21:33 10.04.2022
4313 Clouds 21 1011 44 10000 6.71 135 20:33 10.04.2022
4314 Clouds 22 1011 39 10000 5.36 219 19:45 10.04.2022
4315 Clouds 22 1011 37 10000 6.17 160 19:23 10.04.2022
4316 Clouds 22 1011 38 10000 6.17 160 18:45 10.04.2022
4317 Clouds 22 1012 39 10000 4.12 150 17:55 10.04.2022
4318 Clouds 22 1012 38 10000 4.63 150 17:35 10.04.2022
4319 Clouds 21 1013 45 10000 4.12 170 16:33 10.04.2022
4320 Clouds 20 1014 48 10000 4.12 160 15:30 10.04.2022
4321 Clouds 19 1015 54 10000 3.6 160 14:25 10.04.2022
4322 Clouds 16 1016 67 10000 4.63 140 12:35 10.04.2022
4323 Clouds 16 1016 67 10000 4.63 140 12:35 10.04.2022
4324 Clouds 16 1017 72 10000 3.6 120 11:56 10.04.2022
4325 Clouds 15 1017 74 10000 4.12 110 11:29 10.04.2022
4326 Clouds 14 1017 80 10000 2.06 110 10:56 10.04.2022
4327 Clouds 12 1017 83 10000 1.54 100 09:58 10.04.2022
4328 Clouds 12 1017 84 10000 1.54 80 09:37 10.04.2022
4329 Clouds 11 1017 87 10000 1.54 360 08:22 10.04.2022
4330 Clouds 11 1017 87 10000 1.54 50 07:27 10.04.2022
4331 Clouds 11 1002 92 9000 1.54 360 05:50 10.04.2022
4332 Clear 11 1003 90 10000 2.06 130 02:25 10.04.2022
4333 Clear 12 1018 87 10000 2.57 230 00:28 10.04.2022
4334 Clear 13 1018 85 10000 2.57 230 23:48 09.04.2022
4335 Clouds 14 1018 80 10000 4.12 230 22:47 09.04.2022
4336 Clouds 15 1002 75 10000 4.12 210 21:35 09.04.2022
4337 Clouds 15 1017 73 10000 5.14 230 20:49 09.04.2022
4338 Clouds 16 1004 70 10000 5.14 230 20:26 09.04.2022
4339 Clouds 17 1004 66 10000 5.14 230 19:42 09.04.2022
4340 Clouds 17 1017 62 10000 5.66 200 18:59 09.04.2022
4341 Clouds 17 1004 64 10000 5.66 220 18:20 09.04.2022
4342 Clouds 17 1004 64 10000 5.14 200 17:39 09.04.2022
4343 Clouds 17 1017 62 10000 5.66 230 16:52 09.04.2022
4344 Clouds 17 1005 63 10000 5.66 230 15:55 09.04.2022
4345 Clouds 17 1018 62 10000 4.63 240 15:30 09.04.2022
4346 Clouds 16 1018 67 10000 4.12 190 14:44 09.04.2022
4347 Clouds 15 1018 71 10000 4.47 273 14:22 09.04.2022
4348 Clouds 14 1019 77 10000 4.63 230 13:18 09.04.2022
4349 Clouds 14 1006 81 10000 4.12 240 12:41 09.04.2022
4350 Clouds 12 1019 86 10000 5.14 240 11:22 09.04.2022
4351 Clouds 11 1018 87 10000 3.6 260 10:21 09.04.2022
4352 Clouds 10 1018 88 10000 4.63 250 09:38 09.04.2022
4353 Clouds 10 1005 89 10000 3.6 250 08:53 09.04.2022
4354 Clouds 10 1003 87 10000 3.6 230 06:56 09.04.2022
4355 Clouds 12 1019 74 10000 6.17 240 02:20 09.04.2022
4356 Clouds 13 1004 69 10000 8.23 240 23:45 08.04.2022
4357 Clouds 14 1004 66 10000 6.69 240 21:58 08.04.2022
4358 Clouds 14 1004 65 10000 6.69 240 21:29 08.04.2022
4359 Clouds 14 1005 63 10000 8.75 250 20:39 08.04.2022
4360 Clouds 15 1005 59 10000 9.77 240 19:20 08.04.2022
4361 Clear 16 1004 57 10000 9.26 240 18:30 08.04.2022
4362 Clouds 16 1018 55 10000 9.26 240 17:49 08.04.2022
4363 Clouds 15 1018 56 10000 9.77 240 17:25 08.04.2022
4364 Clouds 15 1005 58 10000 9.26 250 16:47 08.04.2022
4365 Clouds 15 1003 58 10000 10.29 250 15:57 08.04.2022
4366 Clouds 14 1003 60 10000 9.26 240 15:26 08.04.2022
4367 Clouds 14 1019 60 10000 8.23 240 14:33 08.04.2022
4368 Clouds 13 1019 63 10000 8.75 240 13:47 08.04.2022
4369 Clouds 13 1020 63 10000 8.75 240 13:29 08.04.2022
4370 Clouds 12 1007 72 10000 7.2 240 12:18 08.04.2022
4371 Clouds 9 1020 80 10000 5.66 230 10:37 08.04.2022
4372 Clouds 7 1019 89 10000 4.02 234 09:38 08.04.2022
4373 Clouds 7 1006 91 10000 4.12 240 08:51 08.04.2022
4374 Clear 7 1004 90 10000 4.02 230 07:31 08.04.2022
4375 Clear 8 1019 84 10000 3.6 240 05:23 08.04.2022
4376 Clear 11 1003 69 10000 3.09 190 01:29 08.04.2022
4377 Clear 12 1006 68 10000 4.02 269 00:25 08.04.2022
4378 Clear 13 1020 61 10000 5.66 260 22:59 07.04.2022
4379 Clear 14 1020 61 10000 5.66 240 22:40 07.04.2022
4380 Clear 14 1020 60 10000 4.92 288 22:21 07.04.2022
4381 Clear 14 1020 59 10000 5.66 240 21:53 07.04.2022
4382 Clear 16 1019 56 10000 5.66 230 21:19 07.04.2022
4383 Clear 17 1019 53 10000 8.23 230 20:38 07.04.2022
4384 Clear 19 1019 42 10000 8.23 240 18:48 07.04.2022
4385 Clear 19 1006 42 10000 7.72 230 17:27 07.04.2022
4386 Clear 19 1020 43 10000 8.75 230 16:45 07.04.2022
4387 Clear 18 1007 46 10000 7.72 240 16:23 07.04.2022
4388 Clear 17 1020 45 10000 7.2 230 14:50 07.04.2022
4389 Clear 16 1021 47 10000 7.72 240 13:45 07.04.2022
4390 Clear 15 1021 53 10000 6.69 230 12:58 07.04.2022
4391 Clear 13 1021 63 10000 6.69 240 11:40 07.04.2022
4392 Clear 9 1020 77 10000 3.6 230 09:42 07.04.2022
4393 Clear 7 1019 79 10000 3.09 230 08:38 07.04.2022
4394 Clear 8 1019 75 10000 3.09 230 06:57 07.04.2022
4395 Clear 10 1004 63 10000 4.63 250 02:58 07.04.2022
4396 Clear 10 1019 61 10000 4.63 250 02:27 07.04.2022
4397 Clear 11 1018 59 10000 5.14 240 00:42 07.04.2022
4398 Clear 12 1018 57 10000 5.66 240 22:54 06.04.2022
4399 Clear 12 1017 56 10000 4.63 240 22:30 06.04.2022
4400 Clear 13 1016 49 10000 4.63 250 21:45 06.04.2022
4401 Clear 15 1015 41 10000 7.2 230 20:40 06.04.2022
4402 Clear 16 1015 37 10000 6.69 240 19:57 06.04.2022
4403 Clear 17 1015 39 10000 7.72 230 18:52 06.04.2022
4404 Clear 16 1015 42 10000 6.69 230 18:33 06.04.2022
4405 Clear 16 1002 45 10000 7.72 240 17:35 06.04.2022
4406 Clear 15 1015 48 10000 5.14 220 16:39 06.04.2022
4407 Clear 14 1015 52 10000 4.63 210 15:49 06.04.2022
4408 Clear 13 1015 56 10000 4.63 250 15:30 06.04.2022
4409 Clouds 9 1016 68 10000 3.6 220 13:30 06.04.2022
4410 Clouds 7 1016 74 10000 3.09 190 12:28 06.04.2022
4411 Clouds 6 1002 82 10000 2.57 260 10:54 06.04.2022
4412 Clouds 5 1002 83 10000 2.57 260 10:32 06.04.2022
4413 Clouds 4 1014 86 10000 2.06 200 09:43 06.04.2022
4414 Clouds 4 1014 87 10000 2.57 200 08:36 06.04.2022
4415 Clouds 4 1001 87 10000 3.09 200 07:56 06.04.2022
4416 Clear 4 1013 84 10000 2.68 210 04:42 06.04.2022
4417 Clear 6 1014 71 10000 3.6 200 23:57 05.04.2022
4418 Clear 7 999 74 10000 4.12 210 23:33 05.04.2022
4419 Clouds 7 998 73 10000 4.63 220 21:48 05.04.2022
4420 Clouds 7 1000 73 10000 5.66 240 20:54 05.04.2022
4421 Clouds 8 997 71 10000 6.17 240 20:23 05.04.2022
4422 Clear 10 1001 48 10000 5.66 220 18:26 05.04.2022
4423 Clouds 11 1013 41 10000 3.09 220 17:20 05.04.2022
4424 Clouds 10 1002 42 10000 3.13 202 16:42 05.04.2022
4425 Clouds 10 1014 43 10000 2.06 200 15:50 05.04.2022
4426 Clouds 9 1014 43 10000 2.06 200 15:30 05.04.2022
4427 Clouds 8 1015 46 10000 2.06 200 13:45 05.04.2022
4428 Clouds 6 1002 55 10000 2.06 30 11:55 05.04.2022
4429 Clouds 6 1002 56 10000 2.57 50 11:33 05.04.2022
4430 Clouds 5 1002 57 10000 2.57 70 10:58 05.04.2022
4431 Clouds 5 1001 57 10000 4.12 30 09:31 05.04.2022
4432 Clouds 4 1001 58 10000 4.12 40 08:27 05.04.2022
4433 Clear 5 1002 51 10000 5.81 45 03:37 05.04.2022
4434 Clear 7 1014 49 10000 2.68 68 23:38 04.04.2022
4435 Clouds 8 999 54 10000 1.79 0 22:37 04.04.2022
4436 Clouds 9 1000 56 10000 3.09 170 21:46 04.04.2022
4437 Clouds 10 1000 53 10000 2.68 194 21:18 04.04.2022
4438 Clouds 10 1001 52 10000 2.57 190 20:47 04.04.2022
4439 Clouds 12 1001 42 10000 3.6 150 19:28 04.04.2022
4440 Clouds 12 1012 33 10000 4.12 70 18:43 04.04.2022
4441 Clouds 12 1012 33 10000 4.12 60 17:20 04.04.2022
4442 Clouds 12 1012 33 10000 4.12 50 16:31 04.04.2022
4443 Clouds 11 1013 37 10000 4.63 80 15:33 04.04.2022
4444 Clouds 10 1014 40 10000 4.12 50 14:46 04.04.2022
4445 Clouds 10 1014 40 10000 4.12 50 14:27 04.04.2022
4446 Clouds 8 1015 43 10000 6.69 30 12:58 04.04.2022
4447 Clouds 4 1002 51 10000 6.17 40 11:29 04.04.2022
4448 Clouds 3 1002 55 10000 7.2 30 10:29 04.04.2022
4449 Clear 0 1002 60 10000 5.36 45 06:58 04.04.2022
4450 Clear 1 1004 52 10000 5.14 30 03:18 04.04.2022
4451 Clear 5 1002 43 10000 5.81 68 23:42 03.04.2022
4452 Clear 6 1002 37 10000 5.14 40 22:18 03.04.2022
4453 Clear 7 1001 31 10000 4.63 40 21:31 03.04.2022
4454 Clouds 9 1002 29 10000 7.2 50 20:32 03.04.2022
4455 Clouds 10 1013 27 10000 6.69 50 18:47 03.04.2022
4456 Clouds 10 1013 28 10000 6.69 50 17:57 03.04.2022
4457 Clouds 10 1013 29 10000 6.17 30 17:37 03.04.2022
4458 Clouds 10 1014 33 10000 6.69 40 16:50 03.04.2022
4459 Clouds 9 1014 35 10000 7.72 40 15:57 03.04.2022
4460 Clouds 8 1015 41 10000 6.69 40 14:27 03.04.2022
4461 Clouds 8 1016 41 10000 6.17 40 13:34 03.04.2022
4462 Clouds 6 1016 51 10000 5.66 40 11:51 03.04.2022
4463 Clear 3 1016 59 10000 2.68 80 09:59 03.04.2022
4464 Clear 1 1016 66 10000 1.79 82 09:18 03.04.2022
4465 Clear 0 1002 68 10000 2.24 64 06:28 03.04.2022
4466 Clear 2 1005 59 10000 3.09 40 02:56 03.04.2022
4467 Clear 5 1006 51 10000 3.6 350 23:50 02.04.2022
4468 Clear 5 1006 50 10000 4.02 31 22:51 02.04.2022
4469 Clear 6 1005 47 10000 5.36 0 21:56 02.04.2022
4470 Clear 6 1005 46 10000 5.36 0 21:56 02.04.2022
4471 Clouds 7 1005 42 10000 5.66 360 21:21 02.04.2022
4472 Clouds 8 1006 37 10000 6.17 10 20:39 02.04.2022
4473 Clouds 9 1017 32 10000 6.69 360 18:49 02.04.2022
4474 Clouds 10 1006 32 10000 5.14 350 18:20 02.04.2022
4475 Clouds 9 1017 32 10000 5.66 350 17:43 02.04.2022
4476 Clouds 9 1018 32 10000 5.14 10 15:58 02.04.2022
4477 Clouds 9 1007 34 10000 4.63 350 15:20 02.04.2022
4478 Clouds 9 1008 36 10000 5.14 320 14:32 02.04.2022
4479 Clouds 7 1019 37 10000 6.71 45 13:34 02.04.2022
4480 Clouds 7 1020 39 10000 8.23 360 12:32 02.04.2022
4481 Clear 5 1019 49 10000 4.92 23 10:46 02.04.2022
4482 Clear 2 1008 59 10000 6.17 360 08:44 02.04.2022
4483 Clear 2 1005 58 10000 2.68 19 05:58 02.04.2022
4484 Clear 3 1004 56 10000 4.12 360 03:28 02.04.2022
4485 Clear 4 1003 62 10000 4.92 45 23:55 01.04.2022
4486 Clouds 5 1003 62 10000 4.63 360 22:55 01.04.2022
4487 Clouds 6 1004 55 10000 4.63 290 21:30 01.04.2022
4488 Clouds 8 1005 47 10000 5.14 350 20:50 01.04.2022
4489 Clouds 9 1016 37 10000 4.63 360 19:51 01.04.2022
4490 Clouds 9 1004 37 10000 4.12 360 19:27 01.04.2022
4491 Clouds 9 1004 36 10000 6.17 340 18:42 01.04.2022
4492 Clouds 9 1004 35 10000 6.69 360 17:45 01.04.2022
4493 Clouds 9 1015 33 10000 6.69 330 16:34 01.04.2022
4494 Clouds 9 1004 35 10000 8.23 350 15:19 01.04.2022
4495 Clouds 8 1016 33 10000 8.23 350 14:18 01.04.2022
4496 Clouds 8 1005 34 10000 7.2 350 13:32 01.04.2022
4497 Clouds 7 1016 36 10000 7.2 20 12:32 01.04.2022
4498 Clouds 6 1015 41 10000 8.75 30 11:33 01.04.2022
4499 Clouds 5 1014 47 10000 6.17 40 10:18 01.04.2022
4500 Clouds 5 998 58 10000 5.81 45 07:59 01.04.2022
4501 Clouds 6 1011 67 10000 4.12 360 06:30 01.04.2022
4502 Clear 7 995 77 10000 4.12 360 04:45 01.04.2022
4503 Clouds 7 994 79 10000 2.57 330 03:41 01.04.2022
4504 Clear 7 994 83 10000 3.09 350 01:54 01.04.2022
4505 Rain 9 993 73 10000 4.47 308 22:58 31.03.2022
4506 Drizzle 10 992 72 10000 5.14 310 21:50 31.03.2022
4507 Clouds 10 992 71 10000 6.17 300 21:31 31.03.2022
4508 Clouds 10 993 69 10000 5.66 280 20:29 31.03.2022
4509 Clouds 11 993 69 10000 5.66 270 19:48 31.03.2022
4510 Clouds 12 992 62 10000 6.69 240 18:43 31.03.2022
4511 Clouds 13 992 50 10000 6.17 300 17:41 31.03.2022
4512 Clouds 12 1006 47 10000 5.66 300 16:34 31.03.2022
4513 Clouds 12 1006 47 10000 5.14 290 15:37 31.03.2022
4514 Clouds 11 1007 47 10000 4.63 300 15:19 31.03.2022
4515 Clouds 11 1007 49 10000 5.14 300 14:34 31.03.2022
4516 Clouds 9 1007 55 10000 7.2 280 11:34 31.03.2022
4517 Clouds 8 1007 56 10000 6.17 300 10:55 31.03.2022
4518 Clear 7 993 68 10000 4.12 290 09:44 31.03.2022
4519 Clear 6 1006 71 10000 3.6 290 07:53 31.03.2022
4520 Clear 7 991 75 10000 3.6 250 04:42 31.03.2022
4521 Clouds 10 1006 72 10000 3.09 320 23:37 30.03.2022
4522 Clouds 9 1006 74 10000 3.09 350 22:27 30.03.2022
4523 Clouds 10 1004 70 10000 2.57 150 21:37 30.03.2022
4524 Clouds 11 1004 69 10000 2.06 130 20:44 30.03.2022
4525 Clouds 11 1004 67 10000 3.6 20 19:59 30.03.2022
4526 Clouds 11 990 71 10000 3.6 60 18:59 30.03.2022
4527 Clouds 12 990 67 10000 4.12 20 17:53 30.03.2022
4528 Clouds 11 1003 68 10000 4.12 20 17:34 30.03.2022
4529 Clouds 11 1003 68 10000 4.12 20 16:51 30.03.2022
4530 Clouds 12 990 70 10000 4.63 10 16:30 30.03.2022
4531 Clouds 11 1004 76 10000 6.17 10 14:56 30.03.2022
4532 Clouds 11 1004 77 10000 3.09 10 13:34 30.03.2022
4533 Clouds 11 991 85 10000 3.13 29 12:41 30.03.2022
4534 Clouds 10 991 87 9000 5.36 45 10:55 30.03.2022
4535 Rain 10 991 86 2500 2.24 11 09:58 30.03.2022
4536 Clouds 10 991 85 10000 2.06 340 08:57 30.03.2022
4537 Clouds 10 989 86 10000 2.06 350 07:31 30.03.2022
4538 Clear 10 1004 87 10000 1.54 340 05:40 30.03.2022
4539 Clouds 10 991 88 10000 1.34 45 03:21 30.03.2022
4540 Drizzle 12 991 85 9000 3.13 45 23:42 29.03.2022
4541 Clouds 13 991 74 10000 2.06 10 22:19 29.03.2022
4542 Clouds 14 991 73 10000 3.6 360 21:41 29.03.2022
4543 Clouds 14 992 69 10000 4.12 240 20:44 29.03.2022
4544 Clear 15 1006 65 10000 4.12 230 19:45 29.03.2022
4545 Clouds 16 991 66 10000 4.12 240 18:54 29.03.2022
4546 Clouds 16 987 66 10000 4.12 250 18:18 29.03.2022
4547 Clouds 16 984 64 10000 3.6 260 17:21 29.03.2022
4548 Clouds 16 988 63 10000 3.6 260 16:56 29.03.2022
4549 Clouds 16 1008 61 10000 3.58 270 15:57 29.03.2022
4550 Clear 16 1009 60 10000 1.54 0 14:48 29.03.2022
4551 Clear 14 1010 62 10000 2.24 225 13:52 29.03.2022
4552 Clear 13 1011 70 10000 2.06 320 12:47 29.03.2022
4553 Clear 12 999 82 10000 3.09 290 11:28 29.03.2022
4554 Clouds 11 998 83 10000 3.6 280 10:27 29.03.2022
4555 Clouds 10 998 84 10000 2.06 350 09:23 29.03.2022
4556 Clear 10 998 82 10000 1.03 0 06:55 29.03.2022
4557 Clear 10 1000 80 10000 2.06 120 03:47 29.03.2022
4558 Clear 12 1002 74 10000 3.09 130 23:49 28.03.2022
4559 Rain 13 1002 73 10000 3.09 100 22:59 28.03.2022
4560 Rain 13 1002 72 10000 3.6 140 22:39 28.03.2022
4561 Clouds 13 1017 70 10000 3.6 140 22:19 28.03.2022
4562 Clouds 15 1004 66 10000 3.09 100 20:53 28.03.2022
4563 Clear 15 1017 59 10000 3.09 100 19:59 28.03.2022
4564 Clouds 16 1017 58 10000 4.12 150 19:40 28.03.2022
4565 Clouds 16 1017 58 10000 4.12 150 19:40 28.03.2022
4566 Clouds 16 1017 55 10000 3.6 110 18:52 28.03.2022
4567 Clouds 16 1017 55 10000 3.09 100 18:18 28.03.2022
4568 Clouds 16 1018 56 10000 3.6 110 17:30 28.03.2022
4569 Clear 15 1019 55 10000 2.57 90 15:48 28.03.2022
4570 Clear 14 1020 55 10000 3.09 100 14:24 28.03.2022
4571 Clear 13 1021 56 10000 3.6 110 13:33 28.03.2022
4572 Clear 11 1008 67 10000 4.63 70 11:54 28.03.2022
4573 Clear 9 1009 79 10000 4.63 70 10:49 28.03.2022
4574 Clear 8 1008 82 10000 3.13 68 09:38 28.03.2022
4575 Clear 7 1010 84 10000 2.57 70 08:46 28.03.2022
4576 Clear 7 1010 84 10000 2.06 70 08:21 28.03.2022
4577 Clear 7 1008 83 10000 1.79 67 07:26 28.03.2022
4578 Clear 9 1010 79 10000 1.03 20 02:46 28.03.2022
4579 Clouds 12 1010 68 10000 1.79 125 22:59 27.03.2022
4580 Clouds 13 1009 68 10000 1.54 60 21:55 27.03.2022
4581 Clouds 13 1009 68 10000 1.54 60 21:37 27.03.2022
4582 Clouds 13 1010 64 10000 2.06 80 20:42 27.03.2022
4583 Clouds 14 1010 62 10000 3.6 130 19:44 27.03.2022
4584 Clouds 14 1010 61 10000 3.09 110 18:47 27.03.2022
4585 Clouds 14 1010 61 10000 3.09 110 18:47 27.03.2022
4586 Clouds 14 1010 62 10000 3.09 110 18:25 27.03.2022
4587 Clouds 14 1010 61 10000 3.6 120 17:37 27.03.2022
4588 Clouds 13 1023 64 10000 3.6 70 15:57 27.03.2022
4589 Clouds 12 1024 69 10000 2.57 120 14:22 27.03.2022
4590 Clouds 12 1024 69 10000 2.06 120 13:33 27.03.2022
4591 Clouds 11 1024 75 10000 2.57 80 11:41 27.03.2022
4592 Clouds 10 1023 80 10000 2.57 60 10:23 27.03.2022
4593 Clouds 9 1009 88 10000 2.68 23 07:55 27.03.2022
4594 Clouds 9 1007 88 10000 2.06 350 05:18 27.03.2022
4595 Clouds 10 1022 86 10000 2.06 150 00:30 27.03.2022
4596 Clouds 10 1006 81 10000 1.79 91 22:53 26.03.2022
4597 Clouds 10 1006 81 10000 1.79 68 22:25 26.03.2022
4598 Clouds 11 1005 82 10000 3.09 320 21:31 26.03.2022
4599 Clouds 11 1019 75 10000 2.57 80 19:45 26.03.2022
4600 Clouds 12 1018 71 10000 2.06 20 18:44 26.03.2022
4601 Clouds 13 1018 70 10000 2.06 330 17:44 26.03.2022
4602 Clouds 12 1018 70 10000 2.57 50 16:47 26.03.2022
4603 Clouds 12 1018 71 10000 1.03 0 15:43 26.03.2022
4604 Clouds 12 1006 77 10000 2.06 340 14:18 26.03.2022
4605 Clouds 11 1006 77 10000 2.06 340 13:47 26.03.2022
4606 Clouds 10 1006 83 10000 3.09 30 12:36 26.03.2022
4607 Clouds 9 1006 87 10000 5.14 30 10:56 26.03.2022
4608 Drizzle 8 1005 84 10000 4.63 30 09:21 26.03.2022
4609 Drizzle 8 1004 81 10000 3.6 30 07:36 26.03.2022
4610 Clouds 8 1002 81 10000 3.58 48 05:52 26.03.2022
4611 Clouds 8 1003 82 10000 4.47 68 03:22 26.03.2022
4612 Clouds 9 1003 93 6000 4.02 45 22:50 25.03.2022
4613 Clouds 10 1018 92 8000 2.57 50 20:58 25.03.2022
4614 Clouds 10 1018 91 8000 2.68 23 20:37 25.03.2022
4615 Clouds 11 1017 86 8000 4.47 113 19:20 25.03.2022
4616 Clouds 11 1017 82 8000 5.66 60 18:37 25.03.2022
4617 Clouds 12 1016 81 6000 4.63 20 17:34 25.03.2022
4618 Clouds 12 1016 78 10000 4.47 23 16:38 25.03.2022
4619 Drizzle 12 1016 79 10000 5.66 40 15:46 25.03.2022
4620 Clouds 12 1005 79 10000 4.12 40 13:32 25.03.2022
4621 Clouds 12 1006 81 10000 5.66 50 11:38 25.03.2022
4622 Clouds 10 1006 86 10000 5.14 40 09:43 25.03.2022
4623 Clouds 10 1005 87 10000 5.66 40 08:59 25.03.2022
4624 Clouds 9 1005 88 10000 4.63 50 07:47 25.03.2022
4625 Clouds 9 1005 88 10000 4.63 50 07:19 25.03.2022
4626 Clouds 9 1004 92 10000 2.24 0 03:45 25.03.2022
4627 Drizzle 10 1005 93 10000 2.06 50 23:54 24.03.2022
4628 Clouds 10 1020 90 10000 1.79 76 22:24 24.03.2022
4629 Clouds 10 1005 92 10000 2.24 67 21:24 24.03.2022
4630 Clouds 11 1006 88 7000 4.12 110 19:50 24.03.2022
4631 Clouds 12 1019 86 7000 2.57 110 18:45 24.03.2022
4632 Clouds 12 1018 85 8000 4.12 40 17:36 24.03.2022
4633 Clouds 11 1018 87 7000 3.09 30 16:39 24.03.2022
4634 Clouds 11 1019 85 9000 4.63 40 14:53 24.03.2022
4635 Clouds 11 1019 83 8000 4.63 50 14:32 24.03.2022
4636 Clouds 11 1019 81 8000 5.66 50 13:36 24.03.2022
4637 Clouds 10 1007 85 8000 6.69 50 12:29 24.03.2022
4638 Clouds 8 1007 88 7000 6.69 30 11:27 24.03.2022
4639 Clouds 8 1007 81 10000 5.14 40 09:28 24.03.2022
4640 Clouds 8 1006 80 10000 7.2 40 08:38 24.03.2022
4641 Clouds 8 1004 79 10000 4.02 57 05:36 24.03.2022
4642 Clouds 8 1006 78 10000 4.47 68 00:47 24.03.2022
4643 Clouds 9 1006 86 10000 2.68 38 22:23 23.03.2022
4644 Clouds 9 1006 83 10000 2.68 90 21:24 23.03.2022
4645 Clouds 9 1005 80 10000 4.63 110 20:44 23.03.2022
4646 Clouds 10 1007 78 10000 5.14 110 19:33 23.03.2022
4647 Clouds 11 1019 73 10000 3.6 130 18:18 23.03.2022
4648 Drizzle 11 1006 75 10000 4.63 160 17:26 23.03.2022
4649 Clouds 12 1006 65 10000 4.63 170 15:56 23.03.2022
4650 Clouds 12 1007 62 10000 3.6 140 14:48 23.03.2022
4651 Clouds 11 1021 64 10000 4.63 100 13:34 23.03.2022
4652 Clouds 11 1021 64 10000 4.63 100 13:34 23.03.2022
4653 Clouds 10 1021 73 10000 5.14 50 11:38 23.03.2022
4654 Clouds 7 1008 81 10000 6.17 50 08:49 23.03.2022
4655 Clouds 7 1006 84 10000 2.68 82 06:25 23.03.2022
4656 Clouds 7 1007 88 10000 2.06 70 03:44 23.03.2022
4657 Drizzle 8 1023 81 10000 5.66 90 00:27 23.03.2022
4658 Clouds 9 1023 74 10000 5.66 100 21:53 22.03.2022
4659 Clouds 9 1023 75 10000 7.2 90 21:23 22.03.2022
4660 Drizzle 9 1022 75 10000 5.14 100 20:29 22.03.2022
4661 Clouds 10 1022 73 10000 6.17 110 19:27 22.03.2022
4662 Clouds 10 1022 73 10000 7.2 120 18:49 22.03.2022
4663 Clouds 11 1021 73 10000 8.23 130 17:44 22.03.2022
4664 Drizzle 11 1021 74 10000 9.26 130 16:58 22.03.2022
4665 Clouds 11 1008 82 10000 7.72 140 15:48 22.03.2022
4666 Clouds 11 1008 84 10000 6.17 130 15:21 22.03.2022
4667 Clouds 11 1009 82 10000 8.75 140 14:45 22.03.2022
4668 Clouds 12 1009 79 10000 7.72 140 13:52 22.03.2022
4669 Clouds 11 1009 83 10000 7.2 150 12:34 22.03.2022
4670 Clouds 10 1009 82 10000 6.69 130 11:24 22.03.2022
4671 Clouds 9 1007 88 10000 5.14 140 09:42 22.03.2022
4672 Clouds 8 1008 90 10000 4.63 160 07:35 22.03.2022
4673 Clouds 8 1005 91 10000 3.6 110 04:29 22.03.2022
4674 Clouds 9 1006 87 9000 3.6 100 01:27 22.03.2022
4675 Clouds 9 1006 86 10000 3.09 100 23:19 21.03.2022
4676 Clouds 10 1005 87 10000 4.92 90 21:39 21.03.2022
4677 Clouds 10 1005 90 10000 3.09 90 20:44 21.03.2022
4678 Clouds 10 1005 90 8000 3.09 70 20:23 21.03.2022
4679 Clouds 10 1006 89 2000 2.06 170 19:47 21.03.2022
4680 Clouds 10 1006 93 9000 3.6 90 18:59 21.03.2022
4681 Rain 12 1006 82 8000 8.23 120 17:36 21.03.2022
4682 Clouds 13 1005 78 10000 6.17 140 16:59 21.03.2022
4683 Clouds 13 1018 74 10000 5.36 116 16:35 21.03.2022
4684 Clouds 13 1019 67 10000 4.12 130 15:44 21.03.2022
4685 Clouds 13 1019 69 10000 4.12 140 14:45 21.03.2022
4686 Clouds 11 1007 86 10000 5.81 138 13:27 21.03.2022
4687 Clouds 10 1020 88 10000 3.6 140 12:22 21.03.2022
4688 Clouds 9 1007 95 3500 2.24 113 11:34 21.03.2022
4689 Clouds 8 1007 95 4000 2.57 360 09:53 21.03.2022
4690 Clouds 8 1007 92 5000 3.6 250 07:53 21.03.2022
4691 Drizzle 9 1005 91 10000 4.12 120 06:31 21.03.2022
4692 Clouds 11 1006 77 10000 5.66 100 02:24 21.03.2022
4693 Clouds 11 1006 73 10000 4.63 90 23:26 20.03.2022
4694 Clouds 11 1006 72 10000 4.12 80 22:36 20.03.2022
4695 Clouds 11 1005 71 10000 6.17 90 21:44 20.03.2022
4696 Clouds 12 1005 70 10000 5.66 90 20:58 20.03.2022
4697 Clouds 12 1005 67 10000 6.17 90 20:36 20.03.2022
4698 Clouds 12 1006 64 10000 7.2 110 19:55 20.03.2022
4699 Clouds 13 1006 64 10000 7.2 110 19:25 20.03.2022
4700 Clouds 13 1019 57 10000 8.75 120 17:50 20.03.2022
4701 Clouds 13 1019 57 10000 8.75 120 17:28 20.03.2022
4702 Clouds 13 1006 60 10000 7.2 120 16:40 20.03.2022
4703 Clouds 13 1007 64 10000 7.2 110 14:53 20.03.2022
4704 Clouds 12 1008 66 10000 7.72 120 13:39 20.03.2022
4705 Clouds 11 1022 69 10000 7.2 110 12:21 20.03.2022
4706 Clouds 11 1010 72 10000 5.14 70 10:38 20.03.2022
4707 Clouds 9 1009 76 10000 2.57 60 08:35 20.03.2022
4708 Clouds 9 1007 75 10000 2.24 99 06:40 20.03.2022
4709 Clouds 9 1008 74 10000 3.09 100 03:27 20.03.2022
4710 Clouds 10 1024 75 10000 3.09 110 00:54 20.03.2022
4711 Clouds 10 1024 75 10000 3.09 110 00:54 20.03.2022
4712 Clouds 10 1024 74 10000 3.09 110 00:35 20.03.2022
4713 Clouds 10 1024 74 10000 3.6 150 22:42 19.03.2022
4714 Clouds 11 1008 68 10000 2.06 120 21:27 19.03.2022
4715 Clouds 12 1010 63 10000 1.03 0 19:42 19.03.2022
4716 Clouds 13 1010 62 10000 1.54 240 18:44 19.03.2022
4717 Clouds 13 1010 60 10000 2.57 220 17:55 19.03.2022
4718 Clouds 13 1010 58 10000 2.06 160 17:33 19.03.2022
4719 Clouds 13 1023 56 10000 3.6 150 15:41 19.03.2022
4720 Clouds 13 1024 59 10000 2.68 185 14:21 19.03.2022
4721 Clouds 12 1025 64 10000 1.34 113 12:56 19.03.2022
4722 Clouds 12 1025 65 10000 2.06 80 12:37 19.03.2022
4723 Clouds 11 1025 66 10000 3.09 90 11:47 19.03.2022
4724 Clouds 10 1025 68 10000 4.12 40 10:41 19.03.2022
4725 Clouds 8 1009 82 10000 1.54 360 05:59 19.03.2022
4726 Clear 8 1010 78 10000 2.57 340 02:48 19.03.2022
4727 Clouds 9 1010 75 10000 1.54 50 01:32 19.03.2022
4728 Clouds 10 1010 71 10000 2.24 80 23:22 18.03.2022
4729 Clouds 11 1010 69 10000 1.79 75 22:23 18.03.2022
4730 Clear 11 1010 65 10000 1.54 40 20:48 18.03.2022
4731 Clouds 12 1011 61 10000 3.09 40 19:49 18.03.2022
4732 Clouds 13 1011 60 10000 3.09 40 19:19 18.03.2022
4733 Clouds 14 1024 55 10000 3.09 100 17:27 18.03.2022
4734 Clouds 14 1024 55 10000 3.6 80 16:45 18.03.2022
4735 Clouds 13 1012 65 10000 3.6 60 14:37 18.03.2022
4736 Clouds 13 1012 66 10000 3.6 60 14:18 18.03.2022
4737 Clouds 12 1012 69 10000 5.14 50 12:23 18.03.2022
4738 Clouds 10 1012 71 10000 6.69 40 10:39 18.03.2022
4739 Clouds 8 1012 72 10000 6.17 40 09:23 18.03.2022
4740 Clear 7 1011 75 10000 5.14 30 07:45 18.03.2022
4741 Clear 7 1009 76 10000 3.13 47 06:34 18.03.2022
4742 Clouds 8 1009 70 10000 3.6 50 02:51 18.03.2022
4743 Clear 9 1009 66 10000 3.13 84 00:22 18.03.2022
4744 Clear 9 1009 64 10000 3.6 40 23:20 17.03.2022
4745 Clear 10 1009 62 10000 4.02 65 22:23 17.03.2022
4746 Clear 10 1009 60 10000 4.47 61 21:48 17.03.2022
4747 Clouds 10 1009 61 10000 3.6 40 21:20 17.03.2022
4748 Clouds 11 1008 60 10000 4.47 73 20:41 17.03.2022
4749 Clouds 11 1009 61 10000 7.72 50 19:45 17.03.2022
4750 Clouds 12 1009 59 10000 6.69 50 18:57 17.03.2022
4751 Clouds 12 1009 58 10000 6.69 60 18:37 17.03.2022
4752 Clouds 13 1009 57 8000 9.26 50 16:48 17.03.2022
4753 Drizzle 12 1022 58 8000 8.75 40 15:44 17.03.2022
4754 Drizzle 12 1022 60 8000 9.77 30 15:23 17.03.2022
4755 Drizzle 12 1010 63 8000 10.8 40 13:50 17.03.2022
4756 Drizzle 12 1010 66 7000 8.75 50 12:51 17.03.2022
4757 Drizzle 11 1009 68 7000 7.72 50 12:22 17.03.2022
4758 Drizzle 11 1009 65 7000 8.23 50 11:27 17.03.2022
4759 Drizzle 10 1008 68 7000 9.26 40 09:57 17.03.2022
4760 Drizzle 10 1007 69 10000 11.32 30 08:34 17.03.2022
4761 Drizzle 10 1007 69 10000 11.32 30 08:34 17.03.2022
4762 Drizzle 10 1006 67 10000 10.29 40 07:33 17.03.2022
4763 Clouds 11 1004 70 10000 4.92 68 05:47 17.03.2022
4764 Clear 12 1003 74 10000 6.17 50 00:46 17.03.2022
4765 Clouds 12 1003 73 10000 4.63 30 23:45 16.03.2022
4766 Clear 12 1003 71 10000 4.63 30 22:45 16.03.2022
4767 Clear 12 1002 73 10000 5.66 20 22:21 16.03.2022
4768 Clear 12 1002 74 10000 4.92 44 21:37 16.03.2022
4769 Haze 13 1002 70 5000 2.68 63 19:41 16.03.2022
4770 Haze 13 1002 70 4000 2.68 71 19:20 16.03.2022
4771 Haze 14 999 66 4000 1.79 40 18:36 16.03.2022
4772 Haze 15 999 59 4000 1.34 62 17:41 16.03.2022
4773 Haze 16 995 54 4000 1.54 50 16:56 16.03.2022
4774 Haze 16 1015 52 4000 2.57 90 15:55 16.03.2022
4775 Haze 15 991 55 4000 2.57 70 14:25 16.03.2022
4776 Haze 15 991 56 4000 3.6 50 13:27 16.03.2022
4777 Haze 14 1001 57 5000 3.13 45 11:56 16.03.2022
4778 Haze 13 1003 62 5000 3.13 57 11:20 16.03.2022
4779 Haze 13 1003 59 4000 2.24 34 10:23 16.03.2022
4780 Haze 12 1003 62 3000 3.09 330 08:52 16.03.2022
4781 Clouds 12 1001 67 7000 2.68 76 05:58 16.03.2022
4782 Haze 14 1002 59 6000 2.24 66 01:35 16.03.2022
4783 Haze 15 1002 57 6000 1.54 60 22:38 15.03.2022
4784 Haze 15 1017 56 6000 1.54 120 21:55 15.03.2022
4785 Haze 16 1016 51 5000 2.68 91 20:28 15.03.2022
4786 Haze 16 1003 56 3300 3.13 76 18:57 15.03.2022
4787 Haze 17 1002 54 4500 3.6 40 16:57 15.03.2022
4788 Haze 17 1002 59 4500 3.09 70 16:28 15.03.2022
4789 Haze 16 1003 61 4500 5.14 50 14:58 15.03.2022
4790 Haze 15 1000 65 4500 4.12 50 14:39 15.03.2022
4791 Haze 15 992 66 4800 4.12 50 13:38 15.03.2022
4792 Haze 14 1004 66 4500 4.12 30 12:24 15.03.2022
4793 Haze 13 1017 66 4000 4.02 23 11:31 15.03.2022
4794 Haze 13 1003 65 3500 5.14 60 09:45 15.03.2022
4795 Haze 13 1015 66 3400 3.09 80 08:42 15.03.2022
4796 Haze 13 1014 69 3000 2.57 330 07:51 15.03.2022
4797 Haze 13 1014 61 3000 4.12 60 07:28 15.03.2022
4798 Haze 12 1012 79 3700 2.57 30 03:30 15.03.2022
4799 Clouds 11 1013 81 6000 2.68 21 23:44 14.03.2022
4800 Mist 11 1013 80 8000 2.68 45 23:23 14.03.2022
4801 Haze 12 998 81 9000 2.06 20 22:26 14.03.2022
4802 Haze 12 997 80 10000 2.06 300 21:30 14.03.2022
4803 Haze 12 1012 77 7000 3.09 170 20:41 14.03.2022
4804 Clouds 13 1010 73 10000 7.2 130 20:19 14.03.2022
4805 Clouds 13 1008 71 10000 7.72 110 18:42 14.03.2022
4806 Clouds 13 994 72 10000 9.26 110 17:54 14.03.2022
4807 Clouds 12 994 81 10000 9.77 110 16:58 14.03.2022
4808 Clouds 9 1007 89 10000 5.14 30 15:43 14.03.2022
4809 Clouds 8 984 92 9000 6.17 30 14:40 14.03.2022
4810 Clouds 6 996 90 9000 9.26 30 12:22 14.03.2022
4811 Clouds 6 997 92 6000 7.15 45 10:54 14.03.2022
4812 Clouds 6 1011 90 6000 7.72 40 09:44 14.03.2022
4813 Clouds 6 998 90 6000 7.72 40 09:22 14.03.2022
4814 Rain 6 1012 86 7000 5.66 60 08:55 14.03.2022
4815 Clouds 8 1012 69 10000 7.2 100 07:32 14.03.2022
4816 Clouds 9 997 74 10000 2.57 60 05:45 14.03.2022
4817 Clear 8 999 69 10000 3.13 69 01:55 14.03.2022
4818 Clear 9 999 68 10000 2.68 60 01:24 14.03.2022
4819 Clouds 10 1000 61 10000 2.57 100 22:44 13.03.2022
4820 Clouds 11 1000 60 10000 2.57 90 21:31 13.03.2022
4821 Clouds 11 1000 59 10000 2.06 90 20:56 13.03.2022
4822 Clouds 11 1000 59 10000 1.03 110 20:30 13.03.2022
4823 Clouds 11 1001 58 10000 1.54 160 19:49 13.03.2022
4824 Clouds 12 1001 56 10000 2.57 160 19:28 13.03.2022
4825 Clouds 12 1014 50 10000 3.09 180 18:59 13.03.2022
4826 Clouds 12 1014 49 10000 4.12 190 18:35 13.03.2022
4827 Clouds 13 1014 48 10000 4.12 180 17:41 13.03.2022
4828 Clouds 13 1014 48 10000 4.47 208 17:19 13.03.2022
4829 Clouds 13 1014 47 10000 4.63 220 16:30 13.03.2022
4830 Clouds 13 1014 44 10000 4.63 220 15:47 13.03.2022
4831 Clouds 13 1015 41 10000 4.12 230 14:56 13.03.2022
4832 Clouds 12 1015 43 10000 2.57 270 13:43 13.03.2022
4833 Clouds 11 1015 49 10000 4.63 290 12:38 13.03.2022
4834 Clear 10 1016 55 10000 5.66 290 11:51 13.03.2022
4835 Clear 10 1016 56 10000 5.66 290 11:31 13.03.2022
4836 Clear 10 1016 56 10000 5.66 290 11:31 13.03.2022
4837 Clear 9 1016 65 10000 5.14 270 10:46 13.03.2022
4838 Clear 8 1015 71 10000 4.63 250 09:59 13.03.2022
4839 Clear 7 1015 76 10000 5.14 270 09:40 13.03.2022
4840 Clear 6 1001 83 10000 3.6 260 08:45 13.03.2022
4841 Clear 6 1001 86 10000 5.14 270 07:41 13.03.2022
4842 Clouds 7 997 88 10000 3.58 248 05:40 13.03.2022
4843 Drizzle 8 997 93 8000 4.12 180 02:39 13.03.2022
4844 Clouds 9 998 82 10000 2.57 190 23:33 12.03.2022
4845 Clouds 9 999 78 10000 3.6 190 21:53 12.03.2022
4846 Clouds 10 999 74 10000 4.63 220 20:34 12.03.2022
4847 Drizzle 10 1001 72 10000 6.69 240 19:47 12.03.2022
4848 Clouds 11 999 67 10000 6.69 240 18:58 12.03.2022
4849 Clouds 11 1001 65 10000 8.23 230 18:22 12.03.2022
4850 Clouds 12 1001 59 10000 9.26 230 17:23 12.03.2022
4851 Clouds 12 1002 60 10000 8.75 250 16:23 12.03.2022
4852 Clouds 12 1002 60 10000 8.23 240 15:22 12.03.2022
4853 Clouds 12 1015 56 10000 7.72 240 14:28 12.03.2022
4854 Clouds 9 1017 74 10000 6.17 250 12:45 12.03.2022
4855 Clouds 8 1004 79 10000 4.12 250 11:56 12.03.2022
4856 Clouds 8 1017 79 10000 5.66 240 11:35 12.03.2022
4857 Clouds 7 1017 81 10000 4.12 220 10:52 12.03.2022
4858 Fog 6 1017 81 10000 3.13 216 09:45 12.03.2022
4859 Fog 5 1004 80 10000 3.13 270 08:55 12.03.2022
4860 Fog 5 1003 79 10000 4.12 270 07:20 12.03.2022
4861 Clear 7 1001 86 10000 5.14 260 02:36 12.03.2022
4862 Drizzle 8 1000 90 10000 5.66 250 23:56 11.03.2022
4863 Drizzle 8 1000 90 10000 5.66 250 23:56 11.03.2022
4864 Drizzle 8 1000 90 10000 4.63 240 22:56 11.03.2022
4865 Clouds 8 1000 91 9000 4.12 230 21:35 11.03.2022
4866 Clouds 8 999 91 9000 4.63 240 20:54 11.03.2022
4867 Clouds 8 999 88 7000 6.69 240 20:29 11.03.2022
4868 Clouds 9 1001 85 7000 5.66 250 19:42 11.03.2022
4869 Drizzle 10 1000 85 10000 5.14 240 19:20 11.03.2022
4870 Clouds 11 1000 81 8000 7.2 250 17:29 11.03.2022
4871 Clouds 12 1000 72 10000 8.75 240 16:27 11.03.2022
4872 Clouds 12 1013 72 10000 8.75 240 15:53 11.03.2022
4873 Clouds 11 1000 85 10000 6.17 210 14:19 11.03.2022
4874 Clouds 10 1001 94 10000 4.63 200 12:44 11.03.2022
4875 Clouds 9 1001 94 10000 4.63 200 12:21 11.03.2022
4876 Drizzle 9 1001 95 3000 4.12 200 11:51 11.03.2022
4877 Clouds 8 1001 90 2500 4.02 198 09:40 11.03.2022
4878 Clouds 8 1001 85 10000 4.02 203 08:47 11.03.2022
4879 Clouds 8 1000 84 10000 5.66 220 08:20 11.03.2022
4880 Clouds 9 1001 81 10000 3.58 225 07:40 11.03.2022
4881 Clouds 9 999 77 10000 3.58 196 05:44 11.03.2022
4882 Clouds 9 1000 77 10000 3.13 206 03:41 11.03.2022
4883 Clear 10 1002 75 10000 2.68 198 23:31 10.03.2022
4884 Clear 11 1002 74 10000 2.57 150 22:29 10.03.2022
4885 Clear 11 1002 68 10000 2.57 180 21:27 10.03.2022
4886 Clear 12 1003 64 10000 2.57 200 20:49 10.03.2022
4887 Clouds 13 1005 58 10000 5.14 220 19:23 10.03.2022
4888 Clouds 14 1017 52 10000 5.66 210 18:40 10.03.2022
4889 Clouds 15 1005 53 10000 6.69 210 16:54 10.03.2022
4890 Clouds 15 1006 55 10000 6.69 230 15:49 10.03.2022
4891 Clouds 14 1007 60 10000 4.12 260 14:24 10.03.2022
4892 Clouds 12 1021 70 10000 1.54 190 12:50 10.03.2022
4893 Clouds 11 1004 75 10000 2.06 110 11:42 10.03.2022
4894 Clouds 8 1008 85 10000 2.57 130 10:24 10.03.2022
4895 Clouds 8 1008 81 10000 1.54 90 08:49 10.03.2022
4896 Clouds 8 1005 81 10000 1.54 100 06:36 10.03.2022
4897 Clouds 9 1005 75 10000 3.58 206 03:42 10.03.2022
4898 Clear 10 1006 71 10000 0.89 85 00:51 10.03.2022
4899 Clouds 11 1006 70 10000 1.54 350 22:46 09.03.2022
4900 Clouds 11 1005 69 10000 1.54 10 21:48 09.03.2022
4901 Clouds 11 1006 68 10000 1.54 10 21:23 09.03.2022
4902 Clouds 12 1007 61 10000 1.54 90 19:40 09.03.2022
4903 Clouds 13 1007 58 10000 1.03 0 18:19 09.03.2022
4904 Clouds 13 1007 58 10000 2.06 230 17:26 09.03.2022
4905 Clouds 13 1007 58 10000 3.09 220 16:24 09.03.2022
4906 Clouds 12 1021 59 10000 3.6 210 14:32 09.03.2022
4907 Clouds 12 1021 61 10000 4.12 190 13:52 09.03.2022
4908 Clouds 10 1022 67 10000 3.13 186 12:36 09.03.2022
4909 Clouds 9 1022 72 10000 2.24 203 11:48 09.03.2022
4910 Clouds 8 1022 74 10000 1.54 90 11:18 09.03.2022
4911 Clouds 6 1022 83 10000 2.24 135 09:41 09.03.2022
4912 Clouds 5 1006 87 10000 0.51 0 08:47 09.03.2022
4913 Clouds 4 1005 87 10000 1.79 222 06:27 09.03.2022
4914 Clear 6 1006 81 10000 2.06 150 01:53 09.03.2022
4915 Clear 6 1020 79 10000 3.6 230 00:26 09.03.2022
4916 Clouds 8 1020 72 10000 2.57 230 22:46 08.03.2022
4917 Clouds 8 1020 72 10000 3.6 230 21:52 08.03.2022
4918 Clouds 9 1005 70 10000 3.6 230 21:22 08.03.2022
4919 Clouds 10 1004 66 10000 3.6 240 20:24 08.03.2022
4920 Clouds 11 1006 62 10000 5.14 230 19:24 08.03.2022
4921 Clouds 12 1018 57 10000 5.66 240 18:23 08.03.2022
4922 Clouds 12 1005 57 10000 5.66 250 16:56 08.03.2022
4923 Clouds 12 1005 60 10000 4.63 210 14:58 08.03.2022
4924 Clouds 10 1005 67 10000 5.14 230 13:48 08.03.2022
4925 Clouds 9 1005 71 10000 6.17 220 12:28 08.03.2022
4926 Clouds 9 1017 71 10000 6.17 230 11:43 08.03.2022
4927 Clouds 7 1017 72 10000 7.2 240 10:29 08.03.2022
4928 Clouds 6 1016 72 10000 4.63 230 08:57 08.03.2022
4929 Clouds 6 1016 72 10000 4.63 230 08:57 08.03.2022
4930 Clear 6 1014 75 10000 3.13 203 06:31 08.03.2022
4931 Clear 6 999 88 10000 3.13 190 03:48 08.03.2022
4932 Clear 8 999 82 10000 5.14 160 22:53 07.03.2022
4933 Clouds 8 1013 79 10000 4.63 130 21:45 07.03.2022
4934 Clear 8 998 79 10000 4.12 130 21:23 07.03.2022
4935 Clouds 9 998 78 10000 4.02 113 20:38 07.03.2022
4936 Clouds 9 1000 76 10000 4.12 150 19:50 07.03.2022
4937 Clouds 9 999 78 10000 4.12 150 19:24 07.03.2022
4938 Clouds 9 1012 73 10000 4.12 170 18:33 07.03.2022
4939 Clouds 10 1011 69 10000 3.6 140 17:31 07.03.2022
4940 Clouds 9 1012 78 10000 4.63 220 16:54 07.03.2022
4941 Clouds 10 1012 62 10000 2.57 210 14:57 07.03.2022
4942 Clouds 6 1014 89 10000 2.06 340 12:35 07.03.2022
4943 Clouds 6 1001 93 10000 2.06 360 11:36 07.03.2022
4944 Clouds 5 1001 94 9000 2.57 360 10:34 07.03.2022
4945 Clouds 5 1000 94 5000 3.09 10 08:35 07.03.2022
4946 Clouds 6 1000 88 10000 2.06 20 02:56 07.03.2022
4947 Clouds 8 1000 79 9000 3.09 180 00:21 07.03.2022
4948 Clouds 8 1000 78 10000 2.06 110 23:28 06.03.2022
4949 Clouds 8 999 76 10000 3.09 120 22:30 06.03.2022
4950 Clouds 8 999 72 10000 3.09 140 21:45 06.03.2022
4951 Clouds 10 999 59 10000 2.06 120 20:29 06.03.2022
4952 Clouds 10 1001 57 10000 2.57 130 19:48 06.03.2022
4953 Clouds 10 1000 53 10000 2.06 120 18:51 06.03.2022
4954 Clouds 11 1001 50 10000 2.06 80 17:49 06.03.2022
4955 Clouds 11 1001 50 10000 2.06 80 17:20 06.03.2022
4956 Clouds 11 1001 49 10000 2.57 90 16:40 06.03.2022
4957 Clouds 11 1013 50 10000 3.09 0 15:37 06.03.2022
4958 Clouds 11 1013 52 10000 3.09 120 14:48 06.03.2022
4959 Clouds 11 1013 49 10000 3.6 100 14:26 06.03.2022
4960 Clear 9 1014 52 10000 4.63 50 12:43 06.03.2022
4961 Clear 9 1014 55 10000 5.14 40 11:56 06.03.2022
4962 Clear 7 1014 61 10000 6.69 40 10:43 06.03.2022
4963 Clear 5 1014 68 10000 5.14 40 09:25 06.03.2022
4964 Clouds 4 1001 72 10000 5.14 30 08:28 06.03.2022
4965 Clouds 4 1001 73 10000 3.6 30 07:33 06.03.2022
4966 Clouds 4 999 70 10000 4.02 67 03:58 06.03.2022
4967 Clouds 7 1015 59 10000 3.58 62 00:42 06.03.2022
4968 Clouds 7 1000 60 10000 3.13 73 00:23 06.03.2022
4969 Clouds 8 1003 54 10000 2.68 79 23:19 05.03.2022
4970 Clouds 8 1015 51 10000 1.79 63 22:38 05.03.2022
4971 Clear 8 1002 48 10000 1.79 23 21:31 05.03.2022
4972 Clouds 9 1002 48 10000 1.54 90 20:57 05.03.2022
4973 Clouds 10 1003 43 10000 2.68 315 19:23 05.03.2022
4974 Clouds 11 1003 40 10000 1.34 110 18:50 05.03.2022
4975 Clouds 11 1001 40 10000 1.54 140 17:39 05.03.2022
4976 Clouds 11 1014 38 10000 2.68 124 16:20 05.03.2022
4977 Clouds 11 1004 39 10000 2.24 270 15:30 05.03.2022
4978 Clouds 11 1016 41 10000 2.06 80 14:37 05.03.2022
4979 Clouds 10 1017 46 10000 2.24 270 13:46 05.03.2022
4980 Clouds 10 1017 48 10000 2.06 0 12:55 05.03.2022
4981 Clear 8 1018 57 10000 2.06 100 11:39 05.03.2022
4982 Clouds 7 1018 60 10000 2.06 80 11:18 05.03.2022
4983 Clouds 5 1018 67 10000 2.06 50 09:40 05.03.2022
4984 Clouds 4 1018 72 10000 1.79 73 08:49 05.03.2022
4985 Clouds 3 1005 78 10000 2.06 40 07:23 05.03.2022
4986 Clear 3 1003 77 10000 2.24 57 05:41 05.03.2022
4987 Clouds 7 1005 68 10000 2.68 69 01:25 05.03.2022
4988 Clouds 8 1005 61 10000 3.09 60 23:30 04.03.2022
4989 Clouds 8 1005 59 10000 5.14 10 22:40 04.03.2022
4990 Clouds 9 1005 60 10000 5.66 10 21:45 04.03.2022
4991 Clouds 9 1019 55 10000 4.63 360 20:49 04.03.2022
4992 Clouds 10 1005 55 10000 4.63 360 20:18 04.03.2022
4993 Clouds 10 1019 52 10000 4.63 320 19:35 04.03.2022
4994 Clouds 11 1006 49 10000 5.66 320 18:36 04.03.2022
4995 Clouds 12 1006 50 10000 4.63 290 17:30 04.03.2022
4996 Clouds 12 1018 48 10000 3.09 310 16:36 04.03.2022
4997 Clouds 12 1018 47 10000 3.6 30 15:28 04.03.2022
4998 Clouds 12 1019 50 10000 4.63 40 13:53 04.03.2022
4999 Clouds 11 1019 51 10000 5.66 360 12:54 04.03.2022
5000 Clear 9 1019 58 10000 5.14 20 11:38 04.03.2022
5001 Clear 8 1006 61 10000 5.66 20 10:42 04.03.2022
5002 Clouds 7 1004 65 10000 6.17 30 09:28 04.03.2022
5003 Clear 6 1003 66 10000 7.72 30 08:31 04.03.2022
5004 Clouds 7 1002 65 10000 7.2 30 06:59 04.03.2022
5005 Clouds 7 999 73 10000 6.69 10 03:28 04.03.2022
5006 Clouds 7 999 89 10000 4.63 360 00:22 04.03.2022
5007 Clouds 8 998 93 9000 2.57 350 22:21 03.03.2022
5008 Clouds 8 997 94 10000 2.06 300 21:39 03.03.2022
5009 Clouds 8 997 94 10000 2.06 360 20:59 03.03.2022
5010 Clouds 8 999 94 9000 3.09 270 19:48 03.03.2022
5011 Clouds 8 999 94 7000 0.45 293 18:49 03.03.2022
5012 Rain 8 999 94 9000 4.63 260 18:22 03.03.2022
5013 Clouds 8 1000 93 9000 3.6 270 17:27 03.03.2022
5014 Clouds 8 1013 94 10000 2.57 240 15:48 03.03.2022
5015 Clouds 8 1002 93 4000 2.06 190 14:59 03.03.2022
5016 Clouds 8 1002 91 1500 1.54 180 14:33 03.03.2022
5017 Rain 8 1016 85 8000 2.57 230 13:18 03.03.2022
5018 Rain 9 1017 68 6000 1.34 214 11:45 03.03.2022
5019 Clear 9 1018 67 10000 1.54 90 10:40 03.03.2022
5020 Clear 7 1005 74 10000 0.89 58 08:45 03.03.2022
5021 Clear 6 1005 77 10000 0.89 90 07:25 03.03.2022
5022 Clear 7 1004 76 10000 2.06 260 06:34 03.03.2022
5023 Clear 9 1021 66 10000 1.79 304 01:45 03.03.2022
5024 Clear 11 1007 63 10000 3.6 320 23:29 02.03.2022
5025 Clear 12 1007 58 10000 2.57 320 22:50 02.03.2022
5026 Clear 12 1007 58 10000 2.57 320 22:50 02.03.2022
5027 Clear 12 1007 57 10000 4.63 280 21:29 02.03.2022
5028 Clear 12 1021 55 10000 5.14 280 20:44 02.03.2022
5029 Clouds 13 1007 52 10000 3.6 280 20:22 02.03.2022
5030 Clouds 13 1008 50 10000 3.6 330 19:34 02.03.2022
5031 Clouds 15 1008 47 10000 5.14 310 18:44 02.03.2022
5032 Clouds 15 1021 45 10000 5.14 330 17:59 02.03.2022
5033 Clouds 15 1008 47 10000 8.75 290 17:23 02.03.2022
5034 Clouds 16 1008 47 10000 7.2 260 16:45 02.03.2022
5035 Clouds 16 1008 46 10000 8.75 290 16:45 02.03.2022
5036 Clouds 15 1021 50 10000 6.17 230 14:45 02.03.2022
5037 Clouds 14 1022 50 10000 6.17 270 13:24 02.03.2022
5038 Clouds 14 1010 51 10000 6.71 270 12:43 02.03.2022
5039 Clouds 13 1010 57 10000 5.14 270 11:47 02.03.2022
5040 Clouds 13 1023 57 10000 5.14 270 11:24 02.03.2022
5041 Clouds 10 1010 81 10000 3.6 260 09:46 02.03.2022
5042 Clouds 9 1010 84 10000 3.6 260 08:59 02.03.2022
5043 Clear 8 1009 83 10000 4.12 250 07:39 02.03.2022
5044 Clear 8 1007 82 10000 3.09 240 06:54 02.03.2022
5045 Clear 11 1008 72 10000 2.57 210 02:54 02.03.2022
5046 Clear 12 1009 65 10000 4.12 230 00:29 02.03.2022
5047 Clear 13 1009 59 10000 3.09 200 22:50 01.03.2022
5048 Clear 13 1009 57 10000 2.57 200 22:31 01.03.2022
5049 Clouds 13 1024 52 10000 2.57 240 21:25 01.03.2022
5050 Clouds 14 1024 45 10000 3.09 220 20:32 01.03.2022
5051 Clouds 15 1023 42 10000 4.12 210 19:45 01.03.2022
5052 Clear 16 1023 38 10000 5.66 250 18:51 01.03.2022
5053 Clear 17 1010 37 10000 6.69 250 18:21 01.03.2022
5054 Clear 17 1010 38 10000 5.14 220 17:37 01.03.2022
5055 Clear 17 1024 39 10000 5.14 220 16:35 01.03.2022
5056 Clear 17 1024 44 10000 6.17 240 15:45 01.03.2022
5057 Clear 16 1025 47 10000 4.63 230 14:41 01.03.2022
5058 Clear 16 1025 49 10000 4.63 230 14:23 01.03.2022
5059 Clear 14 1026 55 10000 2.57 180 13:26 01.03.2022
5060 Clear 13 1027 60 10000 1.34 169 12:35 01.03.2022
5061 Clear 10 1027 70 10000 1.34 81 10:38 01.03.2022
5062 Clear 7 1027 74 10000 1.79 87 09:25 01.03.2022
5063 Clear 5 1013 83 10000 1.03 330 07:55 01.03.2022
5064 Clear 6 1011 78 10000 2.06 10 06:27 01.03.2022
5065 Clear 7 1012 76 10000 2.06 320 02:45 01.03.2022
5066 Clear 9 1012 69 10000 2.06 280 00:40 01.03.2022
5067 Clear 10 1012 67 10000 2.57 260 23:35 28.02.2022
5068 Clear 11 1012 61 10000 3.6 240 22:28 28.02.2022
5069 Clear 12 1012 60 10000 3.09 220 21:43 28.02.2022
5070 Clear 13 1026 55 10000 3.09 190 20:33 28.02.2022
5071 Clouds 14 1026 51 10000 3.09 200 19:42 28.02.2022
5072 Clouds 15 1025 47 10000 3.13 190 18:49 28.02.2022
5073 Clouds 16 1025 45 10000 3.09 210 17:33 28.02.2022
5074 Clouds 17 1025 45 10000 3.09 230 16:54 28.02.2022
5075 Clouds 16 1026 47 10000 2.24 280 15:58 28.02.2022
5076 Clouds 15 1027 52 10000 2.06 0 14:32 28.02.2022
5077 Clouds 14 1027 57 10000 2.24 205 13:52 28.02.2022
5078 Clear 14 1027 60 10000 1.34 135 13:18 28.02.2022
5079 Clear 12 1027 66 10000 1.54 160 11:59 28.02.2022
5080 Clear 11 1027 69 10000 2.57 100 11:19 28.02.2022
5081 Clear 9 1027 75 10000 3.09 60 10:22 28.02.2022
5082 Clear 8 1027 78 10000 2.06 60 09:44 28.02.2022
5083 Clear 6 1013 84 10000 1.34 65 08:52 28.02.2022
5084 Clear 5 1013 87 10000 2.24 70 07:58 28.02.2022
5085 Clouds 6 1010 86 10000 1.54 340 05:54 28.02.2022
5086 Clouds 7 1010 87 10000 1.54 350 04:30 28.02.2022
5087 Clear 8 1009 83 10000 1.03 150 00:52 28.02.2022
5088 Clouds 9 1009 77 10000 2.68 293 22:45 27.02.2022
5089 Clouds 10 1009 77 10000 2.06 280 22:26 27.02.2022
5090 Clouds 10 1008 72 10000 1.79 270 21:37 27.02.2022
5091 Clear 10 1023 71 10000 2.06 240 20:44 27.02.2022
5092 Clouds 11 1023 66 10000 1.54 190 20:18 27.02.2022
5093 Clouds 12 1022 62 10000 1.54 190 19:48 27.02.2022
5094 Clouds 12 1022 61 10000 1.54 190 19:21 27.02.2022
5095 Clouds 12 1022 62 10000 1.54 190 19:21 27.02.2022
5096 Clouds 13 1022 55 10000 2.06 100 18:33 27.02.2022
5097 Clouds 13 1022 56 10000 1.54 90 17:49 27.02.2022
5098 Clouds 13 1022 58 10000 2.06 140 16:25 27.02.2022
5099 Clouds 12 1022 57 10000 1.54 0 15:21 27.02.2022
5100 Clouds 10 1024 72 10000 0.89 127 12:37 27.02.2022
5101 Clouds 9 1023 75 10000 2.06 90 11:51 27.02.2022
5102 Clouds 8 1023 78 10000 2.57 110 10:37 27.02.2022
5103 Clouds 8 1023 82 10000 2.06 80 09:58 27.02.2022
5104 Clouds 8 1023 82 10000 2.06 80 09:58 27.02.2022
5105 Clouds 7 1010 86 10000 1.54 60 09:23 27.02.2022
5106 Clouds 7 1010 85 10000 2.57 60 08:45 27.02.2022
5107 Clouds 7 1008 84 10000 2.06 90 06:26 27.02.2022
5108 Clouds 8 1007 83 10000 3.09 100 03:44 27.02.2022
5109 Clouds 9 1007 82 10000 2.06 90 23:57 26.02.2022
5110 Clouds 9 1007 84 10000 3.09 150 22:43 26.02.2022
5111 Clouds 9 1006 84 10000 2.06 110 21:29 26.02.2022
5112 Clouds 9 1006 84 10000 2.57 100 20:43 26.02.2022
5113 Clouds 9 1008 85 10000 4.12 120 19:57 26.02.2022
5114 Clouds 9 1008 85 10000 4.12 120 19:33 26.02.2022
5115 Clouds 9 1007 86 10000 5.14 120 18:34 26.02.2022
5116 Clouds 9 1007 87 10000 4.12 120 17:37 26.02.2022
5117 Clouds 9 1007 87 10000 4.12 120 16:39 26.02.2022
5118 Clouds 9 1008 89 10000 5.14 130 15:42 26.02.2022
5119 Clouds 9 1008 87 10000 5.14 130 15:19 26.02.2022
5120 Clouds 9 1008 87 10000 2.57 330 14:44 26.02.2022
5121 Clouds 9 1008 87 10000 2.57 330 14:20 26.02.2022
5122 Clouds 8 1009 89 10000 4.12 40 12:59 26.02.2022
5123 Clouds 8 1009 88 10000 4.12 50 11:54 26.02.2022
5124 Clouds 8 1009 91 10000 4.12 50 11:27 26.02.2022
5125 Clouds 7 1009 90 9000 3.6 60 10:22 26.02.2022
5126 Clouds 7 1009 87 8000 4.12 40 08:35 26.02.2022
5127 Clouds 8 1008 77 10000 5.14 50 06:46 26.02.2022
5128 Clouds 9 1008 74 10000 2.06 70 00:26 26.02.2022
5129 Clouds 10 1008 76 10000 2.24 66 22:44 25.02.2022
5130 Clouds 10 1008 74 10000 1.54 10 21:37 25.02.2022
5131 Clouds 10 1008 73 10000 2.06 350 21:18 25.02.2022
5132 Clouds 10 1008 72 10000 2.57 360 20:31 25.02.2022
5133 Clouds 11 1008 72 10000 4.63 50 18:35 25.02.2022
5134 Clouds 11 1008 73 10000 5.14 40 17:21 25.02.2022
5135 Clouds 10 1000 81 10000 5.14 30 16:20 25.02.2022
5136 Clouds 10 1000 80 10000 5.14 30 15:42 25.02.2022
5137 Clouds 10 1001 81 10000 5.14 20 15:18 25.02.2022
5138 Clouds 9 1001 87 10000 4.63 20 14:39 25.02.2022
5139 Clouds 8 1007 88 10000 3.6 30 13:36 25.02.2022
5140 Clouds 8 1007 87 9000 4.63 30 12:45 25.02.2022
5141 Clouds 7 1012 86 9000 5.14 30 11:28 25.02.2022
5142 Clouds 7 1012 85 9000 5.14 40 10:28 25.02.2022
5143 Clouds 7 1011 85 10000 5.14 40 09:53 25.02.2022
5144 Drizzle 8 1011 77 10000 4.63 40 08:46 25.02.2022
5145 Drizzle 9 1010 68 10000 4.12 50 07:37 25.02.2022
5146 Rain 9 1008 63 10000 3.09 360 05:47 25.02.2022
5147 Clear 10 1007 62 10000 3.58 68 02:58 25.02.2022
5148 Clear 12 1007 50 10000 3.6 330 23:42 24.02.2022
5149 Clear 13 1006 42 10000 3.09 330 21:56 24.02.2022
5150 Clear 13 1006 41 10000 2.57 330 21:37 24.02.2022
5151 Clear 13 1006 41 10000 1.54 350 21:18 24.02.2022
5152 Clouds 15 1007 38 10000 1.54 350 19:38 24.02.2022
5153 Clouds 16 1007 35 10000 3.09 20 18:38 24.02.2022
5154 Clouds 16 1007 35 10000 3.09 20 18:18 24.02.2022
5155 Clouds 17 1007 33 10000 1.54 60 17:33 24.02.2022
5156 Clouds 16 1019 33 10000 2.06 70 16:45 24.02.2022
5157 Clouds 16 1019 34 10000 2.06 70 16:21 24.02.2022
5158 Clouds 15 1008 37 10000 2.57 40 14:53 24.02.2022
5159 Clouds 15 1021 36 10000 2.57 50 14:26 24.02.2022
5160 Clear 14 1022 40 10000 2.06 30 13:39 24.02.2022
5161 Clear 14 1022 39 10000 2.06 30 13:39 24.02.2022
5162 Clouds 12 1009 42 10000 1.54 0 12:50 24.02.2022
5163 Clouds 9 1009 47 10000 1.34 55 10:40 24.02.2022
5164 Clouds 6 1009 54 10000 1.79 82 08:59 24.02.2022
5165 Clouds 5 1008 55 10000 2.06 80 08:40 24.02.2022
5166 Clear 6 1002 55 10000 1.54 20 05:52 24.02.2022
5167 Clear 8 1003 46 10000 1.34 46 01:56 24.02.2022
5168 Clear 11 1006 38 10000 1.54 350 22:56 23.02.2022
5169 Clear 12 1021 35 10000 1.54 10 21:43 23.02.2022
5170 Clear 14 1006 31 10000 2.06 360 20:31 23.02.2022
5171 Clear 14 1021 31 10000 1.54 50 19:47 23.02.2022
5172 Clear 17 1021 25 10000 1.54 250 18:32 23.02.2022
5173 Clear 18 1021 24 10000 1.54 300 17:44 23.02.2022
5174 Clear 16 1023 27 10000 2.06 70 14:44 23.02.2022
5175 Clear 14 1025 34 10000 1.34 65 12:45 23.02.2022
5176 Clear 12 1025 39 10000 1.54 60 11:59 23.02.2022
5177 Clear 9 1026 45 10000 2.57 30 10:31 23.02.2022
5178 Clear 6 1011 50 10000 2.68 41 08:59 23.02.2022
5179 Clear 6 1011 50 10000 2.68 41 08:59 23.02.2022
5180 Clear 5 1012 53 10000 2.68 72 08:23 23.02.2022
5181 Clear 6 1008 51 10000 2.06 10 05:49 23.02.2022
5182 Clear 10 1013 35 10000 2.06 360 00:40 23.02.2022
5183 Clear 11 1012 32 10000 1.79 33 23:38 22.02.2022
5184 Clear 12 1012 29 10000 3.13 73 22:32 22.02.2022
5185 Clear 12 1027 28 10000 2.57 320 21:49 22.02.2022
5186 Clear 13 1012 27 10000 2.06 40 21:31 22.02.2022
5187 Clear 14 1027 28 10000 2.57 60 20:57 22.02.2022
5188 Clear 15 1027 25 10000 1.79 67 20:30 22.02.2022
5189 Clear 17 1027 24 10000 2.06 60 19:42 22.02.2022
5190 Clear 17 1027 24 10000 1.54 80 19:23 22.02.2022
5191 Clear 19 1027 21 10000 3.09 70 17:49 22.02.2022
5192 Clear 20 1027 20 10000 2.57 20 17:23 22.02.2022
5193 Clear 20 1027 20 10000 2.57 10 16:41 22.02.2022
5194 Clear 19 1028 21 10000 2.57 30 15:44 22.02.2022
5195 Clear 19 1028 21 10000 2.57 30 15:44 22.02.2022
5196 Clear 18 1029 20 10000 3.09 360 14:44 22.02.2022
5197 Clear 14 1030 21 10000 3.09 30 12:31 22.02.2022
5198 Clear 11 1031 25 10000 2.68 79 10:52 22.02.2022
5199 Clear 6 1016 36 10000 3.6 60 08:41 22.02.2022
5200 Clear 5 1014 38 10000 3.13 59 07:27 22.02.2022
5201 Clear 7 1015 33 10000 3.13 66 05:57 22.02.2022
5202 Clear 8 1030 28 10000 2.68 42 02:45 22.02.2022
5203 Clear 12 1011 31 10000 3.09 10 22:46 21.02.2022
5204 Clear 13 1029 33 10000 4.12 360 21:42 21.02.2022
5205 Clear 14 1028 34 10000 5.81 0 20:36 21.02.2022
5206 Clear 16 1027 28 10000 4.63 360 18:46 21.02.2022
5207 Clear 18 1027 31 10000 4.63 10 17:36 21.02.2022
5208 Clear 17 1028 38 10000 2.57 330 15:22 21.02.2022
5209 Clear 15 1029 42 10000 2.57 350 14:21 21.02.2022
5210 Clear 15 1029 42 10000 2.57 350 14:21 21.02.2022
5211 Clear 14 1029 46 10000 0.45 225 13:22 21.02.2022
5212 Clear 12 1030 52 10000 0.89 123 12:23 21.02.2022
5213 Clear 10 1030 60 10000 1.03 0 11:19 21.02.2022
5214 Clear 7 1029 67 10000 1.03 0 09:50 21.02.2022
5215 Clear 5 1013 73 10000 0.89 56 05:35 21.02.2022
5216 Clear 9 1015 56 10000 1.54 280 23:44 20.02.2022
5217 Clear 10 1014 53 10000 1.54 250 22:25 20.02.2022
5218 Clear 10 1029 52 10000 2.57 270 21:42 20.02.2022
5219 Clear 10 1028 52 10000 2.06 250 20:53 20.02.2022
5220 Clear 11 1011 50 10000 2.57 260 20:35 20.02.2022
5221 Clear 12 1009 45 10000 0.51 0 19:36 20.02.2022
5222 Clear 14 1028 38 10000 0.51 0 18:51 20.02.2022
5223 Clear 14 1028 36 10000 0.51 0 18:31 20.02.2022
5224 Clear 15 1028 36 10000 0.51 0 18:31 20.02.2022
5225 Clear 15 1028 37 10000 1.03 0 17:49 20.02.2022
5226 Clouds 14 1028 38 10000 2.57 10 15:41 20.02.2022
5227 Clear 13 1029 39 10000 2.06 20 14:42 20.02.2022
5228 Clear 11 1030 42 10000 0.45 113 13:23 20.02.2022
5229 Clear 9 1031 45 10000 1.54 110 12:28 20.02.2022
5230 Clear 6 1030 56 10000 1.79 91 10:47 20.02.2022
5231 Clear 4 1030 61 10000 2.68 91 10:19 20.02.2022
5232 Clear 2 1016 70 10000 2.57 50 08:50 20.02.2022
5233 Clear 5 1013 57 10000 2.24 78 00:54 20.02.2022
5234 Clear 5 1013 58 10000 0.45 90 00:54 20.02.2022
5235 Clear 6 1012 56 10000 2.57 60 00:30 20.02.2022
5236 Clear 7 1012 54 10000 3.58 70 23:18 19.02.2022
5237 Clear 8 1011 57 10000 2.68 45 22:22 19.02.2022
5238 Clear 9 1011 56 10000 4.63 350 21:25 19.02.2022
5239 Clouds 10 1011 54 10000 3.09 140 19:53 19.02.2022
5240 Clear 11 1010 51 10000 3.09 140 19:28 19.02.2022
5241 Clouds 12 1023 42 10000 3.09 60 18:33 19.02.2022
5242 Clouds 13 1022 42 10000 4.63 50 17:36 19.02.2022
5243 Clouds 13 1022 43 10000 5.14 70 16:28 19.02.2022
5244 Clouds 11 1022 44 10000 6.17 50 14:56 19.02.2022
5245 Clouds 11 1022 45 10000 7.2 60 14:37 19.02.2022
5246 Clouds 10 1022 47 10000 6.17 40 13:22 19.02.2022
5247 Clouds 9 1021 55 10000 8.75 30 11:38 19.02.2022
5248 Clouds 8 1007 59 10000 8.75 40 09:55 19.02.2022
5249 Clouds 9 1004 66 10000 6.17 60 06:54 19.02.2022
5250 Clear 10 1003 72 10000 2.68 58 03:38 19.02.2022
5251 Clear 11 1003 63 10000 2.24 53 23:33 18.02.2022
5252 Clear 13 1002 60 10000 3.09 320 21:50 18.02.2022
5253 Clear 14 1002 55 10000 3.09 270 20:51 18.02.2022
5254 Clouds 15 1016 57 10000 3.6 250 19:53 18.02.2022
5255 Clear 17 1016 52 10000 3.09 250 18:50 18.02.2022
5256 Clear 18 1016 50 10000 3.58 248 18:22 18.02.2022
5257 Clear 18 1016 49 10000 3.09 260 17:51 18.02.2022
5258 Clear 17 1018 54 10000 2.68 191 14:54 18.02.2022
5259 Clear 16 1019 56 10000 2.24 187 13:55 18.02.2022
5260 Clear 14 1020 58 10000 0.45 225 12:53 18.02.2022
5261 Clear 14 1021 61 10000 1.34 201 12:33 18.02.2022
5262 Clear 11 1021 68 10000 2.06 320 11:27 18.02.2022
5263 Clear 9 1020 72 10000 2.06 90 10:23 18.02.2022
5264 Clear 6 1008 84 10000 1.34 38 06:57 18.02.2022
5265 Clear 7 1006 82 10000 1.54 330 05:40 18.02.2022
5266 Clear 10 1009 73 10000 1.54 350 23:31 17.02.2022
5267 Clear 11 1001 68 10000 1.03 260 21:45 17.02.2022
5268 Clear 12 1009 65 10000 1.03 260 21:20 17.02.2022
5269 Clear 13 1009 63 10000 1.54 260 20:38 17.02.2022
5270 Clear 14 1024 58 10000 1.03 270 19:50 17.02.2022
5271 Clear 16 1024 50 10000 2.06 180 18:44 17.02.2022
5272 Clear 17 1024 47 10000 1.79 184 17:50 17.02.2022
5273 Clear 17 1025 48 10000 1.54 190 16:42 17.02.2022
5274 Clear 17 1026 50 10000 1.79 211 15:38 17.02.2022
5275 Clear 15 1026 54 10000 2.06 0 14:26 17.02.2022
5276 Clear 12 1029 64 10000 1.54 100 12:38 17.02.2022
5277 Clear 10 1029 71 10000 1.54 130 11:27 17.02.2022
5278 Clear 5 1016 86 10000 2.24 65 08:53 17.02.2022
5279 Clear 6 1014 83 10000 1.03 0 02:26 17.02.2022
5280 Clear 9 1014 77 10000 3.09 300 23:21 16.02.2022
5281 Clear 10 1014 73 10000 3.6 260 21:44 16.02.2022
5282 Clear 11 1015 66 10000 3.6 260 19:57 16.02.2022
5283 Clear 13 1014 61 10000 4.12 300 18:39 16.02.2022
5284 Clear 14 1014 61 10000 5.36 293 17:53 16.02.2022
5285 Clear 14 1014 55 10000 6.17 300 15:39 16.02.2022
5286 Clear 14 1015 54 10000 5.14 250 15:18 16.02.2022
5287 Clear 13 1029 56 10000 4.63 250 13:28 16.02.2022
5288 Clear 11 1029 59 10000 3.6 320 12:19 16.02.2022
5289 Clear 10 1029 61 10000 5.14 310 11:26 16.02.2022
5290 Clear 8 1029 66 10000 3.6 250 10:33 16.02.2022
5291 Clear 5 1015 69 10000 1.54 0 07:54 16.02.2022
5292 Clear 5 1013 69 10000 1.03 0 06:26 16.02.2022
5293 Clear 7 1013 62 10000 3.6 250 23:45 15.02.2022
5294 Clear 8 1013 58 10000 3.6 240 22:29 15.02.2022
5295 Clear 8 1013 55 10000 2.68 270 21:47 15.02.2022
5296 Clear 9 1013 55 10000 2.06 330 21:27 15.02.2022
5297 Clear 9 1013 52 10000 4.47 293 20:56 15.02.2022
5298 Clear 10 1014 49 10000 4.12 250 19:57 15.02.2022
5299 Clear 11 1026 44 10000 5.14 240 18:56 15.02.2022
5300 Clear 12 1013 43 10000 4.63 230 18:22 15.02.2022
5301 Clear 12 1026 41 10000 4.63 230 17:50 15.02.2022
5302 Clear 13 1013 40 10000 5.14 260 16:50 15.02.2022
5303 Clear 12 1027 39 10000 4.63 270 15:30 15.02.2022
5304 Clear 10 1028 48 10000 3.09 250 13:28 15.02.2022
5305 Clear 9 1028 53 10000 1.79 203 12:37 15.02.2022
5306 Clear 8 1028 56 10000 1.54 110 11:40 15.02.2022
5307 Clear 4 1027 71 10000 1.54 340 09:47 15.02.2022
5308 Clear 2 1014 80 10000 2.06 330 06:59 15.02.2022
5309 Clear 3 1011 78 10000 3.09 270 05:32 15.02.2022
5310 Clear 7 1009 66 10000 3.58 282 23:34 14.02.2022
5311 Clear 7 1008 67 10000 5.14 260 21:54 14.02.2022
5312 Clouds 7 1007 65 10000 6.17 290 20:40 14.02.2022
5313 Clouds 8 1008 62 10000 8.23 280 19:44 14.02.2022
5314 Clouds 8 1008 61 10000 8.23 280 19:25 14.02.2022
5315 Clouds 10 1007 47 10000 7.72 290 18:23 14.02.2022
5316 Clouds 11 1019 40 10000 8.23 290 17:26 14.02.2022
5317 Clouds 12 1006 42 10000 9.26 290 16:25 14.02.2022
5318 Clouds 11 1006 44 10000 9.26 290 14:39 14.02.2022
5319 Clouds 10 1019 46 10000 7.2 280 13:33 14.02.2022
5320 Clouds 10 1019 48 10000 8.23 260 12:55 14.02.2022
5321 Clouds 9 1019 51 10000 9.26 260 11:55 14.02.2022
5322 Clear 8 1018 57 10000 6.69 270 10:58 14.02.2022
5323 Clouds 6 1018 69 10000 4.63 260 09:19 14.02.2022
5324 Clouds 6 1004 73 10000 6.17 280 07:33 14.02.2022
5325 Clear 6 1002 74 10000 4.63 260 06:32 14.02.2022
5326 Clouds 9 1002 69 10000 6.69 230 22:43 13.02.2022
5327 Clouds 9 1002 69 10000 6.69 230 22:25 13.02.2022
5328 Clouds 10 1002 64 10000 7.72 240 21:36 13.02.2022
5329 Clouds 10 1002 62 10000 8.23 230 20:42 13.02.2022
5330 Clouds 11 1003 66 10000 7.72 230 19:51 13.02.2022
5331 Clouds 11 1003 67 10000 9.26 230 18:54 13.02.2022
5332 Clouds 12 1004 67 10000 6.69 240 18:35 13.02.2022
5333 Clouds 13 1004 60 10000 8.23 240 16:38 13.02.2022
5334 Clouds 13 1005 55 10000 8.23 230 15:27 13.02.2022
5335 Clouds 13 1006 56 10000 9.26 240 14:37 13.02.2022
5336 Clouds 12 1008 68 10000 6.17 220 12:52 13.02.2022
5337 Clouds 11 1021 69 10000 5.66 230 12:18 13.02.2022
5338 Clouds 8 1008 85 10000 2.57 200 10:38 13.02.2022
5339 Clouds 7 1006 86 10000 2.57 200 09:49 13.02.2022
5340 Clouds 7 1008 85 10000 2.24 203 07:54 13.02.2022
5341 Clear 9 1008 67 10000 2.06 190 00:49 13.02.2022
5342 Clear 10 1008 64 10000 2.57 190 00:20 13.02.2022
5343 Clear 11 1022 58 10000 1.54 190 22:34 12.02.2022
5344 Clouds 11 1022 57 10000 1.54 190 21:40 12.02.2022
5345 Clouds 12 1022 55 10000 2.06 190 20:55 12.02.2022
5346 Clouds 12 1022 52 10000 2.57 250 19:56 12.02.2022
5347 Clouds 13 1022 45 10000 2.57 220 18:54 12.02.2022
5348 Clouds 13 1022 45 10000 2.57 220 18:54 12.02.2022
5349 Clouds 14 1009 45 10000 0.89 203 18:35 12.02.2022
5350 Clouds 15 1022 41 10000 2.68 216 17:38 12.02.2022
5351 Clouds 15 1022 40 10000 2.24 201 16:45 12.02.2022
5352 Clouds 15 1022 41 10000 1.79 211 15:53 12.02.2022
5353 Clouds 14 1023 40 10000 1.79 208 15:20 12.02.2022
5354 Clouds 14 1023 46 10000 1.34 207 14:25 12.02.2022
5355 Clouds 10 1025 56 10000 2.57 70 11:31 12.02.2022
5356 Clouds 8 1012 69 10000 1.34 87 10:30 12.02.2022
5357 Clouds 7 1012 74 10000 1.54 350 09:37 12.02.2022
5358 Clouds 6 1011 76 10000 2.06 350 08:46 12.02.2022
5359 Clear 6 1011 78 10000 1.79 27 07:44 12.02.2022
5360 Clear 7 1010 79 10000 1.54 350 04:47 12.02.2022
5361 Clouds 8 1010 78 10000 2.06 340 02:19 12.02.2022
5362 Clear 10 1010 70 10000 2.57 350 23:21 11.02.2022
5363 Clear 11 1010 64 10000 2.24 38 22:23 11.02.2022
5364 Clear 12 1010 61 10000 2.24 64 21:32 11.02.2022
5365 Clear 13 1010 57 10000 1.79 77 20:28 11.02.2022
5366 Clear 13 1012 53 10000 2.06 260 19:29 11.02.2022
5367 Clear 15 1012 46 10000 1.34 90 18:41 11.02.2022
5368 Clear 16 1024 37 10000 1.54 200 17:27 11.02.2022
5369 Clear 17 1024 38 10000 1.03 200 16:40 11.02.2022
5370 Clear 16 1025 40 10000 1.54 30 15:22 11.02.2022
5371 Clear 15 1026 44 10000 3.09 30 14:38 11.02.2022
5372 Clear 15 1026 44 10000 3.09 30 14:19 11.02.2022
5373 Clear 14 1026 47 10000 2.57 40 13:44 11.02.2022
5374 Clear 14 1026 46 10000 2.57 40 13:25 11.02.2022
5375 Clear 10 1027 61 10000 1.03 0 10:59 11.02.2022
5376 Clear 6 1014 77 10000 1.34 70 09:32 11.02.2022
5377 Clear 6 1013 78 10000 1.54 360 08:33 11.02.2022
5378 Clear 6 1011 79 10000 1.03 0 07:45 11.02.2022
5379 Clear 7 1011 75 10000 1.03 340 06:24 11.02.2022
5380 Clear 8 1011 65 10000 1.79 28 02:21 11.02.2022
5381 Clear 10 1012 68 10000 1.03 0 23:45 10.02.2022
5382 Clear 11 1012 66 10000 1.54 280 22:26 10.02.2022
5383 Clear 11 1026 64 10000 2.06 280 21:41 10.02.2022
5384 Clear 12 1026 58 10000 2.24 270 20:50 10.02.2022
5385 Clear 13 1026 52 10000 2.24 270 19:56 10.02.2022
5386 Clear 13 1026 51 10000 2.06 240 19:22 10.02.2022
5387 Clear 14 1026 46 10000 2.57 250 18:32 10.02.2022
5388 Clear 16 1026 42 10000 2.57 250 17:21 10.02.2022
5389 Clear 16 1026 42 10000 2.24 268 16:43 10.02.2022
5390 Clear 15 1026 43 10000 2.06 210 15:41 10.02.2022
5391 Clear 15 1014 45 10000 2.06 160 15:21 10.02.2022
5392 Clear 14 1027 47 10000 2.24 209 14:35 10.02.2022
5393 Clear 14 1015 51 10000 0.89 184 13:56 10.02.2022
5394 Clear 12 1028 55 10000 1.03 0 13:19 10.02.2022
5395 Clear 10 1029 59 10000 1.03 0 11:53 10.02.2022
5396 Clear 9 1029 60 10000 1.03 0 11:32 10.02.2022
5397 Clear 7 1029 66 10000 1.79 82 10:23 10.02.2022
5398 Clear 5 1015 72 10000 1.03 0 09:44 10.02.2022
5399 Clear 3 1014 75 10000 1.34 34 08:40 10.02.2022
5400 Clear 4 1014 73 10000 1.54 360 06:33 10.02.2022
5401 Clear 6 1015 69 10000 1.03 0 03:21 10.02.2022
5402 Clear 7 1015 68 10000 1.54 10 00:56 10.02.2022
5403 Clear 8 1014 67 10000 1.54 330 00:38 10.02.2022
5404 Clear 8 1014 67 10000 1.54 360 00:20 10.02.2022
5405 Clear 9 1014 63 10000 8.49 45 22:54 09.02.2022
5406 Clear 9 1014 65 10000 1.03 0 22:31 09.02.2022
5407 Clear 9 1014 64 10000 1.54 40 21:47 09.02.2022
5408 Clear 10 1014 62 10000 0.51 250 21:27 09.02.2022
5409 Clear 11 1014 60 10000 2.06 270 20:44 09.02.2022
5410 Clear 11 1014 60 10000 2.06 270 20:44 09.02.2022
5411 Clear 11 1014 59 10000 2.06 270 20:22 09.02.2022
5412 Clear 12 1028 51 10000 2.57 220 19:42 09.02.2022
5413 Clear 14 1015 46 10000 3.09 210 18:38 09.02.2022
5414 Clear 15 1028 40 10000 3.13 202 16:57 09.02.2022
5415 Clear 15 1028 39 10000 2.68 180 16:20 09.02.2022
5416 Clear 15 1029 41 10000 2.06 160 15:24 09.02.2022
5417 Clear 12 1031 51 10000 2.06 90 12:53 09.02.2022
5418 Clear 10 1031 60 10000 2.06 70 11:36 09.02.2022
5419 Clear 7 1031 65 10000 1.34 60 10:34 09.02.2022
5420 Clear 7 1018 68 10000 1.54 80 09:53 09.02.2022
5421 Clear 5 1018 72 10000 1.79 30 09:22 09.02.2022
5422 Clear 4 1018 74 10000 2.06 10 08:45 09.02.2022
5423 Clear 5 1016 71 10000 2.06 50 06:52 09.02.2022
5424 Clear 6 1016 67 10000 1.34 48 04:30 09.02.2022
5425 Clear 6 1016 65 10000 1.54 330 03:48 09.02.2022
5426 Clear 9 1012 58 10000 2.06 340 23:45 08.02.2022
5427 Clear 10 1012 56 10000 2.06 350 23:19 08.02.2022
5428 Clear 10 1012 56 10000 2.06 350 23:19 08.02.2022
5429 Clear 10 1012 55 10000 1.54 360 22:38 08.02.2022
5430 Clear 11 1015 53 10000 1.79 117 22:19 08.02.2022
5431 Clear 12 1015 50 10000 1.54 290 21:22 08.02.2022
5432 Clear 12 1014 49 10000 1.03 280 20:58 08.02.2022
5433 Clear 11 1029 47 10000 1.03 0 20:37 08.02.2022
5434 Clear 11 1029 47 10000 1.03 0 20:37 08.02.2022
5435 Clear 14 1029 43 10000 2.06 100 19:27 08.02.2022
5436 Clear 16 1028 38 10000 1.54 60 18:19 08.02.2022
5437 Clear 16 1029 37 10000 2.06 0 16:56 08.02.2022
5438 Clear 16 1029 38 10000 1.54 0 15:47 08.02.2022
5439 Clear 15 1030 41 10000 2.06 120 14:58 08.02.2022
5440 Clear 14 1031 45 10000 3.6 80 13:48 08.02.2022
5441 Clear 11 1031 49 10000 3.6 50 12:24 08.02.2022
5442 Clear 8 1031 55 10000 2.57 50 10:48 08.02.2022
5443 Clear 7 1018 61 10000 4.47 45 09:48 08.02.2022
5444 Clear 5 1017 66 10000 3.13 23 08:38 08.02.2022
5445 Clear 5 1015 66 10000 4.02 45 06:38 08.02.2022
5446 Clear 6 1015 64 10000 3.13 23 04:40 08.02.2022
5447 Clear 6 1015 63 10000 2.57 340 04:22 08.02.2022
5448 Clear 7 1015 60 10000 3.09 30 03:36 08.02.2022
5449 Clear 7 1015 59 10000 3.13 47 03:18 08.02.2022
5450 Clear 7 1015 58 10000 2.68 39 02:59 08.02.2022
5451 Clear 7 1015 58 10000 3.6 40 02:36 08.02.2022
5452 Clear 7 1015 57 10000 3.6 40 02:18 08.02.2022
5453 Clear 8 1015 55 10000 4.92 45 01:44 08.02.2022
5454 Clear 7 1015 56 10000 2.24 90 01:25 08.02.2022
5455 Clear 8 1014 54 10000 3.58 45 00:55 08.02.2022
5456 Clear 8 1014 53 10000 4.47 95 00:21 08.02.2022
5457 Clear 9 1014 53 10000 3.09 70 23:44 07.02.2022
5458 Haze 10 1013 52 1100 3.6 60 23:18 07.02.2022
5459 Haze 10 1013 51 1100 3.6 60 22:59 07.02.2022
5460 Clear 10 1013 46 6000 4.47 58 22:19 07.02.2022
5461 Clear 11 1013 46 6000 3.58 32 21:50 07.02.2022
5462 Haze 11 1013 43 2500 4.02 45 21:27 07.02.2022
5463 Clear 12 1027 38 10000 4.47 68 20:43 07.02.2022
5464 Clear 13 1027 36 10000 3.09 340 20:24 07.02.2022
5465 Clear 14 1027 36 10000 3.58 40 19:47 07.02.2022
5466 Clear 16 1026 30 10000 4.12 30 18:35 07.02.2022
5467 Clear 17 1027 28 10000 2.06 320 17:18 07.02.2022
5468 Clear 17 1027 29 10000 3.13 45 16:46 07.02.2022
5469 Clear 17 1027 30 10000 2.06 310 15:48 07.02.2022
5470 Clear 14 1029 31 10000 2.06 360 13:51 07.02.2022
5471 Clear 13 1030 32 10000 1.03 0 13:26 07.02.2022
5472 Clear 10 1031 38 10000 0.45 113 11:58 07.02.2022
5473 Clear 10 1031 41 10000 0.89 40 11:38 07.02.2022
5474 Clear 8 1030 49 10000 1.34 46 10:59 07.02.2022
5475 Clear 7 1031 51 10000 0.45 11 10:41 07.02.2022
5476 Clear 6 1030 52 10000 0.45 90 10:22 07.02.2022
5477 Clear 5 1030 56 10000 0.89 113 09:47 07.02.2022
5478 Clear 4 1017 61 10000 1.34 97 09:18 07.02.2022
5479 Clear 3 1016 63 10000 0.89 35 07:34 07.02.2022
5480 Clear 4 1012 60 10000 0 0 06:34 07.02.2022
5481 Clear 5 1015 59 10000 1.34 62 04:22 07.02.2022
5482 Clear 6 1015 56 10000 0.45 45 01:30 07.02.2022
5483 Clear 7 1012 55 10000 2.68 23 23:51 06.02.2022
5484 Clear 7 1011 54 10000 1.34 46 23:19 06.02.2022
5485 Clear 8 1015 51 10000 0.45 68 22:39 06.02.2022
5486 Clear 8 1006 54 10000 1.03 270 21:37 06.02.2022
5487 Clear 8 1005 53 10000 0 0 21:18 06.02.2022
5488 Clear 9 1005 52 10000 0 0 20:48 06.02.2022
5489 Clear 10 1013 44 10000 0 0 20:21 06.02.2022
5490 Clear 13 1028 35 10000 0.45 103 18:54 06.02.2022
5491 Clear 13 1027 35 10000 0.89 96 18:27 06.02.2022
5492 Clear 14 1027 33 10000 0.45 119 17:30 06.02.2022
5493 Clear 14 1028 33 10000 0.89 29 16:51 06.02.2022
5494 Clouds 14 1028 36 10000 1.34 90 15:51 06.02.2022
5495 Clouds 13 1028 37 10000 0.89 277 15:28 06.02.2022
5496 Clouds 13 1028 39 10000 0.45 180 15:00 06.02.2022
5497 Clouds 12 1029 39 10000 0.89 130 13:59 06.02.2022
5498 Clear 11 1029 37 10000 0.45 90 13:20 06.02.2022
5499 Clouds 9 1029 40 10000 1.79 78 12:19 06.02.2022
5500 Clouds 6 1016 47 10000 4.47 23 10:33 06.02.2022
5501 Clear 5 1015 51 10000 3.58 23 09:43 06.02.2022
5502 Clear 3 1015 53 10000 1.79 45 08:41 06.02.2022
5503 Clear 3 1014 54 10000 3.58 45 06:34 06.02.2022
5504 Clear 4 1013 52 10000 1.79 23 05:28 06.02.2022
5505 Clear 5 1012 54 10000 1.34 68 02:25 06.02.2022
5506 Clear 7 1012 52 10000 1.34 68 00:33 06.02.2022
5507 Clear 8 1012 53 10000 5.81 68 23:39 05.02.2022
5508 Clouds 9 1026 54 10000 1.79 27 21:47 05.02.2022
5509 Clouds 10 1025 51 10000 3.13 45 20:47 05.02.2022
5510 Clouds 11 1025 50 10000 0.45 90 20:22 05.02.2022
5511 Clouds 11 1024 49 10000 1.34 41 19:42 05.02.2022
5512 Clouds 13 1024 46 10000 0.45 45 18:37 05.02.2022
5513 Clouds 14 1023 45 10000 2.68 23 17:35 05.02.2022
5514 Clouds 14 1023 46 10000 1.79 90 16:20 05.02.2022
5515 Clouds 14 1024 46 10000 1.34 0 15:31 05.02.2022
5516 Clouds 13 1012 53 10000 4.02 23 13:38 05.02.2022
5517 Clouds 12 1025 55 10000 2.68 45 12:46 05.02.2022
5518 Clouds 10 1025 61 10000 4.02 90 11:47 05.02.2022
5519 Clouds 9 1012 68 10000 2.68 45 10:44 05.02.2022
5520 Clouds 7 1012 74 10000 0.45 23 09:51 05.02.2022
5521 Clouds 7 1011 74 10000 4.02 45 08:47 05.02.2022
5522 Clear 7 1010 76 10000 3.13 68 06:59 05.02.2022
5523 Clear 7 1009 75 10000 4.02 68 06:35 05.02.2022
5524 Clear 8 1009 74 10000 2.24 55 02:43 05.02.2022
5525 Clear 9 1009 70 10000 0.89 113 01:18 05.02.2022
5526 Clear 9 1008 68 10000 1.34 98 00:36 05.02.2022
5527 Clear 10 1008 67 10000 0.45 315 23:33 04.02.2022
5528 Clear 10 1008 65 10000 0.45 248 22:45 04.02.2022
5529 Clear 11 1022 63 10000 0.89 221 21:36 04.02.2022
5530 Clear 11 1008 63 10000 0.89 212 21:18 04.02.2022
5531 Clear 11 1022 63 10000 1.03 260 20:36 04.02.2022
5532 Clear 12 1009 55 10000 0.89 180 19:19 04.02.2022
5533 Clear 13 1021 55 10000 0.45 225 16:22 04.02.2022
5534 Clear 13 1009 57 10000 1.34 225 15:19 04.02.2022
5535 Clear 13 1009 60 10000 1.34 220 14:40 04.02.2022
5536 Clear 11 1023 68 10000 1.34 180 12:43 04.02.2022
5537 Clear 10 1010 75 10000 0.45 22 11:45 04.02.2022
5538 Clear 9 1010 75 10000 0.45 90 10:56 04.02.2022
5539 Clear 7 1009 79 10000 0.89 23 09:56 04.02.2022
5540 Clear 6 1009 81 10000 0.45 288 08:30 04.02.2022
5541 Clear 8 1007 76 10000 0.45 225 03:47 04.02.2022
5542 Clear 9 1007 73 10000 0.89 225 02:36 04.02.2022
5543 Clear 10 1008 69 10000 1.34 249 23:56 03.02.2022
5544 Clear 10 1008 66 10000 0.45 248 22:51 03.02.2022
5545 Clear 11 1007 66 10000 0.89 248 21:52 03.02.2022
5546 Clear 11 1007 66 10000 0.45 194 21:29 03.02.2022
5547 Clear 12 1022 60 10000 0.45 248 20:22 03.02.2022
5548 Clear 13 1022 57 10000 3.6 240 19:46 03.02.2022
5549 Clear 13 1021 52 10000 3.09 240 18:56 03.02.2022
5550 Clear 16 1021 46 10000 4.02 270 17:59 03.02.2022
5551 Clear 16 1021 44 10000 2.68 248 17:19 03.02.2022
5552 Clear 16 1022 45 10000 1.79 257 15:34 03.02.2022
5553 Clear 14 1023 49 10000 1.34 190 13:50 03.02.2022
5554 Clear 12 1024 51 10000 0.45 137 12:22 03.02.2022
5555 Clear 4 1024 66 10000 0.51 0 08:56 03.02.2022
5556 Clear 4 1024 67 10000 1.79 37 07:41 03.02.2022
5557 Clear 9 1025 64 10000 0.89 60 00:49 03.02.2022
5558 Clear 9 1025 65 10000 0 0 00:22 03.02.2022
5559 Clear 10 1025 61 10000 0.51 0 22:39 02.02.2022
5560 Clear 11 1025 58 10000 2.06 270 21:46 02.02.2022
5561 Clear 11 1025 58 10000 2.06 270 21:28 02.02.2022
5562 Clear 11 1025 55 10000 1.54 250 20:27 02.02.2022
5563 Clear 13 1025 49 10000 1.54 290 19:46 02.02.2022
5564 Clear 15 1025 46 10000 2.06 250 18:56 02.02.2022
5565 Clear 17 1025 37 10000 1.54 250 18:24 02.02.2022
5566 Clear 19 1026 30 10000 1.03 0 17:20 02.02.2022
5567 Clear 19 1026 30 10000 0.45 203 16:56 02.02.2022
5568 Clear 18 1027 34 10000 0.89 203 15:23 02.02.2022
5569 Clear 13 1029 56 10000 0.89 22 12:31 02.02.2022
5570 Clear 11 1029 61 10000 0.89 14 11:48 02.02.2022
5571 Clear 10 1029 63 10000 0.89 34 11:30 02.02.2022
5572 Clear 10 1029 63 10000 0.89 36 11:30 02.02.2022
5573 Clear 5 1014 82 10000 2.24 28 08:30 02.02.2022
5574 Clear 8 1015 73 10000 1.79 49 02:44 02.02.2022
5575 Clear 11 1015 63 10000 2.24 113 22:33 01.02.2022
5576 Clear 12 1029 56 10000 7.6 45 20:51 01.02.2022
5577 Clear 13 1015 51 10000 3.58 68 19:23 01.02.2022
5578 Clear 16 1026 43 10000 5.36 68 16:57 01.02.2022
5579 Clear 16 1026 42 10000 2.24 90 16:21 01.02.2022
5580 Clear 14 1028 45 10000 4.47 69 12:57 01.02.2022
5581 Clear 11 1028 51 10000 4.92 45 12:21 01.02.2022
5582 Clear 6 1016 66 10000 4.02 68 08:52 01.02.2022
5583 Clear 7 1029 52 10000 4.47 68 02:20 01.02.2022
5584 Clear 8 1014 50 10000 4.47 68 23:37 31.01.2022
5585 Clear 8 1014 41 10000 2.68 68 22:33 31.01.2022
5586 Clear 10 1009 33 10000 0.89 90 21:35 31.01.2022
5587 Clear 10 1009 33 10000 0.89 90 21:35 31.01.2022
5588 Clear 12 1012 26 10000 1.79 0 20:35 31.01.2022
5589 Clear 11 1026 26 10000 2.57 350 19:58 31.01.2022
5590 Clear 14 1025 25 10000 2.06 350 18:32 31.01.2022
5591 Clear 14 1025 25 10000 2.06 350 18:32 31.01.2022
5592 Clear 15 1025 22 10000 3.09 330 17:57 31.01.2022
5593 Clear 16 1026 21 10000 1.34 293 17:18 31.01.2022
5594 Clear 16 1026 24 10000 0.89 280 16:23 31.01.2022
5595 Clear 14 1027 28 10000 0.45 203 14:53 31.01.2022
5596 Clear 12 1028 31 10000 0.89 216 13:31 31.01.2022
5597 Clear 10 1029 37 10000 0.45 64 12:37 31.01.2022
5598 Clear 8 1028 39 10000 0.45 128 11:20 31.01.2022
5599 Clear 8 1028 39 10000 0.45 113 10:47 31.01.2022
5600 Clear 3 1015 54 10000 0.45 295 09:37 31.01.2022
5601 Clear 2 1012 55 10000 0 0 08:56 31.01.2022
5602 Clear 2 1012 55 10000 1.34 38 08:20 31.01.2022
5603 Clear 2 1012 51 10000 1.34 64 07:40 31.01.2022
5604 Clear 4 1008 46 10000 0.89 25 05:25 31.01.2022
5605 Clear 7 1013 37 10000 1.34 10 00:24 31.01.2022
5606 Clear 8 1009 34 10000 0.45 51 22:33 30.01.2022
5607 Clear 9 1009 33 10000 0.89 68 21:46 30.01.2022
5608 Clear 9 1005 35 10000 1.03 290 21:24 30.01.2022
5609 Clear 9 1005 35 10000 1.03 290 20:53 30.01.2022
5610 Clear 10 1005 32 10000 1.54 260 20:31 30.01.2022
5611 Clear 10 1027 30 10000 1.54 270 19:56 30.01.2022
5612 Clear 12 1026 22 10000 1.03 260 18:51 30.01.2022
5613 Clear 14 1026 23 10000 0 0 18:22 30.01.2022
5614 Clear 16 1027 18 10000 0.89 248 17:31 30.01.2022
5615 Clear 16 1027 17 10000 1.03 0 16:43 30.01.2022
5616 Clear 17 1027 17 10000 1.34 90 16:23 30.01.2022
5617 Clear 17 1027 17 10000 0.89 203 15:55 30.01.2022
5618 Clear 16 1028 19 10000 1.54 130 15:33 30.01.2022
5619 Clear 16 1029 22 10000 0.45 56 14:47 30.01.2022
5620 Clear 14 1029 25 10000 0.45 83 13:47 30.01.2022
5621 Clear 11 1030 30 10000 0.45 113 12:46 30.01.2022
5622 Clear 9 1030 33 10000 1.34 21 11:23 30.01.2022
5623 Clear 6 1030 39 10000 1.34 34 10:26 30.01.2022
5624 Clear 4 1018 45 10000 0.89 45 09:23 30.01.2022
5625 Clear 3 1017 46 10000 0.89 68 07:59 30.01.2022
5626 Clear 5 1017 40 10000 0.89 45 02:44 30.01.2022
5627 Clear 6 1017 39 10000 1.34 45 01:54 30.01.2022
5628 Clear 7 1017 37 10000 0.45 45 23:49 29.01.2022
5629 Clear 8 1014 34 10000 0.45 177 22:57 29.01.2022
5630 Clear 9 1032 34 10000 2.06 360 21:35 29.01.2022
5631 Clear 9 1032 30 10000 2.06 360 20:57 29.01.2022
5632 Clear 9 1032 30 10000 1.54 360 19:52 29.01.2022
5633 Clear 11 1009 28 10000 0 0 19:31 29.01.2022
5634 Clear 13 1032 23 10000 1.03 0 18:44 29.01.2022
5635 Clear 16 1032 19 10000 1.03 0 17:54 29.01.2022
5636 Clear 16 1032 18 10000 0.45 51 16:44 29.01.2022
5637 Clear 15 1033 18 10000 1.34 103 15:27 29.01.2022
5638 Clear 14 1034 26 10000 2.06 60 13:48 29.01.2022
5639 Clear 13 1034 27 10000 0.45 90 13:27 29.01.2022
5640 Clear 12 1034 29 10000 0.89 23 12:58 29.01.2022
5641 Clear 8 1035 35 10000 1.54 50 11:39 29.01.2022
5642 Clear 5 1034 40 10000 1.79 36 10:32 29.01.2022
5643 Clear 2 1020 47 10000 0.45 153 07:57 29.01.2022
5644 Clear 6 1018 38 10000 0.89 68 01:38 29.01.2022
5645 Clear 6 1018 36 10000 1.34 45 00:31 29.01.2022
5646 Clear 6 1018 36 10000 1.34 45 00:31 29.01.2022
5647 Clear 7 1018 34 10000 0.45 68 23:29 28.01.2022
5648 Clear 7 1014 35 10000 0.45 0 22:46 28.01.2022
5649 Clear 8 1013 36 10000 1.34 17 22:18 28.01.2022
5650 Clear 8 1009 37 10000 0.51 280 20:41 28.01.2022
5651 Clear 9 1006 31 10000 1.03 280 19:53 28.01.2022
5652 Clear 11 1030 29 10000 0.51 0 18:51 28.01.2022
5653 Clear 14 1030 21 10000 2.06 130 17:52 28.01.2022
5654 Clear 14 1030 21 10000 3.13 45 15:50 28.01.2022
5655 Clear 13 1031 25 10000 0.89 68 14:46 28.01.2022
5656 Clear 10 1032 37 10000 0.45 45 12:40 28.01.2022
5657 Clear 7 1032 43 10000 0.45 68 11:38 28.01.2022
5658 Clear 7 1032 43 10000 0.45 68 11:38 28.01.2022
5659 Clear 6 1017 47 10000 2.24 45 10:22 28.01.2022
5660 Clear 4 1019 51 10000 0.89 23 09:45 28.01.2022
5661 Clear 2 1018 53 10000 3.13 45 07:40 28.01.2022
5662 Clear 3 1016 53 10000 0.89 23 05:30 28.01.2022
5663 Clear 4 1016 52 10000 1.34 38 03:48 28.01.2022
5664 Clear 5 1015 50 10000 0.89 68 02:23 28.01.2022
5665 Clear 5 1015 50 10000 1.34 23 01:35 28.01.2022
5666 Clear 6 1015 49 10000 0.89 68 00:33 28.01.2022
5667 Clear 7 1011 48 10000 2.68 35 21:58 27.01.2022
5668 Clear 7 1028 48 10000 1.54 10 21:34 27.01.2022
5669 Clear 7 1006 49 10000 1.03 10 20:55 27.01.2022
5670 Clear 9 1010 41 10000 0.51 70 19:35 27.01.2022
5671 Clear 13 1027 30 10000 2.06 70 17:58 27.01.2022
5672 Clear 13 1028 36 10000 0.45 90 15:43 27.01.2022
5673 Clear 11 1029 49 10000 0.89 23 13:39 27.01.2022
5674 Clear 9 1030 55 10000 1.79 23 12:46 27.01.2022
5675 Clear 6 1030 65 10000 4.47 45 10:59 27.01.2022
5676 Clear 3 1015 73 10000 5.36 45 09:27 27.01.2022
5677 Clear 3 1016 73 10000 3.13 23 08:39 27.01.2022
5678 Clear 2 1016 73 10000 1.34 23 07:23 27.01.2022
5679 Clear 4 1014 67 10000 1.79 45 02:59 27.01.2022
5680 Clear 6 1015 66 10000 2.24 34 23:52 26.01.2022
5681 Clear 7 1015 66 10000 1.34 29 22:27 26.01.2022
5682 Clear 7 1014 65 10000 0.89 50 21:41 26.01.2022
5683 Clear 8 1011 66 10000 0.89 82 20:42 26.01.2022
5684 Clouds 8 1014 62 10000 0.45 68 20:23 26.01.2022
5685 Clouds 8 1015 62 10000 0.45 45 19:28 26.01.2022
5686 Clouds 10 1015 59 10000 1.34 23 18:46 26.01.2022
5687 Clear 10 1015 57 10000 1.34 70 17:52 26.01.2022
5688 Clear 10 1028 55 10000 0.45 45 17:24 26.01.2022
5689 Clouds 11 1028 54 10000 0.45 113 16:40 26.01.2022
5690 Clouds 10 1028 54 10000 1.34 113 15:50 26.01.2022
5691 Clouds 9 1029 53 10000 2.24 113 14:23 26.01.2022
5692 Clouds 7 1030 59 10000 0.45 45 11:56 26.01.2022
5693 Clear 5 1018 72 10000 0.45 90 10:45 26.01.2022
5694 Clear 3 1017 78 10000 2.68 23 09:49 26.01.2022
5695 Clear 1 1017 83 10000 3.58 23 08:32 26.01.2022
5696 Clear 2 1015 82 10000 0.89 68 06:20 26.01.2022
5697 Clear 2 1015 82 10000 0.89 68 06:20 26.01.2022
5698 Clear 5 1016 73 10000 1.79 63 00:18 26.01.2022
5699 Clear 6 1016 71 10000 1.34 65 23:28 25.01.2022
5700 Clear 6 1013 68 10000 1.34 74 22:48 25.01.2022
5701 Clear 6 1016 66 10000 0.45 113 22:18 25.01.2022
5702 Clouds 7 1016 64 10000 0.89 113 21:22 25.01.2022
5703 Clouds 7 1030 64 10000 0.89 128 20:44 25.01.2022
5704 Clouds 8 1030 64 10000 0.45 110 19:53 25.01.2022
5705 Clouds 9 1017 63 10000 1.34 113 18:46 25.01.2022
5706 Clouds 10 1017 59 10000 0.89 90 17:45 25.01.2022
5707 Clouds 10 1017 58 10000 1.79 90 16:58 25.01.2022
5708 Clouds 10 1017 59 10000 0.45 158 16:34 25.01.2022
5709 Clouds 10 1017 61 10000 0.45 180 15:39 25.01.2022
5710 Clouds 10 1017 62 10000 0.45 113 14:58 25.01.2022
5711 Clouds 10 1030 59 10000 0.45 113 13:47 25.01.2022
5712 Clouds 7 1032 67 10000 1.79 59 11:30 25.01.2022
5713 Clouds 5 1031 69 10000 1.54 60 09:21 25.01.2022
5714 Clouds 5 1030 72 10000 1.54 60 07:31 25.01.2022
5715 Clouds 5 1030 70 10000 1.54 50 06:53 25.01.2022
5716 Clouds 6 1030 69 10000 2.06 60 05:23 25.01.2022
5717 Clouds 7 1029 60 10000 1.79 83 00:20 25.01.2022
5718 Clouds 7 1029 62 10000 0.51 0 23:36 24.01.2022
5719 Clouds 7 1029 60 10000 1.54 70 23:18 24.01.2022
5720 Clouds 7 1029 60 10000 1.54 70 22:42 24.01.2022
5721 Clouds 7 1029 61 10000 0.89 50 21:57 24.01.2022
5722 Clouds 7 1029 61 10000 0.89 66 21:57 24.01.2022
5723 Clouds 8 1014 62 10000 1.34 74 21:32 24.01.2022
5724 Clouds 8 1014 61 10000 0.45 45 20:33 24.01.2022
5725 Clouds 8 1015 58 10000 3.13 45 19:58 24.01.2022
5726 Clouds 8 1015 58 10000 1.79 45 19:37 24.01.2022
5727 Clouds 8 1014 56 10000 2.24 45 18:35 24.01.2022
5728 Clouds 9 1014 55 10000 1.79 23 17:24 24.01.2022
5729 Clouds 9 1014 55 10000 0.45 23 16:55 24.01.2022
5730 Clouds 9 1014 54 10000 0.45 68 16:29 24.01.2022
5731 Clouds 8 1015 61 10000 1.34 68 14:49 24.01.2022
5732 Clouds 7 1015 70 10000 0.45 256 13:38 24.01.2022
5733 Clouds 6 1016 70 10000 0.45 23 12:32 24.01.2022
5734 Clouds 6 1015 73 10000 0.89 27 11:20 24.01.2022
5735 Clouds 4 1014 78 10000 1.79 44 09:49 24.01.2022
5736 Clouds 3 1012 81 10000 0.89 44 09:20 24.01.2022
5737 Clouds 4 1014 79 10000 0.45 90 07:20 24.01.2022
5738 Clouds 4 1014 79 10000 0.45 90 07:20 24.01.2022
5739 Clouds 6 1012 72 10000 0.89 36 01:32 24.01.2022
5740 Clouds 6 1012 72 10000 0.89 63 00:46 24.01.2022
5741 Clouds 6 1012 72 10000 0.89 85 00:27 24.01.2022
5742 Clear 6 1012 71 10000 0.45 90 22:46 23.01.2022
5743 Clear 6 1011 69 10000 1.34 67 21:50 23.01.2022
5744 Clear 6 1011 65 10000 0.89 85 21:27 23.01.2022
5745 Clouds 7 1011 65 10000 0.45 76 20:54 23.01.2022
5746 Clouds 7 1013 65 10000 0.45 97 19:55 23.01.2022
5747 Clouds 8 1012 65 10000 0.45 90 18:52 23.01.2022
5748 Clouds 9 1012 61 10000 0.89 23 17:52 23.01.2022
5749 Clouds 9 1024 60 10000 1.34 135 16:52 23.01.2022
5750 Clouds 9 1012 63 10000 1.79 113 15:18 23.01.2022
5751 Clouds 9 1026 64 10000 0.89 45 14:33 23.01.2022
5752 Clouds 8 1026 66 10000 1.34 45 13:27 23.01.2022
5753 Clouds 7 1027 68 10000 0.89 68 12:36 23.01.2022
5754 Clouds 6 1027 72 10000 1.79 23 12:18 23.01.2022
5755 Clouds 5 1028 77 10000 1.79 23 11:24 23.01.2022
5756 Clouds 4 1028 79 10000 1.79 52 10:57 23.01.2022
5757 Clouds 3 1027 82 10000 1.34 68 10:23 23.01.2022
5758 Clouds 2 1027 81 10000 0.89 45 09:25 23.01.2022
5759 Clouds 1 1012 81 10000 0.45 45 05:59 23.01.2022
5760 Clouds 1 1012 81 10000 0.45 45 05:59 23.01.2022
5761 Clear 2 1012 77 10000 0.45 45 03:20 23.01.2022
5762 Clear 3 1013 75 10000 2.24 42 01:35 23.01.2022
5763 Clear 4 1013 75 10000 1.79 30 00:42 23.01.2022
5764 Clear 4 1012 75 10000 1.34 40 23:57 22.01.2022
5765 Clear 4 1013 73 10000 0.89 87 22:48 22.01.2022
5766 Clear 5 1013 69 10000 0.89 81 21:58 22.01.2022
5767 Clear 7 1013 63 10000 0.89 46 20:26 22.01.2022
5768 Clear 7 1014 63 10000 0.45 23 19:37 22.01.2022
5769 Clear 9 1027 57 10000 0.45 45 18:37 22.01.2022
5770 Clear 9 1027 53 10000 0.45 113 17:42 22.01.2022
5771 Clear 9 1027 53 10000 0.45 45 17:18 22.01.2022
5772 Clear 10 1027 53 10000 0.89 21 16:22 22.01.2022
5773 Clear 9 1025 54 10000 0.45 90 15:44 22.01.2022
5774 Clouds 8 1025 59 10000 0.45 113 14:22 22.01.2022
5775 Clouds 8 1026 61 10000 4.92 247 13:27 22.01.2022
5776 Clouds 6 1027 62 10000 0.45 68 12:37 22.01.2022
5777 Clouds 6 1027 63 10000 0.45 68 12:18 22.01.2022
5778 Clouds 3 1029 64 10000 2.24 45 10:39 22.01.2022
5779 Clouds 2 1029 65 10000 3.13 45 10:20 22.01.2022
5780 Clear 0 1014 68 10000 0.89 45 08:55 22.01.2022
5781 Clear 0 1014 68 10000 3.58 23 08:31 22.01.2022
5782 Clear 1 1011 58 10000 0.89 45 05:20 22.01.2022
5783 Clear 2 1010 54 10000 4.47 45 02:39 22.01.2022
5784 Clear 3 1009 49 10000 4.02 68 23:50 21.01.2022
5785 Clear 4 1009 48 10000 4.02 45 22:59 21.01.2022
5786 Clear 5 1009 48 10000 3.58 23 21:18 21.01.2022
5787 Clear 6 1010 45 10000 0.45 90 19:30 21.01.2022
5788 Clear 9 1024 36 10000 0.89 113 17:50 21.01.2022
5789 Clouds 9 1024 41 10000 2.24 68 15:55 21.01.2022
5790 Clouds 8 1024 49 10000 3.58 68 14:58 21.01.2022
5791 Clear 6 1026 65 10000 0.51 0 12:43 21.01.2022
5792 Clear 4 1026 71 10000 0.45 225 11:29 21.01.2022
5793 Clear 3 1025 75 10000 0.89 113 10:33 21.01.2022
5794 Clear 1 1012 83 10000 0.89 3 08:59 21.01.2022
5795 Clear 1 1012 82 10000 0.89 8 07:58 21.01.2022
5796 Clear 4 1011 72 10000 1.79 67 01:52 21.01.2022
5797 Clear 6 1012 65 10000 0.89 45 22:51 20.01.2022
5798 Clouds 7 1011 61 10000 3.13 45 21:49 20.01.2022
5799 Clouds 7 1011 60 10000 2.24 45 21:25 20.01.2022
5800 Clouds 9 1013 53 10000 3.58 68 19:54 20.01.2022
5801 Clouds 9 1013 49 10000 4.02 68 19:18 20.01.2022
5802 Clouds 12 1025 42 10000 2.24 68 17:37 20.01.2022
5803 Clouds 13 1025 42 10000 0.45 90 16:24 20.01.2022
5804 Clouds 12 1026 43 10000 2.24 113 15:31 20.01.2022
5805 Clouds 12 1027 47 10000 2.24 90 14:20 20.01.2022
5806 Clear 10 1028 52 10000 0.89 90 12:53 20.01.2022
5807 Clear 10 1029 53 10000 2.24 45 12:29 20.01.2022
5808 Clear 6 1029 58 10000 1.34 90 11:19 20.01.2022
5809 Clear 4 1029 60 10000 1.34 90 10:18 20.01.2022
5810 Clear 2 1013 65 10000 2.24 65 08:51 20.01.2022
5811 Clear 2 1013 64 10000 2.24 42 06:57 20.01.2022
5812 Clear 5 1014 54 10000 2.68 66 00:40 20.01.2022
5813 Clear 6 1011 51 10000 0.89 41 22:39 19.01.2022
5814 Clear 6 1011 47 10000 2.06 290 21:36 19.01.2022
5815 Clear 7 1029 46 10000 0.89 270 20:58 19.01.2022
5816 Clear 7 1029 45 10000 2.57 290 20:40 19.01.2022
5817 Clear 9 1028 39 10000 1.54 250 18:59 19.01.2022
5818 Clear 12 1028 30 10000 1.54 190 17:51 19.01.2022
5819 Clear 13 1028 27 10000 0.89 202 17:18 19.01.2022
5820 Clear 13 1028 30 10000 0.89 248 15:35 19.01.2022
5821 Clear 10 1030 40 10000 0.89 110 13:26 19.01.2022
5822 Clear 8 1031 45 10000 1.34 59 12:20 19.01.2022
5823 Clear 7 1031 49 10000 0.89 87 11:38 19.01.2022
5824 Clear 3 1018 56 10000 0.89 68 09:49 19.01.2022
5825 Clear 2 1016 55 10000 0.45 45 09:22 19.01.2022
5826 Clear 2 1016 58 10000 0.89 45 05:29 19.01.2022
5827 Clear 5 1016 54 10000 1.34 45 00:22 19.01.2022
5828 Clear 5 1016 53 10000 0.45 68 23:18 18.01.2022
5829 Clear 5 1008 58 10000 1.03 290 21:50 18.01.2022
5830 Clear 5 1030 56 10000 1.03 280 20:38 18.01.2022
5831 Clear 7 1030 49 10000 1.03 280 19:51 18.01.2022
5832 Clear 7 1030 47 10000 1.03 250 19:33 18.01.2022
5833 Clear 10 1029 37 10000 0.51 240 18:23 18.01.2022
5834 Clear 12 1029 31 10000 0.51 0 17:32 18.01.2022
5835 Clear 13 1029 29 10000 0.45 338 16:22 18.01.2022
5836 Clear 12 1029 34 10000 0.89 79 15:25 18.01.2022
5837 Clear 11 1030 42 10000 0.89 98 14:23 18.01.2022
5838 Clear 6 1031 55 10000 0.45 113 11:45 18.01.2022
5839 Clear 3 1031 66 10000 0.45 90 10:30 18.01.2022
5840 Clear 1 1031 73 10000 1.79 14 08:36 18.01.2022
5841 Clear 0 1030 73 10000 1.79 29 07:45 18.01.2022
5842 Clear 3 1031 68 10000 1.79 59 01:34 18.01.2022
5843 Clear 4 1031 67 10000 1.34 15 22:47 17.01.2022
5844 Clear 5 1031 67 10000 0.89 31 21:50 17.01.2022
5845 Clear 5 1031 64 10000 1.34 44 21:29 17.01.2022
5846 Clear 7 1030 58 10000 1.34 56 19:37 17.01.2022
5847 Clear 9 1030 51 10000 0.45 57 18:27 17.01.2022
5848 Clear 11 1030 44 10000 0.89 91 17:22 17.01.2022
5849 Clear 11 1031 44 10000 0.89 98 16:22 17.01.2022
5850 Clear 10 1031 49 10000 0.45 270 14:58 17.01.2022
5851 Clear 9 1031 51 10000 0.45 90 14:32 17.01.2022
5852 Clear 8 1033 55 10000 0.89 180 13:19 17.01.2022
5853 Clear 7 1033 60 10000 0.89 107 12:27 17.01.2022
5854 Clear 6 1033 64 10000 0.89 40 11:47 17.01.2022
5855 Clear 2 1032 73 10000 1.79 56 10:21 17.01.2022
5856 Clear 0 1032 79 10000 1.79 61 08:44 17.01.2022
5857 Clear 0 1031 78 10000 1.34 23 07:22 17.01.2022
5858 Clear 2 1032 77 10000 2.24 53 02:20 17.01.2022
5859 Clear 3 1032 78 10000 1.34 62 00:43 17.01.2022
5860 Clear 5 1031 73 10000 0.89 246 21:22 16.01.2022
5861 Clear 5 1031 72 10000 0.89 235 20:28 16.01.2022
5862 Clear 7 1030 63 10000 0.89 199 18:46 16.01.2022
5863 Clear 9 1030 56 10000 1.34 198 17:51 16.01.2022
5864 Clear 10 1030 53 10000 0.45 180 16:55 16.01.2022
5865 Clear 9 1030 51 10000 0.89 202 15:43 16.01.2022
5866 Clear 8 1030 56 10000 0.89 178 14:29 16.01.2022
5867 Clear 7 1031 60 10000 1.34 214 13:33 16.01.2022
5868 Clear 5 1031 66 10000 0.45 36 12:21 16.01.2022
5869 Clear 3 1031 70 10000 1.79 72 11:29 16.01.2022
5870 Clear 2 1031 76 10000 1.34 40 10:28 16.01.2022
5871 Clear 0 1030 79 10000 1.79 33 09:58 16.01.2022
5872 Clear 0 1030 81 10000 0.89 45 09:37 16.01.2022
5873 Clear -1 1030 81 10000 1.34 45 09:19 16.01.2022
5874 Clear -1 1028 81 10000 1.79 32 06:35 16.01.2022
5875 Clear 2 1028 76 10000 1.34 37 00:35 16.01.2022
5876 Clear 3 1027 77 10000 0.89 53 22:50 15.01.2022
5877 Clear 4 1027 71 10000 0 0 21:22 15.01.2022
5878 Clear 5 1027 69 10000 0 0 20:45 15.01.2022
5879 Clear 5 1027 70 10000 0.89 253 20:22 15.01.2022
5880 Clear 5 1027 67 10000 0.89 245 19:27 15.01.2022
5881 Clear 7 1027 60 10000 1.34 190 18:18 15.01.2022
5882 Clear 9 1026 54 10000 1.79 225 16:49 15.01.2022
5883 Clear 8 1027 60 10000 1.79 248 14:38 15.01.2022
5884 Clear 5 1029 64 10000 0.45 139 12:39 15.01.2022
5885 Clear 3 1029 65 10000 0.45 0 11:21 15.01.2022
5886 Clear 0 1029 69 10000 1.79 40 09:46 15.01.2022
5887 Clear 1 1029 64 10000 0.45 23 01:58 15.01.2022
5888 Clear 3 1030 62 10000 1.79 68 23:20 14.01.2022
5889 Clear 4 1030 61 10000 0.89 32 21:18 14.01.2022
5890 Clear 4 1030 60 10000 0.45 36 20:25 14.01.2022
5891 Clear 5 1030 57 10000 0.45 23 19:50 14.01.2022
5892 Clear 7 1030 53 10000 0.45 68 18:38 14.01.2022
5893 Clear 8 1030 46 10000 0.89 112 17:21 14.01.2022
5894 Clear 8 1030 46 10000 0.89 113 16:40 14.01.2022
5895 Clear 8 1030 47 10000 0.45 113 15:30 14.01.2022
5896 Clear 8 1031 47 10000 2.24 135 14:25 14.01.2022
5897 Clear 6 1033 55 10000 1.79 113 12:47 14.01.2022
5898 Clear 5 1033 63 10000 0.89 45 11:51 14.01.2022
5899 Clear 2 1033 75 10000 1.79 47 10:24 14.01.2022
5900 Clear -1 1032 82 10000 1.34 45 08:52 14.01.2022
5901 Clear 0 1032 82 10000 1.34 50 07:30 14.01.2022
5902 Clear 2 1032 75 10000 1.34 38 02:20 14.01.2022
5903 Clear 3 1033 74 10000 0.45 45 23:40 13.01.2022
5904 Clear 5 1032 71 10000 1.34 64 21:46 13.01.2022
5905 Clear 5 1032 70 10000 1.34 59 21:27 13.01.2022
5906 Clouds 6 1032 66 10000 0.45 74 19:45 13.01.2022
5907 Clouds 6 1032 65 10000 0.89 45 19:23 13.01.2022
5908 Clouds 7 1032 61 10000 0.89 51 18:36 13.01.2022
5909 Clouds 9 1032 58 10000 1.34 77 16:48 13.01.2022
5910 Clouds 9 1031 58 10000 0.89 76 15:38 13.01.2022
5911 Clouds 9 1031 58 10000 1.79 135 15:18 13.01.2022
5912 Clouds 8 1032 63 10000 2.24 158 13:28 13.01.2022
5913 Clouds 4 1032 62 10000 0.45 45 10:39 13.01.2022
5914 Clouds 1 1032 67 10000 0.89 23 09:23 13.01.2022
5915 Clear 1 1032 67 10000 2.24 45 08:29 13.01.2022
5916 Clear 1 1032 64 10000 1.79 45 07:58 13.01.2022
5917 Clear 1 1031 64 10000 1.34 68 07:18 13.01.2022
5918 Clear 2 1031 61 10000 1.79 29 05:20 13.01.2022
5919 Clear 3 1031 55 10000 1.79 21 03:34 13.01.2022
5920 Clear 4 1030 51 10000 0.45 23 01:38 13.01.2022
5921 Clear 5 1030 50 10000 1.34 81 23:53 12.01.2022
5922 Clear 5 1029 49 10000 2.24 45 23:33 12.01.2022
5923 Clear 5 1029 54 10000 1.34 41 22:22 12.01.2022
5924 Clear 5 1029 53 10000 1.34 74 21:43 12.01.2022
5925 Clear 5 1029 55 10000 0.51 0 21:18 12.01.2022
5926 Clear 6 1029 51 10000 0.51 0 20:44 12.01.2022
5927 Clear 9 1028 39 10000 1.03 160 18:48 12.01.2022
5928 Clear 11 1027 34 10000 0.89 59 17:54 12.01.2022
5929 Clear 12 1027 32 10000 0.89 113 16:52 12.01.2022
5930 Clear 11 1028 36 10000 0.45 58 14:50 12.01.2022
5931 Clear 11 1028 35 10000 0.89 68 14:19 12.01.2022
5932 Clear 9 1028 36 10000 1.34 45 12:57 12.01.2022
5933 Clear 4 1028 83 10000 2.68 68 09:48 12.01.2022
5934 Fog 3 1027 86 10000 1.34 53 07:57 12.01.2022
5935 Fog 4 1027 86 10000 0.89 45 07:33 12.01.2022
5936 Fog 4 1027 86 10000 0.89 45 07:33 12.01.2022
5937 Clear 6 1027 77 10000 0.89 72 02:20 12.01.2022
5938 Clear 8 1026 72 10000 1.79 23 23:27 11.01.2022
5939 Clear 9 1026 69 10000 0.45 45 22:39 11.01.2022
5940 Clear 10 1026 68 10000 2.68 45 22:18 11.01.2022
5941 Clouds 11 1025 65 10000 2.68 68 20:40 11.01.2022
5942 Clouds 12 1025 62 10000 3.13 45 19:35 11.01.2022
5943 Clear 14 1024 55 10000 1.03 0 17:54 11.01.2022
5944 Clear 15 1024 51 10000 1.34 90 16:46 11.01.2022
5945 Clear 15 1024 51 10000 1.34 93 16:28 11.01.2022
5946 Clear 15 1024 53 10000 0.89 135 14:57 11.01.2022
5947 Clear 14 1025 56 10000 0.89 154 14:38 11.01.2022
5948 Clear 13 1025 60 10000 1.79 270 13:52 11.01.2022
5949 Clear 13 1025 62 10000 0.89 71 13:28 11.01.2022
5950 Clear 12 1026 68 10000 0.45 20 12:36 11.01.2022
5951 Clear 8 1025 77 10000 1.79 61 10:40 11.01.2022
5952 Clear 6 1024 84 10000 0.45 338 08:26 11.01.2022
5953 Clear 7 1023 79 10000 1.34 23 04:30 11.01.2022
5954 Clear 9 1024 71 10000 0.45 293 00:28 11.01.2022
5955 Clear 10 1023 68 10000 2.68 23 23:40 10.01.2022
5956 Clear 10 1023 69 10000 2.24 23 22:43 10.01.2022
5957 Clear 10 1023 67 10000 3.13 14 22:18 10.01.2022
5958 Clear 11 1023 67 10000 3.13 11 21:42 10.01.2022
5959 Clear 11 1023 64 10000 4.02 32 21:18 10.01.2022
5960 Clear 11 1023 65 10000 4.63 360 20:55 10.01.2022
5961 Clear 12 1022 62 10000 4.92 0 20:23 10.01.2022
5962 Clear 12 1022 60 10000 3.58 10 19:39 10.01.2022
5963 Clear 12 1022 60 10000 5.36 0 19:19 10.01.2022
5964 Clear 12 1022 60 10000 4.92 23 18:47 10.01.2022
5965 Clouds 15 1021 57 10000 0.89 45 16:51 10.01.2022
5966 Clouds 15 1021 59 10000 2.68 68 16:33 10.01.2022
5967 Clear 15 1021 61 10000 0.89 23 14:58 10.01.2022
5968 Clear 14 1022 65 10000 0.89 0 13:35 10.01.2022
5969 Clear 12 1023 75 10000 4.02 293 11:57 10.01.2022
5970 Fog 11 1023 80 10000 0.89 23 11:24 10.01.2022
5971 Fog 8 1022 87 10000 0.89 36 09:40 10.01.2022
5972 Clear 8 1020 86 10000 0.89 121 05:52 10.01.2022
5973 Clear 9 1020 83 10000 2.24 184 05:23 10.01.2022
5974 Clear 12 1021 79 10000 2.68 270 01:24 10.01.2022
5975 Clouds 12 1022 79 10000 2.24 292 00:23 10.01.2022
5976 Clouds 12 1022 80 10000 4.92 279 23:28 09.01.2022
5977 Clear 12 1022 79 10000 2.24 270 22:21 09.01.2022
5978 Clear 12 1022 78 10000 5.36 270 21:42 09.01.2022
5979 Clear 12 1022 78 10000 5.36 270 21:42 09.01.2022
5980 Clear 12 1022 77 10000 4.92 315 21:23 09.01.2022
5981 Clouds 12 1022 76 10000 1.79 248 20:49 09.01.2022
5982 Clouds 12 1022 75 10000 5.36 276 20:29 09.01.2022
5983 Clouds 12 1022 70 10000 3.58 270 19:44 09.01.2022
5984 Clouds 12 1022 70 10000 5.81 293 19:22 09.01.2022
5985 Clouds 12 1022 69 10000 8.05 270 18:49 09.01.2022
5986 Clouds 12 1022 69 10000 4.92 270 18:30 09.01.2022
5987 Clouds 12 1022 67 10000 6.71 293 17:30 09.01.2022
5988 Clouds 13 1022 64 10000 5.81 270 16:51 09.01.2022
5989 Clouds 13 1022 62 10000 8.94 270 15:56 09.01.2022
5990 Clouds 13 1022 62 10000 8.94 270 15:34 09.01.2022
5991 Clouds 13 1022 61 10000 6.26 270 14:40 09.01.2022
5992 Clouds 13 1022 62 10000 6.71 270 13:50 09.01.2022
5993 Clouds 11 1023 68 10000 6.26 293 12:44 09.01.2022
5994 Clouds 9 1023 76 10000 4.47 248 11:48 09.01.2022
5995 Clear 5 1023 82 10000 4.02 270 09:59 09.01.2022
5996 Clear 5 1023 81 10000 4.92 270 09:41 09.01.2022
5997 Clear 4 1023 80 10000 2.24 248 08:30 09.01.2022
5998 Mist 4 1024 78 10000 1.34 315 02:48 09.01.2022
5999 Clear 4 1024 72 10000 4.47 293 01:21 09.01.2022
6000 Clear 4 1024 67 10000 4.02 293 23:38 08.01.2022
6001 Clear 4 1024 71 10000 0.89 225 22:59 08.01.2022
6002 Clear 4 1025 82 10000 0.45 248 21:33 08.01.2022
6003 Clear 4 1025 83 10000 1.34 248 20:58 08.01.2022
6004 Clear 4 1025 83 10000 0.89 270 20:39 08.01.2022
6005 Clear 4 1025 83 10000 3.13 248 20:19 08.01.2022
6006 Clear 6 1026 79 10000 1.34 225 18:21 08.01.2022
6007 Clear 7 1026 74 10000 2.24 203 17:21 08.01.2022
6008 Clear 7 1026 75 10000 0.45 180 15:47 08.01.2022
6009 Clear 6 1027 74 10000 2.24 248 14:41 08.01.2022
6010 Clear 5 1029 79 10000 0.45 182 13:25 08.01.2022
6011 Clear 2 1030 85 10000 0.89 168 11:24 08.01.2022
6012 Clear 1 1029 86 10000 0.89 189 10:25 08.01.2022
6013 Clear 1 1029 88 10000 1.34 191 09:47 08.01.2022
6014 Clear 0 1029 89 10000 0 0 07:21 08.01.2022
6015 Clear 2 1030 85 10000 0.45 259 02:45 08.01.2022
6016 Clear 3 1030 81 10000 0.89 64 00:41 08.01.2022
6017 Clear 4 1030 81 10000 0.45 8 22:47 07.01.2022
6018 Clear 6 1030 69 10000 1.34 44 20:56 07.01.2022
6019 Clear 6 1030 69 10000 1.79 45 20:19 07.01.2022
6020 Clouds 7 1029 66 10000 0.89 45 19:18 07.01.2022
6021 Clouds 7 1029 64 10000 3.13 23 18:44 07.01.2022
6022 Clouds 9 1028 59 10000 4.92 68 17:26 07.01.2022
6023 Clouds 10 1028 58 10000 1.79 68 16:30 07.01.2022
6024 Clear 9 1027 63 10000 3.58 23 13:53 07.01.2022
6025 Clear 9 1027 64 10000 0.45 248 13:22 07.01.2022
6026 Clear 8 1028 67 10000 0.89 12 12:49 07.01.2022
6027 Clear 1 1026 85 10000 0.45 325 09:37 07.01.2022
6028 Clear 2 1023 78 10000 1.34 62 02:55 07.01.2022
6029 Clear 2 1023 80 10000 1.34 64 01:54 07.01.2022
6030 Clear 3 1023 75 10000 0.89 76 01:28 07.01.2022
6031 Clear 3 1023 76 10000 0.89 68 00:58 07.01.2022
6032 Clear 3 1023 78 10000 0.89 23 00:58 07.01.2022
6033 Clear 4 1022 75 10000 1.79 23 22:54 06.01.2022
6034 Clear 4 1021 79 10000 1.34 23 21:28 06.01.2022
6035 Clouds 5 1021 70 10000 0.45 180 20:21 06.01.2022
6036 Clouds 5 1021 73 10000 1.79 315 19:44 06.01.2022
6037 Clouds 7 1020 74 10000 0.89 225 17:54 06.01.2022
6038 Clouds 8 1019 67 10000 1.34 158 17:34 06.01.2022
6039 Clouds 8 1019 66 10000 0.89 270 16:42 06.01.2022
6040 Clear 8 1020 69 10000 0.45 270 15:46 06.01.2022
6041 Clear 7 1020 70 10000 1.34 207 15:25 06.01.2022
6042 Clouds 7 1020 72 10000 1.79 152 14:45 06.01.2022
6043 Clouds 7 1020 72 10000 1.34 248 14:18 06.01.2022
6044 Clouds 5 1020 78 10000 1.79 225 12:50 06.01.2022
6045 Clear 4 1020 83 10000 1.79 135 11:43 06.01.2022
6046 Clear 4 1020 84 10000 1.34 168 11:22 06.01.2022
6047 Fog 1 1019 92 3500 0.45 152 08:51 06.01.2022
6048 Clouds 4 1016 95 10000 1.79 68 00:53 06.01.2022
6049 Clouds 5 1016 93 10000 3.58 68 23:38 05.01.2022
6050 Clouds 5 1016 93 10000 1.34 68 22:57 05.01.2022
6051 Clouds 5 1015 91 10000 0.89 45 22:32 05.01.2022
6052 Mist 5 1016 91 3200 0.45 63 21:48 05.01.2022
6053 Clouds 5 1016 89 9000 0.45 331 20:57 05.01.2022
6054 Clouds 5 1016 90 10000 1.34 270 20:18 05.01.2022
6055 Rain 6 1016 86 7000 3.58 248 18:44 05.01.2022
6056 Rain 7 1016 77 10000 2.24 293 17:26 05.01.2022
6057 Rain 8 1016 61 10000 2.68 293 16:50 05.01.2022
6058 Clouds 9 1017 56 10000 3.13 293 15:26 05.01.2022
6059 Clouds 8 1019 61 10000 7.15 270 13:51 05.01.2022
6060 Clouds 8 1020 61 10000 6.26 293 13:22 05.01.2022
6061 Clouds 6 1019 73 10000 2.24 270 10:34 05.01.2022
6062 Clouds 5 1019 74 10000 2.24 225 07:47 05.01.2022
6063 Clouds 5 1019 74 10000 2.24 225 07:47 05.01.2022
6064 Clouds 5 1019 72 10000 4.47 248 06:25 05.01.2022
6065 Clear 6 1018 71 10000 4.02 315 00:58 05.01.2022
6066 Clear 7 1017 69 10000 3.58 315 23:28 04.01.2022
6067 Clear 7 1017 69 10000 3.58 315 23:28 04.01.2022
6068 Clouds 7 1016 68 10000 3.13 315 22:55 04.01.2022
6069 Clouds 7 1015 70 10000 8.05 293 21:24 04.01.2022
6070 Clouds 7 1012 76 10000 9.83 270 19:20 04.01.2022
6071 Clouds 8 1012 86 10000 7.6 248 17:52 04.01.2022
6072 Rain 10 1011 86 2300 5.36 248 16:44 04.01.2022
6073 Rain 11 1011 81 7000 2.24 270 16:24 04.01.2022
6074 Clouds 11 1013 81 10000 1.79 135 14:54 04.01.2022
6075 Clouds 11 1013 83 10000 2.24 203 14:34 04.01.2022
6076 Mist 10 1015 92 4500 1.34 225 13:27 04.01.2022
6077 Mist 7 1017 95 2700 0.45 248 10:41 04.01.2022
6078 Mist 6 1017 93 9000 0.45 293 09:47 04.01.2022
6079 Mist 6 1018 91 9000 0.89 225 08:32 04.01.2022
6080 Mist 7 1021 90 6000 0.89 206 02:32 04.01.2022
6081 Mist 8 1023 88 10000 1.34 203 00:41 04.01.2022
6082 Mist 8 1024 88 10000 1.34 200 23:26 03.01.2022
6083 Clear 8 1024 88 10000 0.89 225 21:52 03.01.2022
6084 Clear 9 1024 86 10000 1.34 203 21:33 03.01.2022
6085 Clear 10 1025 81 10000 1.79 223 20:22 03.01.2022
6086 Clear 11 1025 76 10000 2.24 208 18:54 03.01.2022
6087 Clear 12 1025 76 10000 1.34 225 18:28 03.01.2022
6088 Clear 14 1025 67 10000 1.34 180 16:58 03.01.2022
6089 Clear 14 1025 67 10000 1.34 180 15:39 03.01.2022
6090 Clear 13 1026 68 10000 2.06 150 14:31 03.01.2022
6091 Clear 13 1026 68 10000 2.06 150 14:31 03.01.2022
6092 Clear 10 1028 76 10000 1.34 158 12:48 03.01.2022
6093 Clear 9 1028 80 10000 0.51 0 11:38 03.01.2022
6094 Clear 7 1028 84 10000 0 0 10:36 03.01.2022
6095 Clear 5 1028 86 10000 0.51 0 08:48 03.01.2022
6096 Clear 5 1028 86 10000 0.51 0 07:36 03.01.2022
6097 Clear 8 1030 83 10000 1.34 17 23:56 02.01.2022
6098 Clear 8 1030 83 10000 1.34 17 23:22 02.01.2022
6099 Clear 9 1029 82 10000 0.89 45 22:55 02.01.2022
6100 Clear 8 1030 83 10000 0.89 38 21:46 02.01.2022
6101 Clear 10 1030 79 10000 0 0 20:38 02.01.2022
6102 Clear 10 1029 75 10000 0.45 95 20:18 02.01.2022
6103 Clear 11 1029 74 10000 0.89 68 19:31 02.01.2022
6104 Clear 12 1029 71 10000 1.03 100 18:47 02.01.2022
6105 Clear 13 1029 62 10000 0.89 258 17:56 02.01.2022
6106 Clear 14 1029 59 10000 2.57 120 17:37 02.01.2022
6107 Clear 15 1029 56 10000 1.34 156 17:18 02.01.2022
6108 Clear 16 1029 52 10000 0.45 147 16:26 02.01.2022
6109 Clear 14 1030 57 10000 0.89 165 14:34 02.01.2022
6110 Clear 12 1031 61 10000 0.45 82 12:54 02.01.2022
6111 Clear 11 1031 62 10000 0.89 42 12:25 02.01.2022
6112 Clear 10 1031 62 10000 1.34 85 11:33 02.01.2022
6113 Clear 9 1031 65 10000 1.79 43 10:49 02.01.2022
6114 Clear 6 1031 73 10000 0.45 45 09:45 02.01.2022
6115 Clear 6 1029 74 10000 2.24 23 05:51 02.01.2022
6116 Clear 7 1029 73 10000 2.24 73 02:19 02.01.2022
6117 Clear 9 1029 67 10000 2.24 25 23:40 01.01.2022
6118 Clear 10 1029 65 10000 2.24 26 22:58 01.01.2022
6119 Clear 9 1029 66 10000 1.79 38 22:23 01.01.2022
6120 Clear 9 1029 67 10000 1.34 29 21:44 01.01.2022
6121 Clear 10 1029 65 10000 0.51 0 20:55 01.01.2022
6122 Clear 11 1029 65 10000 0.51 0 19:58 01.01.2022
6123 Clear 11 1029 61 10000 0 0 19:26 01.01.2022
6124 Clear 14 1028 53 10000 0 0 18:20 01.01.2022
6125 Clear 17 1028 41 10000 0.51 0 16:43 01.01.2022
6126 Clear 17 1028 41 10000 0.51 0 16:20 01.01.2022
6127 Clear 17 1029 41 10000 0.45 344 15:27 01.01.2022
6128 Clear 15 1030 48 10000 0.45 113 13:59 01.01.2022
6129 Clear 14 1030 52 10000 1.34 73 12:50 01.01.2022
6130 Clear 12 1030 59 10000 0.45 90 11:58 01.01.2022
6131 Clear 10 1030 64 10000 1.34 11 11:23 01.01.2022
6132 Clear 8 1030 73 10000 0.45 68 10:40 01.01.2022
6133 Clear 6 1030 76 10000 0.89 68 09:46 01.01.2022
6134 Clear 5 1030 80 10000 1.79 45 08:26 01.01.2022
6135 Clear 5 1029 80 10000 3.13 45 07:54 01.01.2022
6136 Clear 5 1029 78 10000 1.34 23 07:34 01.01.2022
6137 Clear 6 1029 76 10000 1.79 45 06:41 01.01.2022
6138 Clear 6 1030 79 10000 1.79 45 04:38 01.01.2022
6139 Clear 7 1029 83 9000 2.24 23 02:54 01.01.2022
6140 Clear 9 1030 83 10000 3.13 45 23:44 31.12.2021
6141 Clear 9 1030 82 10000 0.89 35 21:53 31.12.2021
6142 Clear 10 1030 84 10000 1.03 320 20:41 31.12.2021
6143 Clear 11 1029 79 10000 0.45 275 19:31 31.12.2021
6144 Clear 11 1029 79 10000 0.45 277 19:31 31.12.2021
6145 Clear 11 1029 79 10000 0.45 277 19:31 31.12.2021
6146 Clear 14 1028 68 10000 0.51 150 18:44 31.12.2021
6147 Clear 16 1028 60 10000 0.89 192 17:45 31.12.2021
6148 Clear 16 1028 60 10000 0.89 192 17:19 31.12.2021
6149 Clear 16 1028 56 10000 0.89 135 16:40 31.12.2021
6150 Clear 17 1028 55 10000 0.89 180 15:57 31.12.2021
6151 Clear 16 1028 57 10000 1.34 180 15:29 31.12.2021
6152 Clear 16 1028 57 10000 0.89 135 15:29 31.12.2021
6153 Clear 16 1029 58 10000 0.89 156 14:57 31.12.2021
6154 Clear 15 1029 58 10000 0.45 50 14:31 31.12.2021
6155 Clear 14 1029 62 10000 0.89 64 13:37 31.12.2021
6156 Clear 12 1030 66 10000 0.45 90 12:49 31.12.2021
6157 Clear 11 1030 70 10000 0.45 68 11:52 31.12.2021
6158 Clear 10 1030 71 10000 0.89 90 11:33 31.12.2021
6159 Clear 8 1029 78 10000 1.79 58 10:38 31.12.2021
6160 Clear 7 1029 82 10000 0.51 0 10:20 31.12.2021
6161 Fog 5 1029 84 10000 1.79 68 09:33 31.12.2021
6162 Fog 5 1028 87 10000 1.79 23 08:47 31.12.2021
6163 Fog 5 1028 86 10000 1.79 31 07:49 31.12.2021
6164 Clear 8 1027 85 10000 1.79 68 00:47 31.12.2021
6165 Clear 10 1027 82 10000 1.79 68 22:50 30.12.2021
6166 Clear 10 1027 82 10000 2.24 38 22:26 30.12.2021
6167 Clear 10 1027 82 10000 1.34 5 21:37 30.12.2021
6168 Clear 10 1026 82 10000 1.34 15 20:49 30.12.2021
6169 Clear 10 1027 83 10000 1.34 359 20:28 30.12.2021
6170 Clear 11 1026 82 10000 0.89 41 19:48 30.12.2021
6171 Clear 11 1026 84 10000 0 0 19:24 30.12.2021
6172 Clear 14 1025 73 10000 0 0 18:21 30.12.2021
6173 Clear 16 1025 64 10000 0.45 90 16:37 30.12.2021
6174 Clear 16 1025 64 10000 0.45 86 15:53 30.12.2021
6175 Clear 15 1025 71 10000 1.34 105 14:51 30.12.2021
6176 Clear 14 1025 72 10000 0.45 45 14:31 30.12.2021
6177 Clear 13 1026 77 10000 1.79 96 13:24 30.12.2021
6178 Clear 10 1027 85 10000 1.34 71 11:45 30.12.2021
6179 Clear 7 1026 88 10000 1.79 35 10:27 30.12.2021
6180 Fog 5 1026 93 10000 1.79 68 09:27 30.12.2021
6181 Fog 5 1026 93 700 1.34 35 06:56 30.12.2021
6182 Fog 6 1026 93 6000 1.34 55 04:42 30.12.2021
6183 Mist 6 1026 92 5000 0.89 23 03:40 30.12.2021
6184 Clear 7 1026 92 10000 0.89 68 02:19 30.12.2021
6185 Clear 7 1027 91 7000 1.03 260 23:37 29.12.2021
6186 Mist 8 1027 90 3700 0.45 195 22:33 29.12.2021
6187 Mist 8 1027 91 4800 0.45 318 21:55 29.12.2021
6188 Mist 8 1027 90 5000 1.34 237 20:56 29.12.2021
6189 Clear 9 1027 89 7000 1.79 202 20:26 29.12.2021
6190 Clear 9 1026 85 10000 2.24 135 19:31 29.12.2021
6191 Clear 11 1026 83 10000 0.89 157 18:35 29.12.2021
6192 Clear 13 1026 76 10000 0.89 248 17:42 29.12.2021
6193 Clear 13 1026 75 10000 1.34 225 17:23 29.12.2021
6194 Clear 13 1026 75 10000 1.79 162 16:21 29.12.2021
6195 Clouds 13 1026 73 10000 0.89 190 15:21 29.12.2021
6196 Clouds 10 1027 82 10000 0.45 285 12:57 29.12.2021
6197 Clouds 10 1027 84 10000 0.89 90 12:32 29.12.2021
6198 Clouds 9 1028 90 10000 1.79 45 11:22 29.12.2021
6199 Clouds 8 1027 91 10000 1.34 23 09:24 29.12.2021
6200 Mist 7 1026 95 4500 1.79 90 07:30 29.12.2021
6201 Fog 7 1026 94 500 0.89 90 06:32 29.12.2021
6202 Fog 7 1026 94 150 1.34 45 05:55 29.12.2021
6203 Fog 8 1026 96 200 0.45 68 04:57 29.12.2021
6204 Clear 8 1025 94 10000 2.24 248 00:43 29.12.2021
6205 Clear 9 1025 92 10000 0.89 248 23:58 28.12.2021
6206 Clear 9 1025 90 10000 1.34 248 22:57 28.12.2021
6207 Clear 10 1025 91 10000 2.68 270 22:25 28.12.2021
6208 Clear 10 1025 91 10000 2.68 270 22:25 28.12.2021
6209 Clear 10 1025 91 10000 2.68 270 22:25 28.12.2021
6210 Clear 10 1025 89 10000 2.68 248 21:54 28.12.2021
6211 Clear 10 1025 90 10000 2.68 248 21:54 28.12.2021
6212 Clear 10 1024 90 10000 1.34 225 21:35 28.12.2021
6213 Clear 11 1025 87 10000 3.58 248 20:25 28.12.2021
6214 Clear 12 1024 83 10000 1.34 225 18:54 28.12.2021
6215 Clear 12 1024 80 10000 1.79 225 18:27 28.12.2021
6216 Clear 13 1024 75 10000 2.24 225 17:39 28.12.2021
6217 Clouds 15 1023 74 10000 4.02 248 16:21 28.12.2021
6218 Clouds 15 1023 72 10000 3.13 248 15:41 28.12.2021
6219 Clouds 14 1023 73 10000 3.58 225 14:56 28.12.2021
6220 Clouds 14 1023 73 10000 2.68 225 14:38 28.12.2021
6221 Clouds 14 1023 74 10000 2.68 225 14:38 28.12.2021
6222 Clouds 14 1023 74 10000 3.58 248 14:19 28.12.2021
6223 Clouds 14 1024 75 10000 2.68 225 13:37 28.12.2021
6224 Clouds 13 1024 77 10000 4.47 225 12:56 28.12.2021
6225 Clouds 12 1024 82 10000 4.02 225 12:21 28.12.2021
6226 Clouds 10 1023 92 10000 3.58 248 10:51 28.12.2021
6227 Clear 9 1021 91 10000 3.13 248 07:39 28.12.2021
6228 Clear 10 1021 88 10000 1.79 248 03:37 28.12.2021
6229 Clear 10 1019 87 10000 3.13 248 23:41 27.12.2021
6230 Clear 10 1019 83 10000 4.47 225 22:31 27.12.2021
6231 Clear 11 1018 81 10000 3.58 248 21:32 27.12.2021
6232 Clear 11 1018 79 10000 3.13 225 20:40 27.12.2021
6233 Clear 11 1018 77 10000 3.58 225 19:55 27.12.2021
6234 Clear 12 1018 78 10000 3.13 248 19:37 27.12.2021
6235 Clear 13 1017 72 10000 3.13 225 17:55 27.12.2021
6236 Clear 13 1017 72 10000 3.13 225 17:55 27.12.2021
6237 Clear 13 1017 73 10000 5.81 248 17:29 27.12.2021
6238 Clouds 14 1016 70 10000 8.05 248 16:32 27.12.2021
6239 Clouds 14 1016 71 10000 3.58 248 15:50 27.12.2021
6240 Clouds 14 1017 73 10000 5.81 270 14:29 27.12.2021
6241 Clouds 13 1017 78 10000 4.92 248 13:32 27.12.2021
6242 Clouds 12 1017 88 10000 4.02 225 11:34 27.12.2021
6243 Clouds 12 1015 90 10000 2.24 248 10:27 27.12.2021
6244 Clouds 11 1015 93 10000 2.24 225 09:38 27.12.2021
6245 Clouds 12 1012 96 10000 2.68 248 07:35 27.12.2021
6246 Mist 12 1012 95 4700 1.34 225 06:30 27.12.2021
6247 Mist 12 1012 95 4700 1.34 248 06:30 27.12.2021
6248 Mist 12 1012 96 2200 3.13 203 01:59 27.12.2021
6249 Clouds 11 1012 95 9000 0.45 248 23:52 26.12.2021
6250 Clouds 10 1012 97 10000 2.24 248 23:34 26.12.2021
6251 Drizzle 10 1012 96 9000 0.45 248 21:48 26.12.2021
6252 Drizzle 10 1012 96 4000 0.89 203 20:31 26.12.2021
6253 Mist 10 1012 97 4000 2.68 203 19:31 26.12.2021
6254 Drizzle 10 1011 97 6000 2.68 203 18:23 26.12.2021
6255 Rain 9 1012 94 7000 2.68 203 15:56 26.12.2021
6256 Clouds 10 1013 93 10000 3.58 203 13:52 26.12.2021
6257 Rain 10 1013 93 9000 1.34 203 13:32 26.12.2021
6258 Clouds 10 1014 94 10000 2.24 203 12:38 26.12.2021
6259 Clouds 10 1014 95 9000 0.45 270 11:58 26.12.2021
6260 Rain 9 1013 96 6000 0.45 248 09:52 26.12.2021
6261 Fog 9 1013 96 500 2.24 225 09:18 26.12.2021
6262 Fog 9 1012 94 500 3.58 248 08:40 26.12.2021
6263 Fog 9 1012 97 400 2.24 270 07:25 26.12.2021
6264 Mist 9 1009 96 1800 0.45 226 00:59 26.12.2021
6265 Fog 9 1009 96 300 0.45 54 23:53 25.12.2021
6266 Fog 9 1009 95 450 0.45 22 23:27 25.12.2021
6267 Mist 9 1009 95 2500 0.45 10 22:23 25.12.2021
6268 Mist 9 1008 95 2700 1.34 45 20:48 25.12.2021
6269 Drizzle 10 1008 95 6000 1.34 23 19:23 25.12.2021
6270 Mist 10 1007 94 2500 1.34 23 18:54 25.12.2021
6271 Mist 10 1007 94 3000 0.45 158 17:32 25.12.2021
6272 Mist 10 1006 94 3000 0.45 135 16:36 25.12.2021
6273 Mist 10 1007 94 10000 1.34 135 14:46 25.12.2021
6274 Clouds 9 1007 94 3000 0.45 135 13:30 25.12.2021
6275 Clouds 9 1008 93 8000 0.45 135 11:46 25.12.2021
6276 Mist 9 1008 95 4500 0.45 158 09:51 25.12.2021
6277 Mist 8 1008 96 4000 0.45 158 08:38 25.12.2021
6278 Clear 8 1008 94 10000 1.34 135 04:34 25.12.2021
6279 Clouds 9 1009 94 10000 4.02 203 01:23 25.12.2021
6280 Clouds 9 1009 94 7000 0.45 158 23:40 24.12.2021
6281 Clouds 11 1010 92 10000 2.24 225 19:45 24.12.2021
6282 Clouds 11 1010 92 10000 2.24 225 19:23 24.12.2021
6283 Clouds 11 1010 93 9000 0.45 158 16:53 24.12.2021
6284 Clouds 11 1010 93 10000 1.79 135 16:22 24.12.2021
6285 Clouds 11 1010 95 6000 0.45 203 15:48 24.12.2021
6286 Mist 11 1011 94 4500 1.34 180 14:47 24.12.2021
6287 Drizzle 11 1011 95 7000 0.89 158 14:26 24.12.2021
6288 Mist 11 1012 95 4000 1.79 135 13:41 24.12.2021
6289 Mist 10 1013 94 4000 0.89 135 12:49 24.12.2021
6290 Mist 10 1013 94 4000 0.45 203 12:20 24.12.2021
6291 Mist 10 1014 95 5000 1.34 226 11:29 24.12.2021
6292 Mist 10 1014 95 5000 1.79 201 10:59 24.12.2021
6293 Mist 10 1014 96 9000 2.68 201 10:31 24.12.2021
6294 Drizzle 10 1014 97 6000 1.79 200 08:28 24.12.2021
6295 Mist 10 1014 97 5000 0.89 270 07:57 24.12.2021
6296 Mist 10 1014 97 2500 1.79 200 06:18 24.12.2021
6297 Mist 10 1017 95 2500 0.89 135 00:20 24.12.2021
6298 Mist 10 1017 95 3800 1.34 135 23:33 23.12.2021
6299 Mist 10 1018 95 2200 1.34 113 22:44 23.12.2021
6300 Mist 10 1018 95 3500 1.79 113 22:21 23.12.2021
6301 Mist 10 1018 95 3600 0.45 113 21:34 23.12.2021
6302 Clouds 10 1018 92 3000 0.89 59 20:21 23.12.2021
6303 Clouds 10 1018 92 4000 0.89 45 19:27 23.12.2021
6304 Mist 11 1018 89 4500 1.34 33 17:58 23.12.2021
6305 Mist 11 1018 87 4000 0.45 112 17:18 23.12.2021
6306 Drizzle 11 1018 83 10000 0.89 158 16:26 23.12.2021
6307 Drizzle 11 1018 82 10000 1.79 135 15:32 23.12.2021
6308 Clouds 11 1019 82 10000 2.68 135 14:58 23.12.2021
6309 Clouds 11 1019 82 10000 1.34 113 14:38 23.12.2021
6310 Clouds 11 1020 82 10000 1.79 135 13:25 23.12.2021
6311 Clouds 9 1021 89 8000 0.89 135 11:20 23.12.2021
6312 Clouds 7 1021 92 9000 1.03 0 09:53 23.12.2021
6313 Clouds 7 1021 92 9000 0.45 13 09:33 23.12.2021
6314 Mist 7 1020 92 9000 0.89 113 08:25 23.12.2021
6315 Mist 7 1020 91 2200 0.89 147 05:23 23.12.2021
6316 Fog 8 1021 92 150 1.34 220 00:34 23.12.2021
6317 Mist 9 1020 92 1600 0.51 0 22:50 22.12.2021
6318 Clouds 10 1020 90 9000 0.89 270 21:59 22.12.2021
6319 Clear 10 1020 90 10000 0.89 293 21:30 22.12.2021
6320 Clouds 10 1020 88 10000 1.34 254 20:58 22.12.2021
6321 Clouds 11 1020 87 10000 1.34 254 20:40 22.12.2021
6322 Clouds 11 1020 83 10000 1.34 211 19:42 22.12.2021
6323 Clouds 13 1019 78 10000 2.68 203 18:25 22.12.2021
6324 Clouds 13 1019 75 10000 1.79 203 17:38 22.12.2021
6325 Clouds 13 1019 76 10000 2.68 180 15:50 22.12.2021
6326 Clouds 13 1020 83 10000 2.24 135 14:23 22.12.2021
6327 Clouds 12 1021 81 10000 2.24 135 12:53 22.12.2021
6328 Clouds 11 1021 83 9000 3.13 135 11:39 22.12.2021
6329 Clouds 9 1021 91 8000 0.45 158 09:52 22.12.2021
6330 Clouds 9 1020 91 8000 1.34 54 07:56 22.12.2021
6331 Mist 8 1020 92 4100 0.89 113 05:51 22.12.2021
6332 Mist 8 1020 92 7000 1.34 113 05:33 22.12.2021
6333 Mist 8 1020 93 4400 0.45 90 04:57 22.12.2021
6334 Clouds 8 1020 92 8000 0.45 90 04:37 22.12.2021
6335 Clouds 8 1020 89 8000 2.24 45 03:37 22.12.2021
6336 Clouds 8 1020 90 7000 1.79 68 03:18 22.12.2021
6337 Clouds 9 1021 89 8000 1.34 25 23:48 21.12.2021
6338 Mist 9 1021 88 8000 0.89 39 22:41 21.12.2021
6339 Mist 9 1021 87 7000 0.45 12 21:56 21.12.2021
6340 Mist 9 1021 87 8000 0.89 17 21:32 21.12.2021
6341 Clear 10 1020 84 10000 0.89 1 20:24 21.12.2021
6342 Clear 10 1020 83 10000 0.89 56 19:55 21.12.2021
6343 Clouds 10 1020 83 10000 0.89 65 19:33 21.12.2021
6344 Clouds 11 1020 80 10000 0.45 84 18:23 21.12.2021
6345 Clouds 11 1020 79 10000 0.89 86 17:53 21.12.2021
6346 Clouds 12 1020 77 10000 0.45 63 16:47 21.12.2021
6347 Clouds 12 1020 75 10000 0.89 80 15:34 21.12.2021
6348 Clouds 11 1021 78 10000 0.45 141 14:20 21.12.2021
6349 Clouds 11 1022 78 10000 0.89 199 13:41 21.12.2021
6350 Clouds 11 1022 81 10000 0.45 90 12:25 21.12.2021
6351 Clouds 8 1022 87 10000 0.45 68 10:38 21.12.2021
6352 Mist 8 1022 89 9000 0.45 68 09:42 21.12.2021
6353 Mist 7 1021 89 9000 1.34 18 08:55 21.12.2021
6354 Fog 7 1021 89 10000 0.89 36 07:42 21.12.2021
6355 Mist 7 1021 88 10000 0.45 55 07:19 21.12.2021
6356 Clouds 8 1021 90 10000 0.89 46 03:24 21.12.2021
6357 Drizzle 8 1021 86 10000 0.89 23 01:20 21.12.2021
6358 Clouds 8 1021 87 10000 0.45 68 23:54 20.12.2021
6359 Clouds 8 1021 85 10000 0.89 45 22:35 20.12.2021
6360 Clouds 8 1021 87 10000 1.34 44 21:51 20.12.2021
6361 Clouds 8 1022 85 10000 0.89 36 21:24 20.12.2021
6362 Clouds 8 1022 85 10000 1.34 17 20:51 20.12.2021
6363 Drizzle 8 1022 83 10000 1.34 27 20:19 20.12.2021
6364 Clouds 9 1022 82 10000 0.89 30 19:36 20.12.2021
6365 Clouds 9 1022 80 10000 0.45 6 19:18 20.12.2021
6366 Clear 9 1022 79 10000 0.45 225 18:30 20.12.2021
6367 Clouds 10 1021 78 10000 0.45 357 17:49 20.12.2021
6368 Clouds 10 1021 78 10000 0.45 357 17:49 20.12.2021
6369 Clear 10 1021 73 10000 1.34 89 16:46 20.12.2021
6370 Clear 10 1022 71 10000 0.45 0 15:57 20.12.2021
6371 Clear 10 1022 72 10000 0.45 90 15:31 20.12.2021
6372 Clouds 9 1023 78 10000 1.34 83 13:31 20.12.2021
6373 Clouds 7 1024 82 10000 1.34 52 12:30 20.12.2021
6374 Clear 5 1023 86 10000 1.79 68 10:36 20.12.2021
6375 Clear 4 1023 88 10000 1.34 23 09:39 20.12.2021
6376 Clear 4 1023 87 10000 1.34 59 08:49 20.12.2021
6377 Clear 4 1023 88 10000 1.34 53 08:31 20.12.2021
6378 Clear 3 1022 91 10000 0.89 50 07:32 20.12.2021
6379 Clear 3 1022 90 10000 1.79 75 06:32 20.12.2021
6380 Clear 6 1023 81 10000 0.89 64 00:20 20.12.2021
6381 Clear 6 1023 82 10000 0.45 20 22:56 19.12.2021
6382 Clear 7 1023 82 10000 0.45 34 22:24 19.12.2021
6383 Clear 8 1023 80 10000 0.89 74 21:32 19.12.2021
6384 Clear 8 1023 77 10000 0.89 70 20:36 19.12.2021
6385 Clear 8 1023 76 10000 0.89 68 19:53 19.12.2021
6386 Clear 8 1023 76 10000 1.79 68 19:34 19.12.2021
6387 Clouds 10 1023 71 10000 0.45 45 18:35 19.12.2021
6388 Clouds 10 1023 70 10000 0.89 23 17:53 19.12.2021
6389 Clouds 11 1023 67 10000 2.68 45 17:28 19.12.2021
6390 Clouds 11 1023 66 10000 2.24 23 16:27 19.12.2021
6391 Clouds 11 1023 65 10000 0.89 90 15:51 19.12.2021
6392 Clouds 11 1024 66 10000 2.24 45 15:23 19.12.2021
6393 Clouds 11 1024 67 10000 0.45 90 14:45 19.12.2021
6394 Clouds 10 1025 73 10000 0.89 45 13:26 19.12.2021
6395 Clouds 10 1026 73 10000 0.89 113 12:50 19.12.2021
6396 Clouds 10 1026 73 10000 0.45 113 12:28 19.12.2021
6397 Clouds 9 1027 77 10000 1.79 32 11:33 19.12.2021
6398 Clouds 8 1027 77 10000 1.34 90 10:47 19.12.2021
6399 Clouds 8 1027 77 10000 0.45 68 10:21 19.12.2021
6400 Clouds 8 1027 78 10000 0.89 45 08:46 19.12.2021
6401 Clouds 8 1027 78 10000 2.24 90 05:37 19.12.2021
6402 Clouds 8 1028 72 10000 0.89 47 01:39 19.12.2021
6403 Clouds 8 1028 70 10000 1.79 68 00:53 19.12.2021
6404 Clear 9 1028 68 10000 1.34 45 22:50 18.12.2021
6405 Clouds 9 1028 67 10000 1.34 45 22:24 18.12.2021
6406 Clear 9 1028 67 10000 1.79 45 21:41 18.12.2021
6407 Clear 9 1028 67 10000 2.68 68 21:22 18.12.2021
6408 Clouds 9 1028 66 10000 0.89 45 20:25 18.12.2021
6409 Clouds 9 1028 64 10000 1.34 68 19:27 18.12.2021
6410 Clouds 10 1027 63 10000 0.89 90 18:23 18.12.2021
6411 Clouds 10 1027 62 10000 1.79 68 17:49 18.12.2021
6412 Clouds 10 1027 61 10000 0.89 90 16:27 18.12.2021
6413 Clouds 10 1027 61 10000 3.13 90 15:48 18.12.2021
6414 Clouds 10 1027 62 10000 0.89 45 14:51 18.12.2021
6415 Clear 9 1028 66 10000 0.89 113 13:29 18.12.2021
6416 Clear 7 1029 72 10000 1.34 23 11:47 18.12.2021
6417 Clear 4 1028 77 10000 0.45 45 09:52 18.12.2021
6418 Clear 3 1028 78 10000 2.24 59 09:30 18.12.2021
6419 Clear 2 1028 80 10000 2.68 45 08:35 18.12.2021
6420 Clear 4 1027 78 10000 0.89 38 06:27 18.12.2021
6421 Clear 6 1027 75 10000 0.89 158 00:34 18.12.2021
6422 Clear 6 1027 74 10000 1.34 158 23:46 17.12.2021
6423 Clear 7 1027 69 10000 0.51 0 22:18 17.12.2021
6424 Clear 7 1027 70 10000 0.89 113 21:23 17.12.2021
6425 Clear 7 1027 70 10000 0.89 113 20:42 17.12.2021
6426 Clear 8 1027 68 10000 0.89 158 19:50 17.12.2021
6427 Clear 9 1026 62 10000 0.89 173 18:39 17.12.2021
6428 Clear 11 1026 54 10000 0.45 135 17:46 17.12.2021
6429 Clear 12 1026 50 10000 2.24 90 16:50 17.12.2021
6430 Clear 12 1026 50 10000 2.24 113 16:26 17.12.2021
6431 Clear 12 1027 45 10000 1.34 135 15:25 17.12.2021
6432 Clear 12 1027 44 10000 2.24 113 14:41 17.12.2021
6433 Clear 10 1028 50 10000 1.34 23 13:30 17.12.2021
6434 Clear 8 1028 54 10000 0.89 23 12:21 17.12.2021
6435 Clear 5 1028 73 10000 0.51 0 10:39 17.12.2021
6436 Clear 2 1028 81 10000 0 0 09:44 17.12.2021
6437 Clear 2 1027 77 10000 0 0 08:31 17.12.2021
6438 Clear 3 1028 76 10000 0.89 113 07:18 17.12.2021
6439 Clear 4 1028 77 10000 0.45 90 04:40 17.12.2021
6440 Clear 6 1028 76 10000 0.45 90 23:58 16.12.2021
6441 Clear 7 1028 72 10000 2.24 113 22:24 16.12.2021
6442 Clear 7 1028 72 10000 2.24 113 22:24 16.12.2021
6443 Clear 7 1028 71 10000 3.13 135 22:23 16.12.2021
6444 Clear 7 1028 72 10000 2.24 113 22:23 16.12.2021
6445 Clear 7 1028 69 10000 1.79 149 21:45 16.12.2021
6446 Clear 7 1027 67 10000 0.45 168 20:57 16.12.2021
6447 Clear 8 1027 63 10000 0.89 158 20:27 16.12.2021
6448 Clear 9 1027 60 10000 0.45 135 19:35 16.12.2021
6449 Clear 10 1027 55 10000 0.89 135 18:37 16.12.2021
6450 Clear 12 1026 50 10000 0.45 113 17:49 16.12.2021
6451 Clear 12 1026 49 10000 0.45 90 17:19 16.12.2021
6452 Clear 12 1026 51 10000 1.34 68 16:20 16.12.2021
6453 Clear 12 1027 54 10000 0.45 45 14:50 16.12.2021
6454 Clear 10 1028 64 10000 1.34 158 12:48 16.12.2021
6455 Clear 7 1029 64 10000 2.68 180 11:19 16.12.2021
6456 Clear 6 1028 65 10000 0.45 135 10:46 16.12.2021
6457 Clear 4 1028 70 10000 0.89 135 09:59 16.12.2021
6458 Clear 4 1027 66 10000 0.89 61 07:21 16.12.2021
6459 Clear 4 1026 63 10000 1.34 45 06:19 16.12.2021
6460 Clear 7 1026 57 10000 1.79 29 00:53 16.12.2021
6461 Clear 8 1026 55 10000 1.34 22 23:22 15.12.2021
6462 Clear 9 1026 52 10000 0.45 180 22:29 15.12.2021
6463 Clear 9 1025 50 10000 1.79 223 21:52 15.12.2021
6464 Clear 9 1025 50 10000 1.34 225 21:26 15.12.2021
6465 Clear 10 1025 47 10000 0 0 19:55 15.12.2021
6466 Clear 11 1025 46 10000 0 0 19:35 15.12.2021
6467 Clear 12 1025 43 10000 0 0 18:36 15.12.2021
6468 Clear 14 1024 36 10000 1.03 110 17:49 15.12.2021
6469 Clear 15 1024 33 10000 0 0 17:27 15.12.2021
6470 Clear 17 1024 28 10000 0.89 39 16:26 15.12.2021
6471 Clear 17 1024 28 10000 1.03 0 15:45 15.12.2021
6472 Clear 17 1024 29 10000 1.03 0 15:27 15.12.2021
6473 Clear 15 1025 36 10000 0.45 68 13:59 15.12.2021
6474 Clear 13 1026 45 10000 0.89 45 12:24 15.12.2021
6475 Clear 8 1026 54 10000 1.79 23 10:24 15.12.2021
6476 Clear 6 1026 58 10000 2.68 23 08:48 15.12.2021
6477 Clear 6 1026 62 10000 2.24 45 06:45 15.12.2021
6478 Clear 7 1025 67 10000 2.24 45 00:52 15.12.2021
6479 Clear 8 1025 62 10000 0.45 90 23:41 14.12.2021
6480 Clear 9 1025 62 10000 1.34 45 22:48 14.12.2021
6481 Clear 9 1025 65 10000 2.24 28 22:18 14.12.2021
6482 Clear 10 1025 61 10000 0.51 350 20:27 14.12.2021
6483 Clear 11 1025 57 10000 0.51 0 19:40 14.12.2021
6484 Clear 13 1025 53 10000 0.51 0 18:44 14.12.2021
6485 Clear 14 1025 47 10000 0.51 0 17:58 14.12.2021
6486 Clear 16 1025 42 10000 1.03 0 17:28 14.12.2021
6487 Clear 16 1025 40 10000 1.54 40 16:38 14.12.2021
6488 Clear 16 1025 43 10000 0.45 90 15:26 14.12.2021
6489 Clear 14 1026 55 10000 0.89 45 13:31 14.12.2021
6490 Clear 11 1027 62 10000 0.89 90 11:58 14.12.2021
6491 Clear 9 1027 65 10000 0.89 23 11:23 14.12.2021
6492 Clear 6 1027 73 10000 1.79 45 09:57 14.12.2021
6493 Clear 5 1027 77 10000 2.68 45 09:35 14.12.2021
6494 Clear 4 1026 79 10000 0.89 45 08:25 14.12.2021
6495 Clear 4 1026 78 10000 3.13 45 07:43 14.12.2021
6496 Clear 6 1026 78 10000 2.68 45 02:27 14.12.2021
6497 Clear 7 1025 82 10000 0.89 45 22:55 13.12.2021
6498 Clear 8 1025 82 10000 0.45 248 21:52 13.12.2021
6499 Clear 8 1025 79 10000 0 0 20:59 13.12.2021
6500 Clear 9 1025 78 10000 0.45 357 20:38 13.12.2021
6501 Clear 9 1025 81 10000 0 0 19:52 13.12.2021
6502 Clear 12 1025 66 10000 1.03 160 17:56 13.12.2021
6503 Clear 14 1024 60 10000 0.45 68 17:26 13.12.2021
6504 Clear 14 1024 60 10000 0.89 113 15:51 13.12.2021
6505 Clear 14 1024 60 10000 0.89 90 15:20 13.12.2021
6506 Clear 11 1025 70 10000 1.34 43 13:39 13.12.2021
6507 Clear 10 1026 73 10000 0.89 113 12:46 13.12.2021
6508 Clear 10 1026 74 10000 1.79 55 12:46 13.12.2021
6509 Clear 9 1027 77 10000 0.45 90 11:54 13.12.2021
6510 Clear 8 1027 79 10000 1.79 32 11:35 13.12.2021
6511 Clear 7 1027 80 10000 0.45 45 10:44 13.12.2021
6512 Clear 4 1026 85 10000 2.24 26 09:29 13.12.2021
6513 Clear 3 1026 87 10000 0.45 90 07:46 13.12.2021
6514 Clear 4 1025 84 10000 1.34 68 05:35 13.12.2021
6515 Clear 5 1026 85 10000 1.34 37 03:26 13.12.2021
6516 Clear 7 1026 84 10000 1.34 29 22:23 12.12.2021
6517 Clear 8 1026 81 10000 0.45 90 21:38 12.12.2021
6518 Clear 9 1026 79 10000 0.45 184 19:57 12.12.2021
6519 Clear 11 1025 74 10000 0.45 225 18:36 12.12.2021
6520 Clear 11 1025 74 10000 0.45 225 18:36 12.12.2021
6521 Clear 13 1025 65 10000 0.45 176 17:31 12.12.2021
6522 Clear 14 1025 62 10000 0.45 225 16:27 12.12.2021
6523 Clear 14 1025 64 10000 0.89 203 15:45 12.12.2021
6524 Clear 14 1025 64 10000 0.45 188 15:25 12.12.2021
6525 Clear 13 1026 66 10000 0.89 168 14:34 12.12.2021
6526 Clear 12 1027 71 10000 0.45 135 13:26 12.12.2021
6527 Clear 10 1027 77 10000 1.34 83 12:30 12.12.2021
6528 Clear 9 1028 81 10000 0.89 90 11:44 12.12.2021
6529 Clear 8 1028 83 10000 0.89 23 11:20 12.12.2021
6530 Fog 6 1027 87 10000 1.34 90 10:22 12.12.2021
6531 Fog 5 1027 89 10000 0.89 62 08:58 12.12.2021
6532 Fog 4 1027 95 10000 0.89 79 07:57 12.12.2021
6533 Fog 6 1026 88 10000 0.45 26 05:57 12.12.2021
6534 Clear 6 1026 87 10000 0.89 45 04:56 12.12.2021
6535 Clear 8 1026 85 10000 0.45 2 03:31 12.12.2021
6536 Clear 10 1026 82 10000 1.79 65 23:44 11.12.2021
6537 Clear 11 1026 78 10000 1.79 77 22:22 11.12.2021
6538 Clear 11 1026 74 10000 2.24 38 21:51 11.12.2021
6539 Clear 12 1025 73 10000 1.79 64 20:51 11.12.2021
6540 Clear 13 1025 66 10000 2.06 300 19:27 11.12.2021
6541 Clear 13 1025 64 10000 3.09 290 18:52 11.12.2021
6542 Clear 15 1024 60 10000 2.57 270 18:21 11.12.2021
6543 Clear 16 1024 54 10000 2.57 280 17:21 11.12.2021
6544 Clouds 16 1024 54 10000 3.09 280 15:53 11.12.2021
6545 Clear 16 1023 54 10000 3.09 310 15:28 11.12.2021
6546 Clear 14 1024 60 10000 0.45 203 12:57 11.12.2021
6547 Clear 12 1025 64 10000 1.34 137 11:25 11.12.2021
6548 Clear 8 1023 73 10000 0.89 179 09:46 11.12.2021
6549 Clear 7 1022 74 10000 0.89 158 08:23 11.12.2021
6550 Clear 10 1021 59 10000 3.13 315 02:29 11.12.2021
6551 Clear 10 1021 58 10000 6.26 315 00:36 11.12.2021
6552 Clear 11 1020 58 10000 6.71 315 23:21 10.12.2021
6553 Clear 11 1020 58 10000 7.15 315 21:56 10.12.2021
6554 Clear 12 1019 56 10000 7.15 315 21:28 10.12.2021
6555 Clouds 13 1019 56 10000 5.81 315 19:21 10.12.2021
6556 Clouds 14 1018 56 10000 6.26 270 18:21 10.12.2021
6557 Clouds 15 1018 53 10000 5.36 270 16:56 10.12.2021
6558 Clouds 15 1017 55 10000 6.26 248 16:28 10.12.2021
6559 Clouds 16 1017 55 10000 4.92 248 15:41 10.12.2021
6560 Clouds 15 1018 58 10000 2.24 225 15:21 10.12.2021
6561 Clouds 15 1019 61 10000 4.92 225 13:52 10.12.2021
6562 Clouds 14 1019 64 10000 2.68 158 13:26 10.12.2021
6563 Clouds 14 1019 68 10000 3.13 180 12:39 10.12.2021
6564 Clouds 12 1019 72 10000 2.24 225 11:29 10.12.2021
6565 Clouds 11 1019 73 10000 2.68 180 10:37 10.12.2021
6566 Clouds 9 1018 83 10000 4.47 203 08:57 10.12.2021
6567 Clear 8 1017 82 10000 5.81 248 06:56 10.12.2021
6568 Clear 9 1019 73 10000 8.05 248 02:48 10.12.2021
6569 Clear 10 1020 67 10000 4.92 293 00:38 10.12.2021
6570 Clear 10 1020 67 10000 6.26 270 23:23 09.12.2021
6571 Clear 10 1020 66 10000 5.36 270 22:28 09.12.2021
6572 Clear 10 1020 68 10000 3.13 270 21:59 09.12.2021
6573 Clear 11 1020 66 10000 3.58 225 21:19 09.12.2021
6574 Clouds 11 1020 66 10000 11.18 293 20:28 09.12.2021
6575 Clouds 11 1020 66 10000 6.71 248 19:22 09.12.2021
6576 Clouds 12 1020 68 10000 4.02 248 18:49 09.12.2021
6577 Clouds 12 1020 68 10000 6.26 203 17:57 09.12.2021
6578 Clouds 12 1020 69 10000 3.58 225 17:27 09.12.2021
6579 Clouds 12 1020 69 10000 3.13 248 16:56 09.12.2021
6580 Clouds 12 1019 68 10000 4.92 270 15:57 09.12.2021
6581 Clouds 12 1019 68 10000 7.15 270 14:50 09.12.2021
6582 Clouds 10 1020 74 10000 2.24 180 13:25 09.12.2021
6583 Clouds 10 1020 75 10000 3.13 180 12:47 09.12.2021
6584 Clouds 8 1021 76 10000 4.47 203 11:24 09.12.2021
6585 Clouds 6 1021 75 10000 3.13 270 09:44 09.12.2021
6586 Clear 6 1019 66 10000 2.24 203 06:51 09.12.2021
6587 Clear 6 1019 63 10000 6.71 270 03:46 09.12.2021
6588 Clouds 6 1019 63 10000 4.02 270 23:46 08.12.2021
6589 Clouds 6 1019 62 10000 4.92 293 23:26 08.12.2021
6590 Clouds 6 1018 60 10000 4.92 270 22:50 08.12.2021
6591 Clear 6 1003 63 10000 2.68 293 21:46 08.12.2021
6592 Clouds 6 1003 64 10000 4.47 293 21:28 08.12.2021
6593 Clouds 6 1002 67 10000 3.58 293 20:19 08.12.2021
6594 Clouds 6 1004 73 10000 5.36 293 19:39 08.12.2021
6595 Clouds 6 1016 76 10000 4.92 270 18:53 08.12.2021
6596 Clouds 6 1016 76 10000 3.58 270 18:53 08.12.2021
6597 Clouds 6 1016 73 10000 4.47 270 17:52 08.12.2021
6598 Clouds 7 1015 58 10000 6.26 270 15:59 08.12.2021
6599 Clouds 8 1014 53 10000 4.92 248 15:31 08.12.2021
6600 Clouds 8 1015 52 10000 8.49 293 14:52 08.12.2021
6601 Clouds 8 1015 50 10000 4.47 293 12:39 08.12.2021
6602 Clouds 7 1002 59 10000 7.15 248 10:36 08.12.2021
6603 Clouds 7 1014 64 10000 4.92 293 09:31 08.12.2021
6604 Clouds 7 1013 68 10000 6.71 293 07:37 08.12.2021
6605 Clouds 8 997 62 10000 5.36 248 04:58 08.12.2021
6606 Clouds 10 1012 92 8000 4.47 203 23:56 07.12.2021
6607 Clouds 11 998 89 10000 5.36 248 22:37 07.12.2021
6608 Clouds 10 999 91 10000 5.36 225 21:24 07.12.2021
6609 Drizzle 10 1014 91 10000 3.58 225 20:25 07.12.2021
6610 Clouds 11 1015 88 10000 2.68 203 18:57 07.12.2021
6611 Clouds 10 1014 89 10000 2.24 203 18:19 07.12.2021
6612 Clouds 10 1015 93 10000 3.13 225 17:20 07.12.2021
6613 Clouds 9 1003 94 10000 4.02 248 16:37 07.12.2021
6614 Mist 9 1004 96 2000 1.79 225 15:37 07.12.2021
6615 Mist 9 1005 95 2000 1.34 225 14:37 07.12.2021
6616 Fog 8 1007 94 800 1.34 225 13:29 07.12.2021
6617 Fog 7 1021 93 300 3.13 196 12:21 07.12.2021
6618 Fog 6 1022 92 300 0.89 149 10:45 07.12.2021
6619 Fog 4 1010 93 500 1.34 226 09:19 07.12.2021
6620 Clear 5 1023 89 10000 1.34 78 06:39 07.12.2021
6621 Clear 5 1023 88 10000 1.34 51 05:47 07.12.2021
6622 Clear 7 1024 85 10000 1.79 213 01:43 07.12.2021
6623 Clear 9 1024 82 10000 1.79 173 23:21 06.12.2021
6624 Clear 9 1024 77 10000 1.79 248 22:40 06.12.2021
6625 Clear 9 1010 75 10000 2.24 248 21:59 06.12.2021
6626 Clear 10 1010 74 10000 3.13 270 21:21 06.12.2021
6627 Clear 11 1010 70 10000 3.13 293 20:32 06.12.2021
6628 Clouds 11 1011 65 10000 0.45 225 19:24 06.12.2021
6629 Clouds 11 1024 61 10000 3.58 293 18:31 06.12.2021
6630 Clear 12 1024 60 10000 3.13 293 17:53 06.12.2021
6631 Clear 13 1024 57 10000 4.02 293 17:30 06.12.2021
6632 Clear 13 1024 51 10000 5.36 270 15:51 06.12.2021
6633 Clear 12 1012 52 10000 6.26 293 13:53 06.12.2021
6634 Clear 11 1025 56 10000 3.58 293 12:40 06.12.2021
6635 Clear 10 1026 59 10000 3.58 315 11:55 06.12.2021
6636 Clear 6 1024 72 10000 4.02 270 09:44 06.12.2021
6637 Clear 6 1011 76 10000 1.34 270 07:18 06.12.2021
6638 Clouds 8 1023 62 10000 2.68 293 00:38 06.12.2021
6639 Clear 9 1022 59 10000 4.02 315 22:20 05.12.2021
6640 Clouds 9 1021 58 10000 4.92 293 21:25 05.12.2021
6641 Clouds 10 1006 60 10000 4.92 270 20:20 05.12.2021
6642 Clouds 10 1008 59 10000 6.71 293 19:58 05.12.2021
6643 Clouds 10 1008 58 10000 3.58 270 19:23 05.12.2021
6644 Clouds 10 1007 54 10000 5.81 270 18:26 05.12.2021
6645 Clouds 10 1007 52 10000 4.92 293 17:49 05.12.2021
6646 Clouds 11 1019 50 10000 6.71 270 16:58 05.12.2021
6647 Clouds 11 1019 49 10000 6.26 293 16:28 05.12.2021
6648 Clouds 11 1019 50 10000 4.92 293 15:59 05.12.2021
6649 Clouds 11 1020 49 10000 6.71 270 14:48 05.12.2021
6650 Clouds 11 1020 49 10000 6.71 315 14:29 05.12.2021
6651 Clouds 11 1020 51 10000 6.26 315 13:32 05.12.2021
6652 Clouds 10 1020 53 10000 9.39 315 12:41 05.12.2021
6653 Clouds 10 1020 52 10000 5.81 270 12:23 05.12.2021
6654 Clouds 9 1021 56 10000 6.26 315 11:41 05.12.2021
6655 Clear 7 1021 60 10000 0.89 203 10:21 05.12.2021
6656 Clear 6 1020 65 10000 0.45 248 09:26 05.12.2021
6657 Clouds 7 1020 64 10000 4.47 293 04:57 05.12.2021